<?xml version="1.0" encoding="UTF-8" standalone="no" ?>
<gpx xmlns="http://www.topografix.com/GPX/1/1" xmlns:xsi="http://www.w3.org/2001/XMLSchema-instance" xsi:schemaLocation="http://www.topografix.com/GPX/1/1 http://www.topografix.com/GPX/1/1/gpx.xsd" version="1.1" creator="VisuGPX - https://www.visugpx.com">
  <metadata>
    <name>Grenoble Trail - Les 2 Rachais [Variante]</name>
  </metadata>
  <trk>
    <name><![CDATA[Grenoble Trail]]></name>
    <trkseg>
      <trkpt lat="45.19652" lon="5.73956">
        <ele>242.80000305176</ele>
        <time>2021-05-22T03:22:45.000Z</time>
      </trkpt>
      <trkpt lat="45.19652" lon="5.73956">
        <ele>242.80000305176</ele>
        <time>2021-05-22T03:22:46.000Z</time>
      </trkpt>
      <trkpt lat="45.19648" lon="5.7396">
        <ele>243</ele>
        <time>2021-05-22T03:22:50.000Z</time>
      </trkpt>
      <trkpt lat="45.19647" lon="5.73966">
        <ele>243.19999694824</ele>
        <time>2021-05-22T03:22:54.000Z</time>
      </trkpt>
      <trkpt lat="45.1964" lon="5.73968">
        <ele>243.19999694824</ele>
        <time>2021-05-22T03:23:00.000Z</time>
      </trkpt>
      <trkpt lat="45.19638" lon="5.73967">
        <ele>243.19999694824</ele>
        <time>2021-05-22T03:23:03.000Z</time>
      </trkpt>
      <trkpt lat="45.19639" lon="5.73969">
        <ele>243.19999694824</ele>
        <time>2021-05-22T03:23:06.000Z</time>
      </trkpt>
      <trkpt lat="45.19639" lon="5.7397">
        <ele>243.19999694824</ele>
        <time>2021-05-22T03:23:07.000Z</time>
      </trkpt>
      <trkpt lat="45.19637" lon="5.73978">
        <ele>243</ele>
        <time>2021-05-22T03:23:10.000Z</time>
      </trkpt>
      <trkpt lat="45.19637" lon="5.73978">
        <ele>242.80000305176</ele>
        <time>2021-05-22T03:23:11.000Z</time>
      </trkpt>
      <trkpt lat="45.19636" lon="5.73978">
        <ele>242</ele>
        <time>2021-05-22T03:23:13.000Z</time>
      </trkpt>
      <trkpt lat="45.19636" lon="5.73978">
        <ele>241.60000610352</ele>
        <time>2021-05-22T03:23:14.000Z</time>
      </trkpt>
      <trkpt lat="45.19635" lon="5.73977">
        <ele>241</ele>
        <time>2021-05-22T03:23:16.000Z</time>
      </trkpt>
      <trkpt lat="45.19632" lon="5.73976">
        <ele>240.19999694824</ele>
        <time>2021-05-22T03:23:21.000Z</time>
      </trkpt>
      <trkpt lat="45.19633" lon="5.73977">
        <ele>239.39999389648</ele>
        <time>2021-05-22T03:23:25.000Z</time>
      </trkpt>
      <trkpt lat="45.19632" lon="5.73977">
        <ele>238.60000610352</ele>
        <time>2021-05-22T03:23:27.000Z</time>
      </trkpt>
      <trkpt lat="45.19639" lon="5.73956">
        <ele>236.19999694824</ele>
        <time>2021-05-22T03:23:36.000Z</time>
      </trkpt>
      <trkpt lat="45.19644" lon="5.73962">
        <ele>235.60000610352</ele>
        <time>2021-05-22T03:23:38.000Z</time>
      </trkpt>
      <trkpt lat="45.19646" lon="5.73959">
        <ele>235.19999694824</ele>
        <time>2021-05-22T03:23:39.000Z</time>
      </trkpt>
      <trkpt lat="45.19641" lon="5.73956">
        <ele>235.19999694824</ele>
        <time>2021-05-22T03:23:40.000Z</time>
      </trkpt>
      <trkpt lat="45.19648" lon="5.73954">
        <ele>234.80000305176</ele>
        <time>2021-05-22T03:23:52.000Z</time>
      </trkpt>
      <trkpt lat="45.19647" lon="5.73956">
        <ele>234.80000305176</ele>
        <time>2021-05-22T03:23:53.000Z</time>
      </trkpt>
      <trkpt lat="45.19656" lon="5.73953">
        <ele>234.80000305176</ele>
        <time>2021-05-22T03:23:56.000Z</time>
      </trkpt>
      <trkpt lat="45.19659" lon="5.73952">
        <ele>234.80000305176</ele>
        <time>2021-05-22T03:23:57.000Z</time>
      </trkpt>
      <trkpt lat="45.1967" lon="5.7394">
        <ele>234.60000610352</ele>
        <time>2021-05-22T03:24:02.000Z</time>
      </trkpt>
      <trkpt lat="45.19671" lon="5.73938">
        <ele>234.60000610352</ele>
        <time>2021-05-22T03:24:04.000Z</time>
      </trkpt>
      <trkpt lat="45.19672" lon="5.73939">
        <ele>234.60000610352</ele>
        <time>2021-05-22T03:24:05.000Z</time>
      </trkpt>
      <trkpt lat="45.19673" lon="5.73939">
        <ele>234.60000610352</ele>
        <time>2021-05-22T03:24:06.000Z</time>
      </trkpt>
      <trkpt lat="45.19672" lon="5.73939">
        <ele>234.60000610352</ele>
        <time>2021-05-22T03:24:07.000Z</time>
      </trkpt>
      <trkpt lat="45.19673" lon="5.73939">
        <ele>234.60000610352</ele>
        <time>2021-05-22T03:24:08.000Z</time>
      </trkpt>
      <trkpt lat="45.19673" lon="5.73938">
        <ele>234.39999389648</ele>
        <time>2021-05-22T03:24:09.000Z</time>
      </trkpt>
      <trkpt lat="45.19676" lon="5.73944">
        <ele>234.39999389648</ele>
        <time>2021-05-22T03:24:12.000Z</time>
      </trkpt>
      <trkpt lat="45.19677" lon="5.73947">
        <ele>234.39999389648</ele>
        <time>2021-05-22T03:24:13.000Z</time>
      </trkpt>
      <trkpt lat="45.19683" lon="5.73965">
        <ele>234.39999389648</ele>
        <time>2021-05-22T03:24:20.000Z</time>
      </trkpt>
      <trkpt lat="45.19684" lon="5.73973">
        <ele>234.39999389648</ele>
        <time>2021-05-22T03:24:22.000Z</time>
      </trkpt>
      <trkpt lat="45.19683" lon="5.73982">
        <ele>234.60000610352</ele>
        <time>2021-05-22T03:24:27.000Z</time>
      </trkpt>
      <trkpt lat="45.1969" lon="5.74001">
        <ele>234.60000610352</ele>
        <time>2021-05-22T03:24:35.000Z</time>
      </trkpt>
      <trkpt lat="45.19696" lon="5.74011">
        <ele>234.60000610352</ele>
        <time>2021-05-22T03:24:41.000Z</time>
      </trkpt>
      <trkpt lat="45.19697" lon="5.74013">
        <ele>234.80000305176</ele>
        <time>2021-05-22T03:24:42.000Z</time>
      </trkpt>
      <trkpt lat="45.19699" lon="5.74033">
        <ele>234.80000305176</ele>
        <time>2021-05-22T03:24:49.000Z</time>
      </trkpt>
      <trkpt lat="45.19703" lon="5.74059">
        <ele>234.60000610352</ele>
        <time>2021-05-22T03:24:57.000Z</time>
      </trkpt>
      <trkpt lat="45.19705" lon="5.74062">
        <ele>234.60000610352</ele>
        <time>2021-05-22T03:24:58.000Z</time>
      </trkpt>
      <trkpt lat="45.19705" lon="5.74064">
        <ele>234.80000305176</ele>
        <time>2021-05-22T03:24:59.000Z</time>
      </trkpt>
      <trkpt lat="45.19708" lon="5.74077">
        <ele>234.80000305176</ele>
        <time>2021-05-22T03:25:03.000Z</time>
      </trkpt>
      <trkpt lat="45.19711" lon="5.7409">
        <ele>234.80000305176</ele>
        <time>2021-05-22T03:25:07.000Z</time>
      </trkpt>
      <trkpt lat="45.19711" lon="5.741">
        <ele>234.80000305176</ele>
        <time>2021-05-22T03:25:10.000Z</time>
      </trkpt>
      <trkpt lat="45.19714" lon="5.74115">
        <ele>234.80000305176</ele>
        <time>2021-05-22T03:25:15.000Z</time>
      </trkpt>
      <trkpt lat="45.19718" lon="5.74127">
        <ele>235</ele>
        <time>2021-05-22T03:25:19.000Z</time>
      </trkpt>
      <trkpt lat="45.19721" lon="5.74151">
        <ele>235</ele>
        <time>2021-05-22T03:25:26.000Z</time>
      </trkpt>
      <trkpt lat="45.19725" lon="5.74169">
        <ele>235.19999694824</ele>
        <time>2021-05-22T03:25:32.000Z</time>
      </trkpt>
      <trkpt lat="45.19729" lon="5.74193">
        <ele>235</ele>
        <time>2021-05-22T03:25:39.000Z</time>
      </trkpt>
      <trkpt lat="45.19733" lon="5.7422">
        <ele>235.19999694824</ele>
        <time>2021-05-22T03:25:46.000Z</time>
      </trkpt>
      <trkpt lat="45.19735" lon="5.74236">
        <ele>235.80000305176</ele>
        <time>2021-05-22T03:25:50.000Z</time>
      </trkpt>
      <trkpt lat="45.19736" lon="5.74239">
        <ele>236</ele>
        <time>2021-05-22T03:25:51.000Z</time>
      </trkpt>
      <trkpt lat="45.19736" lon="5.7424">
        <ele>236.19999694824</ele>
        <time>2021-05-22T03:25:52.000Z</time>
      </trkpt>
      <trkpt lat="45.19738" lon="5.74239">
        <ele>236.80000305176</ele>
        <time>2021-05-22T03:25:56.000Z</time>
      </trkpt>
      <trkpt lat="45.1974" lon="5.74237">
        <ele>236.80000305176</ele>
        <time>2021-05-22T03:25:57.000Z</time>
      </trkpt>
      <trkpt lat="45.19744" lon="5.74235">
        <ele>237</ele>
        <time>2021-05-22T03:25:59.000Z</time>
      </trkpt>
      <trkpt lat="45.1976" lon="5.74229">
        <ele>237.19999694824</ele>
        <time>2021-05-22T03:26:07.000Z</time>
      </trkpt>
      <trkpt lat="45.19773" lon="5.74222">
        <ele>237</ele>
        <time>2021-05-22T03:26:14.000Z</time>
      </trkpt>
      <trkpt lat="45.19779" lon="5.7422">
        <ele>237</ele>
        <time>2021-05-22T03:26:17.000Z</time>
      </trkpt>
      <trkpt lat="45.19797" lon="5.74219">
        <ele>236.80000305176</ele>
        <time>2021-05-22T03:26:25.000Z</time>
      </trkpt>
      <trkpt lat="45.19815" lon="5.7421">
        <ele>236.60000610352</ele>
        <time>2021-05-22T03:26:33.000Z</time>
      </trkpt>
      <trkpt lat="45.19821" lon="5.74209">
        <ele>236.60000610352</ele>
        <time>2021-05-22T03:26:35.000Z</time>
      </trkpt>
      <trkpt lat="45.19839" lon="5.74203">
        <ele>236.80000305176</ele>
        <time>2021-05-22T03:26:43.000Z</time>
      </trkpt>
      <trkpt lat="45.19857" lon="5.74197">
        <ele>237</ele>
        <time>2021-05-22T03:26:51.000Z</time>
      </trkpt>
      <trkpt lat="45.19871" lon="5.74189">
        <ele>237</ele>
        <time>2021-05-22T03:26:57.000Z</time>
      </trkpt>
      <trkpt lat="45.19883" lon="5.74179">
        <ele>237</ele>
        <time>2021-05-22T03:27:02.000Z</time>
      </trkpt>
      <trkpt lat="45.19901" lon="5.7417">
        <ele>237.19999694824</ele>
        <time>2021-05-22T03:27:10.000Z</time>
      </trkpt>
      <trkpt lat="45.19912" lon="5.74164">
        <ele>237.19999694824</ele>
        <time>2021-05-22T03:27:15.000Z</time>
      </trkpt>
      <trkpt lat="45.19919" lon="5.74159">
        <ele>237</ele>
        <time>2021-05-22T03:27:18.000Z</time>
      </trkpt>
      <trkpt lat="45.19931" lon="5.7415">
        <ele>237</ele>
        <time>2021-05-22T03:27:24.000Z</time>
      </trkpt>
      <trkpt lat="45.19936" lon="5.74146">
        <ele>237</ele>
        <time>2021-05-22T03:27:26.000Z</time>
      </trkpt>
      <trkpt lat="45.19938" lon="5.74144">
        <ele>237</ele>
        <time>2021-05-22T03:27:27.000Z</time>
      </trkpt>
      <trkpt lat="45.19948" lon="5.74136">
        <ele>237</ele>
        <time>2021-05-22T03:27:31.000Z</time>
      </trkpt>
      <trkpt lat="45.19958" lon="5.74128">
        <ele>237</ele>
        <time>2021-05-22T03:27:36.000Z</time>
      </trkpt>
      <trkpt lat="45.19969" lon="5.74115">
        <ele>236.80000305176</ele>
        <time>2021-05-22T03:27:42.000Z</time>
      </trkpt>
      <trkpt lat="45.19982" lon="5.74107">
        <ele>236.19999694824</ele>
        <time>2021-05-22T03:27:48.000Z</time>
      </trkpt>
      <trkpt lat="45.19987" lon="5.74103">
        <ele>235.80000305176</ele>
        <time>2021-05-22T03:27:50.000Z</time>
      </trkpt>
      <trkpt lat="45.19999" lon="5.74089">
        <ele>234.60000610352</ele>
        <time>2021-05-22T03:27:56.000Z</time>
      </trkpt>
      <trkpt lat="45.20008" lon="5.7408">
        <ele>234.39999389648</ele>
        <time>2021-05-22T03:28:01.000Z</time>
      </trkpt>
      <trkpt lat="45.20008" lon="5.74081">
        <ele>234.39999389648</ele>
        <time>2021-05-22T03:28:02.000Z</time>
      </trkpt>
      <trkpt lat="45.20029" lon="5.74038">
        <ele>234.39999389648</ele>
        <time>2021-05-22T03:28:14.000Z</time>
      </trkpt>
      <trkpt lat="45.2003" lon="5.74041">
        <ele>234.60000610352</ele>
        <time>2021-05-22T03:28:15.000Z</time>
      </trkpt>
      <trkpt lat="45.20036" lon="5.74029">
        <ele>235.80000305176</ele>
        <time>2021-05-22T03:28:22.000Z</time>
      </trkpt>
      <trkpt lat="45.20037" lon="5.74025">
        <ele>236.39999389648</ele>
        <time>2021-05-22T03:28:24.000Z</time>
      </trkpt>
      <trkpt lat="45.20039" lon="5.7402">
        <ele>237</ele>
        <time>2021-05-22T03:28:26.000Z</time>
      </trkpt>
      <trkpt lat="45.20046" lon="5.74006">
        <ele>237</ele>
        <time>2021-05-22T03:28:30.000Z</time>
      </trkpt>
      <trkpt lat="45.2006" lon="5.73996">
        <ele>236.39999389648</ele>
        <time>2021-05-22T03:28:36.000Z</time>
      </trkpt>
      <trkpt lat="45.20076" lon="5.73981">
        <ele>236.19999694824</ele>
        <time>2021-05-22T03:28:44.000Z</time>
      </trkpt>
      <trkpt lat="45.20085" lon="5.73968">
        <ele>236</ele>
        <time>2021-05-22T03:28:48.000Z</time>
      </trkpt>
      <trkpt lat="45.20097" lon="5.73952">
        <ele>235.80000305176</ele>
        <time>2021-05-22T03:28:54.000Z</time>
      </trkpt>
      <trkpt lat="45.20109" lon="5.73933">
        <ele>235.80000305176</ele>
        <time>2021-05-22T03:29:00.000Z</time>
      </trkpt>
      <trkpt lat="45.20124" lon="5.73916">
        <ele>236</ele>
        <time>2021-05-22T03:29:06.000Z</time>
      </trkpt>
      <trkpt lat="45.20126" lon="5.73913">
        <ele>236</ele>
        <time>2021-05-22T03:29:07.000Z</time>
      </trkpt>
      <trkpt lat="45.2014" lon="5.73893">
        <ele>236</ele>
        <time>2021-05-22T03:29:14.000Z</time>
      </trkpt>
      <trkpt lat="45.20142" lon="5.7389">
        <ele>236</ele>
        <time>2021-05-22T03:29:15.000Z</time>
      </trkpt>
      <trkpt lat="45.20147" lon="5.73882">
        <ele>236</ele>
        <time>2021-05-22T03:29:18.000Z</time>
      </trkpt>
      <trkpt lat="45.20157" lon="5.73861">
        <ele>235.80000305176</ele>
        <time>2021-05-22T03:29:24.000Z</time>
      </trkpt>
      <trkpt lat="45.20167" lon="5.73837">
        <ele>235.80000305176</ele>
        <time>2021-05-22T03:29:31.000Z</time>
      </trkpt>
      <trkpt lat="45.20169" lon="5.73829">
        <ele>235.80000305176</ele>
        <time>2021-05-22T03:29:33.000Z</time>
      </trkpt>
      <trkpt lat="45.20172" lon="5.73802">
        <ele>236</ele>
        <time>2021-05-22T03:29:40.000Z</time>
      </trkpt>
      <trkpt lat="45.20174" lon="5.73774">
        <ele>235.80000305176</ele>
        <time>2021-05-22T03:29:47.000Z</time>
      </trkpt>
      <trkpt lat="45.20174" lon="5.73763">
        <ele>235.80000305176</ele>
        <time>2021-05-22T03:29:50.000Z</time>
      </trkpt>
      <trkpt lat="45.20175" lon="5.7374">
        <ele>236</ele>
        <time>2021-05-22T03:29:56.000Z</time>
      </trkpt>
      <trkpt lat="45.20175" lon="5.73736">
        <ele>236</ele>
        <time>2021-05-22T03:29:57.000Z</time>
      </trkpt>
      <trkpt lat="45.20171" lon="5.73715">
        <ele>236</ele>
        <time>2021-05-22T03:30:03.000Z</time>
      </trkpt>
      <trkpt lat="45.20167" lon="5.73694">
        <ele>236.19999694824</ele>
        <time>2021-05-22T03:30:10.000Z</time>
      </trkpt>
      <trkpt lat="45.20163" lon="5.73668">
        <ele>236.60000610352</ele>
        <time>2021-05-22T03:30:17.000Z</time>
      </trkpt>
      <trkpt lat="45.20162" lon="5.73664">
        <ele>236.60000610352</ele>
        <time>2021-05-22T03:30:18.000Z</time>
      </trkpt>
      <trkpt lat="45.20156" lon="5.73652">
        <ele>236.19999694824</ele>
        <time>2021-05-22T03:30:23.000Z</time>
      </trkpt>
      <trkpt lat="45.20152" lon="5.7364">
        <ele>236.19999694824</ele>
        <time>2021-05-22T03:30:26.000Z</time>
      </trkpt>
      <trkpt lat="45.20148" lon="5.73629">
        <ele>236.19999694824</ele>
        <time>2021-05-22T03:30:29.000Z</time>
      </trkpt>
      <trkpt lat="45.20138" lon="5.73608">
        <ele>236.19999694824</ele>
        <time>2021-05-22T03:30:36.000Z</time>
      </trkpt>
      <trkpt lat="45.20136" lon="5.73605">
        <ele>236.19999694824</ele>
        <time>2021-05-22T03:30:37.000Z</time>
      </trkpt>
      <trkpt lat="45.20127" lon="5.73588">
        <ele>236.19999694824</ele>
        <time>2021-05-22T03:30:43.000Z</time>
      </trkpt>
      <trkpt lat="45.20121" lon="5.73584">
        <ele>236.39999389648</ele>
        <time>2021-05-22T03:30:46.000Z</time>
      </trkpt>
      <trkpt lat="45.20118" lon="5.73583">
        <ele>236.39999389648</ele>
        <time>2021-05-22T03:30:47.000Z</time>
      </trkpt>
      <trkpt lat="45.20105" lon="5.73574">
        <ele>236.39999389648</ele>
        <time>2021-05-22T03:30:52.000Z</time>
      </trkpt>
      <trkpt lat="45.201" lon="5.73562">
        <ele>236.19999694824</ele>
        <time>2021-05-22T03:30:57.000Z</time>
      </trkpt>
      <trkpt lat="45.20099" lon="5.73561">
        <ele>236.19999694824</ele>
        <time>2021-05-22T03:30:58.000Z</time>
      </trkpt>
      <trkpt lat="45.20098" lon="5.7356">
        <ele>236.19999694824</ele>
        <time>2021-05-22T03:30:59.000Z</time>
      </trkpt>
      <trkpt lat="45.20095" lon="5.73558">
        <ele>236.19999694824</ele>
        <time>2021-05-22T03:31:01.000Z</time>
      </trkpt>
      <trkpt lat="45.20085" lon="5.73542">
        <ele>236.19999694824</ele>
        <time>2021-05-22T03:31:07.000Z</time>
      </trkpt>
      <trkpt lat="45.20081" lon="5.73526">
        <ele>236.19999694824</ele>
        <time>2021-05-22T03:31:11.000Z</time>
      </trkpt>
      <trkpt lat="45.20079" lon="5.73523">
        <ele>236.19999694824</ele>
        <time>2021-05-22T03:31:12.000Z</time>
      </trkpt>
      <trkpt lat="45.20073" lon="5.73516">
        <ele>236</ele>
        <time>2021-05-22T03:31:15.000Z</time>
      </trkpt>
      <trkpt lat="45.2006" lon="5.73508">
        <ele>236</ele>
        <time>2021-05-22T03:31:20.000Z</time>
      </trkpt>
      <trkpt lat="45.20043" lon="5.73501">
        <ele>236.19999694824</ele>
        <time>2021-05-22T03:31:26.000Z</time>
      </trkpt>
      <trkpt lat="45.20029" lon="5.73498">
        <ele>236</ele>
        <time>2021-05-22T03:31:30.000Z</time>
      </trkpt>
      <trkpt lat="45.20024" lon="5.7349">
        <ele>235.60000610352</ele>
        <time>2021-05-22T03:31:33.000Z</time>
      </trkpt>
      <trkpt lat="45.20013" lon="5.7348">
        <ele>235.19999694824</ele>
        <time>2021-05-22T03:31:38.000Z</time>
      </trkpt>
      <trkpt lat="45.20011" lon="5.73478">
        <ele>235</ele>
        <time>2021-05-22T03:31:39.000Z</time>
      </trkpt>
      <trkpt lat="45.20001" lon="5.73471">
        <ele>235.19999694824</ele>
        <time>2021-05-22T03:31:43.000Z</time>
      </trkpt>
      <trkpt lat="45.19989" lon="5.73464">
        <ele>235.60000610352</ele>
        <time>2021-05-22T03:31:48.000Z</time>
      </trkpt>
      <trkpt lat="45.19986" lon="5.73462">
        <ele>235.80000305176</ele>
        <time>2021-05-22T03:31:49.000Z</time>
      </trkpt>
      <trkpt lat="45.19982" lon="5.73458">
        <ele>236</ele>
        <time>2021-05-22T03:31:50.000Z</time>
      </trkpt>
      <trkpt lat="45.19969" lon="5.73445">
        <ele>236</ele>
        <time>2021-05-22T03:31:57.000Z</time>
      </trkpt>
      <trkpt lat="45.19957" lon="5.73437">
        <ele>236</ele>
        <time>2021-05-22T03:32:02.000Z</time>
      </trkpt>
      <trkpt lat="45.19952" lon="5.73434">
        <ele>236</ele>
        <time>2021-05-22T03:32:04.000Z</time>
      </trkpt>
      <trkpt lat="45.19947" lon="5.73431">
        <ele>236.19999694824</ele>
        <time>2021-05-22T03:32:06.000Z</time>
      </trkpt>
      <trkpt lat="45.19928" lon="5.73427">
        <ele>235.60000610352</ele>
        <time>2021-05-22T03:32:13.000Z</time>
      </trkpt>
      <trkpt lat="45.19925" lon="5.73427">
        <ele>235.60000610352</ele>
        <time>2021-05-22T03:32:14.000Z</time>
      </trkpt>
      <trkpt lat="45.19909" lon="5.73422">
        <ele>235.80000305176</ele>
        <time>2021-05-22T03:32:20.000Z</time>
      </trkpt>
      <trkpt lat="45.19894" lon="5.7342">
        <ele>235.80000305176</ele>
        <time>2021-05-22T03:32:26.000Z</time>
      </trkpt>
      <trkpt lat="45.19885" lon="5.73417">
        <ele>236</ele>
        <time>2021-05-22T03:32:30.000Z</time>
      </trkpt>
      <trkpt lat="45.19874" lon="5.73415">
        <ele>236</ele>
        <time>2021-05-22T03:32:35.000Z</time>
      </trkpt>
      <trkpt lat="45.19856" lon="5.73408">
        <ele>235.80000305176</ele>
        <time>2021-05-22T03:32:42.000Z</time>
      </trkpt>
      <trkpt lat="45.1985" lon="5.73408">
        <ele>236</ele>
        <time>2021-05-22T03:32:44.000Z</time>
      </trkpt>
      <trkpt lat="45.19841" lon="5.73405">
        <ele>235.80000305176</ele>
        <time>2021-05-22T03:32:48.000Z</time>
      </trkpt>
      <trkpt lat="45.19838" lon="5.73405">
        <ele>235.80000305176</ele>
        <time>2021-05-22T03:32:49.000Z</time>
      </trkpt>
      <trkpt lat="45.19817" lon="5.734">
        <ele>235.60000610352</ele>
        <time>2021-05-22T03:32:56.000Z</time>
      </trkpt>
      <trkpt lat="45.198" lon="5.73398">
        <ele>235.80000305176</ele>
        <time>2021-05-22T03:33:02.000Z</time>
      </trkpt>
      <trkpt lat="45.19782" lon="5.73392">
        <ele>236</ele>
        <time>2021-05-22T03:33:08.000Z</time>
      </trkpt>
      <trkpt lat="45.19761" lon="5.73385">
        <ele>235.80000305176</ele>
        <time>2021-05-22T03:33:16.000Z</time>
      </trkpt>
      <trkpt lat="45.19758" lon="5.73382">
        <ele>235.80000305176</ele>
        <time>2021-05-22T03:33:17.000Z</time>
      </trkpt>
      <trkpt lat="45.19739" lon="5.73376">
        <ele>236.80000305176</ele>
        <time>2021-05-22T03:33:25.000Z</time>
      </trkpt>
      <trkpt lat="45.19736" lon="5.73376">
        <ele>237</ele>
        <time>2021-05-22T03:33:26.000Z</time>
      </trkpt>
      <trkpt lat="45.19734" lon="5.73375">
        <ele>237.19999694824</ele>
        <time>2021-05-22T03:33:27.000Z</time>
      </trkpt>
      <trkpt lat="45.19727" lon="5.7337">
        <ele>238</ele>
        <time>2021-05-22T03:33:31.000Z</time>
      </trkpt>
      <trkpt lat="45.19727" lon="5.73366">
        <ele>238</ele>
        <time>2021-05-22T03:33:32.000Z</time>
      </trkpt>
      <trkpt lat="45.19732" lon="5.73346">
        <ele>238.19999694824</ele>
        <time>2021-05-22T03:33:37.000Z</time>
      </trkpt>
      <trkpt lat="45.19735" lon="5.73333">
        <ele>238.60000610352</ele>
        <time>2021-05-22T03:33:40.000Z</time>
      </trkpt>
      <trkpt lat="45.19741" lon="5.73305">
        <ele>238.80000305176</ele>
        <time>2021-05-22T03:33:47.000Z</time>
      </trkpt>
      <trkpt lat="45.19742" lon="5.73301">
        <ele>238.80000305176</ele>
        <time>2021-05-22T03:33:48.000Z</time>
      </trkpt>
      <trkpt lat="45.19744" lon="5.73293">
        <ele>238.80000305176</ele>
        <time>2021-05-22T03:33:50.000Z</time>
      </trkpt>
      <trkpt lat="45.19749" lon="5.73269">
        <ele>238.80000305176</ele>
        <time>2021-05-22T03:33:56.000Z</time>
      </trkpt>
      <trkpt lat="45.19751" lon="5.73263">
        <ele>238.39999389648</ele>
        <time>2021-05-22T03:33:58.000Z</time>
      </trkpt>
      <trkpt lat="45.19759" lon="5.7324">
        <ele>238</ele>
        <time>2021-05-22T03:34:04.000Z</time>
      </trkpt>
      <trkpt lat="45.19765" lon="5.73227">
        <ele>237.39999389648</ele>
        <time>2021-05-22T03:34:08.000Z</time>
      </trkpt>
      <trkpt lat="45.19775" lon="5.73203">
        <ele>237</ele>
        <time>2021-05-22T03:34:15.000Z</time>
      </trkpt>
      <trkpt lat="45.19775" lon="5.73199">
        <ele>237</ele>
        <time>2021-05-22T03:34:16.000Z</time>
      </trkpt>
      <trkpt lat="45.19774" lon="5.73185">
        <ele>236.80000305176</ele>
        <time>2021-05-22T03:34:20.000Z</time>
      </trkpt>
      <trkpt lat="45.19773" lon="5.73174">
        <ele>236.80000305176</ele>
        <time>2021-05-22T03:34:23.000Z</time>
      </trkpt>
      <trkpt lat="45.19772" lon="5.73168">
        <ele>236.80000305176</ele>
        <time>2021-05-22T03:34:26.000Z</time>
      </trkpt>
      <trkpt lat="45.19772" lon="5.73166">
        <ele>237.19999694824</ele>
        <time>2021-05-22T03:34:27.000Z</time>
      </trkpt>
      <trkpt lat="45.19777" lon="5.73163">
        <ele>238</ele>
        <time>2021-05-22T03:34:30.000Z</time>
      </trkpt>
      <trkpt lat="45.19782" lon="5.73157">
        <ele>239.19999694824</ele>
        <time>2021-05-22T03:34:33.000Z</time>
      </trkpt>
      <trkpt lat="45.19786" lon="5.73152">
        <ele>240</ele>
        <time>2021-05-22T03:34:35.000Z</time>
      </trkpt>
      <trkpt lat="45.19788" lon="5.73148">
        <ele>240.19999694824</ele>
        <time>2021-05-22T03:34:36.000Z</time>
      </trkpt>
      <trkpt lat="45.1979" lon="5.73141">
        <ele>241</ele>
        <time>2021-05-22T03:34:39.000Z</time>
      </trkpt>
      <trkpt lat="45.19791" lon="5.73138">
        <ele>241.39999389648</ele>
        <time>2021-05-22T03:34:40.000Z</time>
      </trkpt>
      <trkpt lat="45.19791" lon="5.73134">
        <ele>242</ele>
        <time>2021-05-22T03:34:42.000Z</time>
      </trkpt>
      <trkpt lat="45.19791" lon="5.73133">
        <ele>242.60000610352</ele>
        <time>2021-05-22T03:34:44.000Z</time>
      </trkpt>
      <trkpt lat="45.19793" lon="5.73131">
        <ele>243.39999389648</ele>
        <time>2021-05-22T03:34:47.000Z</time>
      </trkpt>
      <trkpt lat="45.19795" lon="5.7313">
        <ele>243.60000610352</ele>
        <time>2021-05-22T03:34:48.000Z</time>
      </trkpt>
      <trkpt lat="45.19797" lon="5.73129">
        <ele>243.80000305176</ele>
        <time>2021-05-22T03:34:50.000Z</time>
      </trkpt>
      <trkpt lat="45.19794" lon="5.73129">
        <ele>244.19999694824</ele>
        <time>2021-05-22T03:34:52.000Z</time>
      </trkpt>
      <trkpt lat="45.19792" lon="5.7313">
        <ele>244.60000610352</ele>
        <time>2021-05-22T03:34:54.000Z</time>
      </trkpt>
      <trkpt lat="45.19788" lon="5.73129">
        <ele>245.19999694824</ele>
        <time>2021-05-22T03:34:57.000Z</time>
      </trkpt>
      <trkpt lat="45.19785" lon="5.73129">
        <ele>245.60000610352</ele>
        <time>2021-05-22T03:34:59.000Z</time>
      </trkpt>
      <trkpt lat="45.19753" lon="5.73118">
        <ele>248.19999694824</ele>
        <time>2021-05-22T03:35:12.000Z</time>
      </trkpt>
      <trkpt lat="45.19754" lon="5.73118">
        <ele>248.39999389648</ele>
        <time>2021-05-22T03:35:13.000Z</time>
      </trkpt>
      <trkpt lat="45.19752" lon="5.73113">
        <ele>248.80000305176</ele>
        <time>2021-05-22T03:35:14.000Z</time>
      </trkpt>
      <trkpt lat="45.19746" lon="5.73105">
        <ele>249.60000610352</ele>
        <time>2021-05-22T03:35:18.000Z</time>
      </trkpt>
      <trkpt lat="45.19745" lon="5.73103">
        <ele>249.80000305176</ele>
        <time>2021-05-22T03:35:20.000Z</time>
      </trkpt>
      <trkpt lat="45.19745" lon="5.73102">
        <ele>250</ele>
        <time>2021-05-22T03:35:21.000Z</time>
      </trkpt>
      <trkpt lat="45.19746" lon="5.73101">
        <ele>250.39999389648</ele>
        <time>2021-05-22T03:35:22.000Z</time>
      </trkpt>
      <trkpt lat="45.19751" lon="5.73098">
        <ele>250.80000305176</ele>
        <time>2021-05-22T03:35:25.000Z</time>
      </trkpt>
      <trkpt lat="45.19753" lon="5.73097">
        <ele>251</ele>
        <time>2021-05-22T03:35:26.000Z</time>
      </trkpt>
      <trkpt lat="45.19756" lon="5.73095">
        <ele>251.39999389648</ele>
        <time>2021-05-22T03:35:28.000Z</time>
      </trkpt>
      <trkpt lat="45.19764" lon="5.73093">
        <ele>252</ele>
        <time>2021-05-22T03:35:31.000Z</time>
      </trkpt>
      <trkpt lat="45.1977" lon="5.73094">
        <ele>252.80000305176</ele>
        <time>2021-05-22T03:35:35.000Z</time>
      </trkpt>
      <trkpt lat="45.19774" lon="5.73093">
        <ele>253.19999694824</ele>
        <time>2021-05-22T03:35:37.000Z</time>
      </trkpt>
      <trkpt lat="45.19782" lon="5.73092">
        <ele>254.19999694824</ele>
        <time>2021-05-22T03:35:41.000Z</time>
      </trkpt>
      <trkpt lat="45.19784" lon="5.73093">
        <ele>254.39999389648</ele>
        <time>2021-05-22T03:35:42.000Z</time>
      </trkpt>
      <trkpt lat="45.19786" lon="5.73094">
        <ele>254.39999389648</ele>
        <time>2021-05-22T03:35:43.000Z</time>
      </trkpt>
      <trkpt lat="45.19788" lon="5.73094">
        <ele>254.80000305176</ele>
        <time>2021-05-22T03:35:44.000Z</time>
      </trkpt>
      <trkpt lat="45.1979" lon="5.73094">
        <ele>255.39999389648</ele>
        <time>2021-05-22T03:35:46.000Z</time>
      </trkpt>
      <trkpt lat="45.19791" lon="5.73093">
        <ele>255.39999389648</ele>
        <time>2021-05-22T03:35:47.000Z</time>
      </trkpt>
      <trkpt lat="45.1979" lon="5.7309">
        <ele>255.80000305176</ele>
        <time>2021-05-22T03:35:50.000Z</time>
      </trkpt>
      <trkpt lat="45.19782" lon="5.73092">
        <ele>257</ele>
        <time>2021-05-22T03:35:56.000Z</time>
      </trkpt>
      <trkpt lat="45.19776" lon="5.73091">
        <ele>257.60000610352</ele>
        <time>2021-05-22T03:35:59.000Z</time>
      </trkpt>
      <trkpt lat="45.19774" lon="5.73091">
        <ele>258</ele>
        <time>2021-05-22T03:36:02.000Z</time>
      </trkpt>
      <trkpt lat="45.19771" lon="5.73091">
        <ele>258.20001220703</ele>
        <time>2021-05-22T03:36:04.000Z</time>
      </trkpt>
      <trkpt lat="45.19768" lon="5.73091">
        <ele>259</ele>
        <time>2021-05-22T03:36:06.000Z</time>
      </trkpt>
      <trkpt lat="45.19763" lon="5.7309">
        <ele>259.60000610352</ele>
        <time>2021-05-22T03:36:08.000Z</time>
      </trkpt>
      <trkpt lat="45.19759" lon="5.7309">
        <ele>260</ele>
        <time>2021-05-22T03:36:10.000Z</time>
      </trkpt>
      <trkpt lat="45.19757" lon="5.73089">
        <ele>260.20001220703</ele>
        <time>2021-05-22T03:36:11.000Z</time>
      </trkpt>
      <trkpt lat="45.1975" lon="5.73084">
        <ele>261.20001220703</ele>
        <time>2021-05-22T03:36:16.000Z</time>
      </trkpt>
      <trkpt lat="45.19748" lon="5.73083">
        <ele>261.39999389648</ele>
        <time>2021-05-22T03:36:17.000Z</time>
      </trkpt>
      <trkpt lat="45.19744" lon="5.73079">
        <ele>262</ele>
        <time>2021-05-22T03:36:19.000Z</time>
      </trkpt>
      <trkpt lat="45.19743" lon="5.73077">
        <ele>262.20001220703</ele>
        <time>2021-05-22T03:36:21.000Z</time>
      </trkpt>
      <trkpt lat="45.19742" lon="5.73074">
        <ele>262.39999389648</ele>
        <time>2021-05-22T03:36:22.000Z</time>
      </trkpt>
      <trkpt lat="45.19743" lon="5.73071">
        <ele>262.60000610352</ele>
        <time>2021-05-22T03:36:23.000Z</time>
      </trkpt>
      <trkpt lat="45.19744" lon="5.73069">
        <ele>262.79998779297</ele>
        <time>2021-05-22T03:36:24.000Z</time>
      </trkpt>
      <trkpt lat="45.19749" lon="5.73067">
        <ele>263.39999389648</ele>
        <time>2021-05-22T03:36:27.000Z</time>
      </trkpt>
      <trkpt lat="45.1975" lon="5.73067">
        <ele>263.60000610352</ele>
        <time>2021-05-22T03:36:28.000Z</time>
      </trkpt>
      <trkpt lat="45.19751" lon="5.73067">
        <ele>263.79998779297</ele>
        <time>2021-05-22T03:36:29.000Z</time>
      </trkpt>
      <trkpt lat="45.19753" lon="5.73067">
        <ele>264.20001220703</ele>
        <time>2021-05-22T03:36:30.000Z</time>
      </trkpt>
      <trkpt lat="45.19754" lon="5.73067">
        <ele>264.39999389648</ele>
        <time>2021-05-22T03:36:31.000Z</time>
      </trkpt>
      <trkpt lat="45.19756" lon="5.73067">
        <ele>264.79998779297</ele>
        <time>2021-05-22T03:36:33.000Z</time>
      </trkpt>
      <trkpt lat="45.19758" lon="5.73067">
        <ele>265</ele>
        <time>2021-05-22T03:36:35.000Z</time>
      </trkpt>
      <trkpt lat="45.19763" lon="5.73067">
        <ele>265.79998779297</ele>
        <time>2021-05-22T03:36:38.000Z</time>
      </trkpt>
      <trkpt lat="45.19764" lon="5.73067">
        <ele>266</ele>
        <time>2021-05-22T03:36:39.000Z</time>
      </trkpt>
      <trkpt lat="45.19768" lon="5.73065">
        <ele>266.39999389648</ele>
        <time>2021-05-22T03:36:41.000Z</time>
      </trkpt>
      <trkpt lat="45.19772" lon="5.73065">
        <ele>267</ele>
        <time>2021-05-22T03:36:43.000Z</time>
      </trkpt>
      <trkpt lat="45.19773" lon="5.73065">
        <ele>267.20001220703</ele>
        <time>2021-05-22T03:36:44.000Z</time>
      </trkpt>
      <trkpt lat="45.19779" lon="5.73066">
        <ele>268</ele>
        <time>2021-05-22T03:36:48.000Z</time>
      </trkpt>
      <trkpt lat="45.19783" lon="5.73064">
        <ele>268.20001220703</ele>
        <time>2021-05-22T03:36:50.000Z</time>
      </trkpt>
      <trkpt lat="45.19783" lon="5.73063">
        <ele>269</ele>
        <time>2021-05-22T03:36:53.000Z</time>
      </trkpt>
      <trkpt lat="45.19782" lon="5.73064">
        <ele>269.39999389648</ele>
        <time>2021-05-22T03:36:54.000Z</time>
      </trkpt>
      <trkpt lat="45.19776" lon="5.73062">
        <ele>270.20001220703</ele>
        <time>2021-05-22T03:36:59.000Z</time>
      </trkpt>
      <trkpt lat="45.19773" lon="5.7306">
        <ele>270.39999389648</ele>
        <time>2021-05-22T03:37:01.000Z</time>
      </trkpt>
      <trkpt lat="45.19769" lon="5.73058">
        <ele>271.20001220703</ele>
        <time>2021-05-22T03:37:04.000Z</time>
      </trkpt>
      <trkpt lat="45.19765" lon="5.73055">
        <ele>272</ele>
        <time>2021-05-22T03:37:08.000Z</time>
      </trkpt>
      <trkpt lat="45.19761" lon="5.73053">
        <ele>272.39999389648</ele>
        <time>2021-05-22T03:37:10.000Z</time>
      </trkpt>
      <trkpt lat="45.19753" lon="5.7305">
        <ele>273.60000610352</ele>
        <time>2021-05-22T03:37:15.000Z</time>
      </trkpt>
      <trkpt lat="45.19752" lon="5.73049">
        <ele>274</ele>
        <time>2021-05-22T03:37:16.000Z</time>
      </trkpt>
      <trkpt lat="45.19751" lon="5.73048">
        <ele>274.20001220703</ele>
        <time>2021-05-22T03:37:17.000Z</time>
      </trkpt>
      <trkpt lat="45.1975" lon="5.73043">
        <ele>274.39999389648</ele>
        <time>2021-05-22T03:37:19.000Z</time>
      </trkpt>
      <trkpt lat="45.1975" lon="5.73043">
        <ele>274.60000610352</ele>
        <time>2021-05-22T03:37:20.000Z</time>
      </trkpt>
      <trkpt lat="45.19751" lon="5.73042">
        <ele>275</ele>
        <time>2021-05-22T03:37:21.000Z</time>
      </trkpt>
      <trkpt lat="45.19761" lon="5.73035">
        <ele>275.79998779297</ele>
        <time>2021-05-22T03:37:25.000Z</time>
      </trkpt>
      <trkpt lat="45.19767" lon="5.73034">
        <ele>276.20001220703</ele>
        <time>2021-05-22T03:37:29.000Z</time>
      </trkpt>
      <trkpt lat="45.19769" lon="5.73034">
        <ele>276.79998779297</ele>
        <time>2021-05-22T03:37:30.000Z</time>
      </trkpt>
      <trkpt lat="45.19773" lon="5.73034">
        <ele>277.60000610352</ele>
        <time>2021-05-22T03:37:33.000Z</time>
      </trkpt>
      <trkpt lat="45.19774" lon="5.73035">
        <ele>277.79998779297</ele>
        <time>2021-05-22T03:37:35.000Z</time>
      </trkpt>
      <trkpt lat="45.19775" lon="5.73036">
        <ele>277.79998779297</ele>
        <time>2021-05-22T03:37:36.000Z</time>
      </trkpt>
      <trkpt lat="45.19777" lon="5.73036">
        <ele>278.60000610352</ele>
        <time>2021-05-22T03:37:38.000Z</time>
      </trkpt>
      <trkpt lat="45.19779" lon="5.73036">
        <ele>278.60000610352</ele>
        <time>2021-05-22T03:37:39.000Z</time>
      </trkpt>
      <trkpt lat="45.19782" lon="5.73037">
        <ele>279</ele>
        <time>2021-05-22T03:37:41.000Z</time>
      </trkpt>
      <trkpt lat="45.19784" lon="5.73037">
        <ele>279.60000610352</ele>
        <time>2021-05-22T03:37:43.000Z</time>
      </trkpt>
      <trkpt lat="45.19786" lon="5.73038">
        <ele>280</ele>
        <time>2021-05-22T03:37:46.000Z</time>
      </trkpt>
      <trkpt lat="45.19793" lon="5.7304">
        <ele>281.20001220703</ele>
        <time>2021-05-22T03:37:51.000Z</time>
      </trkpt>
      <trkpt lat="45.19793" lon="5.73039">
        <ele>281.39999389648</ele>
        <time>2021-05-22T03:37:52.000Z</time>
      </trkpt>
      <trkpt lat="45.19791" lon="5.73039">
        <ele>282.20001220703</ele>
        <time>2021-05-22T03:37:55.000Z</time>
      </trkpt>
      <trkpt lat="45.19788" lon="5.73038">
        <ele>282.79998779297</ele>
        <time>2021-05-22T03:37:58.000Z</time>
      </trkpt>
      <trkpt lat="45.19781" lon="5.73035">
        <ele>283.39999389648</ele>
        <time>2021-05-22T03:38:01.000Z</time>
      </trkpt>
      <trkpt lat="45.19778" lon="5.73032">
        <ele>284.20001220703</ele>
        <time>2021-05-22T03:38:06.000Z</time>
      </trkpt>
      <trkpt lat="45.19774" lon="5.73032">
        <ele>284.60000610352</ele>
        <time>2021-05-22T03:38:08.000Z</time>
      </trkpt>
      <trkpt lat="45.19766" lon="5.73027">
        <ele>285.79998779297</ele>
        <time>2021-05-22T03:38:13.000Z</time>
      </trkpt>
      <trkpt lat="45.19765" lon="5.73026">
        <ele>285.79998779297</ele>
        <time>2021-05-22T03:38:14.000Z</time>
      </trkpt>
      <trkpt lat="45.1976" lon="5.7302">
        <ele>286.79998779297</ele>
        <time>2021-05-22T03:38:18.000Z</time>
      </trkpt>
      <trkpt lat="45.1976" lon="5.73018">
        <ele>287</ele>
        <time>2021-05-22T03:38:19.000Z</time>
      </trkpt>
      <trkpt lat="45.19761" lon="5.73017">
        <ele>287.20001220703</ele>
        <time>2021-05-22T03:38:20.000Z</time>
      </trkpt>
      <trkpt lat="45.19762" lon="5.73016">
        <ele>287.39999389648</ele>
        <time>2021-05-22T03:38:21.000Z</time>
      </trkpt>
      <trkpt lat="45.19765" lon="5.73018">
        <ele>288</ele>
        <time>2021-05-22T03:38:24.000Z</time>
      </trkpt>
      <trkpt lat="45.19766" lon="5.73017">
        <ele>288.20001220703</ele>
        <time>2021-05-22T03:38:25.000Z</time>
      </trkpt>
      <trkpt lat="45.19771" lon="5.73016">
        <ele>289</ele>
        <time>2021-05-22T03:38:28.000Z</time>
      </trkpt>
      <trkpt lat="45.19772" lon="5.73016">
        <ele>289.20001220703</ele>
        <time>2021-05-22T03:38:29.000Z</time>
      </trkpt>
      <trkpt lat="45.19781" lon="5.73018">
        <ele>289.79998779297</ele>
        <time>2021-05-22T03:38:35.000Z</time>
      </trkpt>
      <trkpt lat="45.19782" lon="5.73019">
        <ele>290</ele>
        <time>2021-05-22T03:38:36.000Z</time>
      </trkpt>
      <trkpt lat="45.19784" lon="5.73019">
        <ele>290.39999389648</ele>
        <time>2021-05-22T03:38:37.000Z</time>
      </trkpt>
      <trkpt lat="45.19786" lon="5.73019">
        <ele>290.39999389648</ele>
        <time>2021-05-22T03:38:38.000Z</time>
      </trkpt>
      <trkpt lat="45.1979" lon="5.7302">
        <ele>291</ele>
        <time>2021-05-22T03:38:40.000Z</time>
      </trkpt>
      <trkpt lat="45.19792" lon="5.7302">
        <ele>291.20001220703</ele>
        <time>2021-05-22T03:38:41.000Z</time>
      </trkpt>
      <trkpt lat="45.19795" lon="5.73021">
        <ele>291.39999389648</ele>
        <time>2021-05-22T03:38:43.000Z</time>
      </trkpt>
      <trkpt lat="45.19797" lon="5.73022">
        <ele>291.79998779297</ele>
        <time>2021-05-22T03:38:44.000Z</time>
      </trkpt>
      <trkpt lat="45.19799" lon="5.73021">
        <ele>292.60000610352</ele>
        <time>2021-05-22T03:38:47.000Z</time>
      </trkpt>
      <trkpt lat="45.19798" lon="5.73021">
        <ele>293</ele>
        <time>2021-05-22T03:38:48.000Z</time>
      </trkpt>
      <trkpt lat="45.19798" lon="5.73021">
        <ele>293.20001220703</ele>
        <time>2021-05-22T03:38:49.000Z</time>
      </trkpt>
      <trkpt lat="45.19794" lon="5.73021">
        <ele>293.60000610352</ele>
        <time>2021-05-22T03:38:52.000Z</time>
      </trkpt>
      <trkpt lat="45.19783" lon="5.73014">
        <ele>294.79998779297</ele>
        <time>2021-05-22T03:38:59.000Z</time>
      </trkpt>
      <trkpt lat="45.19776" lon="5.73007">
        <ele>295.79998779297</ele>
        <time>2021-05-22T03:39:04.000Z</time>
      </trkpt>
      <trkpt lat="45.19774" lon="5.73004">
        <ele>296.20001220703</ele>
        <time>2021-05-22T03:39:06.000Z</time>
      </trkpt>
      <trkpt lat="45.19773" lon="5.73002">
        <ele>296.20001220703</ele>
        <time>2021-05-22T03:39:07.000Z</time>
      </trkpt>
      <trkpt lat="45.1977" lon="5.73">
        <ele>297</ele>
        <time>2021-05-22T03:39:09.000Z</time>
      </trkpt>
      <trkpt lat="45.19768" lon="5.72998">
        <ele>297.39999389648</ele>
        <time>2021-05-22T03:39:11.000Z</time>
      </trkpt>
      <trkpt lat="45.19766" lon="5.72997">
        <ele>297.60000610352</ele>
        <time>2021-05-22T03:39:12.000Z</time>
      </trkpt>
      <trkpt lat="45.19763" lon="5.72995">
        <ele>298</ele>
        <time>2021-05-22T03:39:14.000Z</time>
      </trkpt>
      <trkpt lat="45.19755" lon="5.72987">
        <ele>298.79998779297</ele>
        <time>2021-05-22T03:39:19.000Z</time>
      </trkpt>
      <trkpt lat="45.19754" lon="5.72985">
        <ele>299</ele>
        <time>2021-05-22T03:39:20.000Z</time>
      </trkpt>
      <trkpt lat="45.19749" lon="5.7298">
        <ele>300.20001220703</ele>
        <time>2021-05-22T03:39:24.000Z</time>
      </trkpt>
      <trkpt lat="45.19745" lon="5.72975">
        <ele>300.79998779297</ele>
        <time>2021-05-22T03:39:27.000Z</time>
      </trkpt>
      <trkpt lat="45.19742" lon="5.72969">
        <ele>301</ele>
        <time>2021-05-22T03:39:29.000Z</time>
      </trkpt>
      <trkpt lat="45.19741" lon="5.72967">
        <ele>301.20001220703</ele>
        <time>2021-05-22T03:39:31.000Z</time>
      </trkpt>
      <trkpt lat="45.1974" lon="5.72966">
        <ele>301.39999389648</ele>
        <time>2021-05-22T03:39:32.000Z</time>
      </trkpt>
      <trkpt lat="45.19739" lon="5.72964">
        <ele>301.79998779297</ele>
        <time>2021-05-22T03:39:33.000Z</time>
      </trkpt>
      <trkpt lat="45.19738" lon="5.72963">
        <ele>301.79998779297</ele>
        <time>2021-05-22T03:39:34.000Z</time>
      </trkpt>
      <trkpt lat="45.19735" lon="5.72959">
        <ele>302.20001220703</ele>
        <time>2021-05-22T03:39:36.000Z</time>
      </trkpt>
      <trkpt lat="45.19734" lon="5.72957">
        <ele>302.60000610352</ele>
        <time>2021-05-22T03:39:37.000Z</time>
      </trkpt>
      <trkpt lat="45.19731" lon="5.7295">
        <ele>303.39999389648</ele>
        <time>2021-05-22T03:39:40.000Z</time>
      </trkpt>
      <trkpt lat="45.19727" lon="5.72942">
        <ele>304.20001220703</ele>
        <time>2021-05-22T03:39:44.000Z</time>
      </trkpt>
      <trkpt lat="45.19726" lon="5.7294">
        <ele>304.39999389648</ele>
        <time>2021-05-22T03:39:45.000Z</time>
      </trkpt>
      <trkpt lat="45.19722" lon="5.72931">
        <ele>305.20001220703</ele>
        <time>2021-05-22T03:39:49.000Z</time>
      </trkpt>
      <trkpt lat="45.1972" lon="5.7293">
        <ele>305.39999389648</ele>
        <time>2021-05-22T03:39:50.000Z</time>
      </trkpt>
      <trkpt lat="45.19717" lon="5.72923">
        <ele>306</ele>
        <time>2021-05-22T03:39:53.000Z</time>
      </trkpt>
      <trkpt lat="45.19716" lon="5.72921">
        <ele>306.20001220703</ele>
        <time>2021-05-22T03:39:54.000Z</time>
      </trkpt>
      <trkpt lat="45.19714" lon="5.72918">
        <ele>306.39999389648</ele>
        <time>2021-05-22T03:39:55.000Z</time>
      </trkpt>
      <trkpt lat="45.19713" lon="5.72915">
        <ele>306.60000610352</ele>
        <time>2021-05-22T03:39:56.000Z</time>
      </trkpt>
      <trkpt lat="45.19711" lon="5.72912">
        <ele>306.79998779297</ele>
        <time>2021-05-22T03:39:58.000Z</time>
      </trkpt>
      <trkpt lat="45.19708" lon="5.72909">
        <ele>307.79998779297</ele>
        <time>2021-05-22T03:40:00.000Z</time>
      </trkpt>
      <trkpt lat="45.19701" lon="5.72901">
        <ele>308.60000610352</ele>
        <time>2021-05-22T03:40:05.000Z</time>
      </trkpt>
      <trkpt lat="45.19699" lon="5.729">
        <ele>308.79998779297</ele>
        <time>2021-05-22T03:40:06.000Z</time>
      </trkpt>
      <trkpt lat="45.19697" lon="5.72898">
        <ele>309.20001220703</ele>
        <time>2021-05-22T03:40:07.000Z</time>
      </trkpt>
      <trkpt lat="45.1969" lon="5.7289">
        <ele>309.79998779297</ele>
        <time>2021-05-22T03:40:12.000Z</time>
      </trkpt>
      <trkpt lat="45.19688" lon="5.72885">
        <ele>310.60000610352</ele>
        <time>2021-05-22T03:40:14.000Z</time>
      </trkpt>
      <trkpt lat="45.19686" lon="5.7288">
        <ele>311</ele>
        <time>2021-05-22T03:40:16.000Z</time>
      </trkpt>
      <trkpt lat="45.19682" lon="5.72867">
        <ele>312</ele>
        <time>2021-05-22T03:40:20.000Z</time>
      </trkpt>
      <trkpt lat="45.19682" lon="5.72864">
        <ele>312.39999389648</ele>
        <time>2021-05-22T03:40:21.000Z</time>
      </trkpt>
      <trkpt lat="45.19687" lon="5.72859">
        <ele>313.39999389648</ele>
        <time>2021-05-22T03:40:24.000Z</time>
      </trkpt>
      <trkpt lat="45.19689" lon="5.72858">
        <ele>313.60000610352</ele>
        <time>2021-05-22T03:40:25.000Z</time>
      </trkpt>
      <trkpt lat="45.19695" lon="5.7286">
        <ele>314</ele>
        <time>2021-05-22T03:40:29.000Z</time>
      </trkpt>
      <trkpt lat="45.19697" lon="5.7286">
        <ele>314.20001220703</ele>
        <time>2021-05-22T03:40:30.000Z</time>
      </trkpt>
      <trkpt lat="45.19698" lon="5.72861">
        <ele>314.39999389648</ele>
        <time>2021-05-22T03:40:31.000Z</time>
      </trkpt>
      <trkpt lat="45.19701" lon="5.72862">
        <ele>314.79998779297</ele>
        <time>2021-05-22T03:40:33.000Z</time>
      </trkpt>
      <trkpt lat="45.19703" lon="5.72863">
        <ele>315.39999389648</ele>
        <time>2021-05-22T03:40:35.000Z</time>
      </trkpt>
      <trkpt lat="45.19704" lon="5.72864">
        <ele>315.39999389648</ele>
        <time>2021-05-22T03:40:36.000Z</time>
      </trkpt>
      <trkpt lat="45.19712" lon="5.72869">
        <ele>316.60000610352</ele>
        <time>2021-05-22T03:40:42.000Z</time>
      </trkpt>
      <trkpt lat="45.19713" lon="5.72869">
        <ele>316.79998779297</ele>
        <time>2021-05-22T03:40:43.000Z</time>
      </trkpt>
      <trkpt lat="45.1972" lon="5.72873">
        <ele>317.79998779297</ele>
        <time>2021-05-22T03:40:47.000Z</time>
      </trkpt>
      <trkpt lat="45.19722" lon="5.72873">
        <ele>318</ele>
        <time>2021-05-22T03:40:49.000Z</time>
      </trkpt>
      <trkpt lat="45.19727" lon="5.72876">
        <ele>318.79998779297</ele>
        <time>2021-05-22T03:40:53.000Z</time>
      </trkpt>
      <trkpt lat="45.19731" lon="5.72877">
        <ele>319.20001220703</ele>
        <time>2021-05-22T03:40:56.000Z</time>
      </trkpt>
      <trkpt lat="45.19732" lon="5.72878">
        <ele>319.79998779297</ele>
        <time>2021-05-22T03:40:57.000Z</time>
      </trkpt>
      <trkpt lat="45.19733" lon="5.72879">
        <ele>320</ele>
        <time>2021-05-22T03:40:58.000Z</time>
      </trkpt>
      <trkpt lat="45.19736" lon="5.72881">
        <ele>320.39999389648</ele>
        <time>2021-05-22T03:41:00.000Z</time>
      </trkpt>
      <trkpt lat="45.19739" lon="5.72883">
        <ele>320.79998779297</ele>
        <time>2021-05-22T03:41:02.000Z</time>
      </trkpt>
      <trkpt lat="45.19741" lon="5.72885">
        <ele>321.39999389648</ele>
        <time>2021-05-22T03:41:04.000Z</time>
      </trkpt>
      <trkpt lat="45.19748" lon="5.7289">
        <ele>322.39999389648</ele>
        <time>2021-05-22T03:41:08.000Z</time>
      </trkpt>
      <trkpt lat="45.1975" lon="5.72892">
        <ele>322.60000610352</ele>
        <time>2021-05-22T03:41:09.000Z</time>
      </trkpt>
      <trkpt lat="45.19754" lon="5.72897">
        <ele>323</ele>
        <time>2021-05-22T03:41:12.000Z</time>
      </trkpt>
      <trkpt lat="45.19757" lon="5.729">
        <ele>323.20001220703</ele>
        <time>2021-05-22T03:41:14.000Z</time>
      </trkpt>
      <trkpt lat="45.19759" lon="5.72901">
        <ele>323.79998779297</ele>
        <time>2021-05-22T03:41:15.000Z</time>
      </trkpt>
      <trkpt lat="45.19761" lon="5.72902">
        <ele>324.39999389648</ele>
        <time>2021-05-22T03:41:17.000Z</time>
      </trkpt>
      <trkpt lat="45.19764" lon="5.72903">
        <ele>324.60000610352</ele>
        <time>2021-05-22T03:41:19.000Z</time>
      </trkpt>
      <trkpt lat="45.19766" lon="5.72903">
        <ele>324.79998779297</ele>
        <time>2021-05-22T03:41:20.000Z</time>
      </trkpt>
      <trkpt lat="45.19767" lon="5.72904">
        <ele>325</ele>
        <time>2021-05-22T03:41:21.000Z</time>
      </trkpt>
      <trkpt lat="45.19772" lon="5.72908">
        <ele>326</ele>
        <time>2021-05-22T03:41:25.000Z</time>
      </trkpt>
      <trkpt lat="45.19779" lon="5.72912">
        <ele>326.39999389648</ele>
        <time>2021-05-22T03:41:29.000Z</time>
      </trkpt>
      <trkpt lat="45.19781" lon="5.72913">
        <ele>327</ele>
        <time>2021-05-22T03:41:31.000Z</time>
      </trkpt>
      <trkpt lat="45.19781" lon="5.72913">
        <ele>327.39999389648</ele>
        <time>2021-05-22T03:41:33.000Z</time>
      </trkpt>
      <trkpt lat="45.19782" lon="5.72915">
        <ele>327.60000610352</ele>
        <time>2021-05-22T03:41:34.000Z</time>
      </trkpt>
      <trkpt lat="45.19782" lon="5.72917">
        <ele>327.79998779297</ele>
        <time>2021-05-22T03:41:35.000Z</time>
      </trkpt>
      <trkpt lat="45.19781" lon="5.72918">
        <ele>328</ele>
        <time>2021-05-22T03:41:36.000Z</time>
      </trkpt>
      <trkpt lat="45.19775" lon="5.72919">
        <ele>329</ele>
        <time>2021-05-22T03:41:40.000Z</time>
      </trkpt>
      <trkpt lat="45.19774" lon="5.72918">
        <ele>329.20001220703</ele>
        <time>2021-05-22T03:41:41.000Z</time>
      </trkpt>
      <trkpt lat="45.19772" lon="5.72917">
        <ele>329.60000610352</ele>
        <time>2021-05-22T03:41:43.000Z</time>
      </trkpt>
      <trkpt lat="45.1977" lon="5.72915">
        <ele>330</ele>
        <time>2021-05-22T03:41:45.000Z</time>
      </trkpt>
      <trkpt lat="45.19768" lon="5.72912">
        <ele>330.60000610352</ele>
        <time>2021-05-22T03:41:47.000Z</time>
      </trkpt>
      <trkpt lat="45.19761" lon="5.72903">
        <ele>331.79998779297</ele>
        <time>2021-05-22T03:41:53.000Z</time>
      </trkpt>
      <trkpt lat="45.19755" lon="5.72896">
        <ele>332.79998779297</ele>
        <time>2021-05-22T03:41:57.000Z</time>
      </trkpt>
      <trkpt lat="45.19753" lon="5.72891">
        <ele>333</ele>
        <time>2021-05-22T03:42:00.000Z</time>
      </trkpt>
      <trkpt lat="45.19751" lon="5.72886">
        <ele>333.79998779297</ele>
        <time>2021-05-22T03:42:02.000Z</time>
      </trkpt>
      <trkpt lat="45.19746" lon="5.7288">
        <ele>334.39999389648</ele>
        <time>2021-05-22T03:42:06.000Z</time>
      </trkpt>
      <trkpt lat="45.19744" lon="5.72876">
        <ele>335</ele>
        <time>2021-05-22T03:42:08.000Z</time>
      </trkpt>
      <trkpt lat="45.19743" lon="5.72873">
        <ele>335.39999389648</ele>
        <time>2021-05-22T03:42:10.000Z</time>
      </trkpt>
      <trkpt lat="45.19742" lon="5.72871">
        <ele>335.60000610352</ele>
        <time>2021-05-22T03:42:11.000Z</time>
      </trkpt>
      <trkpt lat="45.19741" lon="5.72867">
        <ele>336.20001220703</ele>
        <time>2021-05-22T03:42:13.000Z</time>
      </trkpt>
      <trkpt lat="45.19739" lon="5.72864">
        <ele>336.39999389648</ele>
        <time>2021-05-22T03:42:15.000Z</time>
      </trkpt>
      <trkpt lat="45.19735" lon="5.72854">
        <ele>337.39999389648</ele>
        <time>2021-05-22T03:42:19.000Z</time>
      </trkpt>
      <trkpt lat="45.19736" lon="5.7285">
        <ele>338</ele>
        <time>2021-05-22T03:42:21.000Z</time>
      </trkpt>
      <trkpt lat="45.19737" lon="5.72849">
        <ele>338.39999389648</ele>
        <time>2021-05-22T03:42:22.000Z</time>
      </trkpt>
      <trkpt lat="45.19743" lon="5.72848">
        <ele>339.39999389648</ele>
        <time>2021-05-22T03:42:26.000Z</time>
      </trkpt>
      <trkpt lat="45.19744" lon="5.72849">
        <ele>339.79998779297</ele>
        <time>2021-05-22T03:42:27.000Z</time>
      </trkpt>
      <trkpt lat="45.19752" lon="5.72853">
        <ele>340.39999389648</ele>
        <time>2021-05-22T03:42:33.000Z</time>
      </trkpt>
      <trkpt lat="45.19753" lon="5.72853">
        <ele>340.79998779297</ele>
        <time>2021-05-22T03:42:34.000Z</time>
      </trkpt>
      <trkpt lat="45.1976" lon="5.72855">
        <ele>341.60000610352</ele>
        <time>2021-05-22T03:42:38.000Z</time>
      </trkpt>
      <trkpt lat="45.19762" lon="5.72856">
        <ele>342</ele>
        <time>2021-05-22T03:42:39.000Z</time>
      </trkpt>
      <trkpt lat="45.19764" lon="5.72858">
        <ele>342.20001220703</ele>
        <time>2021-05-22T03:42:41.000Z</time>
      </trkpt>
      <trkpt lat="45.19767" lon="5.72859">
        <ele>342.60000610352</ele>
        <time>2021-05-22T03:42:43.000Z</time>
      </trkpt>
      <trkpt lat="45.19768" lon="5.7286">
        <ele>343</ele>
        <time>2021-05-22T03:42:45.000Z</time>
      </trkpt>
      <trkpt lat="45.19769" lon="5.72861">
        <ele>343.39999389648</ele>
        <time>2021-05-22T03:42:46.000Z</time>
      </trkpt>
      <trkpt lat="45.19773" lon="5.72862">
        <ele>343.79998779297</ele>
        <time>2021-05-22T03:42:48.000Z</time>
      </trkpt>
      <trkpt lat="45.19776" lon="5.72865">
        <ele>344</ele>
        <time>2021-05-22T03:42:50.000Z</time>
      </trkpt>
      <trkpt lat="45.19777" lon="5.72866">
        <ele>344.39999389648</ele>
        <time>2021-05-22T03:42:51.000Z</time>
      </trkpt>
      <trkpt lat="45.19781" lon="5.72869">
        <ele>344.79998779297</ele>
        <time>2021-05-22T03:42:54.000Z</time>
      </trkpt>
      <trkpt lat="45.19783" lon="5.72872">
        <ele>345.60000610352</ele>
        <time>2021-05-22T03:42:56.000Z</time>
      </trkpt>
      <trkpt lat="45.19784" lon="5.72875">
        <ele>345.79998779297</ele>
        <time>2021-05-22T03:42:57.000Z</time>
      </trkpt>
      <trkpt lat="45.19785" lon="5.72876">
        <ele>346</ele>
        <time>2021-05-22T03:42:58.000Z</time>
      </trkpt>
      <trkpt lat="45.1979" lon="5.72876">
        <ele>346.79998779297</ele>
        <time>2021-05-22T03:43:01.000Z</time>
      </trkpt>
      <trkpt lat="45.19792" lon="5.72876">
        <ele>346.79998779297</ele>
        <time>2021-05-22T03:43:02.000Z</time>
      </trkpt>
      <trkpt lat="45.19793" lon="5.72876">
        <ele>347</ele>
        <time>2021-05-22T03:43:04.000Z</time>
      </trkpt>
      <trkpt lat="45.19791" lon="5.72876">
        <ele>347.39999389648</ele>
        <time>2021-05-22T03:43:06.000Z</time>
      </trkpt>
      <trkpt lat="45.1979" lon="5.72875">
        <ele>347.60000610352</ele>
        <time>2021-05-22T03:43:07.000Z</time>
      </trkpt>
      <trkpt lat="45.1979" lon="5.72874">
        <ele>347.79998779297</ele>
        <time>2021-05-22T03:43:08.000Z</time>
      </trkpt>
      <trkpt lat="45.19787" lon="5.72872">
        <ele>348.39999389648</ele>
        <time>2021-05-22T03:43:11.000Z</time>
      </trkpt>
      <trkpt lat="45.19785" lon="5.7287">
        <ele>349</ele>
        <time>2021-05-22T03:43:13.000Z</time>
      </trkpt>
      <trkpt lat="45.19784" lon="5.72867">
        <ele>349.39999389648</ele>
        <time>2021-05-22T03:43:15.000Z</time>
      </trkpt>
      <trkpt lat="45.19783" lon="5.72862">
        <ele>350</ele>
        <time>2021-05-22T03:43:18.000Z</time>
      </trkpt>
      <trkpt lat="45.19779" lon="5.72859">
        <ele>350.60000610352</ele>
        <time>2021-05-22T03:43:21.000Z</time>
      </trkpt>
      <trkpt lat="45.19777" lon="5.72856">
        <ele>351.20001220703</ele>
        <time>2021-05-22T03:43:23.000Z</time>
      </trkpt>
      <trkpt lat="45.19774" lon="5.72853">
        <ele>351.39999389648</ele>
        <time>2021-05-22T03:43:25.000Z</time>
      </trkpt>
      <trkpt lat="45.19769" lon="5.7285">
        <ele>352.39999389648</ele>
        <time>2021-05-22T03:43:28.000Z</time>
      </trkpt>
      <trkpt lat="45.19764" lon="5.72846">
        <ele>353.39999389648</ele>
        <time>2021-05-22T03:43:32.000Z</time>
      </trkpt>
      <trkpt lat="45.19758" lon="5.72839">
        <ele>354.39999389648</ele>
        <time>2021-05-22T03:43:37.000Z</time>
      </trkpt>
      <trkpt lat="45.19755" lon="5.72835">
        <ele>354.60000610352</ele>
        <time>2021-05-22T03:43:39.000Z</time>
      </trkpt>
      <trkpt lat="45.1975" lon="5.72828">
        <ele>355.39999389648</ele>
        <time>2021-05-22T03:43:43.000Z</time>
      </trkpt>
      <trkpt lat="45.19749" lon="5.72826">
        <ele>355.60000610352</ele>
        <time>2021-05-22T03:43:44.000Z</time>
      </trkpt>
      <trkpt lat="45.19746" lon="5.72818">
        <ele>356.39999389648</ele>
        <time>2021-05-22T03:43:47.000Z</time>
      </trkpt>
      <trkpt lat="45.19746" lon="5.72815">
        <ele>356.60000610352</ele>
        <time>2021-05-22T03:43:48.000Z</time>
      </trkpt>
      <trkpt lat="45.19746" lon="5.72813">
        <ele>356.79998779297</ele>
        <time>2021-05-22T03:43:49.000Z</time>
      </trkpt>
      <trkpt lat="45.19748" lon="5.72814">
        <ele>357</ele>
        <time>2021-05-22T03:43:51.000Z</time>
      </trkpt>
      <trkpt lat="45.19749" lon="5.72814">
        <ele>357.39999389648</ele>
        <time>2021-05-22T03:43:52.000Z</time>
      </trkpt>
      <trkpt lat="45.19753" lon="5.72815">
        <ele>358</ele>
        <time>2021-05-22T03:43:54.000Z</time>
      </trkpt>
      <trkpt lat="45.19755" lon="5.72818">
        <ele>358.39999389648</ele>
        <time>2021-05-22T03:43:56.000Z</time>
      </trkpt>
      <trkpt lat="45.19759" lon="5.72821">
        <ele>359</ele>
        <time>2021-05-22T03:43:59.000Z</time>
      </trkpt>
      <trkpt lat="45.19761" lon="5.72823">
        <ele>359.79998779297</ele>
        <time>2021-05-22T03:44:01.000Z</time>
      </trkpt>
      <trkpt lat="45.19764" lon="5.72824">
        <ele>360.20001220703</ele>
        <time>2021-05-22T03:44:03.000Z</time>
      </trkpt>
      <trkpt lat="45.19773" lon="5.72826">
        <ele>361</ele>
        <time>2021-05-22T03:44:08.000Z</time>
      </trkpt>
      <trkpt lat="45.19776" lon="5.72827">
        <ele>361.39999389648</ele>
        <time>2021-05-22T03:44:10.000Z</time>
      </trkpt>
      <trkpt lat="45.19779" lon="5.7283">
        <ele>361.79998779297</ele>
        <time>2021-05-22T03:44:12.000Z</time>
      </trkpt>
      <trkpt lat="45.19781" lon="5.72832">
        <ele>362.39999389648</ele>
        <time>2021-05-22T03:44:14.000Z</time>
      </trkpt>
      <trkpt lat="45.19782" lon="5.72833">
        <ele>362.60000610352</ele>
        <time>2021-05-22T03:44:15.000Z</time>
      </trkpt>
      <trkpt lat="45.19785" lon="5.72837">
        <ele>363.39999389648</ele>
        <time>2021-05-22T03:44:18.000Z</time>
      </trkpt>
      <trkpt lat="45.19789" lon="5.72838">
        <ele>363.60000610352</ele>
        <time>2021-05-22T03:44:20.000Z</time>
      </trkpt>
      <trkpt lat="45.19799" lon="5.72842">
        <ele>364.60000610352</ele>
        <time>2021-05-22T03:44:25.000Z</time>
      </trkpt>
      <trkpt lat="45.19807" lon="5.72844">
        <ele>365.60000610352</ele>
        <time>2021-05-22T03:44:29.000Z</time>
      </trkpt>
      <trkpt lat="45.19812" lon="5.72844">
        <ele>365.79998779297</ele>
        <time>2021-05-22T03:44:31.000Z</time>
      </trkpt>
      <trkpt lat="45.19813" lon="5.72843">
        <ele>366.20001220703</ele>
        <time>2021-05-22T03:44:33.000Z</time>
      </trkpt>
      <trkpt lat="45.19811" lon="5.72844">
        <ele>367</ele>
        <time>2021-05-22T03:44:35.000Z</time>
      </trkpt>
      <trkpt lat="45.19806" lon="5.72842">
        <ele>367.39999389648</ele>
        <time>2021-05-22T03:44:38.000Z</time>
      </trkpt>
      <trkpt lat="45.19797" lon="5.72837">
        <ele>368.20001220703</ele>
        <time>2021-05-22T03:44:43.000Z</time>
      </trkpt>
      <trkpt lat="45.19796" lon="5.72836">
        <ele>368.20001220703</ele>
        <time>2021-05-22T03:44:44.000Z</time>
      </trkpt>
      <trkpt lat="45.19787" lon="5.72831">
        <ele>369</ele>
        <time>2021-05-22T03:44:49.000Z</time>
      </trkpt>
      <trkpt lat="45.19784" lon="5.72828">
        <ele>369.20001220703</ele>
        <time>2021-05-22T03:44:51.000Z</time>
      </trkpt>
      <trkpt lat="45.19783" lon="5.72824">
        <ele>369.60000610352</ele>
        <time>2021-05-22T03:44:53.000Z</time>
      </trkpt>
      <trkpt lat="45.19784" lon="5.72822">
        <ele>369.60000610352</ele>
        <time>2021-05-22T03:44:54.000Z</time>
      </trkpt>
      <trkpt lat="45.19791" lon="5.72822">
        <ele>370.20001220703</ele>
        <time>2021-05-22T03:44:58.000Z</time>
      </trkpt>
      <trkpt lat="45.19792" lon="5.72823">
        <ele>370.60000610352</ele>
        <time>2021-05-22T03:44:59.000Z</time>
      </trkpt>
      <trkpt lat="45.198" lon="5.72826">
        <ele>371.39999389648</ele>
        <time>2021-05-22T03:45:02.000Z</time>
      </trkpt>
      <trkpt lat="45.19806" lon="5.72828">
        <ele>372.39999389648</ele>
        <time>2021-05-22T03:45:07.000Z</time>
      </trkpt>
      <trkpt lat="45.19807" lon="5.72829">
        <ele>372.60000610352</ele>
        <time>2021-05-22T03:45:08.000Z</time>
      </trkpt>
      <trkpt lat="45.19809" lon="5.7283">
        <ele>373</ele>
        <time>2021-05-22T03:45:10.000Z</time>
      </trkpt>
      <trkpt lat="45.19813" lon="5.72831">
        <ele>373.39999389648</ele>
        <time>2021-05-22T03:45:12.000Z</time>
      </trkpt>
      <trkpt lat="45.19816" lon="5.72831">
        <ele>373.60000610352</ele>
        <time>2021-05-22T03:45:13.000Z</time>
      </trkpt>
      <trkpt lat="45.19822" lon="5.72835">
        <ele>374.39999389648</ele>
        <time>2021-05-22T03:45:17.000Z</time>
      </trkpt>
      <trkpt lat="45.19826" lon="5.72836">
        <ele>374.60000610352</ele>
        <time>2021-05-22T03:45:19.000Z</time>
      </trkpt>
      <trkpt lat="45.19827" lon="5.72834">
        <ele>375</ele>
        <time>2021-05-22T03:45:20.000Z</time>
      </trkpt>
      <trkpt lat="45.19826" lon="5.72833">
        <ele>375.20001220703</ele>
        <time>2021-05-22T03:45:21.000Z</time>
      </trkpt>
      <trkpt lat="45.19824" lon="5.72831">
        <ele>375.60000610352</ele>
        <time>2021-05-22T03:45:23.000Z</time>
      </trkpt>
      <trkpt lat="45.19821" lon="5.72831">
        <ele>376</ele>
        <time>2021-05-22T03:45:25.000Z</time>
      </trkpt>
      <trkpt lat="45.1982" lon="5.7283">
        <ele>376.20001220703</ele>
        <time>2021-05-22T03:45:26.000Z</time>
      </trkpt>
      <trkpt lat="45.19817" lon="5.72829">
        <ele>376.39999389648</ele>
        <time>2021-05-22T03:45:28.000Z</time>
      </trkpt>
      <trkpt lat="45.19812" lon="5.72826">
        <ele>377.20001220703</ele>
        <time>2021-05-22T03:45:32.000Z</time>
      </trkpt>
      <trkpt lat="45.19811" lon="5.72825">
        <ele>377.39999389648</ele>
        <time>2021-05-22T03:45:33.000Z</time>
      </trkpt>
      <trkpt lat="45.1981" lon="5.72822">
        <ele>377.60000610352</ele>
        <time>2021-05-22T03:45:34.000Z</time>
      </trkpt>
      <trkpt lat="45.1981" lon="5.72821">
        <ele>377.79998779297</ele>
        <time>2021-05-22T03:45:35.000Z</time>
      </trkpt>
      <trkpt lat="45.19813" lon="5.72818">
        <ele>378.20001220703</ele>
        <time>2021-05-22T03:45:37.000Z</time>
      </trkpt>
      <trkpt lat="45.19821" lon="5.72822">
        <ele>379.39999389648</ele>
        <time>2021-05-22T03:45:43.000Z</time>
      </trkpt>
      <trkpt lat="45.1983" lon="5.72828">
        <ele>380.60000610352</ele>
        <time>2021-05-22T03:45:48.000Z</time>
      </trkpt>
      <trkpt lat="45.19833" lon="5.7283">
        <ele>381</ele>
        <time>2021-05-22T03:45:50.000Z</time>
      </trkpt>
      <trkpt lat="45.19836" lon="5.72832">
        <ele>381.39999389648</ele>
        <time>2021-05-22T03:45:52.000Z</time>
      </trkpt>
      <trkpt lat="45.19837" lon="5.72831">
        <ele>381.79998779297</ele>
        <time>2021-05-22T03:45:54.000Z</time>
      </trkpt>
      <trkpt lat="45.19834" lon="5.72828">
        <ele>382.60000610352</ele>
        <time>2021-05-22T03:45:57.000Z</time>
      </trkpt>
      <trkpt lat="45.19831" lon="5.72827">
        <ele>383</ele>
        <time>2021-05-22T03:45:59.000Z</time>
      </trkpt>
      <trkpt lat="45.19827" lon="5.72824">
        <ele>383.60000610352</ele>
        <time>2021-05-22T03:46:02.000Z</time>
      </trkpt>
      <trkpt lat="45.19826" lon="5.72822">
        <ele>383.79998779297</ele>
        <time>2021-05-22T03:46:03.000Z</time>
      </trkpt>
      <trkpt lat="45.19825" lon="5.7282">
        <ele>383.79998779297</ele>
        <time>2021-05-22T03:46:04.000Z</time>
      </trkpt>
      <trkpt lat="45.19824" lon="5.72819">
        <ele>384.20001220703</ele>
        <time>2021-05-22T03:46:05.000Z</time>
      </trkpt>
      <trkpt lat="45.19818" lon="5.72813">
        <ele>385.39999389648</ele>
        <time>2021-05-22T03:46:10.000Z</time>
      </trkpt>
      <trkpt lat="45.19816" lon="5.72812">
        <ele>385.39999389648</ele>
        <time>2021-05-22T03:46:11.000Z</time>
      </trkpt>
      <trkpt lat="45.19809" lon="5.7281">
        <ele>386.39999389648</ele>
        <time>2021-05-22T03:46:15.000Z</time>
      </trkpt>
      <trkpt lat="45.19803" lon="5.72805">
        <ele>387.39999389648</ele>
        <time>2021-05-22T03:46:19.000Z</time>
      </trkpt>
      <trkpt lat="45.19802" lon="5.72804">
        <ele>387.60000610352</ele>
        <time>2021-05-22T03:46:20.000Z</time>
      </trkpt>
      <trkpt lat="45.19799" lon="5.72801">
        <ele>388.20001220703</ele>
        <time>2021-05-22T03:46:22.000Z</time>
      </trkpt>
      <trkpt lat="45.19794" lon="5.72795">
        <ele>388.79998779297</ele>
        <time>2021-05-22T03:46:26.000Z</time>
      </trkpt>
      <trkpt lat="45.19792" lon="5.72793">
        <ele>389</ele>
        <time>2021-05-22T03:46:27.000Z</time>
      </trkpt>
      <trkpt lat="45.19791" lon="5.72788">
        <ele>389.20001220703</ele>
        <time>2021-05-22T03:46:29.000Z</time>
      </trkpt>
      <trkpt lat="45.19792" lon="5.72786">
        <ele>389.60000610352</ele>
        <time>2021-05-22T03:46:31.000Z</time>
      </trkpt>
      <trkpt lat="45.19793" lon="5.72785">
        <ele>389.79998779297</ele>
        <time>2021-05-22T03:46:32.000Z</time>
      </trkpt>
      <trkpt lat="45.19795" lon="5.72785">
        <ele>390.20001220703</ele>
        <time>2021-05-22T03:46:34.000Z</time>
      </trkpt>
      <trkpt lat="45.19796" lon="5.72785">
        <ele>390.20001220703</ele>
        <time>2021-05-22T03:46:35.000Z</time>
      </trkpt>
      <trkpt lat="45.19799" lon="5.72786">
        <ele>391</ele>
        <time>2021-05-22T03:46:37.000Z</time>
      </trkpt>
      <trkpt lat="45.19803" lon="5.72789">
        <ele>391.39999389648</ele>
        <time>2021-05-22T03:46:40.000Z</time>
      </trkpt>
      <trkpt lat="45.19805" lon="5.72789">
        <ele>391.60000610352</ele>
        <time>2021-05-22T03:46:41.000Z</time>
      </trkpt>
      <trkpt lat="45.1981" lon="5.72792">
        <ele>392.20001220703</ele>
        <time>2021-05-22T03:46:44.000Z</time>
      </trkpt>
      <trkpt lat="45.19811" lon="5.72792">
        <ele>392.60000610352</ele>
        <time>2021-05-22T03:46:45.000Z</time>
      </trkpt>
      <trkpt lat="45.19815" lon="5.72794">
        <ele>393</ele>
        <time>2021-05-22T03:46:47.000Z</time>
      </trkpt>
      <trkpt lat="45.19815" lon="5.72795">
        <ele>393.39999389648</ele>
        <time>2021-05-22T03:46:48.000Z</time>
      </trkpt>
      <trkpt lat="45.19821" lon="5.72798">
        <ele>393.79998779297</ele>
        <time>2021-05-22T03:46:51.000Z</time>
      </trkpt>
      <trkpt lat="45.19826" lon="5.72799">
        <ele>394.39999389648</ele>
        <time>2021-05-22T03:46:53.000Z</time>
      </trkpt>
      <trkpt lat="45.19832" lon="5.72802">
        <ele>395.20001220703</ele>
        <time>2021-05-22T03:46:57.000Z</time>
      </trkpt>
      <trkpt lat="45.19834" lon="5.72801">
        <ele>395.39999389648</ele>
        <time>2021-05-22T03:46:58.000Z</time>
      </trkpt>
      <trkpt lat="45.19834" lon="5.72801">
        <ele>395.79998779297</ele>
        <time>2021-05-22T03:46:59.000Z</time>
      </trkpt>
      <trkpt lat="45.19833" lon="5.728">
        <ele>396.20001220703</ele>
        <time>2021-05-22T03:47:00.000Z</time>
      </trkpt>
      <trkpt lat="45.19829" lon="5.72796">
        <ele>397.20001220703</ele>
        <time>2021-05-22T03:47:04.000Z</time>
      </trkpt>
      <trkpt lat="45.19824" lon="5.72793">
        <ele>398.20001220703</ele>
        <time>2021-05-22T03:47:08.000Z</time>
      </trkpt>
      <trkpt lat="45.19823" lon="5.72792">
        <ele>398.39999389648</ele>
        <time>2021-05-22T03:47:09.000Z</time>
      </trkpt>
      <trkpt lat="45.19818" lon="5.72786">
        <ele>399.20001220703</ele>
        <time>2021-05-22T03:47:14.000Z</time>
      </trkpt>
      <trkpt lat="45.19813" lon="5.7278">
        <ele>400.39999389648</ele>
        <time>2021-05-22T03:47:18.000Z</time>
      </trkpt>
      <trkpt lat="45.19808" lon="5.72775">
        <ele>401</ele>
        <time>2021-05-22T03:47:22.000Z</time>
      </trkpt>
      <trkpt lat="45.19805" lon="5.72771">
        <ele>401.60000610352</ele>
        <time>2021-05-22T03:47:24.000Z</time>
      </trkpt>
      <trkpt lat="45.19805" lon="5.7277">
        <ele>401.79998779297</ele>
        <time>2021-05-22T03:47:25.000Z</time>
      </trkpt>
      <trkpt lat="45.19802" lon="5.72765">
        <ele>402.39999389648</ele>
        <time>2021-05-22T03:47:28.000Z</time>
      </trkpt>
      <trkpt lat="45.19801" lon="5.72763">
        <ele>402.60000610352</ele>
        <time>2021-05-22T03:47:29.000Z</time>
      </trkpt>
      <trkpt lat="45.198" lon="5.72762">
        <ele>402.79998779297</ele>
        <time>2021-05-22T03:47:30.000Z</time>
      </trkpt>
      <trkpt lat="45.19799" lon="5.72761">
        <ele>403.20001220703</ele>
        <time>2021-05-22T03:47:31.000Z</time>
      </trkpt>
      <trkpt lat="45.19796" lon="5.72757">
        <ele>403.79998779297</ele>
        <time>2021-05-22T03:47:34.000Z</time>
      </trkpt>
      <trkpt lat="45.19794" lon="5.72756">
        <ele>404.20001220703</ele>
        <time>2021-05-22T03:47:35.000Z</time>
      </trkpt>
      <trkpt lat="45.1979" lon="5.72752">
        <ele>404.60000610352</ele>
        <time>2021-05-22T03:47:38.000Z</time>
      </trkpt>
      <trkpt lat="45.19788" lon="5.7275">
        <ele>405</ele>
        <time>2021-05-22T03:47:39.000Z</time>
      </trkpt>
      <trkpt lat="45.19786" lon="5.72743">
        <ele>405.60000610352</ele>
        <time>2021-05-22T03:47:42.000Z</time>
      </trkpt>
      <trkpt lat="45.19787" lon="5.72736">
        <ele>406</ele>
        <time>2021-05-22T03:47:44.000Z</time>
      </trkpt>
      <trkpt lat="45.19788" lon="5.72734">
        <ele>406.20001220703</ele>
        <time>2021-05-22T03:47:45.000Z</time>
      </trkpt>
      <trkpt lat="45.19791" lon="5.72734">
        <ele>406.39999389648</ele>
        <time>2021-05-22T03:47:46.000Z</time>
      </trkpt>
      <trkpt lat="45.19792" lon="5.72735">
        <ele>407</ele>
        <time>2021-05-22T03:47:48.000Z</time>
      </trkpt>
      <trkpt lat="45.19795" lon="5.72736">
        <ele>407.20001220703</ele>
        <time>2021-05-22T03:47:50.000Z</time>
      </trkpt>
      <trkpt lat="45.19797" lon="5.72737">
        <ele>407.60000610352</ele>
        <time>2021-05-22T03:47:51.000Z</time>
      </trkpt>
      <trkpt lat="45.19799" lon="5.7274">
        <ele>408</ele>
        <time>2021-05-22T03:47:53.000Z</time>
      </trkpt>
      <trkpt lat="45.19802" lon="5.72742">
        <ele>408.60000610352</ele>
        <time>2021-05-22T03:47:55.000Z</time>
      </trkpt>
      <trkpt lat="45.19803" lon="5.72743">
        <ele>408.60000610352</ele>
        <time>2021-05-22T03:47:56.000Z</time>
      </trkpt>
      <trkpt lat="45.19805" lon="5.72746">
        <ele>409</ele>
        <time>2021-05-22T03:47:58.000Z</time>
      </trkpt>
      <trkpt lat="45.19806" lon="5.72747">
        <ele>409.20001220703</ele>
        <time>2021-05-22T03:47:59.000Z</time>
      </trkpt>
      <trkpt lat="45.19811" lon="5.72749">
        <ele>409.60000610352</ele>
        <time>2021-05-22T03:48:02.000Z</time>
      </trkpt>
      <trkpt lat="45.19814" lon="5.72754">
        <ele>409.79998779297</ele>
        <time>2021-05-22T03:48:05.000Z</time>
      </trkpt>
      <trkpt lat="45.19816" lon="5.72756">
        <ele>410</ele>
        <time>2021-05-22T03:48:06.000Z</time>
      </trkpt>
      <trkpt lat="45.19821" lon="5.72763">
        <ele>410.60000610352</ele>
        <time>2021-05-22T03:48:10.000Z</time>
      </trkpt>
      <trkpt lat="45.19825" lon="5.72765">
        <ele>410.79998779297</ele>
        <time>2021-05-22T03:48:12.000Z</time>
      </trkpt>
      <trkpt lat="45.19833" lon="5.7277">
        <ele>411.79998779297</ele>
        <time>2021-05-22T03:48:16.000Z</time>
      </trkpt>
      <trkpt lat="45.1984" lon="5.72775">
        <ele>412.79998779297</ele>
        <time>2021-05-22T03:48:20.000Z</time>
      </trkpt>
      <trkpt lat="45.19841" lon="5.72777">
        <ele>413</ele>
        <time>2021-05-22T03:48:21.000Z</time>
      </trkpt>
      <trkpt lat="45.19843" lon="5.72778">
        <ele>413</ele>
        <time>2021-05-22T03:48:22.000Z</time>
      </trkpt>
      <trkpt lat="45.19846" lon="5.72779">
        <ele>413.60000610352</ele>
        <time>2021-05-22T03:48:24.000Z</time>
      </trkpt>
      <trkpt lat="45.19847" lon="5.72778">
        <ele>413.60000610352</ele>
        <time>2021-05-22T03:48:25.000Z</time>
      </trkpt>
      <trkpt lat="45.19845" lon="5.72774">
        <ele>414</ele>
        <time>2021-05-22T03:48:28.000Z</time>
      </trkpt>
      <trkpt lat="45.19843" lon="5.72772">
        <ele>414</ele>
        <time>2021-05-22T03:48:29.000Z</time>
      </trkpt>
      <trkpt lat="45.19842" lon="5.72768">
        <ele>414.60000610352</ele>
        <time>2021-05-22T03:48:32.000Z</time>
      </trkpt>
      <trkpt lat="45.19844" lon="5.72767">
        <ele>415</ele>
        <time>2021-05-22T03:48:34.000Z</time>
      </trkpt>
      <trkpt lat="45.19845" lon="5.72767">
        <ele>415.39999389648</ele>
        <time>2021-05-22T03:48:35.000Z</time>
      </trkpt>
      <trkpt lat="45.19846" lon="5.72768">
        <ele>416.20001220703</ele>
        <time>2021-05-22T03:48:37.000Z</time>
      </trkpt>
      <trkpt lat="45.19846" lon="5.72769">
        <ele>416.60000610352</ele>
        <time>2021-05-22T03:48:38.000Z</time>
      </trkpt>
      <trkpt lat="45.19847" lon="5.72769">
        <ele>417.20001220703</ele>
        <time>2021-05-22T03:48:39.000Z</time>
      </trkpt>
      <trkpt lat="45.19848" lon="5.72772">
        <ele>418.60000610352</ele>
        <time>2021-05-22T03:48:42.000Z</time>
      </trkpt>
      <trkpt lat="45.19849" lon="5.72775">
        <ele>419</ele>
        <time>2021-05-22T03:48:44.000Z</time>
      </trkpt>
      <trkpt lat="45.1985" lon="5.72775">
        <ele>419.79998779297</ele>
        <time>2021-05-22T03:48:47.000Z</time>
      </trkpt>
      <trkpt lat="45.1985" lon="5.72773">
        <ele>420.79998779297</ele>
        <time>2021-05-22T03:48:51.000Z</time>
      </trkpt>
      <trkpt lat="45.19851" lon="5.72773">
        <ele>421</ele>
        <time>2021-05-22T03:48:52.000Z</time>
      </trkpt>
      <trkpt lat="45.19842" lon="5.72747">
        <ele>433.20001220703</ele>
        <time>2021-05-22T03:49:34.000Z</time>
      </trkpt>
      <trkpt lat="45.19848" lon="5.72755">
        <ele>433.79998779297</ele>
        <time>2021-05-22T03:49:36.000Z</time>
      </trkpt>
      <trkpt lat="45.19844" lon="5.72754">
        <ele>434.39999389648</ele>
        <time>2021-05-22T03:49:38.000Z</time>
      </trkpt>
      <trkpt lat="45.19847" lon="5.72759">
        <ele>435.60000610352</ele>
        <time>2021-05-22T03:49:41.000Z</time>
      </trkpt>
      <trkpt lat="45.19848" lon="5.72761">
        <ele>436.20001220703</ele>
        <time>2021-05-22T03:49:42.000Z</time>
      </trkpt>
      <trkpt lat="45.19848" lon="5.72761">
        <ele>436.79998779297</ele>
        <time>2021-05-22T03:49:43.000Z</time>
      </trkpt>
      <trkpt lat="45.1985" lon="5.72758">
        <ele>438</ele>
        <time>2021-05-22T03:49:47.000Z</time>
      </trkpt>
      <trkpt lat="45.1985" lon="5.72757">
        <ele>438.39999389648</ele>
        <time>2021-05-22T03:49:48.000Z</time>
      </trkpt>
      <trkpt lat="45.1985" lon="5.72747">
        <ele>439</ele>
        <time>2021-05-22T03:49:53.000Z</time>
      </trkpt>
      <trkpt lat="45.1985" lon="5.72744">
        <ele>439</ele>
        <time>2021-05-22T03:49:55.000Z</time>
      </trkpt>
      <trkpt lat="45.19849" lon="5.72742">
        <ele>439.39999389648</ele>
        <time>2021-05-22T03:49:57.000Z</time>
      </trkpt>
      <trkpt lat="45.19848" lon="5.72741">
        <ele>439.39999389648</ele>
        <time>2021-05-22T03:49:59.000Z</time>
      </trkpt>
      <trkpt lat="45.19846" lon="5.72739">
        <ele>440</ele>
        <time>2021-05-22T03:50:01.000Z</time>
      </trkpt>
      <trkpt lat="45.19845" lon="5.72739">
        <ele>440.20001220703</ele>
        <time>2021-05-22T03:50:02.000Z</time>
      </trkpt>
      <trkpt lat="45.19845" lon="5.72741">
        <ele>440.39999389648</ele>
        <time>2021-05-22T03:50:03.000Z</time>
      </trkpt>
      <trkpt lat="45.19842" lon="5.72746">
        <ele>443.20001220703</ele>
        <time>2021-05-22T03:50:15.000Z</time>
      </trkpt>
      <trkpt lat="45.19835" lon="5.72749">
        <ele>443.39999389648</ele>
        <time>2021-05-22T03:50:16.000Z</time>
      </trkpt>
      <trkpt lat="45.19832" lon="5.72748">
        <ele>443.39999389648</ele>
        <time>2021-05-22T03:50:18.000Z</time>
      </trkpt>
      <trkpt lat="45.19828" lon="5.72736">
        <ele>443.39999389648</ele>
        <time>2021-05-22T03:50:22.000Z</time>
      </trkpt>
      <trkpt lat="45.19827" lon="5.72734">
        <ele>443.39999389648</ele>
        <time>2021-05-22T03:50:23.000Z</time>
      </trkpt>
      <trkpt lat="45.19826" lon="5.72729">
        <ele>443.39999389648</ele>
        <time>2021-05-22T03:50:25.000Z</time>
      </trkpt>
      <trkpt lat="45.19823" lon="5.72727">
        <ele>443.39999389648</ele>
        <time>2021-05-22T03:50:27.000Z</time>
      </trkpt>
      <trkpt lat="45.19807" lon="5.72714">
        <ele>443.20001220703</ele>
        <time>2021-05-22T03:50:35.000Z</time>
      </trkpt>
      <trkpt lat="45.19791" lon="5.72699">
        <ele>443</ele>
        <time>2021-05-22T03:50:43.000Z</time>
      </trkpt>
      <trkpt lat="45.19782" lon="5.72691">
        <ele>442.79998779297</ele>
        <time>2021-05-22T03:50:47.000Z</time>
      </trkpt>
      <trkpt lat="45.19773" lon="5.72684">
        <ele>442.60000610352</ele>
        <time>2021-05-22T03:50:52.000Z</time>
      </trkpt>
      <trkpt lat="45.19768" lon="5.72688">
        <ele>442.39999389648</ele>
        <time>2021-05-22T03:50:53.000Z</time>
      </trkpt>
      <trkpt lat="45.19767" lon="5.72688">
        <ele>442.60000610352</ele>
        <time>2021-05-22T03:50:56.000Z</time>
      </trkpt>
      <trkpt lat="45.19766" lon="5.72682">
        <ele>442.60000610352</ele>
        <time>2021-05-22T03:50:58.000Z</time>
      </trkpt>
      <trkpt lat="45.19767" lon="5.7267">
        <ele>442.39999389648</ele>
        <time>2021-05-22T03:51:02.000Z</time>
      </trkpt>
      <trkpt lat="45.19766" lon="5.72668">
        <ele>442.39999389648</ele>
        <time>2021-05-22T03:51:03.000Z</time>
      </trkpt>
      <trkpt lat="45.19753" lon="5.7265">
        <ele>442.39999389648</ele>
        <time>2021-05-22T03:51:10.000Z</time>
      </trkpt>
      <trkpt lat="45.19748" lon="5.72643">
        <ele>442.39999389648</ele>
        <time>2021-05-22T03:51:13.000Z</time>
      </trkpt>
      <trkpt lat="45.19742" lon="5.72635">
        <ele>442.60000610352</ele>
        <time>2021-05-22T03:51:17.000Z</time>
      </trkpt>
      <trkpt lat="45.19741" lon="5.72635">
        <ele>442.79998779297</ele>
        <time>2021-05-22T03:51:18.000Z</time>
      </trkpt>
      <trkpt lat="45.1974" lon="5.72636">
        <ele>442.60000610352</ele>
        <time>2021-05-22T03:51:19.000Z</time>
      </trkpt>
      <trkpt lat="45.19734" lon="5.72636">
        <ele>442.60000610352</ele>
        <time>2021-05-22T03:51:22.000Z</time>
      </trkpt>
      <trkpt lat="45.19729" lon="5.7263">
        <ele>442.60000610352</ele>
        <time>2021-05-22T03:51:25.000Z</time>
      </trkpt>
      <trkpt lat="45.1973" lon="5.72627">
        <ele>442.60000610352</ele>
        <time>2021-05-22T03:51:26.000Z</time>
      </trkpt>
      <trkpt lat="45.19732" lon="5.72621">
        <ele>442.60000610352</ele>
        <time>2021-05-22T03:51:28.000Z</time>
      </trkpt>
      <trkpt lat="45.19736" lon="5.72618">
        <ele>442.60000610352</ele>
        <time>2021-05-22T03:51:30.000Z</time>
      </trkpt>
      <trkpt lat="45.19738" lon="5.72614">
        <ele>442.60000610352</ele>
        <time>2021-05-22T03:51:32.000Z</time>
      </trkpt>
      <trkpt lat="45.19739" lon="5.72607">
        <ele>442.60000610352</ele>
        <time>2021-05-22T03:51:34.000Z</time>
      </trkpt>
      <trkpt lat="45.19739" lon="5.72604">
        <ele>442.39999389648</ele>
        <time>2021-05-22T03:51:35.000Z</time>
      </trkpt>
      <trkpt lat="45.19738" lon="5.72592">
        <ele>442.60000610352</ele>
        <time>2021-05-22T03:51:38.000Z</time>
      </trkpt>
      <trkpt lat="45.19739" lon="5.72578">
        <ele>442.60000610352</ele>
        <time>2021-05-22T03:51:42.000Z</time>
      </trkpt>
      <trkpt lat="45.19739" lon="5.72553">
        <ele>442.60000610352</ele>
        <time>2021-05-22T03:51:49.000Z</time>
      </trkpt>
      <trkpt lat="45.19738" lon="5.72537">
        <ele>442.60000610352</ele>
        <time>2021-05-22T03:51:54.000Z</time>
      </trkpt>
      <trkpt lat="45.19734" lon="5.72536">
        <ele>442.79998779297</ele>
        <time>2021-05-22T03:51:56.000Z</time>
      </trkpt>
      <trkpt lat="45.19727" lon="5.72525">
        <ele>442.79998779297</ele>
        <time>2021-05-22T03:52:01.000Z</time>
      </trkpt>
      <trkpt lat="45.19733" lon="5.7251">
        <ele>442.79998779297</ele>
        <time>2021-05-22T03:52:06.000Z</time>
      </trkpt>
      <trkpt lat="45.19734" lon="5.72509">
        <ele>442.79998779297</ele>
        <time>2021-05-22T03:52:07.000Z</time>
      </trkpt>
      <trkpt lat="45.19739" lon="5.7251">
        <ele>442.79998779297</ele>
        <time>2021-05-22T03:52:09.000Z</time>
      </trkpt>
      <trkpt lat="45.19743" lon="5.7251">
        <ele>442.79998779297</ele>
        <time>2021-05-22T03:52:11.000Z</time>
      </trkpt>
      <trkpt lat="45.19746" lon="5.72506">
        <ele>442.60000610352</ele>
        <time>2021-05-22T03:52:13.000Z</time>
      </trkpt>
      <trkpt lat="45.19752" lon="5.72496">
        <ele>442.60000610352</ele>
        <time>2021-05-22T03:52:16.000Z</time>
      </trkpt>
      <trkpt lat="45.19755" lon="5.7249">
        <ele>442.60000610352</ele>
        <time>2021-05-22T03:52:18.000Z</time>
      </trkpt>
      <trkpt lat="45.19759" lon="5.72481">
        <ele>442.79998779297</ele>
        <time>2021-05-22T03:52:21.000Z</time>
      </trkpt>
      <trkpt lat="45.1977" lon="5.7246">
        <ele>442.79998779297</ele>
        <time>2021-05-22T03:52:28.000Z</time>
      </trkpt>
      <trkpt lat="45.19773" lon="5.72454">
        <ele>442.79998779297</ele>
        <time>2021-05-22T03:52:30.000Z</time>
      </trkpt>
      <trkpt lat="45.19784" lon="5.72434">
        <ele>442.60000610352</ele>
        <time>2021-05-22T03:52:37.000Z</time>
      </trkpt>
      <trkpt lat="45.19785" lon="5.72431">
        <ele>442.60000610352</ele>
        <time>2021-05-22T03:52:38.000Z</time>
      </trkpt>
      <trkpt lat="45.19793" lon="5.72411">
        <ele>443.60000610352</ele>
        <time>2021-05-22T03:52:45.000Z</time>
      </trkpt>
      <trkpt lat="45.19794" lon="5.72385">
        <ele>443.79998779297</ele>
        <time>2021-05-22T03:52:52.000Z</time>
      </trkpt>
      <trkpt lat="45.19795" lon="5.72378">
        <ele>443.79998779297</ele>
        <time>2021-05-22T03:52:54.000Z</time>
      </trkpt>
      <trkpt lat="45.19801" lon="5.72357">
        <ele>443.79998779297</ele>
        <time>2021-05-22T03:53:00.000Z</time>
      </trkpt>
      <trkpt lat="45.1981" lon="5.72334">
        <ele>443.60000610352</ele>
        <time>2021-05-22T03:53:07.000Z</time>
      </trkpt>
      <trkpt lat="45.19811" lon="5.72331">
        <ele>443.60000610352</ele>
        <time>2021-05-22T03:53:08.000Z</time>
      </trkpt>
      <trkpt lat="45.19815" lon="5.72318">
        <ele>443.60000610352</ele>
        <time>2021-05-22T03:53:13.000Z</time>
      </trkpt>
      <trkpt lat="45.19814" lon="5.72316">
        <ele>443.60000610352</ele>
        <time>2021-05-22T03:53:14.000Z</time>
      </trkpt>
      <trkpt lat="45.19815" lon="5.72314">
        <ele>443.60000610352</ele>
        <time>2021-05-22T03:53:15.000Z</time>
      </trkpt>
      <trkpt lat="45.19819" lon="5.72302">
        <ele>443.20001220703</ele>
        <time>2021-05-22T03:53:19.000Z</time>
      </trkpt>
      <trkpt lat="45.1982" lon="5.72299">
        <ele>443.20001220703</ele>
        <time>2021-05-22T03:53:20.000Z</time>
      </trkpt>
      <trkpt lat="45.19821" lon="5.72298">
        <ele>443.20001220703</ele>
        <time>2021-05-22T03:53:21.000Z</time>
      </trkpt>
      <trkpt lat="45.19822" lon="5.72299">
        <ele>443.60000610352</ele>
        <time>2021-05-22T03:53:23.000Z</time>
      </trkpt>
      <trkpt lat="45.19815" lon="5.7232">
        <ele>443.60000610352</ele>
        <time>2021-05-22T03:53:30.000Z</time>
      </trkpt>
      <trkpt lat="45.19811" lon="5.72337">
        <ele>443.79998779297</ele>
        <time>2021-05-22T03:53:36.000Z</time>
      </trkpt>
      <trkpt lat="45.19801" lon="5.72361">
        <ele>443.79998779297</ele>
        <time>2021-05-22T03:53:44.000Z</time>
      </trkpt>
      <trkpt lat="45.19795" lon="5.72375">
        <ele>443.79998779297</ele>
        <time>2021-05-22T03:53:49.000Z</time>
      </trkpt>
      <trkpt lat="45.19793" lon="5.72392">
        <ele>443.60000610352</ele>
        <time>2021-05-22T03:53:54.000Z</time>
      </trkpt>
      <trkpt lat="45.19792" lon="5.72416">
        <ele>443.60000610352</ele>
        <time>2021-05-22T03:54:00.000Z</time>
      </trkpt>
      <trkpt lat="45.1979" lon="5.72441">
        <ele>442.60000610352</ele>
        <time>2021-05-22T03:54:07.000Z</time>
      </trkpt>
      <trkpt lat="45.1979" lon="5.72459">
        <ele>443.20001220703</ele>
        <time>2021-05-22T03:54:13.000Z</time>
      </trkpt>
      <trkpt lat="45.19789" lon="5.7247">
        <ele>443.60000610352</ele>
        <time>2021-05-22T03:54:16.000Z</time>
      </trkpt>
      <trkpt lat="45.19785" lon="5.7248">
        <ele>444</ele>
        <time>2021-05-22T03:54:20.000Z</time>
      </trkpt>
      <trkpt lat="45.1978" lon="5.72499">
        <ele>444.79998779297</ele>
        <time>2021-05-22T03:54:27.000Z</time>
      </trkpt>
      <trkpt lat="45.19773" lon="5.72517">
        <ele>445.79998779297</ele>
        <time>2021-05-22T03:54:34.000Z</time>
      </trkpt>
      <trkpt lat="45.19772" lon="5.7252">
        <ele>446</ele>
        <time>2021-05-22T03:54:35.000Z</time>
      </trkpt>
      <trkpt lat="45.19768" lon="5.72534">
        <ele>446.79998779297</ele>
        <time>2021-05-22T03:54:40.000Z</time>
      </trkpt>
      <trkpt lat="45.19768" lon="5.72538">
        <ele>447</ele>
        <time>2021-05-22T03:54:42.000Z</time>
      </trkpt>
      <trkpt lat="45.19769" lon="5.72547">
        <ele>447.79998779297</ele>
        <time>2021-05-22T03:54:45.000Z</time>
      </trkpt>
      <trkpt lat="45.1977" lon="5.72554">
        <ele>448.20001220703</ele>
        <time>2021-05-22T03:54:48.000Z</time>
      </trkpt>
      <trkpt lat="45.19771" lon="5.72561">
        <ele>448.79998779297</ele>
        <time>2021-05-22T03:54:51.000Z</time>
      </trkpt>
      <trkpt lat="45.19771" lon="5.72564">
        <ele>449</ele>
        <time>2021-05-22T03:54:52.000Z</time>
      </trkpt>
      <trkpt lat="45.19771" lon="5.72567">
        <ele>449.39999389648</ele>
        <time>2021-05-22T03:54:53.000Z</time>
      </trkpt>
      <trkpt lat="45.19771" lon="5.72572">
        <ele>450</ele>
        <time>2021-05-22T03:54:55.000Z</time>
      </trkpt>
      <trkpt lat="45.1977" lon="5.72581">
        <ele>450.60000610352</ele>
        <time>2021-05-22T03:54:58.000Z</time>
      </trkpt>
      <trkpt lat="45.19771" lon="5.72583">
        <ele>450.60000610352</ele>
        <time>2021-05-22T03:54:59.000Z</time>
      </trkpt>
      <trkpt lat="45.19771" lon="5.72583">
        <ele>451</ele>
        <time>2021-05-22T03:55:00.000Z</time>
      </trkpt>
      <trkpt lat="45.19772" lon="5.72582">
        <ele>451.39999389648</ele>
        <time>2021-05-22T03:55:02.000Z</time>
      </trkpt>
      <trkpt lat="45.19772" lon="5.7258">
        <ele>451.60000610352</ele>
        <time>2021-05-22T03:55:03.000Z</time>
      </trkpt>
      <trkpt lat="45.19771" lon="5.72572">
        <ele>452.39999389648</ele>
        <time>2021-05-22T03:55:07.000Z</time>
      </trkpt>
      <trkpt lat="45.19771" lon="5.72567">
        <ele>452.60000610352</ele>
        <time>2021-05-22T03:55:09.000Z</time>
      </trkpt>
      <trkpt lat="45.19774" lon="5.72553">
        <ele>453.39999389648</ele>
        <time>2021-05-22T03:55:14.000Z</time>
      </trkpt>
      <trkpt lat="45.19775" lon="5.72551">
        <ele>453.79998779297</ele>
        <time>2021-05-22T03:55:15.000Z</time>
      </trkpt>
      <trkpt lat="45.19776" lon="5.72547">
        <ele>454</ele>
        <time>2021-05-22T03:55:16.000Z</time>
      </trkpt>
      <trkpt lat="45.19778" lon="5.72536">
        <ele>455</ele>
        <time>2021-05-22T03:55:21.000Z</time>
      </trkpt>
      <trkpt lat="45.19781" lon="5.7253">
        <ele>455.60000610352</ele>
        <time>2021-05-22T03:55:24.000Z</time>
      </trkpt>
      <trkpt lat="45.19786" lon="5.72528">
        <ele>455.79998779297</ele>
        <time>2021-05-22T03:55:27.000Z</time>
      </trkpt>
      <trkpt lat="45.19787" lon="5.72532">
        <ele>456.39999389648</ele>
        <time>2021-05-22T03:55:28.000Z</time>
      </trkpt>
      <trkpt lat="45.19788" lon="5.72549">
        <ele>457.60000610352</ele>
        <time>2021-05-22T03:55:35.000Z</time>
      </trkpt>
      <trkpt lat="45.19788" lon="5.72557">
        <ele>458</ele>
        <time>2021-05-22T03:55:38.000Z</time>
      </trkpt>
      <trkpt lat="45.1979" lon="5.72567">
        <ele>458.79998779297</ele>
        <time>2021-05-22T03:55:42.000Z</time>
      </trkpt>
      <trkpt lat="45.19791" lon="5.72581">
        <ele>459.79998779297</ele>
        <time>2021-05-22T03:55:48.000Z</time>
      </trkpt>
      <trkpt lat="45.19791" lon="5.72583">
        <ele>460.20001220703</ele>
        <time>2021-05-22T03:55:49.000Z</time>
      </trkpt>
      <trkpt lat="45.19793" lon="5.72597">
        <ele>460.79998779297</ele>
        <time>2021-05-22T03:55:55.000Z</time>
      </trkpt>
      <trkpt lat="45.19794" lon="5.72601">
        <ele>461.39999389648</ele>
        <time>2021-05-22T03:55:57.000Z</time>
      </trkpt>
      <trkpt lat="45.19796" lon="5.72612">
        <ele>462</ele>
        <time>2021-05-22T03:56:02.000Z</time>
      </trkpt>
      <trkpt lat="45.19797" lon="5.72613">
        <ele>462.20001220703</ele>
        <time>2021-05-22T03:56:03.000Z</time>
      </trkpt>
      <trkpt lat="45.19798" lon="5.72615">
        <ele>462.39999389648</ele>
        <time>2021-05-22T03:56:04.000Z</time>
      </trkpt>
      <trkpt lat="45.19801" lon="5.7262">
        <ele>463.20001220703</ele>
        <time>2021-05-22T03:56:07.000Z</time>
      </trkpt>
      <trkpt lat="45.19802" lon="5.72623">
        <ele>463.60000610352</ele>
        <time>2021-05-22T03:56:09.000Z</time>
      </trkpt>
      <trkpt lat="45.19807" lon="5.72635">
        <ele>464.60000610352</ele>
        <time>2021-05-22T03:56:15.000Z</time>
      </trkpt>
      <trkpt lat="45.1981" lon="5.7264">
        <ele>465.39999389648</ele>
        <time>2021-05-22T03:56:19.000Z</time>
      </trkpt>
      <trkpt lat="45.19811" lon="5.72642">
        <ele>465.60000610352</ele>
        <time>2021-05-22T03:56:20.000Z</time>
      </trkpt>
      <trkpt lat="45.19812" lon="5.72644">
        <ele>465.79998779297</ele>
        <time>2021-05-22T03:56:22.000Z</time>
      </trkpt>
      <trkpt lat="45.19814" lon="5.72647">
        <ele>466.39999389648</ele>
        <time>2021-05-22T03:56:24.000Z</time>
      </trkpt>
      <trkpt lat="45.19817" lon="5.7265">
        <ele>466.60000610352</ele>
        <time>2021-05-22T03:56:26.000Z</time>
      </trkpt>
      <trkpt lat="45.19819" lon="5.72651">
        <ele>466.79998779297</ele>
        <time>2021-05-22T03:56:27.000Z</time>
      </trkpt>
      <trkpt lat="45.19822" lon="5.72653">
        <ele>467.39999389648</ele>
        <time>2021-05-22T03:56:29.000Z</time>
      </trkpt>
      <trkpt lat="45.19825" lon="5.72657">
        <ele>467.79998779297</ele>
        <time>2021-05-22T03:56:32.000Z</time>
      </trkpt>
      <trkpt lat="45.19828" lon="5.72661">
        <ele>468.20001220703</ele>
        <time>2021-05-22T03:56:34.000Z</time>
      </trkpt>
      <trkpt lat="45.19834" lon="5.72667">
        <ele>468.60000610352</ele>
        <time>2021-05-22T03:56:38.000Z</time>
      </trkpt>
      <trkpt lat="45.19835" lon="5.72668">
        <ele>468.79998779297</ele>
        <time>2021-05-22T03:56:39.000Z</time>
      </trkpt>
      <trkpt lat="45.19836" lon="5.7267">
        <ele>469.20001220703</ele>
        <time>2021-05-22T03:56:40.000Z</time>
      </trkpt>
      <trkpt lat="45.19841" lon="5.72674">
        <ele>469.79998779297</ele>
        <time>2021-05-22T03:56:44.000Z</time>
      </trkpt>
      <trkpt lat="45.19849" lon="5.72682">
        <ele>470.79998779297</ele>
        <time>2021-05-22T03:56:50.000Z</time>
      </trkpt>
      <trkpt lat="45.1985" lon="5.72683">
        <ele>471</ele>
        <time>2021-05-22T03:56:51.000Z</time>
      </trkpt>
      <trkpt lat="45.19851" lon="5.72683">
        <ele>471.20001220703</ele>
        <time>2021-05-22T03:56:52.000Z</time>
      </trkpt>
      <trkpt lat="45.19851" lon="5.72682">
        <ele>471.20001220703</ele>
        <time>2021-05-22T03:56:54.000Z</time>
      </trkpt>
      <trkpt lat="45.19848" lon="5.72679">
        <ele>471.60000610352</ele>
        <time>2021-05-22T03:56:57.000Z</time>
      </trkpt>
      <trkpt lat="45.19846" lon="5.72676">
        <ele>472.20001220703</ele>
        <time>2021-05-22T03:56:59.000Z</time>
      </trkpt>
      <trkpt lat="45.19843" lon="5.72674">
        <ele>472.79998779297</ele>
        <time>2021-05-22T03:57:02.000Z</time>
      </trkpt>
      <trkpt lat="45.1984" lon="5.7267">
        <ele>473.39999389648</ele>
        <time>2021-05-22T03:57:04.000Z</time>
      </trkpt>
      <trkpt lat="45.19833" lon="5.72666">
        <ele>474</ele>
        <time>2021-05-22T03:57:08.000Z</time>
      </trkpt>
      <trkpt lat="45.19832" lon="5.72664">
        <ele>474.39999389648</ele>
        <time>2021-05-22T03:57:09.000Z</time>
      </trkpt>
      <trkpt lat="45.19831" lon="5.72662">
        <ele>474.60000610352</ele>
        <time>2021-05-22T03:57:10.000Z</time>
      </trkpt>
      <trkpt lat="45.19827" lon="5.72655">
        <ele>475</ele>
        <time>2021-05-22T03:57:13.000Z</time>
      </trkpt>
      <trkpt lat="45.19825" lon="5.72648">
        <ele>475.39999389648</ele>
        <time>2021-05-22T03:57:16.000Z</time>
      </trkpt>
      <trkpt lat="45.19824" lon="5.72643">
        <ele>475.60000610352</ele>
        <time>2021-05-22T03:57:18.000Z</time>
      </trkpt>
      <trkpt lat="45.19824" lon="5.72637">
        <ele>476.20001220703</ele>
        <time>2021-05-22T03:57:20.000Z</time>
      </trkpt>
      <trkpt lat="45.19824" lon="5.72635">
        <ele>476.39999389648</ele>
        <time>2021-05-22T03:57:21.000Z</time>
      </trkpt>
      <trkpt lat="45.19824" lon="5.72632">
        <ele>476.60000610352</ele>
        <time>2021-05-22T03:57:22.000Z</time>
      </trkpt>
      <trkpt lat="45.19823" lon="5.72627">
        <ele>476.79998779297</ele>
        <time>2021-05-22T03:57:24.000Z</time>
      </trkpt>
      <trkpt lat="45.19821" lon="5.72617">
        <ele>477.79998779297</ele>
        <time>2021-05-22T03:57:28.000Z</time>
      </trkpt>
      <trkpt lat="45.19819" lon="5.72615">
        <ele>478</ele>
        <time>2021-05-22T03:57:29.000Z</time>
      </trkpt>
      <trkpt lat="45.19814" lon="5.72602">
        <ele>478.79998779297</ele>
        <time>2021-05-22T03:57:34.000Z</time>
      </trkpt>
      <trkpt lat="45.19814" lon="5.72596">
        <ele>479.20001220703</ele>
        <time>2021-05-22T03:57:36.000Z</time>
      </trkpt>
      <trkpt lat="45.19814" lon="5.72591">
        <ele>479.39999389648</ele>
        <time>2021-05-22T03:57:38.000Z</time>
      </trkpt>
      <trkpt lat="45.19813" lon="5.72583">
        <ele>480</ele>
        <time>2021-05-22T03:57:41.000Z</time>
      </trkpt>
      <trkpt lat="45.19813" lon="5.72578">
        <ele>480.20001220703</ele>
        <time>2021-05-22T03:57:43.000Z</time>
      </trkpt>
      <trkpt lat="45.19814" lon="5.72565">
        <ele>481.20001220703</ele>
        <time>2021-05-22T03:57:48.000Z</time>
      </trkpt>
      <trkpt lat="45.19814" lon="5.72553">
        <ele>482.39999389648</ele>
        <time>2021-05-22T03:57:53.000Z</time>
      </trkpt>
      <trkpt lat="45.19814" lon="5.72533">
        <ele>483.60000610352</ele>
        <time>2021-05-22T03:58:00.000Z</time>
      </trkpt>
      <trkpt lat="45.19819" lon="5.72517">
        <ele>484.20001220703</ele>
        <time>2021-05-22T03:58:05.000Z</time>
      </trkpt>
      <trkpt lat="45.19821" lon="5.72513">
        <ele>484.60000610352</ele>
        <time>2021-05-22T03:58:06.000Z</time>
      </trkpt>
      <trkpt lat="45.19823" lon="5.72508">
        <ele>485.20001220703</ele>
        <time>2021-05-22T03:58:08.000Z</time>
      </trkpt>
      <trkpt lat="45.19826" lon="5.725">
        <ele>486</ele>
        <time>2021-05-22T03:58:11.000Z</time>
      </trkpt>
      <trkpt lat="45.19829" lon="5.72492">
        <ele>486.79998779297</ele>
        <time>2021-05-22T03:58:15.000Z</time>
      </trkpt>
      <trkpt lat="45.19829" lon="5.72489">
        <ele>487.20001220703</ele>
        <time>2021-05-22T03:58:16.000Z</time>
      </trkpt>
      <trkpt lat="45.19832" lon="5.72476">
        <ele>488.20001220703</ele>
        <time>2021-05-22T03:58:22.000Z</time>
      </trkpt>
      <trkpt lat="45.19832" lon="5.72471">
        <ele>488.79998779297</ele>
        <time>2021-05-22T03:58:24.000Z</time>
      </trkpt>
      <trkpt lat="45.19833" lon="5.72468">
        <ele>489.20001220703</ele>
        <time>2021-05-22T03:58:25.000Z</time>
      </trkpt>
      <trkpt lat="45.19836" lon="5.72452">
        <ele>490.20001220703</ele>
        <time>2021-05-22T03:58:31.000Z</time>
      </trkpt>
      <trkpt lat="45.19836" lon="5.7245">
        <ele>490.39999389648</ele>
        <time>2021-05-22T03:58:32.000Z</time>
      </trkpt>
      <trkpt lat="45.19841" lon="5.72441">
        <ele>491.39999389648</ele>
        <time>2021-05-22T03:58:36.000Z</time>
      </trkpt>
      <trkpt lat="45.19842" lon="5.72441">
        <ele>491.79998779297</ele>
        <time>2021-05-22T03:58:37.000Z</time>
      </trkpt>
      <trkpt lat="45.19845" lon="5.72443">
        <ele>492</ele>
        <time>2021-05-22T03:58:39.000Z</time>
      </trkpt>
      <trkpt lat="45.19845" lon="5.72448">
        <ele>492.20001220703</ele>
        <time>2021-05-22T03:58:41.000Z</time>
      </trkpt>
      <trkpt lat="45.19845" lon="5.72451">
        <ele>492.39999389648</ele>
        <time>2021-05-22T03:58:42.000Z</time>
      </trkpt>
      <trkpt lat="45.19846" lon="5.72453">
        <ele>492.60000610352</ele>
        <time>2021-05-22T03:58:43.000Z</time>
      </trkpt>
      <trkpt lat="45.19847" lon="5.72459">
        <ele>493</ele>
        <time>2021-05-22T03:58:45.000Z</time>
      </trkpt>
      <trkpt lat="45.19849" lon="5.72466">
        <ele>493.60000610352</ele>
        <time>2021-05-22T03:58:48.000Z</time>
      </trkpt>
      <trkpt lat="45.1985" lon="5.72474">
        <ele>494.20001220703</ele>
        <time>2021-05-22T03:58:51.000Z</time>
      </trkpt>
      <trkpt lat="45.19849" lon="5.72479">
        <ele>494.60000610352</ele>
        <time>2021-05-22T03:58:53.000Z</time>
      </trkpt>
      <trkpt lat="45.19851" lon="5.72496">
        <ele>495.60000610352</ele>
        <time>2021-05-22T03:58:59.000Z</time>
      </trkpt>
      <trkpt lat="45.19852" lon="5.72499">
        <ele>495.79998779297</ele>
        <time>2021-05-22T03:59:00.000Z</time>
      </trkpt>
      <trkpt lat="45.19854" lon="5.72506">
        <ele>497</ele>
        <time>2021-05-22T03:59:03.000Z</time>
      </trkpt>
      <trkpt lat="45.19854" lon="5.72508">
        <ele>497.20001220703</ele>
        <time>2021-05-22T03:59:04.000Z</time>
      </trkpt>
      <trkpt lat="45.19855" lon="5.72516">
        <ele>497.39999389648</ele>
        <time>2021-05-22T03:59:07.000Z</time>
      </trkpt>
      <trkpt lat="45.19855" lon="5.72522">
        <ele>498</ele>
        <time>2021-05-22T03:59:10.000Z</time>
      </trkpt>
      <trkpt lat="45.19855" lon="5.72528">
        <ele>498.20001220703</ele>
        <time>2021-05-22T03:59:12.000Z</time>
      </trkpt>
      <trkpt lat="45.19856" lon="5.72533">
        <ele>498.79998779297</ele>
        <time>2021-05-22T03:59:14.000Z</time>
      </trkpt>
      <trkpt lat="45.19855" lon="5.72539">
        <ele>499</ele>
        <time>2021-05-22T03:59:16.000Z</time>
      </trkpt>
      <trkpt lat="45.19856" lon="5.72549">
        <ele>499.60000610352</ele>
        <time>2021-05-22T03:59:20.000Z</time>
      </trkpt>
      <trkpt lat="45.19857" lon="5.72552">
        <ele>500</ele>
        <time>2021-05-22T03:59:22.000Z</time>
      </trkpt>
      <trkpt lat="45.19858" lon="5.72552">
        <ele>500</ele>
        <time>2021-05-22T03:59:23.000Z</time>
      </trkpt>
      <trkpt lat="45.19858" lon="5.72551">
        <ele>500.20001220703</ele>
        <time>2021-05-22T03:59:24.000Z</time>
      </trkpt>
      <trkpt lat="45.19859" lon="5.7255">
        <ele>500.60000610352</ele>
        <time>2021-05-22T03:59:25.000Z</time>
      </trkpt>
      <trkpt lat="45.19857" lon="5.72542">
        <ele>501.39999389648</ele>
        <time>2021-05-22T03:59:29.000Z</time>
      </trkpt>
      <trkpt lat="45.19856" lon="5.72527">
        <ele>502.60000610352</ele>
        <time>2021-05-22T03:59:35.000Z</time>
      </trkpt>
      <trkpt lat="45.19855" lon="5.72519">
        <ele>503</ele>
        <time>2021-05-22T03:59:37.000Z</time>
      </trkpt>
      <trkpt lat="45.19855" lon="5.72511">
        <ele>503.60000610352</ele>
        <time>2021-05-22T03:59:41.000Z</time>
      </trkpt>
      <trkpt lat="45.19858" lon="5.72495">
        <ele>504.20001220703</ele>
        <time>2021-05-22T03:59:46.000Z</time>
      </trkpt>
      <trkpt lat="45.19859" lon="5.72494">
        <ele>504.20001220703</ele>
        <time>2021-05-22T03:59:47.000Z</time>
      </trkpt>
      <trkpt lat="45.19862" lon="5.72492">
        <ele>504.60000610352</ele>
        <time>2021-05-22T03:59:50.000Z</time>
      </trkpt>
      <trkpt lat="45.19862" lon="5.7249">
        <ele>505</ele>
        <time>2021-05-22T03:59:51.000Z</time>
      </trkpt>
      <trkpt lat="45.19863" lon="5.72487">
        <ele>506.20001220703</ele>
        <time>2021-05-22T03:59:54.000Z</time>
      </trkpt>
      <trkpt lat="45.19863" lon="5.72487">
        <ele>507</ele>
        <time>2021-05-22T03:59:55.000Z</time>
      </trkpt>
      <trkpt lat="45.19864" lon="5.72485">
        <ele>507.39999389648</ele>
        <time>2021-05-22T03:59:56.000Z</time>
      </trkpt>
      <trkpt lat="45.19864" lon="5.72484">
        <ele>508</ele>
        <time>2021-05-22T03:59:57.000Z</time>
      </trkpt>
      <trkpt lat="45.19864" lon="5.72483">
        <ele>508.39999389648</ele>
        <time>2021-05-22T03:59:58.000Z</time>
      </trkpt>
      <trkpt lat="45.19864" lon="5.72482">
        <ele>508.60000610352</ele>
        <time>2021-05-22T03:59:59.000Z</time>
      </trkpt>
      <trkpt lat="45.19867" lon="5.72482">
        <ele>510</ele>
        <time>2021-05-22T04:00:02.000Z</time>
      </trkpt>
      <trkpt lat="45.19868" lon="5.72481">
        <ele>510.20001220703</ele>
        <time>2021-05-22T04:00:03.000Z</time>
      </trkpt>
      <trkpt lat="45.19869" lon="5.72481">
        <ele>510.39999389648</ele>
        <time>2021-05-22T04:00:04.000Z</time>
      </trkpt>
      <trkpt lat="45.1987" lon="5.7248">
        <ele>511</ele>
        <time>2021-05-22T04:00:06.000Z</time>
      </trkpt>
      <trkpt lat="45.19872" lon="5.7248">
        <ele>512</ele>
        <time>2021-05-22T04:00:09.000Z</time>
      </trkpt>
      <trkpt lat="45.19872" lon="5.7248">
        <ele>512.20001220703</ele>
        <time>2021-05-22T04:00:10.000Z</time>
      </trkpt>
      <trkpt lat="45.19874" lon="5.7248">
        <ele>513.40002441406</ele>
        <time>2021-05-22T04:00:12.000Z</time>
      </trkpt>
      <trkpt lat="45.19874" lon="5.72482">
        <ele>513.79998779297</ele>
        <time>2021-05-22T04:00:13.000Z</time>
      </trkpt>
      <trkpt lat="45.19876" lon="5.72488">
        <ele>514</ele>
        <time>2021-05-22T04:00:16.000Z</time>
      </trkpt>
      <trkpt lat="45.19882" lon="5.7251">
        <ele>514.40002441406</ele>
        <time>2021-05-22T04:00:23.000Z</time>
      </trkpt>
      <trkpt lat="45.19886" lon="5.72532">
        <ele>514.20001220703</ele>
        <time>2021-05-22T04:00:30.000Z</time>
      </trkpt>
      <trkpt lat="45.19886" lon="5.72536">
        <ele>514.40002441406</ele>
        <time>2021-05-22T04:00:32.000Z</time>
      </trkpt>
      <trkpt lat="45.19886" lon="5.72536">
        <ele>514.40002441406</ele>
        <time>2021-05-22T04:00:33.000Z</time>
      </trkpt>
      <trkpt lat="45.19886" lon="5.72537">
        <ele>515</ele>
        <time>2021-05-22T04:00:34.000Z</time>
      </trkpt>
      <trkpt lat="45.19885" lon="5.72539">
        <ele>515.79998779297</ele>
        <time>2021-05-22T04:00:36.000Z</time>
      </trkpt>
      <trkpt lat="45.19884" lon="5.72545">
        <ele>517</ele>
        <time>2021-05-22T04:00:40.000Z</time>
      </trkpt>
      <trkpt lat="45.19884" lon="5.72548">
        <ele>518.40002441406</ele>
        <time>2021-05-22T04:00:43.000Z</time>
      </trkpt>
      <trkpt lat="45.19883" lon="5.72549">
        <ele>518.79998779297</ele>
        <time>2021-05-22T04:00:44.000Z</time>
      </trkpt>
      <trkpt lat="45.19882" lon="5.7255">
        <ele>519.20001220703</ele>
        <time>2021-05-22T04:00:45.000Z</time>
      </trkpt>
      <trkpt lat="45.19882" lon="5.72552">
        <ele>519.40002441406</ele>
        <time>2021-05-22T04:00:46.000Z</time>
      </trkpt>
      <trkpt lat="45.19882" lon="5.72553">
        <ele>519.59997558594</ele>
        <time>2021-05-22T04:00:47.000Z</time>
      </trkpt>
      <trkpt lat="45.19882" lon="5.72562">
        <ele>519.79998779297</ele>
        <time>2021-05-22T04:00:50.000Z</time>
      </trkpt>
      <trkpt lat="45.19882" lon="5.72566">
        <ele>519.79998779297</ele>
        <time>2021-05-22T04:00:52.000Z</time>
      </trkpt>
      <trkpt lat="45.19879" lon="5.72568">
        <ele>519.79998779297</ele>
        <time>2021-05-22T04:00:54.000Z</time>
      </trkpt>
      <trkpt lat="45.19874" lon="5.72566">
        <ele>519.59997558594</ele>
        <time>2021-05-22T04:00:56.000Z</time>
      </trkpt>
      <trkpt lat="45.19874" lon="5.72564">
        <ele>519.59997558594</ele>
        <time>2021-05-22T04:00:58.000Z</time>
      </trkpt>
      <trkpt lat="45.19871" lon="5.7254">
        <ele>519.59997558594</ele>
        <time>2021-05-22T04:01:06.000Z</time>
      </trkpt>
      <trkpt lat="45.19868" lon="5.72513">
        <ele>519.79998779297</ele>
        <time>2021-05-22T04:01:14.000Z</time>
      </trkpt>
      <trkpt lat="45.19868" lon="5.7251">
        <ele>519.79998779297</ele>
        <time>2021-05-22T04:01:15.000Z</time>
      </trkpt>
      <trkpt lat="45.19868" lon="5.72503">
        <ele>519.79998779297</ele>
        <time>2021-05-22T04:01:18.000Z</time>
      </trkpt>
      <trkpt lat="45.1987" lon="5.72502">
        <ele>519.79998779297</ele>
        <time>2021-05-22T04:01:19.000Z</time>
      </trkpt>
      <trkpt lat="45.19871" lon="5.72502">
        <ele>519.79998779297</ele>
        <time>2021-05-22T04:01:20.000Z</time>
      </trkpt>
      <trkpt lat="45.19872" lon="5.72505">
        <ele>519.59997558594</ele>
        <time>2021-05-22T04:01:22.000Z</time>
      </trkpt>
      <trkpt lat="45.19876" lon="5.72523">
        <ele>519.59997558594</ele>
        <time>2021-05-22T04:01:28.000Z</time>
      </trkpt>
      <trkpt lat="45.19879" lon="5.72548">
        <ele>519.40002441406</ele>
        <time>2021-05-22T04:01:36.000Z</time>
      </trkpt>
      <trkpt lat="45.1988" lon="5.72548">
        <ele>519.40002441406</ele>
        <time>2021-05-22T04:01:37.000Z</time>
      </trkpt>
      <trkpt lat="45.1988" lon="5.72547">
        <ele>519.20001220703</ele>
        <time>2021-05-22T04:01:39.000Z</time>
      </trkpt>
      <trkpt lat="45.1988" lon="5.72546">
        <ele>519</ele>
        <time>2021-05-22T04:01:41.000Z</time>
      </trkpt>
      <trkpt lat="45.1988" lon="5.72545">
        <ele>518.40002441406</ele>
        <time>2021-05-22T04:01:42.000Z</time>
      </trkpt>
      <trkpt lat="45.19881" lon="5.72541">
        <ele>517.59997558594</ele>
        <time>2021-05-22T04:01:44.000Z</time>
      </trkpt>
      <trkpt lat="45.19881" lon="5.72538">
        <ele>517</ele>
        <time>2021-05-22T04:01:46.000Z</time>
      </trkpt>
      <trkpt lat="45.19881" lon="5.72535">
        <ele>515.40002441406</ele>
        <time>2021-05-22T04:01:49.000Z</time>
      </trkpt>
      <trkpt lat="45.19881" lon="5.72535">
        <ele>514.40002441406</ele>
        <time>2021-05-22T04:01:51.000Z</time>
      </trkpt>
      <trkpt lat="45.19882" lon="5.72536">
        <ele>514.20001220703</ele>
        <time>2021-05-22T04:01:52.000Z</time>
      </trkpt>
      <trkpt lat="45.19883" lon="5.72538">
        <ele>514</ele>
        <time>2021-05-22T04:01:53.000Z</time>
      </trkpt>
      <trkpt lat="45.19886" lon="5.7255">
        <ele>513.79998779297</ele>
        <time>2021-05-22T04:01:57.000Z</time>
      </trkpt>
      <trkpt lat="45.19887" lon="5.72579">
        <ele>513.79998779297</ele>
        <time>2021-05-22T04:02:05.000Z</time>
      </trkpt>
      <trkpt lat="45.19887" lon="5.72582">
        <ele>513.79998779297</ele>
        <time>2021-05-22T04:02:07.000Z</time>
      </trkpt>
      <trkpt lat="45.19888" lon="5.72581">
        <ele>513.79998779297</ele>
        <time>2021-05-22T04:02:09.000Z</time>
      </trkpt>
      <trkpt lat="45.19889" lon="5.72579">
        <ele>514</ele>
        <time>2021-05-22T04:02:10.000Z</time>
      </trkpt>
      <trkpt lat="45.1989" lon="5.72574">
        <ele>514</ele>
        <time>2021-05-22T04:02:12.000Z</time>
      </trkpt>
      <trkpt lat="45.19889" lon="5.72561">
        <ele>514.20001220703</ele>
        <time>2021-05-22T04:02:16.000Z</time>
      </trkpt>
      <trkpt lat="45.19887" lon="5.72551">
        <ele>514.20001220703</ele>
        <time>2021-05-22T04:02:19.000Z</time>
      </trkpt>
      <trkpt lat="45.19885" lon="5.72531">
        <ele>514.20001220703</ele>
        <time>2021-05-22T04:02:25.000Z</time>
      </trkpt>
      <trkpt lat="45.19883" lon="5.72511">
        <ele>514.40002441406</ele>
        <time>2021-05-22T04:02:31.000Z</time>
      </trkpt>
      <trkpt lat="45.19883" lon="5.72508">
        <ele>514.40002441406</ele>
        <time>2021-05-22T04:02:32.000Z</time>
      </trkpt>
      <trkpt lat="45.19881" lon="5.72491">
        <ele>514.20001220703</ele>
        <time>2021-05-22T04:02:37.000Z</time>
      </trkpt>
      <trkpt lat="45.1988" lon="5.72489">
        <ele>514.20001220703</ele>
        <time>2021-05-22T04:02:38.000Z</time>
      </trkpt>
      <trkpt lat="45.19879" lon="5.72489">
        <ele>514</ele>
        <time>2021-05-22T04:02:39.000Z</time>
      </trkpt>
      <trkpt lat="45.19877" lon="5.7249">
        <ele>513.79998779297</ele>
        <time>2021-05-22T04:02:42.000Z</time>
      </trkpt>
      <trkpt lat="45.19875" lon="5.7249">
        <ele>513.20001220703</ele>
        <time>2021-05-22T04:02:44.000Z</time>
      </trkpt>
      <trkpt lat="45.19874" lon="5.72491">
        <ele>511.79998779297</ele>
        <time>2021-05-22T04:02:46.000Z</time>
      </trkpt>
      <trkpt lat="45.19872" lon="5.72492">
        <ele>510.60000610352</ele>
        <time>2021-05-22T04:02:48.000Z</time>
      </trkpt>
      <trkpt lat="45.19871" lon="5.72493">
        <ele>509.79998779297</ele>
        <time>2021-05-22T04:02:51.000Z</time>
      </trkpt>
      <trkpt lat="45.1987" lon="5.72493">
        <ele>509.39999389648</ele>
        <time>2021-05-22T04:02:52.000Z</time>
      </trkpt>
      <trkpt lat="45.19867" lon="5.72494">
        <ele>508</ele>
        <time>2021-05-22T04:02:55.000Z</time>
      </trkpt>
      <trkpt lat="45.19866" lon="5.72494">
        <ele>507.39999389648</ele>
        <time>2021-05-22T04:02:56.000Z</time>
      </trkpt>
      <trkpt lat="45.19865" lon="5.72495">
        <ele>506.79998779297</ele>
        <time>2021-05-22T04:02:57.000Z</time>
      </trkpt>
      <trkpt lat="45.19863" lon="5.72495">
        <ele>506</ele>
        <time>2021-05-22T04:02:58.000Z</time>
      </trkpt>
      <trkpt lat="45.19862" lon="5.72494">
        <ele>505.39999389648</ele>
        <time>2021-05-22T04:02:59.000Z</time>
      </trkpt>
      <trkpt lat="45.1986" lon="5.72494">
        <ele>504.39999389648</ele>
        <time>2021-05-22T04:03:01.000Z</time>
      </trkpt>
      <trkpt lat="45.19858" lon="5.72492">
        <ele>504</ele>
        <time>2021-05-22T04:03:03.000Z</time>
      </trkpt>
      <trkpt lat="45.19862" lon="5.72487">
        <ele>504</ele>
        <time>2021-05-22T04:03:05.000Z</time>
      </trkpt>
      <trkpt lat="45.19866" lon="5.72484">
        <ele>504</ele>
        <time>2021-05-22T04:03:07.000Z</time>
      </trkpt>
      <trkpt lat="45.19878" lon="5.72477">
        <ele>504.60000610352</ele>
        <time>2021-05-22T04:03:12.000Z</time>
      </trkpt>
      <trkpt lat="45.19888" lon="5.72469">
        <ele>504.60000610352</ele>
        <time>2021-05-22T04:03:18.000Z</time>
      </trkpt>
      <trkpt lat="45.19889" lon="5.72468">
        <ele>504.60000610352</ele>
        <time>2021-05-22T04:03:19.000Z</time>
      </trkpt>
      <trkpt lat="45.19889" lon="5.72468">
        <ele>504.39999389648</ele>
        <time>2021-05-22T04:03:20.000Z</time>
      </trkpt>
      <trkpt lat="45.19889" lon="5.72466">
        <ele>504.39999389648</ele>
        <time>2021-05-22T04:03:23.000Z</time>
      </trkpt>
      <trkpt lat="45.19888" lon="5.72459">
        <ele>504.39999389648</ele>
        <time>2021-05-22T04:03:26.000Z</time>
      </trkpt>
      <trkpt lat="45.19888" lon="5.72455">
        <ele>504.39999389648</ele>
        <time>2021-05-22T04:03:27.000Z</time>
      </trkpt>
      <trkpt lat="45.199" lon="5.72441">
        <ele>503</ele>
        <time>2021-05-22T04:03:32.000Z</time>
      </trkpt>
      <trkpt lat="45.19903" lon="5.7244">
        <ele>502.60000610352</ele>
        <time>2021-05-22T04:03:33.000Z</time>
      </trkpt>
      <trkpt lat="45.19909" lon="5.72436">
        <ele>502</ele>
        <time>2021-05-22T04:03:35.000Z</time>
      </trkpt>
      <trkpt lat="45.19919" lon="5.7243">
        <ele>501.20001220703</ele>
        <time>2021-05-22T04:03:39.000Z</time>
      </trkpt>
      <trkpt lat="45.19922" lon="5.72428">
        <ele>500.79998779297</ele>
        <time>2021-05-22T04:03:40.000Z</time>
      </trkpt>
      <trkpt lat="45.19938" lon="5.72423">
        <ele>499.79998779297</ele>
        <time>2021-05-22T04:03:46.000Z</time>
      </trkpt>
      <trkpt lat="45.19946" lon="5.72422">
        <ele>500</ele>
        <time>2021-05-22T04:03:49.000Z</time>
      </trkpt>
      <trkpt lat="45.19949" lon="5.72422">
        <ele>500.20001220703</ele>
        <time>2021-05-22T04:03:50.000Z</time>
      </trkpt>
      <trkpt lat="45.19951" lon="5.72421">
        <ele>500.39999389648</ele>
        <time>2021-05-22T04:03:51.000Z</time>
      </trkpt>
      <trkpt lat="45.19961" lon="5.72419">
        <ele>501</ele>
        <time>2021-05-22T04:03:55.000Z</time>
      </trkpt>
      <trkpt lat="45.19964" lon="5.72419">
        <ele>501.20001220703</ele>
        <time>2021-05-22T04:03:56.000Z</time>
      </trkpt>
      <trkpt lat="45.19968" lon="5.72419">
        <ele>501.60000610352</ele>
        <time>2021-05-22T04:03:57.000Z</time>
      </trkpt>
      <trkpt lat="45.19968" lon="5.72419">
        <ele>501.79998779297</ele>
        <time>2021-05-22T04:03:58.000Z</time>
      </trkpt>
      <trkpt lat="45.1998" lon="5.72419">
        <ele>503</ele>
        <time>2021-05-22T04:04:03.000Z</time>
      </trkpt>
      <trkpt lat="45.19982" lon="5.72419">
        <ele>503.20001220703</ele>
        <time>2021-05-22T04:04:04.000Z</time>
      </trkpt>
      <trkpt lat="45.1999" lon="5.72419">
        <ele>504</ele>
        <time>2021-05-22T04:04:08.000Z</time>
      </trkpt>
      <trkpt lat="45.19998" lon="5.72421">
        <ele>505</ele>
        <time>2021-05-22T04:04:12.000Z</time>
      </trkpt>
      <trkpt lat="45.20006" lon="5.72422">
        <ele>506</ele>
        <time>2021-05-22T04:04:16.000Z</time>
      </trkpt>
      <trkpt lat="45.20016" lon="5.72423">
        <ele>507</ele>
        <time>2021-05-22T04:04:21.000Z</time>
      </trkpt>
      <trkpt lat="45.20018" lon="5.72423">
        <ele>507.20001220703</ele>
        <time>2021-05-22T04:04:22.000Z</time>
      </trkpt>
      <trkpt lat="45.20026" lon="5.72424">
        <ele>508.20001220703</ele>
        <time>2021-05-22T04:04:26.000Z</time>
      </trkpt>
      <trkpt lat="45.20032" lon="5.72425">
        <ele>508.60000610352</ele>
        <time>2021-05-22T04:04:29.000Z</time>
      </trkpt>
      <trkpt lat="45.20035" lon="5.72425">
        <ele>509.20001220703</ele>
        <time>2021-05-22T04:04:31.000Z</time>
      </trkpt>
      <trkpt lat="45.20044" lon="5.72425">
        <ele>509.79998779297</ele>
        <time>2021-05-22T04:04:36.000Z</time>
      </trkpt>
      <trkpt lat="45.2005" lon="5.72425">
        <ele>510.79998779297</ele>
        <time>2021-05-22T04:04:39.000Z</time>
      </trkpt>
      <trkpt lat="45.20056" lon="5.72424">
        <ele>511.79998779297</ele>
        <time>2021-05-22T04:04:43.000Z</time>
      </trkpt>
      <trkpt lat="45.20058" lon="5.72424">
        <ele>512</ele>
        <time>2021-05-22T04:04:44.000Z</time>
      </trkpt>
      <trkpt lat="45.20063" lon="5.72426">
        <ele>512.79998779297</ele>
        <time>2021-05-22T04:04:47.000Z</time>
      </trkpt>
      <trkpt lat="45.20069" lon="5.72435">
        <ele>513.79998779297</ele>
        <time>2021-05-22T04:04:51.000Z</time>
      </trkpt>
      <trkpt lat="45.20071" lon="5.72438">
        <ele>514</ele>
        <time>2021-05-22T04:04:52.000Z</time>
      </trkpt>
      <trkpt lat="45.20074" lon="5.7245">
        <ele>514.79998779297</ele>
        <time>2021-05-22T04:04:56.000Z</time>
      </trkpt>
      <trkpt lat="45.20075" lon="5.72453">
        <ele>515.20001220703</ele>
        <time>2021-05-22T04:04:57.000Z</time>
      </trkpt>
      <trkpt lat="45.20075" lon="5.72462">
        <ele>515.79998779297</ele>
        <time>2021-05-22T04:05:00.000Z</time>
      </trkpt>
      <trkpt lat="45.20076" lon="5.72475">
        <ele>516.20001220703</ele>
        <time>2021-05-22T04:05:04.000Z</time>
      </trkpt>
      <trkpt lat="45.20076" lon="5.72479">
        <ele>516.40002441406</ele>
        <time>2021-05-22T04:05:05.000Z</time>
      </trkpt>
      <trkpt lat="45.20074" lon="5.72495">
        <ele>517.20001220703</ele>
        <time>2021-05-22T04:05:10.000Z</time>
      </trkpt>
      <trkpt lat="45.20073" lon="5.72504">
        <ele>517.79998779297</ele>
        <time>2021-05-22T04:05:13.000Z</time>
      </trkpt>
      <trkpt lat="45.20072" lon="5.72525">
        <ele>518.20001220703</ele>
        <time>2021-05-22T04:05:20.000Z</time>
      </trkpt>
      <trkpt lat="45.20073" lon="5.7253">
        <ele>518.40002441406</ele>
        <time>2021-05-22T04:05:22.000Z</time>
      </trkpt>
      <trkpt lat="45.20082" lon="5.72542">
        <ele>519.20001220703</ele>
        <time>2021-05-22T04:05:28.000Z</time>
      </trkpt>
      <trkpt lat="45.20089" lon="5.72542">
        <ele>519.79998779297</ele>
        <time>2021-05-22T04:05:31.000Z</time>
      </trkpt>
      <trkpt lat="45.20092" lon="5.72542">
        <ele>520.59997558594</ele>
        <time>2021-05-22T04:05:34.000Z</time>
      </trkpt>
      <trkpt lat="45.20094" lon="5.72542">
        <ele>520.79998779297</ele>
        <time>2021-05-22T04:05:35.000Z</time>
      </trkpt>
      <trkpt lat="45.20095" lon="5.72542">
        <ele>521.40002441406</ele>
        <time>2021-05-22T04:05:36.000Z</time>
      </trkpt>
      <trkpt lat="45.20097" lon="5.72542">
        <ele>521.79998779297</ele>
        <time>2021-05-22T04:05:37.000Z</time>
      </trkpt>
      <trkpt lat="45.20102" lon="5.72542">
        <ele>523</ele>
        <time>2021-05-22T04:05:40.000Z</time>
      </trkpt>
      <trkpt lat="45.20107" lon="5.72543">
        <ele>524</ele>
        <time>2021-05-22T04:05:43.000Z</time>
      </trkpt>
      <trkpt lat="45.20111" lon="5.72544">
        <ele>524.59997558594</ele>
        <time>2021-05-22T04:05:46.000Z</time>
      </trkpt>
      <trkpt lat="45.20114" lon="5.72545">
        <ele>525.20001220703</ele>
        <time>2021-05-22T04:05:48.000Z</time>
      </trkpt>
      <trkpt lat="45.20118" lon="5.72545">
        <ele>526.20001220703</ele>
        <time>2021-05-22T04:05:51.000Z</time>
      </trkpt>
      <trkpt lat="45.20121" lon="5.72544">
        <ele>527.20001220703</ele>
        <time>2021-05-22T04:05:54.000Z</time>
      </trkpt>
      <trkpt lat="45.20123" lon="5.72545">
        <ele>527.20001220703</ele>
        <time>2021-05-22T04:05:55.000Z</time>
      </trkpt>
      <trkpt lat="45.20128" lon="5.72545">
        <ele>528.40002441406</ele>
        <time>2021-05-22T04:05:59.000Z</time>
      </trkpt>
      <trkpt lat="45.20134" lon="5.72547">
        <ele>529.20001220703</ele>
        <time>2021-05-22T04:06:03.000Z</time>
      </trkpt>
      <trkpt lat="45.20135" lon="5.72548">
        <ele>529.40002441406</ele>
        <time>2021-05-22T04:06:04.000Z</time>
      </trkpt>
      <trkpt lat="45.20147" lon="5.72553">
        <ele>530.59997558594</ele>
        <time>2021-05-22T04:06:11.000Z</time>
      </trkpt>
      <trkpt lat="45.20155" lon="5.72554">
        <ele>531.79998779297</ele>
        <time>2021-05-22T04:06:16.000Z</time>
      </trkpt>
      <trkpt lat="45.20158" lon="5.72555">
        <ele>532.40002441406</ele>
        <time>2021-05-22T04:06:18.000Z</time>
      </trkpt>
      <trkpt lat="45.20166" lon="5.72559">
        <ele>533</ele>
        <time>2021-05-22T04:06:23.000Z</time>
      </trkpt>
      <trkpt lat="45.20171" lon="5.72562">
        <ele>534</ele>
        <time>2021-05-22T04:06:27.000Z</time>
      </trkpt>
      <trkpt lat="45.20173" lon="5.72563">
        <ele>534</ele>
        <time>2021-05-22T04:06:28.000Z</time>
      </trkpt>
      <trkpt lat="45.20178" lon="5.72566">
        <ele>535.20001220703</ele>
        <time>2021-05-22T04:06:32.000Z</time>
      </trkpt>
      <trkpt lat="45.2018" lon="5.72568">
        <ele>535.79998779297</ele>
        <time>2021-05-22T04:06:35.000Z</time>
      </trkpt>
      <trkpt lat="45.20184" lon="5.7257">
        <ele>536.40002441406</ele>
        <time>2021-05-22T04:06:38.000Z</time>
      </trkpt>
      <trkpt lat="45.20192" lon="5.72576">
        <ele>537.59997558594</ele>
        <time>2021-05-22T04:06:44.000Z</time>
      </trkpt>
      <trkpt lat="45.20197" lon="5.7258">
        <ele>538.40002441406</ele>
        <time>2021-05-22T04:06:48.000Z</time>
      </trkpt>
      <trkpt lat="45.20199" lon="5.72583">
        <ele>538.59997558594</ele>
        <time>2021-05-22T04:06:50.000Z</time>
      </trkpt>
      <trkpt lat="45.20201" lon="5.72586">
        <ele>539</ele>
        <time>2021-05-22T04:06:52.000Z</time>
      </trkpt>
      <trkpt lat="45.20203" lon="5.72588">
        <ele>539.59997558594</ele>
        <time>2021-05-22T04:06:54.000Z</time>
      </trkpt>
      <trkpt lat="45.20207" lon="5.72592">
        <ele>540.59997558594</ele>
        <time>2021-05-22T04:06:58.000Z</time>
      </trkpt>
      <trkpt lat="45.20209" lon="5.72592">
        <ele>540.79998779297</ele>
        <time>2021-05-22T04:06:59.000Z</time>
      </trkpt>
      <trkpt lat="45.20211" lon="5.72594">
        <ele>541.59997558594</ele>
        <time>2021-05-22T04:07:02.000Z</time>
      </trkpt>
      <trkpt lat="45.20219" lon="5.72598">
        <ele>542.59997558594</ele>
        <time>2021-05-22T04:07:06.000Z</time>
      </trkpt>
      <trkpt lat="45.20222" lon="5.72598">
        <ele>543</ele>
        <time>2021-05-22T04:07:08.000Z</time>
      </trkpt>
      <trkpt lat="45.20224" lon="5.72599">
        <ele>543.20001220703</ele>
        <time>2021-05-22T04:07:10.000Z</time>
      </trkpt>
      <trkpt lat="45.20226" lon="5.72601">
        <ele>543.79998779297</ele>
        <time>2021-05-22T04:07:12.000Z</time>
      </trkpt>
      <trkpt lat="45.20227" lon="5.72602">
        <ele>544</ele>
        <time>2021-05-22T04:07:13.000Z</time>
      </trkpt>
      <trkpt lat="45.20231" lon="5.72606">
        <ele>545</ele>
        <time>2021-05-22T04:07:17.000Z</time>
      </trkpt>
      <trkpt lat="45.20234" lon="5.72606">
        <ele>545.59997558594</ele>
        <time>2021-05-22T04:07:19.000Z</time>
      </trkpt>
      <trkpt lat="45.20238" lon="5.72605">
        <ele>546</ele>
        <time>2021-05-22T04:07:21.000Z</time>
      </trkpt>
      <trkpt lat="45.20246" lon="5.72606">
        <ele>547</ele>
        <time>2021-05-22T04:07:26.000Z</time>
      </trkpt>
      <trkpt lat="45.20247" lon="5.72606">
        <ele>547.59997558594</ele>
        <time>2021-05-22T04:07:28.000Z</time>
      </trkpt>
      <trkpt lat="45.20248" lon="5.72605">
        <ele>548.20001220703</ele>
        <time>2021-05-22T04:07:30.000Z</time>
      </trkpt>
      <trkpt lat="45.20252" lon="5.72603">
        <ele>548.79998779297</ele>
        <time>2021-05-22T04:07:33.000Z</time>
      </trkpt>
      <trkpt lat="45.20255" lon="5.72601">
        <ele>549.40002441406</ele>
        <time>2021-05-22T04:07:36.000Z</time>
      </trkpt>
      <trkpt lat="45.20256" lon="5.72601">
        <ele>549.59997558594</ele>
        <time>2021-05-22T04:07:37.000Z</time>
      </trkpt>
      <trkpt lat="45.20262" lon="5.726">
        <ele>550.59997558594</ele>
        <time>2021-05-22T04:07:41.000Z</time>
      </trkpt>
      <trkpt lat="45.20263" lon="5.726">
        <ele>550.79998779297</ele>
        <time>2021-05-22T04:07:42.000Z</time>
      </trkpt>
      <trkpt lat="45.20268" lon="5.72599">
        <ele>551.59997558594</ele>
        <time>2021-05-22T04:07:45.000Z</time>
      </trkpt>
      <trkpt lat="45.2027" lon="5.72599">
        <ele>552.20001220703</ele>
        <time>2021-05-22T04:07:47.000Z</time>
      </trkpt>
      <trkpt lat="45.20275" lon="5.72599">
        <ele>552.79998779297</ele>
        <time>2021-05-22T04:07:50.000Z</time>
      </trkpt>
      <trkpt lat="45.20277" lon="5.72599">
        <ele>553</ele>
        <time>2021-05-22T04:07:51.000Z</time>
      </trkpt>
      <trkpt lat="45.2028" lon="5.72599">
        <ele>553.40002441406</ele>
        <time>2021-05-22T04:07:53.000Z</time>
      </trkpt>
      <trkpt lat="45.20282" lon="5.726">
        <ele>553.79998779297</ele>
        <time>2021-05-22T04:07:55.000Z</time>
      </trkpt>
      <trkpt lat="45.20282" lon="5.72601">
        <ele>553.79998779297</ele>
        <time>2021-05-22T04:07:56.000Z</time>
      </trkpt>
      <trkpt lat="45.20283" lon="5.72602">
        <ele>554.20001220703</ele>
        <time>2021-05-22T04:07:57.000Z</time>
      </trkpt>
      <trkpt lat="45.20285" lon="5.72603">
        <ele>554.59997558594</ele>
        <time>2021-05-22T04:07:59.000Z</time>
      </trkpt>
      <trkpt lat="45.20288" lon="5.72604">
        <ele>555</ele>
        <time>2021-05-22T04:08:01.000Z</time>
      </trkpt>
      <trkpt lat="45.20292" lon="5.72605">
        <ele>555.59997558594</ele>
        <time>2021-05-22T04:08:03.000Z</time>
      </trkpt>
      <trkpt lat="45.20297" lon="5.72605">
        <ele>556</ele>
        <time>2021-05-22T04:08:05.000Z</time>
      </trkpt>
      <trkpt lat="45.20298" lon="5.72606">
        <ele>556.20001220703</ele>
        <time>2021-05-22T04:08:06.000Z</time>
      </trkpt>
      <trkpt lat="45.20299" lon="5.72607">
        <ele>556.40002441406</ele>
        <time>2021-05-22T04:08:07.000Z</time>
      </trkpt>
      <trkpt lat="45.20302" lon="5.72609">
        <ele>556.79998779297</ele>
        <time>2021-05-22T04:08:09.000Z</time>
      </trkpt>
      <trkpt lat="45.20305" lon="5.72612">
        <ele>557.20001220703</ele>
        <time>2021-05-22T04:08:11.000Z</time>
      </trkpt>
      <trkpt lat="45.20306" lon="5.72613">
        <ele>557.59997558594</ele>
        <time>2021-05-22T04:08:12.000Z</time>
      </trkpt>
      <trkpt lat="45.20307" lon="5.72614">
        <ele>558</ele>
        <time>2021-05-22T04:08:13.000Z</time>
      </trkpt>
      <trkpt lat="45.2031" lon="5.72618">
        <ele>558.59997558594</ele>
        <time>2021-05-22T04:08:16.000Z</time>
      </trkpt>
      <trkpt lat="45.20316" lon="5.72622">
        <ele>559.20001220703</ele>
        <time>2021-05-22T04:08:19.000Z</time>
      </trkpt>
      <trkpt lat="45.20317" lon="5.72623">
        <ele>559.20001220703</ele>
        <time>2021-05-22T04:08:20.000Z</time>
      </trkpt>
      <trkpt lat="45.20321" lon="5.72625">
        <ele>559.79998779297</ele>
        <time>2021-05-22T04:08:22.000Z</time>
      </trkpt>
      <trkpt lat="45.20322" lon="5.72626">
        <ele>560</ele>
        <time>2021-05-22T04:08:23.000Z</time>
      </trkpt>
      <trkpt lat="45.20325" lon="5.72628">
        <ele>560.79998779297</ele>
        <time>2021-05-22T04:08:26.000Z</time>
      </trkpt>
      <trkpt lat="45.20326" lon="5.72629">
        <ele>561</ele>
        <time>2021-05-22T04:08:27.000Z</time>
      </trkpt>
      <trkpt lat="45.20337" lon="5.72632">
        <ele>561.79998779297</ele>
        <time>2021-05-22T04:08:33.000Z</time>
      </trkpt>
      <trkpt lat="45.20338" lon="5.72633">
        <ele>562.20001220703</ele>
        <time>2021-05-22T04:08:34.000Z</time>
      </trkpt>
      <trkpt lat="45.20344" lon="5.72638">
        <ele>563.40002441406</ele>
        <time>2021-05-22T04:08:39.000Z</time>
      </trkpt>
      <trkpt lat="45.20346" lon="5.7264">
        <ele>563.59997558594</ele>
        <time>2021-05-22T04:08:40.000Z</time>
      </trkpt>
      <trkpt lat="45.20353" lon="5.72644">
        <ele>564.59997558594</ele>
        <time>2021-05-22T04:08:44.000Z</time>
      </trkpt>
      <trkpt lat="45.20355" lon="5.72645">
        <ele>565</ele>
        <time>2021-05-22T04:08:45.000Z</time>
      </trkpt>
      <trkpt lat="45.20359" lon="5.72647">
        <ele>565.59997558594</ele>
        <time>2021-05-22T04:08:48.000Z</time>
      </trkpt>
      <trkpt lat="45.20361" lon="5.72649">
        <ele>566</ele>
        <time>2021-05-22T04:08:50.000Z</time>
      </trkpt>
      <trkpt lat="45.20362" lon="5.72649">
        <ele>566.20001220703</ele>
        <time>2021-05-22T04:08:51.000Z</time>
      </trkpt>
      <trkpt lat="45.20366" lon="5.7265">
        <ele>566.59997558594</ele>
        <time>2021-05-22T04:08:53.000Z</time>
      </trkpt>
      <trkpt lat="45.20368" lon="5.72652">
        <ele>567</ele>
        <time>2021-05-22T04:08:54.000Z</time>
      </trkpt>
      <trkpt lat="45.20373" lon="5.72659">
        <ele>567.79998779297</ele>
        <time>2021-05-22T04:08:58.000Z</time>
      </trkpt>
      <trkpt lat="45.20374" lon="5.72661">
        <ele>568</ele>
        <time>2021-05-22T04:08:59.000Z</time>
      </trkpt>
      <trkpt lat="45.20385" lon="5.72672">
        <ele>569.20001220703</ele>
        <time>2021-05-22T04:09:05.000Z</time>
      </trkpt>
      <trkpt lat="45.20391" lon="5.72682">
        <ele>570.40002441406</ele>
        <time>2021-05-22T04:09:10.000Z</time>
      </trkpt>
      <trkpt lat="45.20393" lon="5.72684">
        <ele>571</ele>
        <time>2021-05-22T04:09:12.000Z</time>
      </trkpt>
      <trkpt lat="45.20396" lon="5.72688">
        <ele>571.59997558594</ele>
        <time>2021-05-22T04:09:15.000Z</time>
      </trkpt>
      <trkpt lat="45.20397" lon="5.7269">
        <ele>571.59997558594</ele>
        <time>2021-05-22T04:09:16.000Z</time>
      </trkpt>
      <trkpt lat="45.204" lon="5.72694">
        <ele>572.40002441406</ele>
        <time>2021-05-22T04:09:19.000Z</time>
      </trkpt>
      <trkpt lat="45.20401" lon="5.72695">
        <ele>572.79998779297</ele>
        <time>2021-05-22T04:09:20.000Z</time>
      </trkpt>
      <trkpt lat="45.20404" lon="5.72698">
        <ele>573.59997558594</ele>
        <time>2021-05-22T04:09:23.000Z</time>
      </trkpt>
      <trkpt lat="45.20406" lon="5.72699">
        <ele>573.79998779297</ele>
        <time>2021-05-22T04:09:24.000Z</time>
      </trkpt>
      <trkpt lat="45.20407" lon="5.72699">
        <ele>574</ele>
        <time>2021-05-22T04:09:25.000Z</time>
      </trkpt>
      <trkpt lat="45.2041" lon="5.72701">
        <ele>574.59997558594</ele>
        <time>2021-05-22T04:09:27.000Z</time>
      </trkpt>
      <trkpt lat="45.20413" lon="5.72703">
        <ele>575</ele>
        <time>2021-05-22T04:09:29.000Z</time>
      </trkpt>
      <trkpt lat="45.20413" lon="5.72705">
        <ele>575.20001220703</ele>
        <time>2021-05-22T04:09:30.000Z</time>
      </trkpt>
      <trkpt lat="45.20414" lon="5.72708">
        <ele>575.59997558594</ele>
        <time>2021-05-22T04:09:32.000Z</time>
      </trkpt>
      <trkpt lat="45.20416" lon="5.72711">
        <ele>576.40002441406</ele>
        <time>2021-05-22T04:09:34.000Z</time>
      </trkpt>
      <trkpt lat="45.20419" lon="5.72711">
        <ele>576.79998779297</ele>
        <time>2021-05-22T04:09:36.000Z</time>
      </trkpt>
      <trkpt lat="45.20421" lon="5.7271">
        <ele>577.20001220703</ele>
        <time>2021-05-22T04:09:38.000Z</time>
      </trkpt>
      <trkpt lat="45.20424" lon="5.72711">
        <ele>577.40002441406</ele>
        <time>2021-05-22T04:09:40.000Z</time>
      </trkpt>
      <trkpt lat="45.2043" lon="5.72713">
        <ele>578.59997558594</ele>
        <time>2021-05-22T04:09:44.000Z</time>
      </trkpt>
      <trkpt lat="45.20434" lon="5.72714">
        <ele>579.20001220703</ele>
        <time>2021-05-22T04:09:47.000Z</time>
      </trkpt>
      <trkpt lat="45.20438" lon="5.72714">
        <ele>579.79998779297</ele>
        <time>2021-05-22T04:09:49.000Z</time>
      </trkpt>
      <trkpt lat="45.20445" lon="5.72717">
        <ele>580.59997558594</ele>
        <time>2021-05-22T04:09:54.000Z</time>
      </trkpt>
      <trkpt lat="45.20447" lon="5.72718">
        <ele>580.79998779297</ele>
        <time>2021-05-22T04:09:56.000Z</time>
      </trkpt>
      <trkpt lat="45.20454" lon="5.72722">
        <ele>581.79998779297</ele>
        <time>2021-05-22T04:10:01.000Z</time>
      </trkpt>
      <trkpt lat="45.20455" lon="5.72722">
        <ele>582</ele>
        <time>2021-05-22T04:10:02.000Z</time>
      </trkpt>
      <trkpt lat="45.20458" lon="5.72723">
        <ele>582.79998779297</ele>
        <time>2021-05-22T04:10:05.000Z</time>
      </trkpt>
      <trkpt lat="45.20459" lon="5.72724">
        <ele>583</ele>
        <time>2021-05-22T04:10:06.000Z</time>
      </trkpt>
      <trkpt lat="45.2046" lon="5.72725">
        <ele>583.20001220703</ele>
        <time>2021-05-22T04:10:07.000Z</time>
      </trkpt>
      <trkpt lat="45.20461" lon="5.72725">
        <ele>583.40002441406</ele>
        <time>2021-05-22T04:10:08.000Z</time>
      </trkpt>
      <trkpt lat="45.20467" lon="5.72725">
        <ele>584</ele>
        <time>2021-05-22T04:10:11.000Z</time>
      </trkpt>
      <trkpt lat="45.2047" lon="5.72723">
        <ele>584.20001220703</ele>
        <time>2021-05-22T04:10:12.000Z</time>
      </trkpt>
      <trkpt lat="45.20472" lon="5.72723">
        <ele>584.20001220703</ele>
        <time>2021-05-22T04:10:13.000Z</time>
      </trkpt>
      <trkpt lat="45.20486" lon="5.72727">
        <ele>585.20001220703</ele>
        <time>2021-05-22T04:10:19.000Z</time>
      </trkpt>
      <trkpt lat="45.20489" lon="5.7273">
        <ele>585.59997558594</ele>
        <time>2021-05-22T04:10:21.000Z</time>
      </trkpt>
      <trkpt lat="45.20503" lon="5.72738">
        <ele>586.40002441406</ele>
        <time>2021-05-22T04:10:27.000Z</time>
      </trkpt>
      <trkpt lat="45.20508" lon="5.72739">
        <ele>587</ele>
        <time>2021-05-22T04:10:30.000Z</time>
      </trkpt>
      <trkpt lat="45.20509" lon="5.72739">
        <ele>587.40002441406</ele>
        <time>2021-05-22T04:10:31.000Z</time>
      </trkpt>
      <trkpt lat="45.20509" lon="5.72739">
        <ele>587.79998779297</ele>
        <time>2021-05-22T04:10:32.000Z</time>
      </trkpt>
      <trkpt lat="45.20509" lon="5.72738">
        <ele>588.40002441406</ele>
        <time>2021-05-22T04:10:34.000Z</time>
      </trkpt>
      <trkpt lat="45.20506" lon="5.72736">
        <ele>589</ele>
        <time>2021-05-22T04:10:37.000Z</time>
      </trkpt>
      <trkpt lat="45.205" lon="5.72731">
        <ele>589.79998779297</ele>
        <time>2021-05-22T04:10:42.000Z</time>
      </trkpt>
      <trkpt lat="45.20499" lon="5.72729">
        <ele>590</ele>
        <time>2021-05-22T04:10:43.000Z</time>
      </trkpt>
      <trkpt lat="45.20492" lon="5.72724">
        <ele>590.79998779297</ele>
        <time>2021-05-22T04:10:47.000Z</time>
      </trkpt>
      <trkpt lat="45.20488" lon="5.72721">
        <ele>591.40002441406</ele>
        <time>2021-05-22T04:10:50.000Z</time>
      </trkpt>
      <trkpt lat="45.20482" lon="5.72716">
        <ele>592.40002441406</ele>
        <time>2021-05-22T04:10:55.000Z</time>
      </trkpt>
      <trkpt lat="45.20478" lon="5.72712">
        <ele>593</ele>
        <time>2021-05-22T04:10:58.000Z</time>
      </trkpt>
      <trkpt lat="45.20473" lon="5.72708">
        <ele>593.40002441406</ele>
        <time>2021-05-22T04:11:00.000Z</time>
      </trkpt>
      <trkpt lat="45.20472" lon="5.72706">
        <ele>593.59997558594</ele>
        <time>2021-05-22T04:11:02.000Z</time>
      </trkpt>
      <trkpt lat="45.20464" lon="5.72701">
        <ele>594.59997558594</ele>
        <time>2021-05-22T04:11:07.000Z</time>
      </trkpt>
      <trkpt lat="45.20461" lon="5.72699">
        <ele>595</ele>
        <time>2021-05-22T04:11:09.000Z</time>
      </trkpt>
      <trkpt lat="45.2046" lon="5.72698">
        <ele>595.20001220703</ele>
        <time>2021-05-22T04:11:10.000Z</time>
      </trkpt>
      <trkpt lat="45.20456" lon="5.72697">
        <ele>595.79998779297</ele>
        <time>2021-05-22T04:11:13.000Z</time>
      </trkpt>
      <trkpt lat="45.20447" lon="5.72693">
        <ele>596.79998779297</ele>
        <time>2021-05-22T04:11:19.000Z</time>
      </trkpt>
      <trkpt lat="45.20446" lon="5.72693">
        <ele>597</ele>
        <time>2021-05-22T04:11:20.000Z</time>
      </trkpt>
      <trkpt lat="45.20443" lon="5.7269">
        <ele>597.40002441406</ele>
        <time>2021-05-22T04:11:22.000Z</time>
      </trkpt>
      <trkpt lat="45.20442" lon="5.72689">
        <ele>597.79998779297</ele>
        <time>2021-05-22T04:11:23.000Z</time>
      </trkpt>
      <trkpt lat="45.2044" lon="5.72688">
        <ele>598.20001220703</ele>
        <time>2021-05-22T04:11:25.000Z</time>
      </trkpt>
      <trkpt lat="45.20436" lon="5.72682">
        <ele>599</ele>
        <time>2021-05-22T04:11:28.000Z</time>
      </trkpt>
      <trkpt lat="45.20433" lon="5.72678">
        <ele>599.20001220703</ele>
        <time>2021-05-22T04:11:30.000Z</time>
      </trkpt>
      <trkpt lat="45.20431" lon="5.72675">
        <ele>599.79998779297</ele>
        <time>2021-05-22T04:11:32.000Z</time>
      </trkpt>
      <trkpt lat="45.2043" lon="5.72674">
        <ele>600</ele>
        <time>2021-05-22T04:11:33.000Z</time>
      </trkpt>
      <trkpt lat="45.20425" lon="5.72666">
        <ele>600.59997558594</ele>
        <time>2021-05-22T04:11:37.000Z</time>
      </trkpt>
      <trkpt lat="45.20424" lon="5.72664">
        <ele>600.79998779297</ele>
        <time>2021-05-22T04:11:38.000Z</time>
      </trkpt>
      <trkpt lat="45.20423" lon="5.72663">
        <ele>601</ele>
        <time>2021-05-22T04:11:39.000Z</time>
      </trkpt>
      <trkpt lat="45.20417" lon="5.72651">
        <ele>602.20001220703</ele>
        <time>2021-05-22T04:11:45.000Z</time>
      </trkpt>
      <trkpt lat="45.20415" lon="5.72649">
        <ele>602.59997558594</ele>
        <time>2021-05-22T04:11:46.000Z</time>
      </trkpt>
      <trkpt lat="45.20411" lon="5.72641">
        <ele>603.59997558594</ele>
        <time>2021-05-22T04:11:50.000Z</time>
      </trkpt>
      <trkpt lat="45.20412" lon="5.72637">
        <ele>604</ele>
        <time>2021-05-22T04:11:52.000Z</time>
      </trkpt>
      <trkpt lat="45.20413" lon="5.72635">
        <ele>604.40002441406</ele>
        <time>2021-05-22T04:11:54.000Z</time>
      </trkpt>
      <trkpt lat="45.20415" lon="5.72635">
        <ele>604.79998779297</ele>
        <time>2021-05-22T04:11:56.000Z</time>
      </trkpt>
      <trkpt lat="45.20421" lon="5.72636">
        <ele>605.20001220703</ele>
        <time>2021-05-22T04:11:59.000Z</time>
      </trkpt>
      <trkpt lat="45.20425" lon="5.72641">
        <ele>605.40002441406</ele>
        <time>2021-05-22T04:12:02.000Z</time>
      </trkpt>
      <trkpt lat="45.20426" lon="5.72643">
        <ele>605.59997558594</ele>
        <time>2021-05-22T04:12:03.000Z</time>
      </trkpt>
      <trkpt lat="45.20427" lon="5.72644">
        <ele>605.79998779297</ele>
        <time>2021-05-22T04:12:04.000Z</time>
      </trkpt>
      <trkpt lat="45.20435" lon="5.72647">
        <ele>606.59997558594</ele>
        <time>2021-05-22T04:12:09.000Z</time>
      </trkpt>
      <trkpt lat="45.20436" lon="5.72648">
        <ele>607.20001220703</ele>
        <time>2021-05-22T04:12:10.000Z</time>
      </trkpt>
      <trkpt lat="45.20443" lon="5.72649">
        <ele>608.40002441406</ele>
        <time>2021-05-22T04:12:15.000Z</time>
      </trkpt>
      <trkpt lat="45.20447" lon="5.7265">
        <ele>608.79998779297</ele>
        <time>2021-05-22T04:12:18.000Z</time>
      </trkpt>
      <trkpt lat="45.20448" lon="5.72651">
        <ele>609.20001220703</ele>
        <time>2021-05-22T04:12:21.000Z</time>
      </trkpt>
      <trkpt lat="45.20449" lon="5.72651">
        <ele>609.59997558594</ele>
        <time>2021-05-22T04:12:22.000Z</time>
      </trkpt>
      <trkpt lat="45.20454" lon="5.72651">
        <ele>609.79998779297</ele>
        <time>2021-05-22T04:12:23.000Z</time>
      </trkpt>
      <trkpt lat="45.20458" lon="5.72651">
        <ele>610.40002441406</ele>
        <time>2021-05-22T04:12:26.000Z</time>
      </trkpt>
      <trkpt lat="45.2046" lon="5.72652">
        <ele>610.79998779297</ele>
        <time>2021-05-22T04:12:27.000Z</time>
      </trkpt>
      <trkpt lat="45.20469" lon="5.72655">
        <ele>611.79998779297</ele>
        <time>2021-05-22T04:12:33.000Z</time>
      </trkpt>
      <trkpt lat="45.2047" lon="5.72656">
        <ele>612.20001220703</ele>
        <time>2021-05-22T04:12:34.000Z</time>
      </trkpt>
      <trkpt lat="45.20477" lon="5.7266">
        <ele>612.59997558594</ele>
        <time>2021-05-22T04:12:38.000Z</time>
      </trkpt>
      <trkpt lat="45.20483" lon="5.72665">
        <ele>613.40002441406</ele>
        <time>2021-05-22T04:12:41.000Z</time>
      </trkpt>
      <trkpt lat="45.20491" lon="5.7267">
        <ele>614.59997558594</ele>
        <time>2021-05-22T04:12:46.000Z</time>
      </trkpt>
      <trkpt lat="45.20493" lon="5.72672">
        <ele>614.79998779297</ele>
        <time>2021-05-22T04:12:48.000Z</time>
      </trkpt>
      <trkpt lat="45.20496" lon="5.72676">
        <ele>615.40002441406</ele>
        <time>2021-05-22T04:12:51.000Z</time>
      </trkpt>
      <trkpt lat="45.20497" lon="5.72677">
        <ele>615.59997558594</ele>
        <time>2021-05-22T04:12:52.000Z</time>
      </trkpt>
      <trkpt lat="45.20507" lon="5.72678">
        <ele>616.59997558594</ele>
        <time>2021-05-22T04:12:57.000Z</time>
      </trkpt>
      <trkpt lat="45.20508" lon="5.72679">
        <ele>616.79998779297</ele>
        <time>2021-05-22T04:12:58.000Z</time>
      </trkpt>
      <trkpt lat="45.20511" lon="5.7268">
        <ele>617</ele>
        <time>2021-05-22T04:12:59.000Z</time>
      </trkpt>
      <trkpt lat="45.2052" lon="5.72685">
        <ele>617.79998779297</ele>
        <time>2021-05-22T04:13:04.000Z</time>
      </trkpt>
      <trkpt lat="45.20527" lon="5.72688">
        <ele>619</ele>
        <time>2021-05-22T04:13:08.000Z</time>
      </trkpt>
      <trkpt lat="45.20533" lon="5.7269">
        <ele>619.40002441406</ele>
        <time>2021-05-22T04:13:11.000Z</time>
      </trkpt>
      <trkpt lat="45.20535" lon="5.72691">
        <ele>619.59997558594</ele>
        <time>2021-05-22T04:13:12.000Z</time>
      </trkpt>
      <trkpt lat="45.20536" lon="5.72692">
        <ele>620</ele>
        <time>2021-05-22T04:13:13.000Z</time>
      </trkpt>
      <trkpt lat="45.20543" lon="5.72697">
        <ele>620.79998779297</ele>
        <time>2021-05-22T04:13:17.000Z</time>
      </trkpt>
      <trkpt lat="45.20547" lon="5.72699">
        <ele>621.20001220703</ele>
        <time>2021-05-22T04:13:19.000Z</time>
      </trkpt>
      <trkpt lat="45.20555" lon="5.72705">
        <ele>622.40002441406</ele>
        <time>2021-05-22T04:13:24.000Z</time>
      </trkpt>
      <trkpt lat="45.20561" lon="5.72708">
        <ele>623.40002441406</ele>
        <time>2021-05-22T04:13:28.000Z</time>
      </trkpt>
      <trkpt lat="45.20572" lon="5.72708">
        <ele>624.40002441406</ele>
        <time>2021-05-22T04:13:33.000Z</time>
      </trkpt>
      <trkpt lat="45.20574" lon="5.72707">
        <ele>624.79998779297</ele>
        <time>2021-05-22T04:13:34.000Z</time>
      </trkpt>
      <trkpt lat="45.20575" lon="5.72706">
        <ele>625</ele>
        <time>2021-05-22T04:13:35.000Z</time>
      </trkpt>
      <trkpt lat="45.20575" lon="5.72704">
        <ele>625.59997558594</ele>
        <time>2021-05-22T04:13:37.000Z</time>
      </trkpt>
      <trkpt lat="45.20573" lon="5.72704">
        <ele>626</ele>
        <time>2021-05-22T04:13:38.000Z</time>
      </trkpt>
      <trkpt lat="45.20567" lon="5.72705">
        <ele>626.40002441406</ele>
        <time>2021-05-22T04:13:41.000Z</time>
      </trkpt>
      <trkpt lat="45.20565" lon="5.72705">
        <ele>626.59997558594</ele>
        <time>2021-05-22T04:13:42.000Z</time>
      </trkpt>
      <trkpt lat="45.20553" lon="5.72698">
        <ele>626.79998779297</ele>
        <time>2021-05-22T04:13:47.000Z</time>
      </trkpt>
      <trkpt lat="45.20553" lon="5.72698">
        <ele>627</ele>
        <time>2021-05-22T04:13:48.000Z</time>
      </trkpt>
      <trkpt lat="45.2055" lon="5.72694">
        <ele>627.20001220703</ele>
        <time>2021-05-22T04:13:50.000Z</time>
      </trkpt>
      <trkpt lat="45.20541" lon="5.72685">
        <ele>628</ele>
        <time>2021-05-22T04:13:56.000Z</time>
      </trkpt>
      <trkpt lat="45.20538" lon="5.72682">
        <ele>628.20001220703</ele>
        <time>2021-05-22T04:13:58.000Z</time>
      </trkpt>
      <trkpt lat="45.20532" lon="5.72675">
        <ele>629.20001220703</ele>
        <time>2021-05-22T04:14:03.000Z</time>
      </trkpt>
      <trkpt lat="45.20528" lon="5.72669">
        <ele>629.59997558594</ele>
        <time>2021-05-22T04:14:06.000Z</time>
      </trkpt>
      <trkpt lat="45.20524" lon="5.72665">
        <ele>630.20001220703</ele>
        <time>2021-05-22T04:14:08.000Z</time>
      </trkpt>
      <trkpt lat="45.20518" lon="5.72656">
        <ele>630.79998779297</ele>
        <time>2021-05-22T04:14:13.000Z</time>
      </trkpt>
      <trkpt lat="45.20516" lon="5.72654">
        <ele>631.20001220703</ele>
        <time>2021-05-22T04:14:15.000Z</time>
      </trkpt>
      <trkpt lat="45.20511" lon="5.72647">
        <ele>632.40002441406</ele>
        <time>2021-05-22T04:14:20.000Z</time>
      </trkpt>
      <trkpt lat="45.20509" lon="5.72646">
        <ele>632.59997558594</ele>
        <time>2021-05-22T04:14:21.000Z</time>
      </trkpt>
      <trkpt lat="45.20503" lon="5.72644">
        <ele>633.40002441406</ele>
        <time>2021-05-22T04:14:25.000Z</time>
      </trkpt>
      <trkpt lat="45.20502" lon="5.72644">
        <ele>633.59997558594</ele>
        <time>2021-05-22T04:14:26.000Z</time>
      </trkpt>
      <trkpt lat="45.205" lon="5.72644">
        <ele>633.79998779297</ele>
        <time>2021-05-22T04:14:27.000Z</time>
      </trkpt>
      <trkpt lat="45.20493" lon="5.72641">
        <ele>634.40002441406</ele>
        <time>2021-05-22T04:14:31.000Z</time>
      </trkpt>
      <trkpt lat="45.20491" lon="5.7264">
        <ele>634.59997558594</ele>
        <time>2021-05-22T04:14:32.000Z</time>
      </trkpt>
      <trkpt lat="45.20489" lon="5.7264">
        <ele>634.59997558594</ele>
        <time>2021-05-22T04:14:33.000Z</time>
      </trkpt>
      <trkpt lat="45.20487" lon="5.7264">
        <ele>634.59997558594</ele>
        <time>2021-05-22T04:14:34.000Z</time>
      </trkpt>
      <trkpt lat="45.20483" lon="5.72639">
        <ele>635.40002441406</ele>
        <time>2021-05-22T04:14:37.000Z</time>
      </trkpt>
      <trkpt lat="45.20482" lon="5.72637">
        <ele>635.59997558594</ele>
        <time>2021-05-22T04:14:38.000Z</time>
      </trkpt>
      <trkpt lat="45.20475" lon="5.72629">
        <ele>636.59997558594</ele>
        <time>2021-05-22T04:14:43.000Z</time>
      </trkpt>
      <trkpt lat="45.2047" lon="5.7262">
        <ele>637.79998779297</ele>
        <time>2021-05-22T04:14:47.000Z</time>
      </trkpt>
      <trkpt lat="45.20467" lon="5.72615">
        <ele>638</ele>
        <time>2021-05-22T04:14:50.000Z</time>
      </trkpt>
      <trkpt lat="45.20464" lon="5.72611">
        <ele>638.79998779297</ele>
        <time>2021-05-22T04:14:53.000Z</time>
      </trkpt>
      <trkpt lat="45.20462" lon="5.72608">
        <ele>639.20001220703</ele>
        <time>2021-05-22T04:14:55.000Z</time>
      </trkpt>
      <trkpt lat="45.20462" lon="5.72605">
        <ele>639.59997558594</ele>
        <time>2021-05-22T04:14:56.000Z</time>
      </trkpt>
      <trkpt lat="45.20461" lon="5.72603">
        <ele>639.79998779297</ele>
        <time>2021-05-22T04:14:57.000Z</time>
      </trkpt>
      <trkpt lat="45.2046" lon="5.72601">
        <ele>640</ele>
        <time>2021-05-22T04:14:58.000Z</time>
      </trkpt>
      <trkpt lat="45.20457" lon="5.72595">
        <ele>640.59997558594</ele>
        <time>2021-05-22T04:15:01.000Z</time>
      </trkpt>
      <trkpt lat="45.20453" lon="5.72587">
        <ele>641.20001220703</ele>
        <time>2021-05-22T04:15:05.000Z</time>
      </trkpt>
      <trkpt lat="45.20448" lon="5.72578">
        <ele>642.20001220703</ele>
        <time>2021-05-22T04:15:09.000Z</time>
      </trkpt>
      <trkpt lat="45.20446" lon="5.72574">
        <ele>642.40002441406</ele>
        <time>2021-05-22T04:15:10.000Z</time>
      </trkpt>
      <trkpt lat="45.20441" lon="5.72562">
        <ele>643.40002441406</ele>
        <time>2021-05-22T04:15:16.000Z</time>
      </trkpt>
      <trkpt lat="45.20438" lon="5.72554">
        <ele>643.79998779297</ele>
        <time>2021-05-22T04:15:19.000Z</time>
      </trkpt>
      <trkpt lat="45.20437" lon="5.72541">
        <ele>644.59997558594</ele>
        <time>2021-05-22T04:15:23.000Z</time>
      </trkpt>
      <trkpt lat="45.20437" lon="5.72535">
        <ele>644.79998779297</ele>
        <time>2021-05-22T04:15:25.000Z</time>
      </trkpt>
      <trkpt lat="45.20437" lon="5.72533">
        <ele>645</ele>
        <time>2021-05-22T04:15:26.000Z</time>
      </trkpt>
      <trkpt lat="45.20437" lon="5.7253">
        <ele>645.40002441406</ele>
        <time>2021-05-22T04:15:27.000Z</time>
      </trkpt>
      <trkpt lat="45.20439" lon="5.72528">
        <ele>645.79998779297</ele>
        <time>2021-05-22T04:15:28.000Z</time>
      </trkpt>
      <trkpt lat="45.20441" lon="5.72527">
        <ele>646.20001220703</ele>
        <time>2021-05-22T04:15:30.000Z</time>
      </trkpt>
      <trkpt lat="45.20445" lon="5.72527">
        <ele>646.59997558594</ele>
        <time>2021-05-22T04:15:32.000Z</time>
      </trkpt>
      <trkpt lat="45.2045" lon="5.72529">
        <ele>647</ele>
        <time>2021-05-22T04:15:34.000Z</time>
      </trkpt>
      <trkpt lat="45.20453" lon="5.72532">
        <ele>647.40002441406</ele>
        <time>2021-05-22T04:15:36.000Z</time>
      </trkpt>
      <trkpt lat="45.20457" lon="5.72536">
        <ele>648.20001220703</ele>
        <time>2021-05-22T04:15:39.000Z</time>
      </trkpt>
      <trkpt lat="45.20462" lon="5.72541">
        <ele>649.20001220703</ele>
        <time>2021-05-22T04:15:44.000Z</time>
      </trkpt>
      <trkpt lat="45.20465" lon="5.72543">
        <ele>649.59997558594</ele>
        <time>2021-05-22T04:15:46.000Z</time>
      </trkpt>
      <trkpt lat="45.2047" lon="5.72548">
        <ele>650.40002441406</ele>
        <time>2021-05-22T04:15:50.000Z</time>
      </trkpt>
      <trkpt lat="45.20481" lon="5.72555">
        <ele>651.59997558594</ele>
        <time>2021-05-22T04:15:56.000Z</time>
      </trkpt>
      <trkpt lat="45.20486" lon="5.72561">
        <ele>652.20001220703</ele>
        <time>2021-05-22T04:16:00.000Z</time>
      </trkpt>
      <trkpt lat="45.2049" lon="5.72559">
        <ele>652.79998779297</ele>
        <time>2021-05-22T04:16:03.000Z</time>
      </trkpt>
      <trkpt lat="45.2049" lon="5.72558">
        <ele>653</ele>
        <time>2021-05-22T04:16:04.000Z</time>
      </trkpt>
      <trkpt lat="45.20489" lon="5.72553">
        <ele>653.79998779297</ele>
        <time>2021-05-22T04:16:07.000Z</time>
      </trkpt>
      <trkpt lat="45.20487" lon="5.72547">
        <ele>655</ele>
        <time>2021-05-22T04:16:11.000Z</time>
      </trkpt>
      <trkpt lat="45.20484" lon="5.72539">
        <ele>656.20001220703</ele>
        <time>2021-05-22T04:16:16.000Z</time>
      </trkpt>
      <trkpt lat="45.20481" lon="5.72532">
        <ele>657.40002441406</ele>
        <time>2021-05-22T04:16:20.000Z</time>
      </trkpt>
      <trkpt lat="45.2048" lon="5.72527">
        <ele>657.79998779297</ele>
        <time>2021-05-22T04:16:22.000Z</time>
      </trkpt>
      <trkpt lat="45.20481" lon="5.72525">
        <ele>658</ele>
        <time>2021-05-22T04:16:23.000Z</time>
      </trkpt>
      <trkpt lat="45.20483" lon="5.72519">
        <ele>658</ele>
        <time>2021-05-22T04:16:26.000Z</time>
      </trkpt>
      <trkpt lat="45.20485" lon="5.72511">
        <ele>658.40002441406</ele>
        <time>2021-05-22T04:16:29.000Z</time>
      </trkpt>
      <trkpt lat="45.20484" lon="5.72509">
        <ele>658.40002441406</ele>
        <time>2021-05-22T04:16:30.000Z</time>
      </trkpt>
      <trkpt lat="45.20482" lon="5.72505">
        <ele>658</ele>
        <time>2021-05-22T04:16:32.000Z</time>
      </trkpt>
      <trkpt lat="45.20477" lon="5.72498">
        <ele>657.79998779297</ele>
        <time>2021-05-22T04:16:36.000Z</time>
      </trkpt>
      <trkpt lat="45.20473" lon="5.72498">
        <ele>657.79998779297</ele>
        <time>2021-05-22T04:16:37.000Z</time>
      </trkpt>
      <trkpt lat="45.20465" lon="5.72497">
        <ele>657.59997558594</ele>
        <time>2021-05-22T04:16:41.000Z</time>
      </trkpt>
      <trkpt lat="45.20461" lon="5.72495">
        <ele>657.59997558594</ele>
        <time>2021-05-22T04:16:43.000Z</time>
      </trkpt>
      <trkpt lat="45.20458" lon="5.72493">
        <ele>657.59997558594</ele>
        <time>2021-05-22T04:16:45.000Z</time>
      </trkpt>
      <trkpt lat="45.20456" lon="5.72492">
        <ele>657.59997558594</ele>
        <time>2021-05-22T04:16:46.000Z</time>
      </trkpt>
      <trkpt lat="45.2045" lon="5.72492">
        <ele>657.79998779297</ele>
        <time>2021-05-22T04:16:49.000Z</time>
      </trkpt>
      <trkpt lat="45.20438" lon="5.72487">
        <ele>657.79998779297</ele>
        <time>2021-05-22T04:16:56.000Z</time>
      </trkpt>
      <trkpt lat="45.20436" lon="5.72486">
        <ele>657.59997558594</ele>
        <time>2021-05-22T04:16:57.000Z</time>
      </trkpt>
      <trkpt lat="45.20427" lon="5.72485">
        <ele>657.40002441406</ele>
        <time>2021-05-22T04:17:01.000Z</time>
      </trkpt>
      <trkpt lat="45.2042" lon="5.72481">
        <ele>657.20001220703</ele>
        <time>2021-05-22T04:17:04.000Z</time>
      </trkpt>
      <trkpt lat="45.20408" lon="5.72464">
        <ele>657.59997558594</ele>
        <time>2021-05-22T04:17:11.000Z</time>
      </trkpt>
      <trkpt lat="45.20405" lon="5.7246">
        <ele>657.79998779297</ele>
        <time>2021-05-22T04:17:13.000Z</time>
      </trkpt>
      <trkpt lat="45.204" lon="5.72458">
        <ele>658.59997558594</ele>
        <time>2021-05-22T04:17:16.000Z</time>
      </trkpt>
      <trkpt lat="45.20399" lon="5.72457">
        <ele>658.79998779297</ele>
        <time>2021-05-22T04:17:17.000Z</time>
      </trkpt>
      <trkpt lat="45.20398" lon="5.72452">
        <ele>659.79998779297</ele>
        <time>2021-05-22T04:17:20.000Z</time>
      </trkpt>
      <trkpt lat="45.20398" lon="5.72451">
        <ele>660.20001220703</ele>
        <time>2021-05-22T04:17:21.000Z</time>
      </trkpt>
      <trkpt lat="45.20397" lon="5.72449">
        <ele>660.40002441406</ele>
        <time>2021-05-22T04:17:22.000Z</time>
      </trkpt>
      <trkpt lat="45.20392" lon="5.7245">
        <ele>661</ele>
        <time>2021-05-22T04:17:26.000Z</time>
      </trkpt>
      <trkpt lat="45.20387" lon="5.72449">
        <ele>661.59997558594</ele>
        <time>2021-05-22T04:17:29.000Z</time>
      </trkpt>
      <trkpt lat="45.20383" lon="5.72446">
        <ele>662</ele>
        <time>2021-05-22T04:17:32.000Z</time>
      </trkpt>
      <trkpt lat="45.20382" lon="5.72444">
        <ele>662.20001220703</ele>
        <time>2021-05-22T04:17:33.000Z</time>
      </trkpt>
      <trkpt lat="45.20381" lon="5.72442">
        <ele>662.20001220703</ele>
        <time>2021-05-22T04:17:34.000Z</time>
      </trkpt>
      <trkpt lat="45.20381" lon="5.72432">
        <ele>661.79998779297</ele>
        <time>2021-05-22T04:17:38.000Z</time>
      </trkpt>
      <trkpt lat="45.20381" lon="5.72429">
        <ele>662</ele>
        <time>2021-05-22T04:17:40.000Z</time>
      </trkpt>
      <trkpt lat="45.20383" lon="5.72426">
        <ele>662</ele>
        <time>2021-05-22T04:17:42.000Z</time>
      </trkpt>
      <trkpt lat="45.20389" lon="5.7242">
        <ele>663</ele>
        <time>2021-05-22T04:17:47.000Z</time>
      </trkpt>
      <trkpt lat="45.20391" lon="5.72419">
        <ele>663.20001220703</ele>
        <time>2021-05-22T04:17:48.000Z</time>
      </trkpt>
      <trkpt lat="45.20392" lon="5.72417">
        <ele>663.20001220703</ele>
        <time>2021-05-22T04:17:49.000Z</time>
      </trkpt>
      <trkpt lat="45.20392" lon="5.72416">
        <ele>663.59997558594</ele>
        <time>2021-05-22T04:17:52.000Z</time>
      </trkpt>
      <trkpt lat="45.2039" lon="5.72417">
        <ele>663.59997558594</ele>
        <time>2021-05-22T04:17:53.000Z</time>
      </trkpt>
      <trkpt lat="45.20387" lon="5.72422">
        <ele>663.20001220703</ele>
        <time>2021-05-22T04:17:57.000Z</time>
      </trkpt>
      <trkpt lat="45.20382" lon="5.72423">
        <ele>662</ele>
        <time>2021-05-22T04:18:02.000Z</time>
      </trkpt>
      <trkpt lat="45.20381" lon="5.72422">
        <ele>661.40002441406</ele>
        <time>2021-05-22T04:18:04.000Z</time>
      </trkpt>
      <trkpt lat="45.2038" lon="5.72422">
        <ele>660.79998779297</ele>
        <time>2021-05-22T04:18:05.000Z</time>
      </trkpt>
      <trkpt lat="45.20378" lon="5.72415">
        <ele>659.79998779297</ele>
        <time>2021-05-22T04:18:09.000Z</time>
      </trkpt>
      <trkpt lat="45.20377" lon="5.72413">
        <ele>659.40002441406</ele>
        <time>2021-05-22T04:18:10.000Z</time>
      </trkpt>
      <trkpt lat="45.20377" lon="5.72409">
        <ele>658.40002441406</ele>
        <time>2021-05-22T04:18:12.000Z</time>
      </trkpt>
      <trkpt lat="45.20373" lon="5.72405">
        <ele>658</ele>
        <time>2021-05-22T04:18:15.000Z</time>
      </trkpt>
      <trkpt lat="45.20369" lon="5.72407">
        <ele>657.40002441406</ele>
        <time>2021-05-22T04:18:17.000Z</time>
      </trkpt>
      <trkpt lat="45.20366" lon="5.72412">
        <ele>657.20001220703</ele>
        <time>2021-05-22T04:18:21.000Z</time>
      </trkpt>
      <trkpt lat="45.20365" lon="5.72417">
        <ele>657.20001220703</ele>
        <time>2021-05-22T04:18:23.000Z</time>
      </trkpt>
      <trkpt lat="45.20362" lon="5.7243">
        <ele>657.59997558594</ele>
        <time>2021-05-22T04:18:29.000Z</time>
      </trkpt>
      <trkpt lat="45.20362" lon="5.7243">
        <ele>657.59997558594</ele>
        <time>2021-05-22T04:18:30.000Z</time>
      </trkpt>
      <trkpt lat="45.20362" lon="5.7243">
        <ele>657.59997558594</ele>
        <time>2021-05-22T04:18:34.000Z</time>
      </trkpt>
      <trkpt lat="45.20364" lon="5.72433">
        <ele>657.79998779297</ele>
        <time>2021-05-22T04:18:38.000Z</time>
      </trkpt>
      <trkpt lat="45.20364" lon="5.72433">
        <ele>657.79998779297</ele>
        <time>2021-05-22T04:18:41.000Z</time>
      </trkpt>
      <trkpt lat="45.20364" lon="5.72433">
        <ele>658</ele>
        <time>2021-05-22T04:18:43.000Z</time>
      </trkpt>
      <trkpt lat="45.20364" lon="5.72433">
        <ele>657.79998779297</ele>
        <time>2021-05-22T04:18:46.000Z</time>
      </trkpt>
      <trkpt lat="45.20364" lon="5.72433">
        <ele>657.79998779297</ele>
        <time>2021-05-22T04:18:48.000Z</time>
      </trkpt>
      <trkpt lat="45.20364" lon="5.72433">
        <ele>657.79998779297</ele>
        <time>2021-05-22T04:18:50.000Z</time>
      </trkpt>
      <trkpt lat="45.20364" lon="5.72433">
        <ele>657.59997558594</ele>
        <time>2021-05-22T04:18:57.000Z</time>
      </trkpt>
      <trkpt lat="45.20365" lon="5.72432">
        <ele>657.20001220703</ele>
        <time>2021-05-22T04:19:14.000Z</time>
      </trkpt>
      <trkpt lat="45.20365" lon="5.72431">
        <ele>657</ele>
        <time>2021-05-22T04:19:18.000Z</time>
      </trkpt>
      <trkpt lat="45.20365" lon="5.72431">
        <ele>657</ele>
        <time>2021-05-22T04:19:31.000Z</time>
      </trkpt>
      <trkpt lat="45.20365" lon="5.72431">
        <ele>657</ele>
        <time>2021-05-22T04:19:37.000Z</time>
      </trkpt>
      <trkpt lat="45.20365" lon="5.72431">
        <ele>657</ele>
        <time>2021-05-22T04:19:40.000Z</time>
      </trkpt>
      <trkpt lat="45.20368" lon="5.72421">
        <ele>656.59997558594</ele>
        <time>2021-05-22T04:19:52.000Z</time>
      </trkpt>
      <trkpt lat="45.20375" lon="5.72403">
        <ele>656.79998779297</ele>
        <time>2021-05-22T04:19:58.000Z</time>
      </trkpt>
      <trkpt lat="45.20387" lon="5.72391">
        <ele>656.79998779297</ele>
        <time>2021-05-22T04:20:05.000Z</time>
      </trkpt>
      <trkpt lat="45.20389" lon="5.72389">
        <ele>656.79998779297</ele>
        <time>2021-05-22T04:20:06.000Z</time>
      </trkpt>
      <trkpt lat="45.20397" lon="5.72384">
        <ele>657</ele>
        <time>2021-05-22T04:20:10.000Z</time>
      </trkpt>
      <trkpt lat="45.20405" lon="5.72385">
        <ele>657.20001220703</ele>
        <time>2021-05-22T04:20:13.000Z</time>
      </trkpt>
      <trkpt lat="45.20417" lon="5.72385">
        <ele>657.20001220703</ele>
        <time>2021-05-22T04:20:18.000Z</time>
      </trkpt>
      <trkpt lat="45.20425" lon="5.72387">
        <ele>657.40002441406</ele>
        <time>2021-05-22T04:20:21.000Z</time>
      </trkpt>
      <trkpt lat="45.20431" lon="5.72392">
        <ele>657.20001220703</ele>
        <time>2021-05-22T04:20:24.000Z</time>
      </trkpt>
      <trkpt lat="45.20437" lon="5.72396">
        <ele>657.40002441406</ele>
        <time>2021-05-22T04:20:27.000Z</time>
      </trkpt>
      <trkpt lat="45.20441" lon="5.72398">
        <ele>658</ele>
        <time>2021-05-22T04:20:29.000Z</time>
      </trkpt>
      <trkpt lat="45.20446" lon="5.72401">
        <ele>658.59997558594</ele>
        <time>2021-05-22T04:20:32.000Z</time>
      </trkpt>
      <trkpt lat="45.20448" lon="5.72402">
        <ele>659</ele>
        <time>2021-05-22T04:20:34.000Z</time>
      </trkpt>
      <trkpt lat="45.20454" lon="5.72406">
        <ele>660</ele>
        <time>2021-05-22T04:20:38.000Z</time>
      </trkpt>
      <trkpt lat="45.20462" lon="5.72413">
        <ele>660.79998779297</ele>
        <time>2021-05-22T04:20:42.000Z</time>
      </trkpt>
      <trkpt lat="45.20464" lon="5.72414">
        <ele>661</ele>
        <time>2021-05-22T04:20:43.000Z</time>
      </trkpt>
      <trkpt lat="45.20473" lon="5.72427">
        <ele>661.59997558594</ele>
        <time>2021-05-22T04:20:49.000Z</time>
      </trkpt>
      <trkpt lat="45.20477" lon="5.7243">
        <ele>662.20001220703</ele>
        <time>2021-05-22T04:20:51.000Z</time>
      </trkpt>
      <trkpt lat="45.2048" lon="5.72429">
        <ele>662.59997558594</ele>
        <time>2021-05-22T04:20:53.000Z</time>
      </trkpt>
      <trkpt lat="45.20482" lon="5.72428">
        <ele>662.59997558594</ele>
        <time>2021-05-22T04:20:54.000Z</time>
      </trkpt>
      <trkpt lat="45.20486" lon="5.72425">
        <ele>662.79998779297</ele>
        <time>2021-05-22T04:20:57.000Z</time>
      </trkpt>
      <trkpt lat="45.20491" lon="5.72427">
        <ele>663.20001220703</ele>
        <time>2021-05-22T04:21:00.000Z</time>
      </trkpt>
      <trkpt lat="45.20493" lon="5.72428">
        <ele>663.20001220703</ele>
        <time>2021-05-22T04:21:01.000Z</time>
      </trkpt>
      <trkpt lat="45.205" lon="5.72433">
        <ele>663.59997558594</ele>
        <time>2021-05-22T04:21:05.000Z</time>
      </trkpt>
      <trkpt lat="45.20502" lon="5.72434">
        <ele>663.59997558594</ele>
        <time>2021-05-22T04:21:06.000Z</time>
      </trkpt>
      <trkpt lat="45.20509" lon="5.72436">
        <ele>664.20001220703</ele>
        <time>2021-05-22T04:21:10.000Z</time>
      </trkpt>
      <trkpt lat="45.20512" lon="5.72436">
        <ele>664.40002441406</ele>
        <time>2021-05-22T04:21:11.000Z</time>
      </trkpt>
      <trkpt lat="45.20515" lon="5.72435">
        <ele>664.40002441406</ele>
        <time>2021-05-22T04:21:14.000Z</time>
      </trkpt>
      <trkpt lat="45.2052" lon="5.72437">
        <ele>664</ele>
        <time>2021-05-22T04:21:18.000Z</time>
      </trkpt>
      <trkpt lat="45.20523" lon="5.72438">
        <ele>663.79998779297</ele>
        <time>2021-05-22T04:21:20.000Z</time>
      </trkpt>
      <trkpt lat="45.20533" lon="5.72443">
        <ele>663.20001220703</ele>
        <time>2021-05-22T04:21:28.000Z</time>
      </trkpt>
      <trkpt lat="45.20535" lon="5.72444">
        <ele>663.20001220703</ele>
        <time>2021-05-22T04:21:30.000Z</time>
      </trkpt>
      <trkpt lat="45.20541" lon="5.72453">
        <ele>662.40002441406</ele>
        <time>2021-05-22T04:21:35.000Z</time>
      </trkpt>
      <trkpt lat="45.20542" lon="5.72453">
        <ele>662.20001220703</ele>
        <time>2021-05-22T04:21:36.000Z</time>
      </trkpt>
      <trkpt lat="45.20543" lon="5.72454">
        <ele>662</ele>
        <time>2021-05-22T04:21:37.000Z</time>
      </trkpt>
      <trkpt lat="45.20544" lon="5.72454">
        <ele>661.79998779297</ele>
        <time>2021-05-22T04:21:38.000Z</time>
      </trkpt>
      <trkpt lat="45.20547" lon="5.72455">
        <ele>661.40002441406</ele>
        <time>2021-05-22T04:21:41.000Z</time>
      </trkpt>
      <trkpt lat="45.20548" lon="5.72456">
        <ele>661.40002441406</ele>
        <time>2021-05-22T04:21:42.000Z</time>
      </trkpt>
      <trkpt lat="45.2055" lon="5.72457">
        <ele>661.20001220703</ele>
        <time>2021-05-22T04:21:43.000Z</time>
      </trkpt>
      <trkpt lat="45.20558" lon="5.72463">
        <ele>661.20001220703</ele>
        <time>2021-05-22T04:21:46.000Z</time>
      </trkpt>
      <trkpt lat="45.20564" lon="5.72467">
        <ele>661.79998779297</ele>
        <time>2021-05-22T04:21:49.000Z</time>
      </trkpt>
      <trkpt lat="45.20566" lon="5.72469">
        <ele>662</ele>
        <time>2021-05-22T04:21:50.000Z</time>
      </trkpt>
      <trkpt lat="45.20574" lon="5.72477">
        <ele>662.40002441406</ele>
        <time>2021-05-22T04:21:54.000Z</time>
      </trkpt>
      <trkpt lat="45.20576" lon="5.7248">
        <ele>662.40002441406</ele>
        <time>2021-05-22T04:21:55.000Z</time>
      </trkpt>
      <trkpt lat="45.2058" lon="5.72488">
        <ele>662.40002441406</ele>
        <time>2021-05-22T04:21:57.000Z</time>
      </trkpt>
      <trkpt lat="45.20583" lon="5.72496">
        <ele>662.40002441406</ele>
        <time>2021-05-22T04:22:00.000Z</time>
      </trkpt>
      <trkpt lat="45.20585" lon="5.725">
        <ele>662.40002441406</ele>
        <time>2021-05-22T04:22:02.000Z</time>
      </trkpt>
      <trkpt lat="45.20591" lon="5.72511">
        <ele>662.59997558594</ele>
        <time>2021-05-22T04:22:07.000Z</time>
      </trkpt>
      <trkpt lat="45.20592" lon="5.72514">
        <ele>662.79998779297</ele>
        <time>2021-05-22T04:22:08.000Z</time>
      </trkpt>
      <trkpt lat="45.20594" lon="5.72524">
        <ele>663</ele>
        <time>2021-05-22T04:22:11.000Z</time>
      </trkpt>
      <trkpt lat="45.20596" lon="5.72538">
        <ele>662.20001220703</ele>
        <time>2021-05-22T04:22:16.000Z</time>
      </trkpt>
      <trkpt lat="45.20594" lon="5.72548">
        <ele>661.40002441406</ele>
        <time>2021-05-22T04:22:20.000Z</time>
      </trkpt>
      <trkpt lat="45.20592" lon="5.72553">
        <ele>661.20001220703</ele>
        <time>2021-05-22T04:22:22.000Z</time>
      </trkpt>
      <trkpt lat="45.20592" lon="5.72556">
        <ele>661.20001220703</ele>
        <time>2021-05-22T04:22:23.000Z</time>
      </trkpt>
      <trkpt lat="45.20591" lon="5.7256">
        <ele>660.79998779297</ele>
        <time>2021-05-22T04:22:25.000Z</time>
      </trkpt>
      <trkpt lat="45.20593" lon="5.72563">
        <ele>660.79998779297</ele>
        <time>2021-05-22T04:22:26.000Z</time>
      </trkpt>
      <trkpt lat="45.20595" lon="5.72566">
        <ele>660.79998779297</ele>
        <time>2021-05-22T04:22:28.000Z</time>
      </trkpt>
      <trkpt lat="45.20596" lon="5.72567">
        <ele>661</ele>
        <time>2021-05-22T04:22:29.000Z</time>
      </trkpt>
      <trkpt lat="45.20599" lon="5.72571">
        <ele>661.20001220703</ele>
        <time>2021-05-22T04:22:32.000Z</time>
      </trkpt>
      <trkpt lat="45.20609" lon="5.72577">
        <ele>661.59997558594</ele>
        <time>2021-05-22T04:22:36.000Z</time>
      </trkpt>
      <trkpt lat="45.20614" lon="5.72587">
        <ele>662.40002441406</ele>
        <time>2021-05-22T04:22:41.000Z</time>
      </trkpt>
      <trkpt lat="45.20616" lon="5.72588">
        <ele>662.59997558594</ele>
        <time>2021-05-22T04:22:42.000Z</time>
      </trkpt>
      <trkpt lat="45.20617" lon="5.72589">
        <ele>662.79998779297</ele>
        <time>2021-05-22T04:22:43.000Z</time>
      </trkpt>
      <trkpt lat="45.20618" lon="5.7259">
        <ele>663</ele>
        <time>2021-05-22T04:22:44.000Z</time>
      </trkpt>
      <trkpt lat="45.20621" lon="5.72592">
        <ele>663.79998779297</ele>
        <time>2021-05-22T04:22:47.000Z</time>
      </trkpt>
      <trkpt lat="45.20625" lon="5.72594">
        <ele>664.79998779297</ele>
        <time>2021-05-22T04:22:50.000Z</time>
      </trkpt>
      <trkpt lat="45.20626" lon="5.72595">
        <ele>664.79998779297</ele>
        <time>2021-05-22T04:22:51.000Z</time>
      </trkpt>
      <trkpt lat="45.2063" lon="5.72596">
        <ele>665.40002441406</ele>
        <time>2021-05-22T04:22:55.000Z</time>
      </trkpt>
      <trkpt lat="45.20633" lon="5.72594">
        <ele>665.59997558594</ele>
        <time>2021-05-22T04:22:57.000Z</time>
      </trkpt>
      <trkpt lat="45.20636" lon="5.72593">
        <ele>666</ele>
        <time>2021-05-22T04:22:59.000Z</time>
      </trkpt>
      <trkpt lat="45.20646" lon="5.72591">
        <ele>666.59997558594</ele>
        <time>2021-05-22T04:23:05.000Z</time>
      </trkpt>
      <trkpt lat="45.20649" lon="5.72588">
        <ele>667.20001220703</ele>
        <time>2021-05-22T04:23:07.000Z</time>
      </trkpt>
      <trkpt lat="45.20658" lon="5.72582">
        <ele>668.40002441406</ele>
        <time>2021-05-22T04:23:13.000Z</time>
      </trkpt>
      <trkpt lat="45.20664" lon="5.72574">
        <ele>669.40002441406</ele>
        <time>2021-05-22T04:23:18.000Z</time>
      </trkpt>
      <trkpt lat="45.20668" lon="5.72571">
        <ele>670</ele>
        <time>2021-05-22T04:23:21.000Z</time>
      </trkpt>
      <trkpt lat="45.2067" lon="5.72571">
        <ele>670.20001220703</ele>
        <time>2021-05-22T04:23:22.000Z</time>
      </trkpt>
      <trkpt lat="45.20673" lon="5.7257">
        <ele>670.59997558594</ele>
        <time>2021-05-22T04:23:24.000Z</time>
      </trkpt>
      <trkpt lat="45.2068" lon="5.72569">
        <ele>671.79998779297</ele>
        <time>2021-05-22T04:23:28.000Z</time>
      </trkpt>
      <trkpt lat="45.20681" lon="5.72568">
        <ele>671.79998779297</ele>
        <time>2021-05-22T04:23:29.000Z</time>
      </trkpt>
      <trkpt lat="45.20686" lon="5.72566">
        <ele>672.79998779297</ele>
        <time>2021-05-22T04:23:32.000Z</time>
      </trkpt>
      <trkpt lat="45.20693" lon="5.72566">
        <ele>674</ele>
        <time>2021-05-22T04:23:37.000Z</time>
      </trkpt>
      <trkpt lat="45.20698" lon="5.72568">
        <ele>675</ele>
        <time>2021-05-22T04:23:40.000Z</time>
      </trkpt>
      <trkpt lat="45.20702" lon="5.7257">
        <ele>676</ele>
        <time>2021-05-22T04:23:44.000Z</time>
      </trkpt>
      <trkpt lat="45.20703" lon="5.7257">
        <ele>676.20001220703</ele>
        <time>2021-05-22T04:23:45.000Z</time>
      </trkpt>
      <trkpt lat="45.20705" lon="5.72571">
        <ele>676.79998779297</ele>
        <time>2021-05-22T04:23:47.000Z</time>
      </trkpt>
      <trkpt lat="45.2071" lon="5.72572">
        <ele>677.40002441406</ele>
        <time>2021-05-22T04:23:49.000Z</time>
      </trkpt>
      <trkpt lat="45.20713" lon="5.72572">
        <ele>677.79998779297</ele>
        <time>2021-05-22T04:23:51.000Z</time>
      </trkpt>
      <trkpt lat="45.20714" lon="5.72573">
        <ele>678.59997558594</ele>
        <time>2021-05-22T04:23:53.000Z</time>
      </trkpt>
      <trkpt lat="45.20715" lon="5.72573">
        <ele>678.79998779297</ele>
        <time>2021-05-22T04:23:54.000Z</time>
      </trkpt>
      <trkpt lat="45.20716" lon="5.72572">
        <ele>679.59997558594</ele>
        <time>2021-05-22T04:23:57.000Z</time>
      </trkpt>
      <trkpt lat="45.20717" lon="5.72572">
        <ele>679.79998779297</ele>
        <time>2021-05-22T04:23:58.000Z</time>
      </trkpt>
      <trkpt lat="45.20721" lon="5.72573">
        <ele>680.40002441406</ele>
        <time>2021-05-22T04:24:01.000Z</time>
      </trkpt>
      <trkpt lat="45.20723" lon="5.72574">
        <ele>681</ele>
        <time>2021-05-22T04:24:03.000Z</time>
      </trkpt>
      <trkpt lat="45.20724" lon="5.72576">
        <ele>681.40002441406</ele>
        <time>2021-05-22T04:24:04.000Z</time>
      </trkpt>
      <trkpt lat="45.20725" lon="5.72577">
        <ele>682</ele>
        <time>2021-05-22T04:24:06.000Z</time>
      </trkpt>
      <trkpt lat="45.20726" lon="5.72578">
        <ele>682.20001220703</ele>
        <time>2021-05-22T04:24:07.000Z</time>
      </trkpt>
      <trkpt lat="45.20728" lon="5.72579">
        <ele>682.59997558594</ele>
        <time>2021-05-22T04:24:09.000Z</time>
      </trkpt>
      <trkpt lat="45.2073" lon="5.7258">
        <ele>683.40002441406</ele>
        <time>2021-05-22T04:24:11.000Z</time>
      </trkpt>
      <trkpt lat="45.20732" lon="5.72581">
        <ele>684</ele>
        <time>2021-05-22T04:24:13.000Z</time>
      </trkpt>
      <trkpt lat="45.20733" lon="5.72582">
        <ele>684.40002441406</ele>
        <time>2021-05-22T04:24:15.000Z</time>
      </trkpt>
      <trkpt lat="45.20733" lon="5.72584">
        <ele>685</ele>
        <time>2021-05-22T04:24:17.000Z</time>
      </trkpt>
      <trkpt lat="45.20734" lon="5.72588">
        <ele>685.40002441406</ele>
        <time>2021-05-22T04:24:19.000Z</time>
      </trkpt>
      <trkpt lat="45.20737" lon="5.72596">
        <ele>686.40002441406</ele>
        <time>2021-05-22T04:24:23.000Z</time>
      </trkpt>
      <trkpt lat="45.20739" lon="5.72601">
        <ele>687</ele>
        <time>2021-05-22T04:24:26.000Z</time>
      </trkpt>
      <trkpt lat="45.2074" lon="5.72604">
        <ele>688</ele>
        <time>2021-05-22T04:24:28.000Z</time>
      </trkpt>
      <trkpt lat="45.20743" lon="5.72612">
        <ele>689</ele>
        <time>2021-05-22T04:24:32.000Z</time>
      </trkpt>
      <trkpt lat="45.20744" lon="5.72612">
        <ele>689.20001220703</ele>
        <time>2021-05-22T04:24:33.000Z</time>
      </trkpt>
      <trkpt lat="45.20745" lon="5.72611">
        <ele>690.20001220703</ele>
        <time>2021-05-22T04:24:36.000Z</time>
      </trkpt>
      <trkpt lat="45.20745" lon="5.72611">
        <ele>690.40002441406</ele>
        <time>2021-05-22T04:24:37.000Z</time>
      </trkpt>
      <trkpt lat="45.2075" lon="5.72609">
        <ele>691.40002441406</ele>
        <time>2021-05-22T04:24:41.000Z</time>
      </trkpt>
      <trkpt lat="45.2075" lon="5.72608">
        <ele>691.79998779297</ele>
        <time>2021-05-22T04:24:42.000Z</time>
      </trkpt>
      <trkpt lat="45.20756" lon="5.72609">
        <ele>692.59997558594</ele>
        <time>2021-05-22T04:24:45.000Z</time>
      </trkpt>
      <trkpt lat="45.2076" lon="5.72608">
        <ele>693.79998779297</ele>
        <time>2021-05-22T04:24:49.000Z</time>
      </trkpt>
      <trkpt lat="45.20761" lon="5.72607">
        <ele>694</ele>
        <time>2021-05-22T04:24:50.000Z</time>
      </trkpt>
      <trkpt lat="45.20765" lon="5.72607">
        <ele>694.79998779297</ele>
        <time>2021-05-22T04:24:54.000Z</time>
      </trkpt>
      <trkpt lat="45.20766" lon="5.72606">
        <ele>696</ele>
        <time>2021-05-22T04:24:57.000Z</time>
      </trkpt>
      <trkpt lat="45.20767" lon="5.72606">
        <ele>696.20001220703</ele>
        <time>2021-05-22T04:24:58.000Z</time>
      </trkpt>
      <trkpt lat="45.20768" lon="5.72607">
        <ele>696.59997558594</ele>
        <time>2021-05-22T04:24:59.000Z</time>
      </trkpt>
      <trkpt lat="45.2077" lon="5.7261">
        <ele>697.20001220703</ele>
        <time>2021-05-22T04:25:01.000Z</time>
      </trkpt>
      <trkpt lat="45.20771" lon="5.72613">
        <ele>697.79998779297</ele>
        <time>2021-05-22T04:25:03.000Z</time>
      </trkpt>
      <trkpt lat="45.20772" lon="5.72616">
        <ele>698.40002441406</ele>
        <time>2021-05-22T04:25:05.000Z</time>
      </trkpt>
      <trkpt lat="45.20773" lon="5.72619">
        <ele>698.79998779297</ele>
        <time>2021-05-22T04:25:07.000Z</time>
      </trkpt>
      <trkpt lat="45.20773" lon="5.72624">
        <ele>699.59997558594</ele>
        <time>2021-05-22T04:25:10.000Z</time>
      </trkpt>
      <trkpt lat="45.20774" lon="5.72628">
        <ele>700.20001220703</ele>
        <time>2021-05-22T04:25:13.000Z</time>
      </trkpt>
      <trkpt lat="45.20776" lon="5.7263">
        <ele>700.79998779297</ele>
        <time>2021-05-22T04:25:15.000Z</time>
      </trkpt>
      <trkpt lat="45.20776" lon="5.72633">
        <ele>701.79998779297</ele>
        <time>2021-05-22T04:25:17.000Z</time>
      </trkpt>
      <trkpt lat="45.20776" lon="5.72634">
        <ele>702</ele>
        <time>2021-05-22T04:25:18.000Z</time>
      </trkpt>
      <trkpt lat="45.20777" lon="5.72638">
        <ele>703</ele>
        <time>2021-05-22T04:25:23.000Z</time>
      </trkpt>
      <trkpt lat="45.20777" lon="5.72638">
        <ele>703.40002441406</ele>
        <time>2021-05-22T04:25:24.000Z</time>
      </trkpt>
      <trkpt lat="45.20778" lon="5.72638">
        <ele>704.40002441406</ele>
        <time>2021-05-22T04:25:28.000Z</time>
      </trkpt>
      <trkpt lat="45.20779" lon="5.72637">
        <ele>704.79998779297</ele>
        <time>2021-05-22T04:25:30.000Z</time>
      </trkpt>
      <trkpt lat="45.20779" lon="5.72636">
        <ele>705.59997558594</ele>
        <time>2021-05-22T04:25:32.000Z</time>
      </trkpt>
      <trkpt lat="45.2078" lon="5.72635">
        <ele>706.20001220703</ele>
        <time>2021-05-22T04:25:34.000Z</time>
      </trkpt>
      <trkpt lat="45.20781" lon="5.72634">
        <ele>706.40002441406</ele>
        <time>2021-05-22T04:25:35.000Z</time>
      </trkpt>
      <trkpt lat="45.20783" lon="5.72634">
        <ele>707.20001220703</ele>
        <time>2021-05-22T04:25:37.000Z</time>
      </trkpt>
      <trkpt lat="45.20785" lon="5.72634">
        <ele>707.40002441406</ele>
        <time>2021-05-22T04:25:38.000Z</time>
      </trkpt>
      <trkpt lat="45.20786" lon="5.72634">
        <ele>707.59997558594</ele>
        <time>2021-05-22T04:25:39.000Z</time>
      </trkpt>
      <trkpt lat="45.20789" lon="5.72633">
        <ele>708</ele>
        <time>2021-05-22T04:25:42.000Z</time>
      </trkpt>
      <trkpt lat="45.20789" lon="5.72633">
        <ele>708.20001220703</ele>
        <time>2021-05-22T04:25:43.000Z</time>
      </trkpt>
      <trkpt lat="45.2079" lon="5.72631">
        <ele>708.79998779297</ele>
        <time>2021-05-22T04:25:45.000Z</time>
      </trkpt>
      <trkpt lat="45.20791" lon="5.72629">
        <ele>709.20001220703</ele>
        <time>2021-05-22T04:25:47.000Z</time>
      </trkpt>
      <trkpt lat="45.20792" lon="5.72626">
        <ele>709.59997558594</ele>
        <time>2021-05-22T04:25:49.000Z</time>
      </trkpt>
      <trkpt lat="45.20793" lon="5.72624">
        <ele>710</ele>
        <time>2021-05-22T04:25:51.000Z</time>
      </trkpt>
      <trkpt lat="45.20795" lon="5.72623">
        <ele>710.59997558594</ele>
        <time>2021-05-22T04:25:53.000Z</time>
      </trkpt>
      <trkpt lat="45.20796" lon="5.72624">
        <ele>711.59997558594</ele>
        <time>2021-05-22T04:25:56.000Z</time>
      </trkpt>
      <trkpt lat="45.20796" lon="5.72624">
        <ele>712</ele>
        <time>2021-05-22T04:25:57.000Z</time>
      </trkpt>
      <trkpt lat="45.20797" lon="5.72627">
        <ele>712.40002441406</ele>
        <time>2021-05-22T04:25:59.000Z</time>
      </trkpt>
      <trkpt lat="45.20798" lon="5.72628">
        <ele>712.59997558594</ele>
        <time>2021-05-22T04:26:00.000Z</time>
      </trkpt>
      <trkpt lat="45.20798" lon="5.72629">
        <ele>712.79998779297</ele>
        <time>2021-05-22T04:26:01.000Z</time>
      </trkpt>
      <trkpt lat="45.20799" lon="5.72631">
        <ele>713.20001220703</ele>
        <time>2021-05-22T04:26:03.000Z</time>
      </trkpt>
      <trkpt lat="45.208" lon="5.72632">
        <ele>713.40002441406</ele>
        <time>2021-05-22T04:26:04.000Z</time>
      </trkpt>
      <trkpt lat="45.20801" lon="5.72633">
        <ele>713.79998779297</ele>
        <time>2021-05-22T04:26:05.000Z</time>
      </trkpt>
      <trkpt lat="45.20801" lon="5.72635">
        <ele>714.59997558594</ele>
        <time>2021-05-22T04:26:08.000Z</time>
      </trkpt>
      <trkpt lat="45.20801" lon="5.72635">
        <ele>714.79998779297</ele>
        <time>2021-05-22T04:26:09.000Z</time>
      </trkpt>
      <trkpt lat="45.20801" lon="5.72636">
        <ele>714.79998779297</ele>
        <time>2021-05-22T04:26:10.000Z</time>
      </trkpt>
      <trkpt lat="45.20802" lon="5.72637">
        <ele>715.79998779297</ele>
        <time>2021-05-22T04:26:12.000Z</time>
      </trkpt>
      <trkpt lat="45.20802" lon="5.72638">
        <ele>716</ele>
        <time>2021-05-22T04:26:13.000Z</time>
      </trkpt>
      <trkpt lat="45.20802" lon="5.7264">
        <ele>716.20001220703</ele>
        <time>2021-05-22T04:26:14.000Z</time>
      </trkpt>
      <trkpt lat="45.20802" lon="5.72641">
        <ele>716.40002441406</ele>
        <time>2021-05-22T04:26:15.000Z</time>
      </trkpt>
      <trkpt lat="45.20802" lon="5.72642">
        <ele>716.59997558594</ele>
        <time>2021-05-22T04:26:16.000Z</time>
      </trkpt>
      <trkpt lat="45.20801" lon="5.72644">
        <ele>717</ele>
        <time>2021-05-22T04:26:18.000Z</time>
      </trkpt>
      <trkpt lat="45.20802" lon="5.72645">
        <ele>717.20001220703</ele>
        <time>2021-05-22T04:26:19.000Z</time>
      </trkpt>
      <trkpt lat="45.20802" lon="5.72648">
        <ele>718</ele>
        <time>2021-05-22T04:26:22.000Z</time>
      </trkpt>
      <trkpt lat="45.20803" lon="5.7265">
        <ele>718.20001220703</ele>
        <time>2021-05-22T04:26:23.000Z</time>
      </trkpt>
      <trkpt lat="45.20804" lon="5.72659">
        <ele>719.20001220703</ele>
        <time>2021-05-22T04:26:27.000Z</time>
      </trkpt>
      <trkpt lat="45.20804" lon="5.7266">
        <ele>719.79998779297</ele>
        <time>2021-05-22T04:26:28.000Z</time>
      </trkpt>
      <trkpt lat="45.20806" lon="5.72661">
        <ele>720.59997558594</ele>
        <time>2021-05-22T04:26:31.000Z</time>
      </trkpt>
      <trkpt lat="45.20808" lon="5.72661">
        <ele>721</ele>
        <time>2021-05-22T04:26:33.000Z</time>
      </trkpt>
      <trkpt lat="45.20811" lon="5.72661">
        <ele>721.79998779297</ele>
        <time>2021-05-22T04:26:35.000Z</time>
      </trkpt>
      <trkpt lat="45.20812" lon="5.72661">
        <ele>722</ele>
        <time>2021-05-22T04:26:36.000Z</time>
      </trkpt>
      <trkpt lat="45.20814" lon="5.7266">
        <ele>722.40002441406</ele>
        <time>2021-05-22T04:26:38.000Z</time>
      </trkpt>
      <trkpt lat="45.20816" lon="5.72659">
        <ele>722.79998779297</ele>
        <time>2021-05-22T04:26:40.000Z</time>
      </trkpt>
      <trkpt lat="45.20817" lon="5.72658">
        <ele>723.40002441406</ele>
        <time>2021-05-22T04:26:42.000Z</time>
      </trkpt>
      <trkpt lat="45.20818" lon="5.72656">
        <ele>724</ele>
        <time>2021-05-22T04:26:44.000Z</time>
      </trkpt>
      <trkpt lat="45.20819" lon="5.72655">
        <ele>724.20001220703</ele>
        <time>2021-05-22T04:26:45.000Z</time>
      </trkpt>
      <trkpt lat="45.20819" lon="5.72654">
        <ele>724.40002441406</ele>
        <time>2021-05-22T04:26:46.000Z</time>
      </trkpt>
      <trkpt lat="45.2082" lon="5.72652">
        <ele>724.59997558594</ele>
        <time>2021-05-22T04:26:48.000Z</time>
      </trkpt>
      <trkpt lat="45.2082" lon="5.72651">
        <ele>725</ele>
        <time>2021-05-22T04:26:49.000Z</time>
      </trkpt>
      <trkpt lat="45.20821" lon="5.7265">
        <ele>725.40002441406</ele>
        <time>2021-05-22T04:26:50.000Z</time>
      </trkpt>
      <trkpt lat="45.20824" lon="5.72649">
        <ele>726</ele>
        <time>2021-05-22T04:26:52.000Z</time>
      </trkpt>
      <trkpt lat="45.20825" lon="5.7265">
        <ele>726</ele>
        <time>2021-05-22T04:26:53.000Z</time>
      </trkpt>
      <trkpt lat="45.20827" lon="5.72652">
        <ele>726.59997558594</ele>
        <time>2021-05-22T04:26:55.000Z</time>
      </trkpt>
      <trkpt lat="45.20828" lon="5.72654">
        <ele>727.20001220703</ele>
        <time>2021-05-22T04:26:57.000Z</time>
      </trkpt>
      <trkpt lat="45.20828" lon="5.72654">
        <ele>727.40002441406</ele>
        <time>2021-05-22T04:26:58.000Z</time>
      </trkpt>
      <trkpt lat="45.20831" lon="5.72657">
        <ele>728.59997558594</ele>
        <time>2021-05-22T04:27:02.000Z</time>
      </trkpt>
      <trkpt lat="45.20831" lon="5.72658">
        <ele>729</ele>
        <time>2021-05-22T04:27:03.000Z</time>
      </trkpt>
      <trkpt lat="45.20832" lon="5.7266">
        <ele>729.59997558594</ele>
        <time>2021-05-22T04:27:05.000Z</time>
      </trkpt>
      <trkpt lat="45.20833" lon="5.72661">
        <ele>729.79998779297</ele>
        <time>2021-05-22T04:27:06.000Z</time>
      </trkpt>
      <trkpt lat="45.20833" lon="5.72663">
        <ele>729.79998779297</ele>
        <time>2021-05-22T04:27:07.000Z</time>
      </trkpt>
      <trkpt lat="45.20833" lon="5.72665">
        <ele>730.40002441406</ele>
        <time>2021-05-22T04:27:09.000Z</time>
      </trkpt>
      <trkpt lat="45.20833" lon="5.72666">
        <ele>730.79998779297</ele>
        <time>2021-05-22T04:27:10.000Z</time>
      </trkpt>
      <trkpt lat="45.20833" lon="5.72668">
        <ele>731.20001220703</ele>
        <time>2021-05-22T04:27:11.000Z</time>
      </trkpt>
      <trkpt lat="45.20833" lon="5.72672">
        <ele>731.40002441406</ele>
        <time>2021-05-22T04:27:13.000Z</time>
      </trkpt>
      <trkpt lat="45.20834" lon="5.72677">
        <ele>732</ele>
        <time>2021-05-22T04:27:16.000Z</time>
      </trkpt>
      <trkpt lat="45.20835" lon="5.72679">
        <ele>732.20001220703</ele>
        <time>2021-05-22T04:27:17.000Z</time>
      </trkpt>
      <trkpt lat="45.20835" lon="5.72683">
        <ele>732.59997558594</ele>
        <time>2021-05-22T04:27:18.000Z</time>
      </trkpt>
      <trkpt lat="45.20835" lon="5.72683">
        <ele>733</ele>
        <time>2021-05-22T04:27:19.000Z</time>
      </trkpt>
      <trkpt lat="45.20836" lon="5.72688">
        <ele>734</ele>
        <time>2021-05-22T04:27:23.000Z</time>
      </trkpt>
      <trkpt lat="45.20836" lon="5.72688">
        <ele>734.20001220703</ele>
        <time>2021-05-22T04:27:24.000Z</time>
      </trkpt>
      <trkpt lat="45.20839" lon="5.7269">
        <ele>735.40002441406</ele>
        <time>2021-05-22T04:27:29.000Z</time>
      </trkpt>
      <trkpt lat="45.20839" lon="5.7269">
        <ele>735.79998779297</ele>
        <time>2021-05-22T04:27:30.000Z</time>
      </trkpt>
      <trkpt lat="45.20841" lon="5.72689">
        <ele>736.59997558594</ele>
        <time>2021-05-22T04:27:33.000Z</time>
      </trkpt>
      <trkpt lat="45.20841" lon="5.72688">
        <ele>736.79998779297</ele>
        <time>2021-05-22T04:27:34.000Z</time>
      </trkpt>
      <trkpt lat="45.20843" lon="5.72688">
        <ele>737.20001220703</ele>
        <time>2021-05-22T04:27:36.000Z</time>
      </trkpt>
      <trkpt lat="45.20845" lon="5.72688">
        <ele>737.59997558594</ele>
        <time>2021-05-22T04:27:38.000Z</time>
      </trkpt>
      <trkpt lat="45.20845" lon="5.72687">
        <ele>738</ele>
        <time>2021-05-22T04:27:39.000Z</time>
      </trkpt>
      <trkpt lat="45.20846" lon="5.72686">
        <ele>738.59997558594</ele>
        <time>2021-05-22T04:27:41.000Z</time>
      </trkpt>
      <trkpt lat="45.20848" lon="5.72685">
        <ele>739</ele>
        <time>2021-05-22T04:27:43.000Z</time>
      </trkpt>
      <trkpt lat="45.2085" lon="5.72685">
        <ele>739.40002441406</ele>
        <time>2021-05-22T04:27:45.000Z</time>
      </trkpt>
      <trkpt lat="45.20852" lon="5.72685">
        <ele>739.79998779297</ele>
        <time>2021-05-22T04:27:47.000Z</time>
      </trkpt>
      <trkpt lat="45.20855" lon="5.72685">
        <ele>740.20001220703</ele>
        <time>2021-05-22T04:27:49.000Z</time>
      </trkpt>
      <trkpt lat="45.2086" lon="5.72683">
        <ele>740.79998779297</ele>
        <time>2021-05-22T04:27:52.000Z</time>
      </trkpt>
      <trkpt lat="45.2086" lon="5.72683">
        <ele>740.79998779297</ele>
        <time>2021-05-22T04:27:53.000Z</time>
      </trkpt>
      <trkpt lat="45.20861" lon="5.72683">
        <ele>741</ele>
        <time>2021-05-22T04:27:54.000Z</time>
      </trkpt>
      <trkpt lat="45.20864" lon="5.72683">
        <ele>741.79998779297</ele>
        <time>2021-05-22T04:27:56.000Z</time>
      </trkpt>
      <trkpt lat="45.20864" lon="5.72682">
        <ele>741.79998779297</ele>
        <time>2021-05-22T04:27:57.000Z</time>
      </trkpt>
      <trkpt lat="45.20865" lon="5.72682">
        <ele>742.20001220703</ele>
        <time>2021-05-22T04:27:59.000Z</time>
      </trkpt>
      <trkpt lat="45.20867" lon="5.72681">
        <ele>742.79998779297</ele>
        <time>2021-05-22T04:28:01.000Z</time>
      </trkpt>
      <trkpt lat="45.20873" lon="5.72681">
        <ele>743.79998779297</ele>
        <time>2021-05-22T04:28:06.000Z</time>
      </trkpt>
      <trkpt lat="45.20874" lon="5.7268">
        <ele>744</ele>
        <time>2021-05-22T04:28:07.000Z</time>
      </trkpt>
      <trkpt lat="45.20874" lon="5.7268">
        <ele>744.20001220703</ele>
        <time>2021-05-22T04:28:08.000Z</time>
      </trkpt>
      <trkpt lat="45.20877" lon="5.72678">
        <ele>744.79998779297</ele>
        <time>2021-05-22T04:28:11.000Z</time>
      </trkpt>
      <trkpt lat="45.20879" lon="5.72677">
        <ele>745.20001220703</ele>
        <time>2021-05-22T04:28:13.000Z</time>
      </trkpt>
      <trkpt lat="45.20884" lon="5.72673">
        <ele>746.79998779297</ele>
        <time>2021-05-22T04:28:19.000Z</time>
      </trkpt>
      <trkpt lat="45.20886" lon="5.72672">
        <ele>747.40002441406</ele>
        <time>2021-05-22T04:28:21.000Z</time>
      </trkpt>
      <trkpt lat="45.20888" lon="5.72671">
        <ele>747.79998779297</ele>
        <time>2021-05-22T04:28:24.000Z</time>
      </trkpt>
      <trkpt lat="45.20889" lon="5.7267">
        <ele>748.79998779297</ele>
        <time>2021-05-22T04:28:26.000Z</time>
      </trkpt>
      <trkpt lat="45.2089" lon="5.7267">
        <ele>749</ele>
        <time>2021-05-22T04:28:27.000Z</time>
      </trkpt>
      <trkpt lat="45.20894" lon="5.72668">
        <ele>749.79998779297</ele>
        <time>2021-05-22T04:28:30.000Z</time>
      </trkpt>
      <trkpt lat="45.20895" lon="5.72668">
        <ele>750.20001220703</ele>
        <time>2021-05-22T04:28:31.000Z</time>
      </trkpt>
      <trkpt lat="45.20895" lon="5.72668">
        <ele>750.40002441406</ele>
        <time>2021-05-22T04:28:32.000Z</time>
      </trkpt>
      <trkpt lat="45.20898" lon="5.72667">
        <ele>751</ele>
        <time>2021-05-22T04:28:34.000Z</time>
      </trkpt>
      <trkpt lat="45.20898" lon="5.72667">
        <ele>751.20001220703</ele>
        <time>2021-05-22T04:28:35.000Z</time>
      </trkpt>
      <trkpt lat="45.209" lon="5.72668">
        <ele>751.40002441406</ele>
        <time>2021-05-22T04:28:36.000Z</time>
      </trkpt>
      <trkpt lat="45.20905" lon="5.72667">
        <ele>752.20001220703</ele>
        <time>2021-05-22T04:28:39.000Z</time>
      </trkpt>
      <trkpt lat="45.20907" lon="5.72666">
        <ele>752.40002441406</ele>
        <time>2021-05-22T04:28:40.000Z</time>
      </trkpt>
      <trkpt lat="45.20912" lon="5.72667">
        <ele>753.59997558594</ele>
        <time>2021-05-22T04:28:44.000Z</time>
      </trkpt>
      <trkpt lat="45.20917" lon="5.72671">
        <ele>754.79998779297</ele>
        <time>2021-05-22T04:28:48.000Z</time>
      </trkpt>
      <trkpt lat="45.20919" lon="5.72672">
        <ele>755.40002441406</ele>
        <time>2021-05-22T04:28:50.000Z</time>
      </trkpt>
      <trkpt lat="45.20921" lon="5.72674">
        <ele>755.79998779297</ele>
        <time>2021-05-22T04:28:52.000Z</time>
      </trkpt>
      <trkpt lat="45.20923" lon="5.72675">
        <ele>756</ele>
        <time>2021-05-22T04:28:53.000Z</time>
      </trkpt>
      <trkpt lat="45.20924" lon="5.72675">
        <ele>756</ele>
        <time>2021-05-22T04:28:54.000Z</time>
      </trkpt>
      <trkpt lat="45.20928" lon="5.72676">
        <ele>757.20001220703</ele>
        <time>2021-05-22T04:28:57.000Z</time>
      </trkpt>
      <trkpt lat="45.20932" lon="5.72679">
        <ele>757.59997558594</ele>
        <time>2021-05-22T04:29:00.000Z</time>
      </trkpt>
      <trkpt lat="45.20935" lon="5.72681">
        <ele>758.20001220703</ele>
        <time>2021-05-22T04:29:02.000Z</time>
      </trkpt>
      <trkpt lat="45.2094" lon="5.72688">
        <ele>759.20001220703</ele>
        <time>2021-05-22T04:29:07.000Z</time>
      </trkpt>
      <trkpt lat="45.20942" lon="5.72691">
        <ele>760.20001220703</ele>
        <time>2021-05-22T04:29:10.000Z</time>
      </trkpt>
      <trkpt lat="45.20943" lon="5.72692">
        <ele>760.40002441406</ele>
        <time>2021-05-22T04:29:11.000Z</time>
      </trkpt>
      <trkpt lat="45.20944" lon="5.72693">
        <ele>760.59997558594</ele>
        <time>2021-05-22T04:29:12.000Z</time>
      </trkpt>
      <trkpt lat="45.20945" lon="5.72694">
        <ele>760.79998779297</ele>
        <time>2021-05-22T04:29:13.000Z</time>
      </trkpt>
      <trkpt lat="45.20945" lon="5.72695">
        <ele>761.40002441406</ele>
        <time>2021-05-22T04:29:15.000Z</time>
      </trkpt>
      <trkpt lat="45.20949" lon="5.72699">
        <ele>762.59997558594</ele>
        <time>2021-05-22T04:29:19.000Z</time>
      </trkpt>
      <trkpt lat="45.2095" lon="5.727">
        <ele>763</ele>
        <time>2021-05-22T04:29:21.000Z</time>
      </trkpt>
      <trkpt lat="45.20951" lon="5.72701">
        <ele>763.20001220703</ele>
        <time>2021-05-22T04:29:22.000Z</time>
      </trkpt>
      <trkpt lat="45.20954" lon="5.72703">
        <ele>764</ele>
        <time>2021-05-22T04:29:24.000Z</time>
      </trkpt>
      <trkpt lat="45.20956" lon="5.72706">
        <ele>764.79998779297</ele>
        <time>2021-05-22T04:29:27.000Z</time>
      </trkpt>
      <trkpt lat="45.20956" lon="5.72707">
        <ele>765</ele>
        <time>2021-05-22T04:29:28.000Z</time>
      </trkpt>
      <trkpt lat="45.20957" lon="5.72707">
        <ele>765.79998779297</ele>
        <time>2021-05-22T04:29:30.000Z</time>
      </trkpt>
      <trkpt lat="45.20958" lon="5.72708">
        <ele>766.20001220703</ele>
        <time>2021-05-22T04:29:31.000Z</time>
      </trkpt>
      <trkpt lat="45.20962" lon="5.72711">
        <ele>766.59997558594</ele>
        <time>2021-05-22T04:29:33.000Z</time>
      </trkpt>
      <trkpt lat="45.20963" lon="5.72714">
        <ele>767.20001220703</ele>
        <time>2021-05-22T04:29:35.000Z</time>
      </trkpt>
      <trkpt lat="45.20965" lon="5.72715">
        <ele>767.59997558594</ele>
        <time>2021-05-22T04:29:37.000Z</time>
      </trkpt>
      <trkpt lat="45.20966" lon="5.72716">
        <ele>767.79998779297</ele>
        <time>2021-05-22T04:29:38.000Z</time>
      </trkpt>
      <trkpt lat="45.20966" lon="5.72716">
        <ele>768.20001220703</ele>
        <time>2021-05-22T04:29:39.000Z</time>
      </trkpt>
      <trkpt lat="45.20967" lon="5.72716">
        <ele>768.79998779297</ele>
        <time>2021-05-22T04:29:40.000Z</time>
      </trkpt>
      <trkpt lat="45.20967" lon="5.72717">
        <ele>769</ele>
        <time>2021-05-22T04:29:41.000Z</time>
      </trkpt>
      <trkpt lat="45.20968" lon="5.72719">
        <ele>769.20001220703</ele>
        <time>2021-05-22T04:29:42.000Z</time>
      </trkpt>
      <trkpt lat="45.20969" lon="5.7272">
        <ele>769.59997558594</ele>
        <time>2021-05-22T04:29:43.000Z</time>
      </trkpt>
      <trkpt lat="45.2097" lon="5.72724">
        <ele>770.20001220703</ele>
        <time>2021-05-22T04:29:46.000Z</time>
      </trkpt>
      <trkpt lat="45.20971" lon="5.72726">
        <ele>770.79998779297</ele>
        <time>2021-05-22T04:29:47.000Z</time>
      </trkpt>
      <trkpt lat="45.20971" lon="5.72727">
        <ele>771.59997558594</ele>
        <time>2021-05-22T04:29:49.000Z</time>
      </trkpt>
      <trkpt lat="45.20971" lon="5.72727">
        <ele>772</ele>
        <time>2021-05-22T04:29:50.000Z</time>
      </trkpt>
      <trkpt lat="45.20971" lon="5.72727">
        <ele>772.20001220703</ele>
        <time>2021-05-22T04:29:51.000Z</time>
      </trkpt>
      <trkpt lat="45.20971" lon="5.72727">
        <ele>772.59997558594</ele>
        <time>2021-05-22T04:29:53.000Z</time>
      </trkpt>
      <trkpt lat="45.20972" lon="5.72729">
        <ele>772.59997558594</ele>
        <time>2021-05-22T04:29:54.000Z</time>
      </trkpt>
      <trkpt lat="45.20974" lon="5.7273">
        <ele>773</ele>
        <time>2021-05-22T04:29:55.000Z</time>
      </trkpt>
      <trkpt lat="45.20975" lon="5.72732">
        <ele>773.40002441406</ele>
        <time>2021-05-22T04:29:56.000Z</time>
      </trkpt>
      <trkpt lat="45.20976" lon="5.72734">
        <ele>774</ele>
        <time>2021-05-22T04:29:58.000Z</time>
      </trkpt>
      <trkpt lat="45.20976" lon="5.72735">
        <ele>774.40002441406</ele>
        <time>2021-05-22T04:30:00.000Z</time>
      </trkpt>
      <trkpt lat="45.20977" lon="5.72736">
        <ele>775.20001220703</ele>
        <time>2021-05-22T04:30:02.000Z</time>
      </trkpt>
      <trkpt lat="45.20978" lon="5.72738">
        <ele>775.79998779297</ele>
        <time>2021-05-22T04:30:05.000Z</time>
      </trkpt>
      <trkpt lat="45.20979" lon="5.72738">
        <ele>776.20001220703</ele>
        <time>2021-05-22T04:30:07.000Z</time>
      </trkpt>
      <trkpt lat="45.20981" lon="5.72741">
        <ele>777.40002441406</ele>
        <time>2021-05-22T04:30:10.000Z</time>
      </trkpt>
      <trkpt lat="45.20984" lon="5.72745">
        <ele>778.59997558594</ele>
        <time>2021-05-22T04:30:14.000Z</time>
      </trkpt>
      <trkpt lat="45.20984" lon="5.72746">
        <ele>778.59997558594</ele>
        <time>2021-05-22T04:30:15.000Z</time>
      </trkpt>
      <trkpt lat="45.20985" lon="5.72748">
        <ele>780</ele>
        <time>2021-05-22T04:30:17.000Z</time>
      </trkpt>
      <trkpt lat="45.20986" lon="5.72749">
        <ele>780.59997558594</ele>
        <time>2021-05-22T04:30:19.000Z</time>
      </trkpt>
      <trkpt lat="45.20988" lon="5.7275">
        <ele>781.20001220703</ele>
        <time>2021-05-22T04:30:21.000Z</time>
      </trkpt>
      <trkpt lat="45.20988" lon="5.72749">
        <ele>781.79998779297</ele>
        <time>2021-05-22T04:30:23.000Z</time>
      </trkpt>
      <trkpt lat="45.20987" lon="5.7275">
        <ele>782.20001220703</ele>
        <time>2021-05-22T04:30:25.000Z</time>
      </trkpt>
      <trkpt lat="45.20986" lon="5.72749">
        <ele>782.40002441406</ele>
        <time>2021-05-22T04:30:26.000Z</time>
      </trkpt>
      <trkpt lat="45.20988" lon="5.72749">
        <ele>783.40002441406</ele>
        <time>2021-05-22T04:30:29.000Z</time>
      </trkpt>
      <trkpt lat="45.20989" lon="5.72749">
        <ele>783.59997558594</ele>
        <time>2021-05-22T04:30:30.000Z</time>
      </trkpt>
      <trkpt lat="45.20991" lon="5.72749">
        <ele>784</ele>
        <time>2021-05-22T04:30:32.000Z</time>
      </trkpt>
      <trkpt lat="45.20992" lon="5.72749">
        <ele>784.59997558594</ele>
        <time>2021-05-22T04:30:34.000Z</time>
      </trkpt>
      <trkpt lat="45.20993" lon="5.72749">
        <ele>785.59997558594</ele>
        <time>2021-05-22T04:30:36.000Z</time>
      </trkpt>
      <trkpt lat="45.20995" lon="5.72746">
        <ele>786.59997558594</ele>
        <time>2021-05-22T04:30:41.000Z</time>
      </trkpt>
      <trkpt lat="45.20996" lon="5.72746">
        <ele>786.79998779297</ele>
        <time>2021-05-22T04:30:42.000Z</time>
      </trkpt>
      <trkpt lat="45.20999" lon="5.72743">
        <ele>787.79998779297</ele>
        <time>2021-05-22T04:30:45.000Z</time>
      </trkpt>
      <trkpt lat="45.20999" lon="5.72743">
        <ele>788.40002441406</ele>
        <time>2021-05-22T04:30:46.000Z</time>
      </trkpt>
      <trkpt lat="45.21" lon="5.72742">
        <ele>789.20001220703</ele>
        <time>2021-05-22T04:30:48.000Z</time>
      </trkpt>
      <trkpt lat="45.21001" lon="5.72741">
        <ele>789.40002441406</ele>
        <time>2021-05-22T04:30:49.000Z</time>
      </trkpt>
      <trkpt lat="45.21003" lon="5.7274">
        <ele>789.79998779297</ele>
        <time>2021-05-22T04:30:51.000Z</time>
      </trkpt>
      <trkpt lat="45.21003" lon="5.72739">
        <ele>790</ele>
        <time>2021-05-22T04:30:53.000Z</time>
      </trkpt>
      <trkpt lat="45.21004" lon="5.72738">
        <ele>790.20001220703</ele>
        <time>2021-05-22T04:30:54.000Z</time>
      </trkpt>
      <trkpt lat="45.21007" lon="5.72738">
        <ele>791.40002441406</ele>
        <time>2021-05-22T04:30:57.000Z</time>
      </trkpt>
      <trkpt lat="45.2101" lon="5.72738">
        <ele>792.20001220703</ele>
        <time>2021-05-22T04:31:00.000Z</time>
      </trkpt>
      <trkpt lat="45.2101" lon="5.72738">
        <ele>792.40002441406</ele>
        <time>2021-05-22T04:31:01.000Z</time>
      </trkpt>
      <trkpt lat="45.21011" lon="5.72739">
        <ele>792.40002441406</ele>
        <time>2021-05-22T04:31:02.000Z</time>
      </trkpt>
      <trkpt lat="45.21012" lon="5.72738">
        <ele>792.59997558594</ele>
        <time>2021-05-22T04:31:04.000Z</time>
      </trkpt>
      <trkpt lat="45.21014" lon="5.72739">
        <ele>793.59997558594</ele>
        <time>2021-05-22T04:31:06.000Z</time>
      </trkpt>
      <trkpt lat="45.21015" lon="5.7274">
        <ele>794</ele>
        <time>2021-05-22T04:31:07.000Z</time>
      </trkpt>
      <trkpt lat="45.21016" lon="5.7274">
        <ele>794.20001220703</ele>
        <time>2021-05-22T04:31:09.000Z</time>
      </trkpt>
      <trkpt lat="45.21017" lon="5.72739">
        <ele>794.40002441406</ele>
        <time>2021-05-22T04:31:10.000Z</time>
      </trkpt>
      <trkpt lat="45.21017" lon="5.72738">
        <ele>794.59997558594</ele>
        <time>2021-05-22T04:31:11.000Z</time>
      </trkpt>
      <trkpt lat="45.2102" lon="5.72738">
        <ele>795.40002441406</ele>
        <time>2021-05-22T04:31:14.000Z</time>
      </trkpt>
      <trkpt lat="45.21022" lon="5.72738">
        <ele>796</ele>
        <time>2021-05-22T04:31:16.000Z</time>
      </trkpt>
      <trkpt lat="45.21025" lon="5.72736">
        <ele>796.79998779297</ele>
        <time>2021-05-22T04:31:19.000Z</time>
      </trkpt>
      <trkpt lat="45.21026" lon="5.72735">
        <ele>797.20001220703</ele>
        <time>2021-05-22T04:31:20.000Z</time>
      </trkpt>
      <trkpt lat="45.2103" lon="5.72736">
        <ele>798.20001220703</ele>
        <time>2021-05-22T04:31:25.000Z</time>
      </trkpt>
      <trkpt lat="45.21033" lon="5.72737">
        <ele>799.20001220703</ele>
        <time>2021-05-22T04:31:29.000Z</time>
      </trkpt>
      <trkpt lat="45.21035" lon="5.72739">
        <ele>799.40002441406</ele>
        <time>2021-05-22T04:31:31.000Z</time>
      </trkpt>
      <trkpt lat="45.21036" lon="5.72739">
        <ele>799.79998779297</ele>
        <time>2021-05-22T04:31:32.000Z</time>
      </trkpt>
      <trkpt lat="45.21037" lon="5.7274">
        <ele>800</ele>
        <time>2021-05-22T04:31:33.000Z</time>
      </trkpt>
      <trkpt lat="45.21038" lon="5.7274">
        <ele>800.40002441406</ele>
        <time>2021-05-22T04:31:35.000Z</time>
      </trkpt>
      <trkpt lat="45.21038" lon="5.7274">
        <ele>800.59997558594</ele>
        <time>2021-05-22T04:31:36.000Z</time>
      </trkpt>
      <trkpt lat="45.21039" lon="5.7274">
        <ele>801.40002441406</ele>
        <time>2021-05-22T04:31:38.000Z</time>
      </trkpt>
      <trkpt lat="45.2104" lon="5.7274">
        <ele>801.79998779297</ele>
        <time>2021-05-22T04:31:39.000Z</time>
      </trkpt>
      <trkpt lat="45.21042" lon="5.7274">
        <ele>802.40002441406</ele>
        <time>2021-05-22T04:31:41.000Z</time>
      </trkpt>
      <trkpt lat="45.21044" lon="5.72742">
        <ele>802.59997558594</ele>
        <time>2021-05-22T04:31:44.000Z</time>
      </trkpt>
      <trkpt lat="45.21045" lon="5.72744">
        <ele>803.20001220703</ele>
        <time>2021-05-22T04:31:46.000Z</time>
      </trkpt>
      <trkpt lat="45.21046" lon="5.72747">
        <ele>803.40002441406</ele>
        <time>2021-05-22T04:31:48.000Z</time>
      </trkpt>
      <trkpt lat="45.21049" lon="5.72752">
        <ele>803.79998779297</ele>
        <time>2021-05-22T04:31:51.000Z</time>
      </trkpt>
      <trkpt lat="45.2105" lon="5.72754">
        <ele>804</ele>
        <time>2021-05-22T04:31:52.000Z</time>
      </trkpt>
      <trkpt lat="45.2105" lon="5.72755">
        <ele>804.20001220703</ele>
        <time>2021-05-22T04:31:53.000Z</time>
      </trkpt>
      <trkpt lat="45.21053" lon="5.72763">
        <ele>804.59997558594</ele>
        <time>2021-05-22T04:31:58.000Z</time>
      </trkpt>
      <trkpt lat="45.21054" lon="5.72764">
        <ele>804.79998779297</ele>
        <time>2021-05-22T04:31:59.000Z</time>
      </trkpt>
      <trkpt lat="45.21056" lon="5.72769">
        <ele>805.20001220703</ele>
        <time>2021-05-22T04:32:02.000Z</time>
      </trkpt>
      <trkpt lat="45.21057" lon="5.7277">
        <ele>805.20001220703</ele>
        <time>2021-05-22T04:32:03.000Z</time>
      </trkpt>
      <trkpt lat="45.21058" lon="5.72777">
        <ele>805</ele>
        <time>2021-05-22T04:32:07.000Z</time>
      </trkpt>
      <trkpt lat="45.2106" lon="5.72782">
        <ele>805</ele>
        <time>2021-05-22T04:32:09.000Z</time>
      </trkpt>
      <trkpt lat="45.2106" lon="5.72784">
        <ele>805</ele>
        <time>2021-05-22T04:32:10.000Z</time>
      </trkpt>
      <trkpt lat="45.21062" lon="5.72791">
        <ele>805</ele>
        <time>2021-05-22T04:32:13.000Z</time>
      </trkpt>
      <trkpt lat="45.21062" lon="5.72791">
        <ele>805</ele>
        <time>2021-05-22T04:32:14.000Z</time>
      </trkpt>
      <trkpt lat="45.21065" lon="5.72796">
        <ele>805.20001220703</ele>
        <time>2021-05-22T04:32:20.000Z</time>
      </trkpt>
      <trkpt lat="45.21067" lon="5.72801">
        <ele>805.20001220703</ele>
        <time>2021-05-22T04:32:23.000Z</time>
      </trkpt>
      <trkpt lat="45.2107" lon="5.72807">
        <ele>805.79998779297</ele>
        <time>2021-05-22T04:32:28.000Z</time>
      </trkpt>
      <trkpt lat="45.21077" lon="5.72816">
        <ele>806.59997558594</ele>
        <time>2021-05-22T04:32:33.000Z</time>
      </trkpt>
      <trkpt lat="45.21078" lon="5.72819">
        <ele>806.79998779297</ele>
        <time>2021-05-22T04:32:35.000Z</time>
      </trkpt>
      <trkpt lat="45.2108" lon="5.72825">
        <ele>807.59997558594</ele>
        <time>2021-05-22T04:32:39.000Z</time>
      </trkpt>
      <trkpt lat="45.21084" lon="5.72827">
        <ele>807.79998779297</ele>
        <time>2021-05-22T04:32:41.000Z</time>
      </trkpt>
      <trkpt lat="45.2109" lon="5.72834">
        <ele>808.20001220703</ele>
        <time>2021-05-22T04:32:45.000Z</time>
      </trkpt>
      <trkpt lat="45.21092" lon="5.72838">
        <ele>808.59997558594</ele>
        <time>2021-05-22T04:32:47.000Z</time>
      </trkpt>
      <trkpt lat="45.21093" lon="5.72839">
        <ele>808.79998779297</ele>
        <time>2021-05-22T04:32:48.000Z</time>
      </trkpt>
      <trkpt lat="45.21099" lon="5.72847">
        <ele>809.40002441406</ele>
        <time>2021-05-22T04:32:53.000Z</time>
      </trkpt>
      <trkpt lat="45.211" lon="5.72847">
        <ele>809.59997558594</ele>
        <time>2021-05-22T04:32:54.000Z</time>
      </trkpt>
      <trkpt lat="45.21102" lon="5.72848">
        <ele>810.40002441406</ele>
        <time>2021-05-22T04:32:56.000Z</time>
      </trkpt>
      <trkpt lat="45.21103" lon="5.7285">
        <ele>810.79998779297</ele>
        <time>2021-05-22T04:32:58.000Z</time>
      </trkpt>
      <trkpt lat="45.21107" lon="5.72854">
        <ele>811.79998779297</ele>
        <time>2021-05-22T04:33:02.000Z</time>
      </trkpt>
      <trkpt lat="45.21108" lon="5.72855">
        <ele>812</ele>
        <time>2021-05-22T04:33:03.000Z</time>
      </trkpt>
      <trkpt lat="45.21112" lon="5.72861">
        <ele>812.79998779297</ele>
        <time>2021-05-22T04:33:08.000Z</time>
      </trkpt>
      <trkpt lat="45.21114" lon="5.72863">
        <ele>813.20001220703</ele>
        <time>2021-05-22T04:33:09.000Z</time>
      </trkpt>
      <trkpt lat="45.21119" lon="5.72867">
        <ele>814.20001220703</ele>
        <time>2021-05-22T04:33:14.000Z</time>
      </trkpt>
      <trkpt lat="45.21121" lon="5.72869">
        <ele>814.79998779297</ele>
        <time>2021-05-22T04:33:16.000Z</time>
      </trkpt>
      <trkpt lat="45.21123" lon="5.72871">
        <ele>815.40002441406</ele>
        <time>2021-05-22T04:33:19.000Z</time>
      </trkpt>
      <trkpt lat="45.21124" lon="5.72871">
        <ele>815.59997558594</ele>
        <time>2021-05-22T04:33:20.000Z</time>
      </trkpt>
      <trkpt lat="45.21125" lon="5.72872">
        <ele>815.79998779297</ele>
        <time>2021-05-22T04:33:21.000Z</time>
      </trkpt>
      <trkpt lat="45.21128" lon="5.72873">
        <ele>816.40002441406</ele>
        <time>2021-05-22T04:33:23.000Z</time>
      </trkpt>
      <trkpt lat="45.21129" lon="5.72874">
        <ele>816.59997558594</ele>
        <time>2021-05-22T04:33:24.000Z</time>
      </trkpt>
      <trkpt lat="45.21134" lon="5.72879">
        <ele>817.59997558594</ele>
        <time>2021-05-22T04:33:28.000Z</time>
      </trkpt>
      <trkpt lat="45.21138" lon="5.72882">
        <ele>818.59997558594</ele>
        <time>2021-05-22T04:33:32.000Z</time>
      </trkpt>
      <trkpt lat="45.21143" lon="5.72882">
        <ele>819.59997558594</ele>
        <time>2021-05-22T04:33:35.000Z</time>
      </trkpt>
      <trkpt lat="45.21144" lon="5.72882">
        <ele>820</ele>
        <time>2021-05-22T04:33:36.000Z</time>
      </trkpt>
      <trkpt lat="45.2115" lon="5.72886">
        <ele>821</ele>
        <time>2021-05-22T04:33:40.000Z</time>
      </trkpt>
      <trkpt lat="45.21156" lon="5.72889">
        <ele>821.59997558594</ele>
        <time>2021-05-22T04:33:44.000Z</time>
      </trkpt>
      <trkpt lat="45.21158" lon="5.7289">
        <ele>822.20001220703</ele>
        <time>2021-05-22T04:33:45.000Z</time>
      </trkpt>
      <trkpt lat="45.21166" lon="5.72895">
        <ele>823</ele>
        <time>2021-05-22T04:33:50.000Z</time>
      </trkpt>
      <trkpt lat="45.21167" lon="5.72896">
        <ele>823.20001220703</ele>
        <time>2021-05-22T04:33:51.000Z</time>
      </trkpt>
      <trkpt lat="45.21172" lon="5.72898">
        <ele>824.40002441406</ele>
        <time>2021-05-22T04:33:55.000Z</time>
      </trkpt>
      <trkpt lat="45.21175" lon="5.72899">
        <ele>825.20001220703</ele>
        <time>2021-05-22T04:33:57.000Z</time>
      </trkpt>
      <trkpt lat="45.21176" lon="5.729">
        <ele>825.40002441406</ele>
        <time>2021-05-22T04:33:58.000Z</time>
      </trkpt>
      <trkpt lat="45.21182" lon="5.72904">
        <ele>826.59997558594</ele>
        <time>2021-05-22T04:34:03.000Z</time>
      </trkpt>
      <trkpt lat="45.21183" lon="5.72906">
        <ele>826.79998779297</ele>
        <time>2021-05-22T04:34:04.000Z</time>
      </trkpt>
      <trkpt lat="45.21188" lon="5.72909">
        <ele>827.79998779297</ele>
        <time>2021-05-22T04:34:07.000Z</time>
      </trkpt>
      <trkpt lat="45.21189" lon="5.72911">
        <ele>828</ele>
        <time>2021-05-22T04:34:08.000Z</time>
      </trkpt>
      <trkpt lat="45.21192" lon="5.72915">
        <ele>828.59997558594</ele>
        <time>2021-05-22T04:34:11.000Z</time>
      </trkpt>
      <trkpt lat="45.21193" lon="5.72917">
        <ele>829</ele>
        <time>2021-05-22T04:34:12.000Z</time>
      </trkpt>
      <trkpt lat="45.21199" lon="5.72922">
        <ele>830</ele>
        <time>2021-05-22T04:34:16.000Z</time>
      </trkpt>
      <trkpt lat="45.212" lon="5.72924">
        <ele>830.40002441406</ele>
        <time>2021-05-22T04:34:17.000Z</time>
      </trkpt>
      <trkpt lat="45.21203" lon="5.72929">
        <ele>831</ele>
        <time>2021-05-22T04:34:20.000Z</time>
      </trkpt>
      <trkpt lat="45.21203" lon="5.7293">
        <ele>831.20001220703</ele>
        <time>2021-05-22T04:34:21.000Z</time>
      </trkpt>
      <trkpt lat="45.21204" lon="5.72932">
        <ele>831.40002441406</ele>
        <time>2021-05-22T04:34:22.000Z</time>
      </trkpt>
      <trkpt lat="45.21207" lon="5.72934">
        <ele>832</ele>
        <time>2021-05-22T04:34:24.000Z</time>
      </trkpt>
      <trkpt lat="45.2121" lon="5.72935">
        <ele>832.20001220703</ele>
        <time>2021-05-22T04:34:26.000Z</time>
      </trkpt>
      <trkpt lat="45.21212" lon="5.72937">
        <ele>832.79998779297</ele>
        <time>2021-05-22T04:34:28.000Z</time>
      </trkpt>
      <trkpt lat="45.21213" lon="5.72938">
        <ele>833</ele>
        <time>2021-05-22T04:34:30.000Z</time>
      </trkpt>
      <trkpt lat="45.21213" lon="5.72937">
        <ele>833.20001220703</ele>
        <time>2021-05-22T04:34:31.000Z</time>
      </trkpt>
      <trkpt lat="45.21213" lon="5.72937">
        <ele>833.59997558594</ele>
        <time>2021-05-22T04:34:32.000Z</time>
      </trkpt>
      <trkpt lat="45.2121" lon="5.72935">
        <ele>834.40002441406</ele>
        <time>2021-05-22T04:34:35.000Z</time>
      </trkpt>
      <trkpt lat="45.21209" lon="5.72933">
        <ele>835.40002441406</ele>
        <time>2021-05-22T04:34:38.000Z</time>
      </trkpt>
      <trkpt lat="45.21209" lon="5.72933">
        <ele>835.79998779297</ele>
        <time>2021-05-22T04:34:39.000Z</time>
      </trkpt>
      <trkpt lat="45.21209" lon="5.72931">
        <ele>835.79998779297</ele>
        <time>2021-05-22T04:34:40.000Z</time>
      </trkpt>
      <trkpt lat="45.21209" lon="5.72929">
        <ele>836.40002441406</ele>
        <time>2021-05-22T04:34:42.000Z</time>
      </trkpt>
      <trkpt lat="45.21209" lon="5.72927">
        <ele>836.59997558594</ele>
        <time>2021-05-22T04:34:44.000Z</time>
      </trkpt>
      <trkpt lat="45.21209" lon="5.72926">
        <ele>836.79998779297</ele>
        <time>2021-05-22T04:34:45.000Z</time>
      </trkpt>
      <trkpt lat="45.21208" lon="5.72922">
        <ele>837.79998779297</ele>
        <time>2021-05-22T04:34:48.000Z</time>
      </trkpt>
      <trkpt lat="45.21209" lon="5.72919">
        <ele>838.20001220703</ele>
        <time>2021-05-22T04:34:50.000Z</time>
      </trkpt>
      <trkpt lat="45.21212" lon="5.72917">
        <ele>839</ele>
        <time>2021-05-22T04:34:52.000Z</time>
      </trkpt>
      <trkpt lat="45.21214" lon="5.72917">
        <ele>839.59997558594</ele>
        <time>2021-05-22T04:34:56.000Z</time>
      </trkpt>
      <trkpt lat="45.21215" lon="5.72917">
        <ele>840</ele>
        <time>2021-05-22T04:34:57.000Z</time>
      </trkpt>
      <trkpt lat="45.21217" lon="5.72918">
        <ele>840.20001220703</ele>
        <time>2021-05-22T04:34:58.000Z</time>
      </trkpt>
      <trkpt lat="45.21222" lon="5.72917">
        <ele>841.59997558594</ele>
        <time>2021-05-22T04:35:03.000Z</time>
      </trkpt>
      <trkpt lat="45.21224" lon="5.72919">
        <ele>842.40002441406</ele>
        <time>2021-05-22T04:35:05.000Z</time>
      </trkpt>
      <trkpt lat="45.21225" lon="5.72921">
        <ele>842.59997558594</ele>
        <time>2021-05-22T04:35:06.000Z</time>
      </trkpt>
      <trkpt lat="45.21227" lon="5.72923">
        <ele>842.79998779297</ele>
        <time>2021-05-22T04:35:07.000Z</time>
      </trkpt>
      <trkpt lat="45.21229" lon="5.72926">
        <ele>843</ele>
        <time>2021-05-22T04:35:09.000Z</time>
      </trkpt>
      <trkpt lat="45.21229" lon="5.72928">
        <ele>843.20001220703</ele>
        <time>2021-05-22T04:35:10.000Z</time>
      </trkpt>
      <trkpt lat="45.2123" lon="5.72928">
        <ele>843.40002441406</ele>
        <time>2021-05-22T04:35:11.000Z</time>
      </trkpt>
      <trkpt lat="45.21232" lon="5.7293">
        <ele>843.79998779297</ele>
        <time>2021-05-22T04:35:13.000Z</time>
      </trkpt>
      <trkpt lat="45.21234" lon="5.7293">
        <ele>844</ele>
        <time>2021-05-22T04:35:14.000Z</time>
      </trkpt>
      <trkpt lat="45.21236" lon="5.72931">
        <ele>844.40002441406</ele>
        <time>2021-05-22T04:35:16.000Z</time>
      </trkpt>
      <trkpt lat="45.21241" lon="5.72934">
        <ele>845</ele>
        <time>2021-05-22T04:35:20.000Z</time>
      </trkpt>
      <trkpt lat="45.21242" lon="5.72935">
        <ele>845.59997558594</ele>
        <time>2021-05-22T04:35:21.000Z</time>
      </trkpt>
      <trkpt lat="45.21245" lon="5.72936">
        <ele>846.20001220703</ele>
        <time>2021-05-22T04:35:24.000Z</time>
      </trkpt>
      <trkpt lat="45.21247" lon="5.72936">
        <ele>846.79998779297</ele>
        <time>2021-05-22T04:35:26.000Z</time>
      </trkpt>
      <trkpt lat="45.21248" lon="5.72936">
        <ele>846.79998779297</ele>
        <time>2021-05-22T04:35:27.000Z</time>
      </trkpt>
      <trkpt lat="45.21249" lon="5.72936">
        <ele>847.40002441406</ele>
        <time>2021-05-22T04:35:28.000Z</time>
      </trkpt>
      <trkpt lat="45.21252" lon="5.72938">
        <ele>848.59997558594</ele>
        <time>2021-05-22T04:35:32.000Z</time>
      </trkpt>
      <trkpt lat="45.21255" lon="5.7294">
        <ele>849</ele>
        <time>2021-05-22T04:35:34.000Z</time>
      </trkpt>
      <trkpt lat="45.21258" lon="5.72943">
        <ele>850</ele>
        <time>2021-05-22T04:35:37.000Z</time>
      </trkpt>
      <trkpt lat="45.21259" lon="5.72945">
        <ele>850.40002441406</ele>
        <time>2021-05-22T04:35:39.000Z</time>
      </trkpt>
      <trkpt lat="45.2126" lon="5.72946">
        <ele>850.59997558594</ele>
        <time>2021-05-22T04:35:40.000Z</time>
      </trkpt>
      <trkpt lat="45.21261" lon="5.72947">
        <ele>851</ele>
        <time>2021-05-22T04:35:41.000Z</time>
      </trkpt>
      <trkpt lat="45.21265" lon="5.72948">
        <ele>852</ele>
        <time>2021-05-22T04:35:45.000Z</time>
      </trkpt>
      <trkpt lat="45.21267" lon="5.72948">
        <ele>853</ele>
        <time>2021-05-22T04:35:47.000Z</time>
      </trkpt>
      <trkpt lat="45.21267" lon="5.72948">
        <ele>853.20001220703</ele>
        <time>2021-05-22T04:35:48.000Z</time>
      </trkpt>
      <trkpt lat="45.21272" lon="5.72949">
        <ele>854.40002441406</ele>
        <time>2021-05-22T04:35:53.000Z</time>
      </trkpt>
      <trkpt lat="45.21274" lon="5.72951">
        <ele>854.79998779297</ele>
        <time>2021-05-22T04:35:55.000Z</time>
      </trkpt>
      <trkpt lat="45.21275" lon="5.72954">
        <ele>855.59997558594</ele>
        <time>2021-05-22T04:35:57.000Z</time>
      </trkpt>
      <trkpt lat="45.21277" lon="5.72957">
        <ele>856.20001220703</ele>
        <time>2021-05-22T04:35:59.000Z</time>
      </trkpt>
      <trkpt lat="45.21279" lon="5.72958">
        <ele>856.40002441406</ele>
        <time>2021-05-22T04:36:01.000Z</time>
      </trkpt>
      <trkpt lat="45.2128" lon="5.72958">
        <ele>856.59997558594</ele>
        <time>2021-05-22T04:36:02.000Z</time>
      </trkpt>
      <trkpt lat="45.21281" lon="5.72958">
        <ele>856.79998779297</ele>
        <time>2021-05-22T04:36:03.000Z</time>
      </trkpt>
      <trkpt lat="45.21285" lon="5.72961">
        <ele>857.79998779297</ele>
        <time>2021-05-22T04:36:06.000Z</time>
      </trkpt>
      <trkpt lat="45.21287" lon="5.72962">
        <ele>858.20001220703</ele>
        <time>2021-05-22T04:36:09.000Z</time>
      </trkpt>
      <trkpt lat="45.21289" lon="5.72964">
        <ele>859</ele>
        <time>2021-05-22T04:36:11.000Z</time>
      </trkpt>
      <trkpt lat="45.21295" lon="5.7297">
        <ele>860.40002441406</ele>
        <time>2021-05-22T04:36:16.000Z</time>
      </trkpt>
      <trkpt lat="45.21295" lon="5.72971">
        <ele>860.79998779297</ele>
        <time>2021-05-22T04:36:17.000Z</time>
      </trkpt>
      <trkpt lat="45.21297" lon="5.72973">
        <ele>861.20001220703</ele>
        <time>2021-05-22T04:36:19.000Z</time>
      </trkpt>
      <trkpt lat="45.21299" lon="5.72974">
        <ele>861.40002441406</ele>
        <time>2021-05-22T04:36:21.000Z</time>
      </trkpt>
      <trkpt lat="45.21301" lon="5.72975">
        <ele>862</ele>
        <time>2021-05-22T04:36:23.000Z</time>
      </trkpt>
      <trkpt lat="45.21303" lon="5.72976">
        <ele>862.59997558594</ele>
        <time>2021-05-22T04:36:25.000Z</time>
      </trkpt>
      <trkpt lat="45.2131" lon="5.72984">
        <ele>864</ele>
        <time>2021-05-22T04:36:31.000Z</time>
      </trkpt>
      <trkpt lat="45.21312" lon="5.72987">
        <ele>864.40002441406</ele>
        <time>2021-05-22T04:36:33.000Z</time>
      </trkpt>
      <trkpt lat="45.21317" lon="5.72996">
        <ele>865.20001220703</ele>
        <time>2021-05-22T04:36:39.000Z</time>
      </trkpt>
      <trkpt lat="45.21318" lon="5.72997">
        <ele>865.59997558594</ele>
        <time>2021-05-22T04:36:40.000Z</time>
      </trkpt>
      <trkpt lat="45.2132" lon="5.72998">
        <ele>866.40002441406</ele>
        <time>2021-05-22T04:36:42.000Z</time>
      </trkpt>
      <trkpt lat="45.21323" lon="5.73003">
        <ele>867.59997558594</ele>
        <time>2021-05-22T04:36:46.000Z</time>
      </trkpt>
      <trkpt lat="45.21324" lon="5.73004">
        <ele>867.79998779297</ele>
        <time>2021-05-22T04:36:47.000Z</time>
      </trkpt>
      <trkpt lat="45.21324" lon="5.73005">
        <ele>868</ele>
        <time>2021-05-22T04:36:48.000Z</time>
      </trkpt>
      <trkpt lat="45.21327" lon="5.73007">
        <ele>868.59997558594</ele>
        <time>2021-05-22T04:36:51.000Z</time>
      </trkpt>
      <trkpt lat="45.21329" lon="5.7301">
        <ele>869.20001220703</ele>
        <time>2021-05-22T04:36:53.000Z</time>
      </trkpt>
      <trkpt lat="45.21331" lon="5.73012">
        <ele>869.59997558594</ele>
        <time>2021-05-22T04:36:55.000Z</time>
      </trkpt>
      <trkpt lat="45.21332" lon="5.73013">
        <ele>869.79998779297</ele>
        <time>2021-05-22T04:36:56.000Z</time>
      </trkpt>
      <trkpt lat="45.21333" lon="5.73014">
        <ele>870</ele>
        <time>2021-05-22T04:36:57.000Z</time>
      </trkpt>
      <trkpt lat="45.21335" lon="5.73015">
        <ele>870.79998779297</ele>
        <time>2021-05-22T04:36:59.000Z</time>
      </trkpt>
      <trkpt lat="45.21336" lon="5.73016">
        <ele>871</ele>
        <time>2021-05-22T04:37:00.000Z</time>
      </trkpt>
      <trkpt lat="45.21339" lon="5.73019">
        <ele>871.59997558594</ele>
        <time>2021-05-22T04:37:04.000Z</time>
      </trkpt>
      <trkpt lat="45.2134" lon="5.7302">
        <ele>872</ele>
        <time>2021-05-22T04:37:05.000Z</time>
      </trkpt>
      <trkpt lat="45.2134" lon="5.73022">
        <ele>872.79998779297</ele>
        <time>2021-05-22T04:37:07.000Z</time>
      </trkpt>
      <trkpt lat="45.21342" lon="5.73023">
        <ele>873.20001220703</ele>
        <time>2021-05-22T04:37:09.000Z</time>
      </trkpt>
      <trkpt lat="45.21343" lon="5.73023">
        <ele>873.40002441406</ele>
        <time>2021-05-22T04:37:10.000Z</time>
      </trkpt>
      <trkpt lat="45.21345" lon="5.73025">
        <ele>874.59997558594</ele>
        <time>2021-05-22T04:37:12.000Z</time>
      </trkpt>
      <trkpt lat="45.21347" lon="5.73029">
        <ele>875.20001220703</ele>
        <time>2021-05-22T04:37:14.000Z</time>
      </trkpt>
      <trkpt lat="45.21348" lon="5.7303">
        <ele>875.59997558594</ele>
        <time>2021-05-22T04:37:16.000Z</time>
      </trkpt>
      <trkpt lat="45.21348" lon="5.73031">
        <ele>875.59997558594</ele>
        <time>2021-05-22T04:37:17.000Z</time>
      </trkpt>
      <trkpt lat="45.21348" lon="5.73032">
        <ele>876</ele>
        <time>2021-05-22T04:37:18.000Z</time>
      </trkpt>
      <trkpt lat="45.21349" lon="5.73034">
        <ele>876.59997558594</ele>
        <time>2021-05-22T04:37:19.000Z</time>
      </trkpt>
      <trkpt lat="45.21349" lon="5.73035">
        <ele>876.79998779297</ele>
        <time>2021-05-22T04:37:20.000Z</time>
      </trkpt>
      <trkpt lat="45.21351" lon="5.73038">
        <ele>877.40002441406</ele>
        <time>2021-05-22T04:37:22.000Z</time>
      </trkpt>
      <trkpt lat="45.21353" lon="5.7304">
        <ele>877.59997558594</ele>
        <time>2021-05-22T04:37:24.000Z</time>
      </trkpt>
      <trkpt lat="45.21356" lon="5.73045">
        <ele>878.79998779297</ele>
        <time>2021-05-22T04:37:27.000Z</time>
      </trkpt>
      <trkpt lat="45.21357" lon="5.73046">
        <ele>879</ele>
        <time>2021-05-22T04:37:28.000Z</time>
      </trkpt>
      <trkpt lat="45.21358" lon="5.73048">
        <ele>879.20001220703</ele>
        <time>2021-05-22T04:37:29.000Z</time>
      </trkpt>
      <trkpt lat="45.21359" lon="5.7305">
        <ele>879.79998779297</ele>
        <time>2021-05-22T04:37:31.000Z</time>
      </trkpt>
      <trkpt lat="45.21362" lon="5.73053">
        <ele>880.59997558594</ele>
        <time>2021-05-22T04:37:34.000Z</time>
      </trkpt>
      <trkpt lat="45.21362" lon="5.73054">
        <ele>880.79998779297</ele>
        <time>2021-05-22T04:37:35.000Z</time>
      </trkpt>
      <trkpt lat="45.21363" lon="5.73054">
        <ele>881</ele>
        <time>2021-05-22T04:37:36.000Z</time>
      </trkpt>
      <trkpt lat="45.21367" lon="5.73059">
        <ele>882</ele>
        <time>2021-05-22T04:37:40.000Z</time>
      </trkpt>
      <trkpt lat="45.21369" lon="5.73062">
        <ele>882.40002441406</ele>
        <time>2021-05-22T04:37:42.000Z</time>
      </trkpt>
      <trkpt lat="45.21375" lon="5.73069">
        <ele>882.79998779297</ele>
        <time>2021-05-22T04:37:47.000Z</time>
      </trkpt>
      <trkpt lat="45.21378" lon="5.73073">
        <ele>882.79998779297</ele>
        <time>2021-05-22T04:37:49.000Z</time>
      </trkpt>
      <trkpt lat="45.21382" lon="5.73078">
        <ele>883.20001220703</ele>
        <time>2021-05-22T04:37:52.000Z</time>
      </trkpt>
      <trkpt lat="45.21389" lon="5.73089">
        <ele>883.59997558594</ele>
        <time>2021-05-22T04:37:57.000Z</time>
      </trkpt>
      <trkpt lat="45.21395" lon="5.73098">
        <ele>884.20001220703</ele>
        <time>2021-05-22T04:38:01.000Z</time>
      </trkpt>
      <trkpt lat="45.21399" lon="5.73104">
        <ele>884.79998779297</ele>
        <time>2021-05-22T04:38:04.000Z</time>
      </trkpt>
      <trkpt lat="45.21402" lon="5.73107">
        <ele>885.20001220703</ele>
        <time>2021-05-22T04:38:06.000Z</time>
      </trkpt>
      <trkpt lat="45.21408" lon="5.73113">
        <ele>885.79998779297</ele>
        <time>2021-05-22T04:38:10.000Z</time>
      </trkpt>
      <trkpt lat="45.21412" lon="5.73117">
        <ele>886.20001220703</ele>
        <time>2021-05-22T04:38:13.000Z</time>
      </trkpt>
      <trkpt lat="45.21413" lon="5.73119">
        <ele>886.40002441406</ele>
        <time>2021-05-22T04:38:14.000Z</time>
      </trkpt>
      <trkpt lat="45.21414" lon="5.73121">
        <ele>886.59997558594</ele>
        <time>2021-05-22T04:38:15.000Z</time>
      </trkpt>
      <trkpt lat="45.21418" lon="5.73129">
        <ele>887.40002441406</ele>
        <time>2021-05-22T04:38:19.000Z</time>
      </trkpt>
      <trkpt lat="45.21422" lon="5.73135">
        <ele>888.59997558594</ele>
        <time>2021-05-22T04:38:23.000Z</time>
      </trkpt>
      <trkpt lat="45.21424" lon="5.73138">
        <ele>889.20001220703</ele>
        <time>2021-05-22T04:38:26.000Z</time>
      </trkpt>
      <trkpt lat="45.21426" lon="5.73138">
        <ele>889.59997558594</ele>
        <time>2021-05-22T04:38:27.000Z</time>
      </trkpt>
      <trkpt lat="45.21427" lon="5.73139">
        <ele>889.79998779297</ele>
        <time>2021-05-22T04:38:28.000Z</time>
      </trkpt>
      <trkpt lat="45.21432" lon="5.73144">
        <ele>890.40002441406</ele>
        <time>2021-05-22T04:38:31.000Z</time>
      </trkpt>
      <trkpt lat="45.21433" lon="5.73145">
        <ele>890.59997558594</ele>
        <time>2021-05-22T04:38:32.000Z</time>
      </trkpt>
      <trkpt lat="45.21434" lon="5.73147">
        <ele>890.79998779297</ele>
        <time>2021-05-22T04:38:33.000Z</time>
      </trkpt>
      <trkpt lat="45.21438" lon="5.73149">
        <ele>891.20001220703</ele>
        <time>2021-05-22T04:38:36.000Z</time>
      </trkpt>
      <trkpt lat="45.21441" lon="5.73151">
        <ele>891.79998779297</ele>
        <time>2021-05-22T04:38:38.000Z</time>
      </trkpt>
      <trkpt lat="45.21441" lon="5.73151">
        <ele>892</ele>
        <time>2021-05-22T04:38:39.000Z</time>
      </trkpt>
      <trkpt lat="45.21443" lon="5.73152">
        <ele>893.20001220703</ele>
        <time>2021-05-22T04:38:42.000Z</time>
      </trkpt>
      <trkpt lat="45.21446" lon="5.73152">
        <ele>893.59997558594</ele>
        <time>2021-05-22T04:38:44.000Z</time>
      </trkpt>
      <trkpt lat="45.21448" lon="5.73153">
        <ele>893.59997558594</ele>
        <time>2021-05-22T04:38:45.000Z</time>
      </trkpt>
      <trkpt lat="45.21451" lon="5.73155">
        <ele>894.40002441406</ele>
        <time>2021-05-22T04:38:47.000Z</time>
      </trkpt>
      <trkpt lat="45.21455" lon="5.73157">
        <ele>895</ele>
        <time>2021-05-22T04:38:50.000Z</time>
      </trkpt>
      <trkpt lat="45.21457" lon="5.73159">
        <ele>895.40002441406</ele>
        <time>2021-05-22T04:38:52.000Z</time>
      </trkpt>
      <trkpt lat="45.21457" lon="5.73159">
        <ele>895.79998779297</ele>
        <time>2021-05-22T04:38:53.000Z</time>
      </trkpt>
      <trkpt lat="45.21459" lon="5.73161">
        <ele>896.59997558594</ele>
        <time>2021-05-22T04:38:55.000Z</time>
      </trkpt>
      <trkpt lat="45.21461" lon="5.73163">
        <ele>897.20001220703</ele>
        <time>2021-05-22T04:38:57.000Z</time>
      </trkpt>
      <trkpt lat="45.21463" lon="5.73165">
        <ele>897.79998779297</ele>
        <time>2021-05-22T04:38:59.000Z</time>
      </trkpt>
      <trkpt lat="45.21465" lon="5.73168">
        <ele>898.40002441406</ele>
        <time>2021-05-22T04:39:01.000Z</time>
      </trkpt>
      <trkpt lat="45.21465" lon="5.73169">
        <ele>898.59997558594</ele>
        <time>2021-05-22T04:39:02.000Z</time>
      </trkpt>
      <trkpt lat="45.21466" lon="5.7317">
        <ele>899</ele>
        <time>2021-05-22T04:39:03.000Z</time>
      </trkpt>
      <trkpt lat="45.21467" lon="5.7317">
        <ele>899.40002441406</ele>
        <time>2021-05-22T04:39:04.000Z</time>
      </trkpt>
      <trkpt lat="45.21469" lon="5.73172">
        <ele>900</ele>
        <time>2021-05-22T04:39:06.000Z</time>
      </trkpt>
      <trkpt lat="45.2147" lon="5.73175">
        <ele>900.79998779297</ele>
        <time>2021-05-22T04:39:08.000Z</time>
      </trkpt>
      <trkpt lat="45.21471" lon="5.73177">
        <ele>901.20001220703</ele>
        <time>2021-05-22T04:39:09.000Z</time>
      </trkpt>
      <trkpt lat="45.21472" lon="5.73182">
        <ele>902.40002441406</ele>
        <time>2021-05-22T04:39:13.000Z</time>
      </trkpt>
      <trkpt lat="45.21473" lon="5.73188">
        <ele>902.59997558594</ele>
        <time>2021-05-22T04:39:16.000Z</time>
      </trkpt>
      <trkpt lat="45.21473" lon="5.73196">
        <ele>902.79998779297</ele>
        <time>2021-05-22T04:39:19.000Z</time>
      </trkpt>
      <trkpt lat="45.21475" lon="5.73204">
        <ele>903</ele>
        <time>2021-05-22T04:39:22.000Z</time>
      </trkpt>
      <trkpt lat="45.21476" lon="5.73207">
        <ele>903</ele>
        <time>2021-05-22T04:39:23.000Z</time>
      </trkpt>
      <trkpt lat="45.21478" lon="5.73211">
        <ele>903.40002441406</ele>
        <time>2021-05-22T04:39:25.000Z</time>
      </trkpt>
      <trkpt lat="45.21481" lon="5.73214">
        <ele>903.79998779297</ele>
        <time>2021-05-22T04:39:27.000Z</time>
      </trkpt>
      <trkpt lat="45.21484" lon="5.73219">
        <ele>904.79998779297</ele>
        <time>2021-05-22T04:39:30.000Z</time>
      </trkpt>
      <trkpt lat="45.21487" lon="5.73224">
        <ele>905.40002441406</ele>
        <time>2021-05-22T04:39:33.000Z</time>
      </trkpt>
      <trkpt lat="45.21489" lon="5.73225">
        <ele>905.79998779297</ele>
        <time>2021-05-22T04:39:34.000Z</time>
      </trkpt>
      <trkpt lat="45.21495" lon="5.7323">
        <ele>907</ele>
        <time>2021-05-22T04:39:39.000Z</time>
      </trkpt>
      <trkpt lat="45.21499" lon="5.73232">
        <ele>908</ele>
        <time>2021-05-22T04:39:41.000Z</time>
      </trkpt>
      <trkpt lat="45.215" lon="5.73234">
        <ele>908.20001220703</ele>
        <time>2021-05-22T04:39:42.000Z</time>
      </trkpt>
      <trkpt lat="45.21501" lon="5.73237">
        <ele>908.40002441406</ele>
        <time>2021-05-22T04:39:43.000Z</time>
      </trkpt>
      <trkpt lat="45.21506" lon="5.73244">
        <ele>909.20001220703</ele>
        <time>2021-05-22T04:39:47.000Z</time>
      </trkpt>
      <trkpt lat="45.21507" lon="5.73245">
        <ele>909.40002441406</ele>
        <time>2021-05-22T04:39:48.000Z</time>
      </trkpt>
      <trkpt lat="45.21512" lon="5.73252">
        <ele>910.40002441406</ele>
        <time>2021-05-22T04:39:52.000Z</time>
      </trkpt>
      <trkpt lat="45.21512" lon="5.73257">
        <ele>910.59997558594</ele>
        <time>2021-05-22T04:39:54.000Z</time>
      </trkpt>
      <trkpt lat="45.21512" lon="5.73259">
        <ele>910.59997558594</ele>
        <time>2021-05-22T04:39:55.000Z</time>
      </trkpt>
      <trkpt lat="45.21511" lon="5.73263">
        <ele>910.59997558594</ele>
        <time>2021-05-22T04:39:57.000Z</time>
      </trkpt>
      <trkpt lat="45.21511" lon="5.73271">
        <ele>910.20001220703</ele>
        <time>2021-05-22T04:40:00.000Z</time>
      </trkpt>
      <trkpt lat="45.21514" lon="5.73288">
        <ele>910.59997558594</ele>
        <time>2021-05-22T04:40:07.000Z</time>
      </trkpt>
      <trkpt lat="45.21515" lon="5.73291">
        <ele>910.59997558594</ele>
        <time>2021-05-22T04:40:08.000Z</time>
      </trkpt>
      <trkpt lat="45.21517" lon="5.73297">
        <ele>911.20001220703</ele>
        <time>2021-05-22T04:40:11.000Z</time>
      </trkpt>
      <trkpt lat="45.21518" lon="5.73299">
        <ele>911.40002441406</ele>
        <time>2021-05-22T04:40:12.000Z</time>
      </trkpt>
      <trkpt lat="45.21518" lon="5.73301">
        <ele>911.59997558594</ele>
        <time>2021-05-22T04:40:13.000Z</time>
      </trkpt>
      <trkpt lat="45.21518" lon="5.73308">
        <ele>912.20001220703</ele>
        <time>2021-05-22T04:40:18.000Z</time>
      </trkpt>
      <trkpt lat="45.21517" lon="5.7331">
        <ele>912.40002441406</ele>
        <time>2021-05-22T04:40:20.000Z</time>
      </trkpt>
      <trkpt lat="45.21514" lon="5.73316">
        <ele>912.40002441406</ele>
        <time>2021-05-22T04:40:25.000Z</time>
      </trkpt>
      <trkpt lat="45.21514" lon="5.73319">
        <ele>912.40002441406</ele>
        <time>2021-05-22T04:40:30.000Z</time>
      </trkpt>
      <trkpt lat="45.21513" lon="5.73321">
        <ele>912.40002441406</ele>
        <time>2021-05-22T04:40:34.000Z</time>
      </trkpt>
      <trkpt lat="45.21514" lon="5.73321">
        <ele>912.40002441406</ele>
        <time>2021-05-22T04:40:37.000Z</time>
      </trkpt>
      <trkpt lat="45.21514" lon="5.73321">
        <ele>912.40002441406</ele>
        <time>2021-05-22T04:40:38.000Z</time>
      </trkpt>
      <trkpt lat="45.21513" lon="5.73323">
        <ele>912.20001220703</ele>
        <time>2021-05-22T04:40:41.000Z</time>
      </trkpt>
      <trkpt lat="45.21513" lon="5.73324">
        <ele>912</ele>
        <time>2021-05-22T04:40:42.000Z</time>
      </trkpt>
      <trkpt lat="45.21512" lon="5.73326">
        <ele>911.40002441406</ele>
        <time>2021-05-22T04:40:44.000Z</time>
      </trkpt>
      <trkpt lat="45.21511" lon="5.73329">
        <ele>910.40002441406</ele>
        <time>2021-05-22T04:40:47.000Z</time>
      </trkpt>
      <trkpt lat="45.2151" lon="5.73328">
        <ele>910.20001220703</ele>
        <time>2021-05-22T04:40:50.000Z</time>
      </trkpt>
      <trkpt lat="45.2151" lon="5.73329">
        <ele>910</ele>
        <time>2021-05-22T04:40:55.000Z</time>
      </trkpt>
      <trkpt lat="45.2151" lon="5.73329">
        <ele>910</ele>
        <time>2021-05-22T04:40:56.000Z</time>
      </trkpt>
      <trkpt lat="45.21511" lon="5.73328">
        <ele>910</ele>
        <time>2021-05-22T04:40:59.000Z</time>
      </trkpt>
      <trkpt lat="45.21511" lon="5.73328">
        <ele>910</ele>
        <time>2021-05-22T04:41:00.000Z</time>
      </trkpt>
      <trkpt lat="45.21511" lon="5.73328">
        <ele>910</ele>
        <time>2021-05-22T04:41:02.000Z</time>
      </trkpt>
      <trkpt lat="45.21511" lon="5.73328">
        <ele>910</ele>
        <time>2021-05-22T04:41:05.000Z</time>
      </trkpt>
      <trkpt lat="45.21511" lon="5.73328">
        <ele>910</ele>
        <time>2021-05-22T04:41:06.000Z</time>
      </trkpt>
      <trkpt lat="45.21511" lon="5.73328">
        <ele>910</ele>
        <time>2021-05-22T04:41:08.000Z</time>
      </trkpt>
      <trkpt lat="45.21511" lon="5.73329">
        <ele>910</ele>
        <time>2021-05-22T04:41:17.000Z</time>
      </trkpt>
      <trkpt lat="45.21511" lon="5.73329">
        <ele>910</ele>
        <time>2021-05-22T04:41:23.000Z</time>
      </trkpt>
      <trkpt lat="45.21511" lon="5.73329">
        <ele>910</ele>
        <time>2021-05-22T04:41:26.000Z</time>
      </trkpt>
      <trkpt lat="45.21511" lon="5.73329">
        <ele>910</ele>
        <time>2021-05-22T04:41:29.000Z</time>
      </trkpt>
      <trkpt lat="45.21512" lon="5.73325">
        <ele>911.59997558594</ele>
        <time>2021-05-22T04:41:37.000Z</time>
      </trkpt>
      <trkpt lat="45.21515" lon="5.73322">
        <ele>912.20001220703</ele>
        <time>2021-05-22T04:41:39.000Z</time>
      </trkpt>
      <trkpt lat="45.21522" lon="5.73318">
        <ele>912.59997558594</ele>
        <time>2021-05-22T04:41:42.000Z</time>
      </trkpt>
      <trkpt lat="45.21526" lon="5.73316">
        <ele>913</ele>
        <time>2021-05-22T04:41:45.000Z</time>
      </trkpt>
      <trkpt lat="45.21529" lon="5.73316">
        <ele>913.40002441406</ele>
        <time>2021-05-22T04:41:47.000Z</time>
      </trkpt>
      <trkpt lat="45.21532" lon="5.73317">
        <ele>913.79998779297</ele>
        <time>2021-05-22T04:41:49.000Z</time>
      </trkpt>
      <trkpt lat="45.21534" lon="5.73318">
        <ele>914.20001220703</ele>
        <time>2021-05-22T04:41:51.000Z</time>
      </trkpt>
      <trkpt lat="45.21535" lon="5.73319">
        <ele>914.59997558594</ele>
        <time>2021-05-22T04:41:53.000Z</time>
      </trkpt>
      <trkpt lat="45.21536" lon="5.73321">
        <ele>915</ele>
        <time>2021-05-22T04:41:54.000Z</time>
      </trkpt>
      <trkpt lat="45.21537" lon="5.73322">
        <ele>915.20001220703</ele>
        <time>2021-05-22T04:41:55.000Z</time>
      </trkpt>
      <trkpt lat="45.21537" lon="5.73322">
        <ele>915.40002441406</ele>
        <time>2021-05-22T04:41:56.000Z</time>
      </trkpt>
      <trkpt lat="45.21538" lon="5.73322">
        <ele>915.59997558594</ele>
        <time>2021-05-22T04:41:57.000Z</time>
      </trkpt>
      <trkpt lat="45.21539" lon="5.73322">
        <ele>916.20001220703</ele>
        <time>2021-05-22T04:41:58.000Z</time>
      </trkpt>
      <trkpt lat="45.21541" lon="5.73324">
        <ele>917</ele>
        <time>2021-05-22T04:42:01.000Z</time>
      </trkpt>
      <trkpt lat="45.21541" lon="5.73324">
        <ele>917.40002441406</ele>
        <time>2021-05-22T04:42:02.000Z</time>
      </trkpt>
      <trkpt lat="45.21545" lon="5.73324">
        <ele>918.40002441406</ele>
        <time>2021-05-22T04:42:06.000Z</time>
      </trkpt>
      <trkpt lat="45.2155" lon="5.73323">
        <ele>919.20001220703</ele>
        <time>2021-05-22T04:42:09.000Z</time>
      </trkpt>
      <trkpt lat="45.21552" lon="5.73323">
        <ele>919.40002441406</ele>
        <time>2021-05-22T04:42:10.000Z</time>
      </trkpt>
      <trkpt lat="45.21555" lon="5.73323">
        <ele>919.79998779297</ele>
        <time>2021-05-22T04:42:12.000Z</time>
      </trkpt>
      <trkpt lat="45.21558" lon="5.73323">
        <ele>920.59997558594</ele>
        <time>2021-05-22T04:42:14.000Z</time>
      </trkpt>
      <trkpt lat="45.21563" lon="5.73326">
        <ele>921</ele>
        <time>2021-05-22T04:42:17.000Z</time>
      </trkpt>
      <trkpt lat="45.21568" lon="5.73329">
        <ele>921.59997558594</ele>
        <time>2021-05-22T04:42:21.000Z</time>
      </trkpt>
      <trkpt lat="45.21575" lon="5.73331">
        <ele>922.59997558594</ele>
        <time>2021-05-22T04:42:25.000Z</time>
      </trkpt>
      <trkpt lat="45.21577" lon="5.73332">
        <ele>922.79998779297</ele>
        <time>2021-05-22T04:42:26.000Z</time>
      </trkpt>
      <trkpt lat="45.21581" lon="5.73334">
        <ele>923.20001220703</ele>
        <time>2021-05-22T04:42:28.000Z</time>
      </trkpt>
      <trkpt lat="45.21586" lon="5.73335">
        <ele>924</ele>
        <time>2021-05-22T04:42:30.000Z</time>
      </trkpt>
      <trkpt lat="45.21589" lon="5.73338">
        <ele>924.79998779297</ele>
        <time>2021-05-22T04:42:32.000Z</time>
      </trkpt>
      <trkpt lat="45.21591" lon="5.73339">
        <ele>925</ele>
        <time>2021-05-22T04:42:33.000Z</time>
      </trkpt>
      <trkpt lat="45.21596" lon="5.73347">
        <ele>925.40002441406</ele>
        <time>2021-05-22T04:42:35.000Z</time>
      </trkpt>
      <trkpt lat="45.21597" lon="5.7335">
        <ele>925.59997558594</ele>
        <time>2021-05-22T04:42:37.000Z</time>
      </trkpt>
      <trkpt lat="45.21602" lon="5.73355">
        <ele>926</ele>
        <time>2021-05-22T04:42:40.000Z</time>
      </trkpt>
      <trkpt lat="45.21603" lon="5.73356">
        <ele>926.40002441406</ele>
        <time>2021-05-22T04:42:41.000Z</time>
      </trkpt>
      <trkpt lat="45.21606" lon="5.73358">
        <ele>926.79998779297</ele>
        <time>2021-05-22T04:42:43.000Z</time>
      </trkpt>
      <trkpt lat="45.21607" lon="5.73359">
        <ele>927.20001220703</ele>
        <time>2021-05-22T04:42:44.000Z</time>
      </trkpt>
      <trkpt lat="45.21608" lon="5.73361">
        <ele>927.40002441406</ele>
        <time>2021-05-22T04:42:45.000Z</time>
      </trkpt>
      <trkpt lat="45.2161" lon="5.73363">
        <ele>927.79998779297</ele>
        <time>2021-05-22T04:42:46.000Z</time>
      </trkpt>
      <trkpt lat="45.21613" lon="5.73367">
        <ele>928.59997558594</ele>
        <time>2021-05-22T04:42:49.000Z</time>
      </trkpt>
      <trkpt lat="45.21614" lon="5.73368">
        <ele>928.79998779297</ele>
        <time>2021-05-22T04:42:50.000Z</time>
      </trkpt>
      <trkpt lat="45.21618" lon="5.7337">
        <ele>929.40002441406</ele>
        <time>2021-05-22T04:42:53.000Z</time>
      </trkpt>
      <trkpt lat="45.21619" lon="5.73371">
        <ele>930</ele>
        <time>2021-05-22T04:42:54.000Z</time>
      </trkpt>
      <trkpt lat="45.21626" lon="5.73375">
        <ele>931.20001220703</ele>
        <time>2021-05-22T04:42:59.000Z</time>
      </trkpt>
      <trkpt lat="45.2163" lon="5.73379">
        <ele>931.79998779297</ele>
        <time>2021-05-22T04:43:02.000Z</time>
      </trkpt>
      <trkpt lat="45.21633" lon="5.7338">
        <ele>932.40002441406</ele>
        <time>2021-05-22T04:43:04.000Z</time>
      </trkpt>
      <trkpt lat="45.21641" lon="5.73389">
        <ele>933.40002441406</ele>
        <time>2021-05-22T04:43:10.000Z</time>
      </trkpt>
      <trkpt lat="45.21644" lon="5.73393">
        <ele>933.79998779297</ele>
        <time>2021-05-22T04:43:12.000Z</time>
      </trkpt>
      <trkpt lat="45.21651" lon="5.73403">
        <ele>934.59997558594</ele>
        <time>2021-05-22T04:43:17.000Z</time>
      </trkpt>
      <trkpt lat="45.21654" lon="5.73408">
        <ele>934.79998779297</ele>
        <time>2021-05-22T04:43:19.000Z</time>
      </trkpt>
      <trkpt lat="45.21663" lon="5.7342">
        <ele>935.40002441406</ele>
        <time>2021-05-22T04:43:25.000Z</time>
      </trkpt>
      <trkpt lat="45.21664" lon="5.73423">
        <ele>935.59997558594</ele>
        <time>2021-05-22T04:43:26.000Z</time>
      </trkpt>
      <trkpt lat="45.21669" lon="5.7344">
        <ele>936.40002441406</ele>
        <time>2021-05-22T04:43:32.000Z</time>
      </trkpt>
      <trkpt lat="45.2167" lon="5.73443">
        <ele>936.59997558594</ele>
        <time>2021-05-22T04:43:33.000Z</time>
      </trkpt>
      <trkpt lat="45.2167" lon="5.73446">
        <ele>936.79998779297</ele>
        <time>2021-05-22T04:43:34.000Z</time>
      </trkpt>
      <trkpt lat="45.21673" lon="5.73456">
        <ele>937.79998779297</ele>
        <time>2021-05-22T04:43:38.000Z</time>
      </trkpt>
      <trkpt lat="45.21673" lon="5.73458">
        <ele>938</ele>
        <time>2021-05-22T04:43:39.000Z</time>
      </trkpt>
      <trkpt lat="45.21675" lon="5.73471">
        <ele>938.79998779297</ele>
        <time>2021-05-22T04:43:44.000Z</time>
      </trkpt>
      <trkpt lat="45.21676" lon="5.73475">
        <ele>939.20001220703</ele>
        <time>2021-05-22T04:43:46.000Z</time>
      </trkpt>
      <trkpt lat="45.21678" lon="5.73476">
        <ele>939.59997558594</ele>
        <time>2021-05-22T04:43:48.000Z</time>
      </trkpt>
      <trkpt lat="45.21678" lon="5.73476">
        <ele>940</ele>
        <time>2021-05-22T04:43:49.000Z</time>
      </trkpt>
      <trkpt lat="45.21677" lon="5.73475">
        <ele>940.40002441406</ele>
        <time>2021-05-22T04:43:50.000Z</time>
      </trkpt>
      <trkpt lat="45.21676" lon="5.73471">
        <ele>941.20001220703</ele>
        <time>2021-05-22T04:43:53.000Z</time>
      </trkpt>
      <trkpt lat="45.21675" lon="5.73469">
        <ele>941.79998779297</ele>
        <time>2021-05-22T04:43:55.000Z</time>
      </trkpt>
      <trkpt lat="45.21674" lon="5.73466">
        <ele>942.20001220703</ele>
        <time>2021-05-22T04:43:57.000Z</time>
      </trkpt>
      <trkpt lat="45.21674" lon="5.73453">
        <ele>943.40002441406</ele>
        <time>2021-05-22T04:44:03.000Z</time>
      </trkpt>
      <trkpt lat="45.21674" lon="5.73451">
        <ele>943.40002441406</ele>
        <time>2021-05-22T04:44:04.000Z</time>
      </trkpt>
      <trkpt lat="45.21673" lon="5.73445">
        <ele>944.20001220703</ele>
        <time>2021-05-22T04:44:07.000Z</time>
      </trkpt>
      <trkpt lat="45.21673" lon="5.73443">
        <ele>944.40002441406</ele>
        <time>2021-05-22T04:44:08.000Z</time>
      </trkpt>
      <trkpt lat="45.21674" lon="5.73441">
        <ele>944.59997558594</ele>
        <time>2021-05-22T04:44:09.000Z</time>
      </trkpt>
      <trkpt lat="45.21675" lon="5.73435">
        <ele>945.59997558594</ele>
        <time>2021-05-22T04:44:12.000Z</time>
      </trkpt>
      <trkpt lat="45.21676" lon="5.73432">
        <ele>946</ele>
        <time>2021-05-22T04:44:14.000Z</time>
      </trkpt>
      <trkpt lat="45.21677" lon="5.73426">
        <ele>946.79998779297</ele>
        <time>2021-05-22T04:44:17.000Z</time>
      </trkpt>
      <trkpt lat="45.21677" lon="5.73422">
        <ele>947.40002441406</ele>
        <time>2021-05-22T04:44:20.000Z</time>
      </trkpt>
      <trkpt lat="45.21676" lon="5.73418">
        <ele>948</ele>
        <time>2021-05-22T04:44:21.000Z</time>
      </trkpt>
      <trkpt lat="45.21676" lon="5.73414">
        <ele>949</ele>
        <time>2021-05-22T04:44:25.000Z</time>
      </trkpt>
      <trkpt lat="45.21676" lon="5.73412">
        <ele>949.20001220703</ele>
        <time>2021-05-22T04:44:26.000Z</time>
      </trkpt>
      <trkpt lat="45.21678" lon="5.73408">
        <ele>950</ele>
        <time>2021-05-22T04:44:28.000Z</time>
      </trkpt>
      <trkpt lat="45.21678" lon="5.73406">
        <ele>950.40002441406</ele>
        <time>2021-05-22T04:44:29.000Z</time>
      </trkpt>
      <trkpt lat="45.21678" lon="5.73403">
        <ele>950.59997558594</ele>
        <time>2021-05-22T04:44:31.000Z</time>
      </trkpt>
      <trkpt lat="45.21678" lon="5.73399">
        <ele>951.40002441406</ele>
        <time>2021-05-22T04:44:33.000Z</time>
      </trkpt>
      <trkpt lat="45.21677" lon="5.73397">
        <ele>951.79998779297</ele>
        <time>2021-05-22T04:44:35.000Z</time>
      </trkpt>
      <trkpt lat="45.21677" lon="5.73393">
        <ele>952.20001220703</ele>
        <time>2021-05-22T04:44:37.000Z</time>
      </trkpt>
      <trkpt lat="45.21677" lon="5.73391">
        <ele>952.40002441406</ele>
        <time>2021-05-22T04:44:38.000Z</time>
      </trkpt>
      <trkpt lat="45.21676" lon="5.73387">
        <ele>953.40002441406</ele>
        <time>2021-05-22T04:44:40.000Z</time>
      </trkpt>
      <trkpt lat="45.21675" lon="5.73386">
        <ele>953.59997558594</ele>
        <time>2021-05-22T04:44:41.000Z</time>
      </trkpt>
      <trkpt lat="45.21674" lon="5.73384">
        <ele>954</ele>
        <time>2021-05-22T04:44:42.000Z</time>
      </trkpt>
      <trkpt lat="45.21671" lon="5.73382">
        <ele>954.59997558594</ele>
        <time>2021-05-22T04:44:44.000Z</time>
      </trkpt>
      <trkpt lat="45.21671" lon="5.73381">
        <ele>955</ele>
        <time>2021-05-22T04:44:45.000Z</time>
      </trkpt>
      <trkpt lat="45.2167" lon="5.73376">
        <ele>956.20001220703</ele>
        <time>2021-05-22T04:44:49.000Z</time>
      </trkpt>
      <trkpt lat="45.21668" lon="5.73373">
        <ele>957</ele>
        <time>2021-05-22T04:44:51.000Z</time>
      </trkpt>
      <trkpt lat="45.21667" lon="5.73372">
        <ele>957.20001220703</ele>
        <time>2021-05-22T04:44:52.000Z</time>
      </trkpt>
      <trkpt lat="45.21666" lon="5.73371">
        <ele>957.40002441406</ele>
        <time>2021-05-22T04:44:53.000Z</time>
      </trkpt>
      <trkpt lat="45.21664" lon="5.73369">
        <ele>957.79998779297</ele>
        <time>2021-05-22T04:44:55.000Z</time>
      </trkpt>
      <trkpt lat="45.21663" lon="5.73367">
        <ele>958.20001220703</ele>
        <time>2021-05-22T04:44:56.000Z</time>
      </trkpt>
      <trkpt lat="45.21661" lon="5.73364">
        <ele>958.79998779297</ele>
        <time>2021-05-22T04:44:58.000Z</time>
      </trkpt>
      <trkpt lat="45.2166" lon="5.73361">
        <ele>959.40002441406</ele>
        <time>2021-05-22T04:45:00.000Z</time>
      </trkpt>
      <trkpt lat="45.21659" lon="5.73358">
        <ele>959.79998779297</ele>
        <time>2021-05-22T04:45:02.000Z</time>
      </trkpt>
      <trkpt lat="45.21658" lon="5.73355">
        <ele>960.59997558594</ele>
        <time>2021-05-22T04:45:04.000Z</time>
      </trkpt>
      <trkpt lat="45.21655" lon="5.7335">
        <ele>961.59997558594</ele>
        <time>2021-05-22T04:45:08.000Z</time>
      </trkpt>
      <trkpt lat="45.21655" lon="5.73349">
        <ele>962</ele>
        <time>2021-05-22T04:45:09.000Z</time>
      </trkpt>
      <trkpt lat="45.21655" lon="5.73347">
        <ele>962.20001220703</ele>
        <time>2021-05-22T04:45:10.000Z</time>
      </trkpt>
      <trkpt lat="45.21654" lon="5.73345">
        <ele>962.79998779297</ele>
        <time>2021-05-22T04:45:11.000Z</time>
      </trkpt>
      <trkpt lat="45.21652" lon="5.73341">
        <ele>963.59997558594</ele>
        <time>2021-05-22T04:45:14.000Z</time>
      </trkpt>
      <trkpt lat="45.21652" lon="5.73339">
        <ele>964</ele>
        <time>2021-05-22T04:45:15.000Z</time>
      </trkpt>
      <trkpt lat="45.21652" lon="5.73338">
        <ele>964.20001220703</ele>
        <time>2021-05-22T04:45:16.000Z</time>
      </trkpt>
      <trkpt lat="45.21651" lon="5.73335">
        <ele>965</ele>
        <time>2021-05-22T04:45:19.000Z</time>
      </trkpt>
      <trkpt lat="45.21651" lon="5.7333">
        <ele>965.79998779297</ele>
        <time>2021-05-22T04:45:22.000Z</time>
      </trkpt>
      <trkpt lat="45.21651" lon="5.73329">
        <ele>966</ele>
        <time>2021-05-22T04:45:23.000Z</time>
      </trkpt>
      <trkpt lat="45.2165" lon="5.73326">
        <ele>966.40002441406</ele>
        <time>2021-05-22T04:45:25.000Z</time>
      </trkpt>
      <trkpt lat="45.2165" lon="5.73323">
        <ele>967.40002441406</ele>
        <time>2021-05-22T04:45:27.000Z</time>
      </trkpt>
      <trkpt lat="45.2165" lon="5.73322">
        <ele>967.59997558594</ele>
        <time>2021-05-22T04:45:28.000Z</time>
      </trkpt>
      <trkpt lat="45.21648" lon="5.7332">
        <ele>968</ele>
        <time>2021-05-22T04:45:30.000Z</time>
      </trkpt>
      <trkpt lat="45.21644" lon="5.73317">
        <ele>968.40002441406</ele>
        <time>2021-05-22T04:45:33.000Z</time>
      </trkpt>
      <trkpt lat="45.21643" lon="5.73314">
        <ele>969.40002441406</ele>
        <time>2021-05-22T04:45:35.000Z</time>
      </trkpt>
      <trkpt lat="45.21643" lon="5.73312">
        <ele>969.59997558594</ele>
        <time>2021-05-22T04:45:36.000Z</time>
      </trkpt>
      <trkpt lat="45.21643" lon="5.73309">
        <ele>970.20001220703</ele>
        <time>2021-05-22T04:45:38.000Z</time>
      </trkpt>
      <trkpt lat="45.21641" lon="5.73304">
        <ele>970.59997558594</ele>
        <time>2021-05-22T04:45:41.000Z</time>
      </trkpt>
      <trkpt lat="45.21639" lon="5.73297">
        <ele>971.59997558594</ele>
        <time>2021-05-22T04:45:45.000Z</time>
      </trkpt>
      <trkpt lat="45.21637" lon="5.7329">
        <ele>972.79998779297</ele>
        <time>2021-05-22T04:45:50.000Z</time>
      </trkpt>
      <trkpt lat="45.21633" lon="5.73281">
        <ele>973.79998779297</ele>
        <time>2021-05-22T04:45:55.000Z</time>
      </trkpt>
      <trkpt lat="45.2163" lon="5.73274">
        <ele>974.40002441406</ele>
        <time>2021-05-22T04:45:58.000Z</time>
      </trkpt>
      <trkpt lat="45.21626" lon="5.73268">
        <ele>975</ele>
        <time>2021-05-22T04:46:01.000Z</time>
      </trkpt>
      <trkpt lat="45.21622" lon="5.73259">
        <ele>976.20001220703</ele>
        <time>2021-05-22T04:46:06.000Z</time>
      </trkpt>
      <trkpt lat="45.21621" lon="5.73256">
        <ele>976.79998779297</ele>
        <time>2021-05-22T04:46:08.000Z</time>
      </trkpt>
      <trkpt lat="45.2162" lon="5.73253">
        <ele>977.20001220703</ele>
        <time>2021-05-22T04:46:10.000Z</time>
      </trkpt>
      <trkpt lat="45.21619" lon="5.73252">
        <ele>977.79998779297</ele>
        <time>2021-05-22T04:46:11.000Z</time>
      </trkpt>
      <trkpt lat="45.21616" lon="5.73247">
        <ele>978.79998779297</ele>
        <time>2021-05-22T04:46:15.000Z</time>
      </trkpt>
      <trkpt lat="45.21615" lon="5.73242">
        <ele>979.79998779297</ele>
        <time>2021-05-22T04:46:18.000Z</time>
      </trkpt>
      <trkpt lat="45.21614" lon="5.73241">
        <ele>980.20001220703</ele>
        <time>2021-05-22T04:46:19.000Z</time>
      </trkpt>
      <trkpt lat="45.21614" lon="5.7324">
        <ele>980.40002441406</ele>
        <time>2021-05-22T04:46:20.000Z</time>
      </trkpt>
      <trkpt lat="45.21613" lon="5.73238">
        <ele>981</ele>
        <time>2021-05-22T04:46:22.000Z</time>
      </trkpt>
      <trkpt lat="45.21612" lon="5.73237">
        <ele>982</ele>
        <time>2021-05-22T04:46:24.000Z</time>
      </trkpt>
      <trkpt lat="45.21612" lon="5.73235">
        <ele>982.20001220703</ele>
        <time>2021-05-22T04:46:25.000Z</time>
      </trkpt>
      <trkpt lat="45.21609" lon="5.73233">
        <ele>983.20001220703</ele>
        <time>2021-05-22T04:46:30.000Z</time>
      </trkpt>
      <trkpt lat="45.21609" lon="5.73232">
        <ele>983.40002441406</ele>
        <time>2021-05-22T04:46:31.000Z</time>
      </trkpt>
      <trkpt lat="45.21608" lon="5.73229">
        <ele>984.59997558594</ele>
        <time>2021-05-22T04:46:34.000Z</time>
      </trkpt>
      <trkpt lat="45.21606" lon="5.73225">
        <ele>985.20001220703</ele>
        <time>2021-05-22T04:46:37.000Z</time>
      </trkpt>
      <trkpt lat="45.21605" lon="5.73222">
        <ele>986</ele>
        <time>2021-05-22T04:46:39.000Z</time>
      </trkpt>
      <trkpt lat="45.21598" lon="5.73216">
        <ele>987.40002441406</ele>
        <time>2021-05-22T04:46:45.000Z</time>
      </trkpt>
      <trkpt lat="45.21593" lon="5.73211">
        <ele>987.79998779297</ele>
        <time>2021-05-22T04:46:49.000Z</time>
      </trkpt>
      <trkpt lat="45.2159" lon="5.73207">
        <ele>988.59997558594</ele>
        <time>2021-05-22T04:46:52.000Z</time>
      </trkpt>
      <trkpt lat="45.21584" lon="5.732">
        <ele>989.79998779297</ele>
        <time>2021-05-22T04:46:58.000Z</time>
      </trkpt>
      <trkpt lat="45.21579" lon="5.73196">
        <ele>991</ele>
        <time>2021-05-22T04:47:02.000Z</time>
      </trkpt>
      <trkpt lat="45.21573" lon="5.73187">
        <ele>991.59997558594</ele>
        <time>2021-05-22T04:47:06.000Z</time>
      </trkpt>
      <trkpt lat="45.21572" lon="5.73186">
        <ele>992</ele>
        <time>2021-05-22T04:47:07.000Z</time>
      </trkpt>
      <trkpt lat="45.21569" lon="5.7318">
        <ele>993</ele>
        <time>2021-05-22T04:47:11.000Z</time>
      </trkpt>
      <trkpt lat="45.21569" lon="5.7318">
        <ele>993.20001220703</ele>
        <time>2021-05-22T04:47:12.000Z</time>
      </trkpt>
      <trkpt lat="45.21568" lon="5.73178">
        <ele>993.40002441406</ele>
        <time>2021-05-22T04:47:13.000Z</time>
      </trkpt>
      <trkpt lat="45.21567" lon="5.73175">
        <ele>994.40002441406</ele>
        <time>2021-05-22T04:47:15.000Z</time>
      </trkpt>
      <trkpt lat="45.21567" lon="5.73174">
        <ele>995</ele>
        <time>2021-05-22T04:47:17.000Z</time>
      </trkpt>
      <trkpt lat="45.21567" lon="5.73173">
        <ele>995.59997558594</ele>
        <time>2021-05-22T04:47:18.000Z</time>
      </trkpt>
      <trkpt lat="45.21567" lon="5.73172">
        <ele>995.79998779297</ele>
        <time>2021-05-22T04:47:19.000Z</time>
      </trkpt>
      <trkpt lat="45.21567" lon="5.73168">
        <ele>996.59997558594</ele>
        <time>2021-05-22T04:47:22.000Z</time>
      </trkpt>
      <trkpt lat="45.21567" lon="5.73166">
        <ele>997</ele>
        <time>2021-05-22T04:47:23.000Z</time>
      </trkpt>
      <trkpt lat="45.21568" lon="5.73163">
        <ele>997.79998779297</ele>
        <time>2021-05-22T04:47:25.000Z</time>
      </trkpt>
      <trkpt lat="45.21569" lon="5.73159">
        <ele>998.59997558594</ele>
        <time>2021-05-22T04:47:29.000Z</time>
      </trkpt>
      <trkpt lat="45.2157" lon="5.73158">
        <ele>998.79998779297</ele>
        <time>2021-05-22T04:47:30.000Z</time>
      </trkpt>
      <trkpt lat="45.21571" lon="5.73157">
        <ele>1000</ele>
        <time>2021-05-22T04:47:32.000Z</time>
      </trkpt>
      <trkpt lat="45.21572" lon="5.73157">
        <ele>1000.4000244141</ele>
        <time>2021-05-22T04:47:33.000Z</time>
      </trkpt>
      <trkpt lat="45.21573" lon="5.73156">
        <ele>1001.200012207</ele>
        <time>2021-05-22T04:47:36.000Z</time>
      </trkpt>
      <trkpt lat="45.21573" lon="5.73153">
        <ele>1002</ele>
        <time>2021-05-22T04:47:39.000Z</time>
      </trkpt>
      <trkpt lat="45.21572" lon="5.73153">
        <ele>1002.200012207</ele>
        <time>2021-05-22T04:47:40.000Z</time>
      </trkpt>
      <trkpt lat="45.21572" lon="5.73152">
        <ele>1002.5999755859</ele>
        <time>2021-05-22T04:47:41.000Z</time>
      </trkpt>
      <trkpt lat="45.21571" lon="5.73151">
        <ele>1002.799987793</ele>
        <time>2021-05-22T04:47:42.000Z</time>
      </trkpt>
      <trkpt lat="45.21571" lon="5.7315">
        <ele>1003.5999755859</ele>
        <time>2021-05-22T04:47:44.000Z</time>
      </trkpt>
      <trkpt lat="45.21571" lon="5.73149">
        <ele>1003.799987793</ele>
        <time>2021-05-22T04:47:45.000Z</time>
      </trkpt>
      <trkpt lat="45.21571" lon="5.73148">
        <ele>1004</ele>
        <time>2021-05-22T04:47:46.000Z</time>
      </trkpt>
      <trkpt lat="45.21573" lon="5.73145">
        <ele>1005.4000244141</ele>
        <time>2021-05-22T04:47:50.000Z</time>
      </trkpt>
      <trkpt lat="45.21574" lon="5.73144">
        <ele>1006</ele>
        <time>2021-05-22T04:47:52.000Z</time>
      </trkpt>
      <trkpt lat="45.21576" lon="5.7314">
        <ele>1006.799987793</ele>
        <time>2021-05-22T04:47:55.000Z</time>
      </trkpt>
      <trkpt lat="45.21578" lon="5.73139">
        <ele>1007.200012207</ele>
        <time>2021-05-22T04:47:56.000Z</time>
      </trkpt>
      <trkpt lat="45.21578" lon="5.73139">
        <ele>1007.5999755859</ele>
        <time>2021-05-22T04:47:57.000Z</time>
      </trkpt>
      <trkpt lat="45.21579" lon="5.73137">
        <ele>1008.200012207</ele>
        <time>2021-05-22T04:47:59.000Z</time>
      </trkpt>
      <trkpt lat="45.21579" lon="5.73134">
        <ele>1009.4000244141</ele>
        <time>2021-05-22T04:48:02.000Z</time>
      </trkpt>
      <trkpt lat="45.21578" lon="5.73133">
        <ele>1009.5999755859</ele>
        <time>2021-05-22T04:48:03.000Z</time>
      </trkpt>
      <trkpt lat="45.21578" lon="5.7313">
        <ele>1010.5999755859</ele>
        <time>2021-05-22T04:48:06.000Z</time>
      </trkpt>
      <trkpt lat="45.21579" lon="5.73127">
        <ele>1011.200012207</ele>
        <time>2021-05-22T04:48:08.000Z</time>
      </trkpt>
      <trkpt lat="45.2158" lon="5.73125">
        <ele>1011.799987793</ele>
        <time>2021-05-22T04:48:10.000Z</time>
      </trkpt>
      <trkpt lat="45.21581" lon="5.73123">
        <ele>1012.4000244141</ele>
        <time>2021-05-22T04:48:11.000Z</time>
      </trkpt>
      <trkpt lat="45.21582" lon="5.73123">
        <ele>1012.799987793</ele>
        <time>2021-05-22T04:48:12.000Z</time>
      </trkpt>
      <trkpt lat="45.21585" lon="5.73119">
        <ele>1013.4000244141</ele>
        <time>2021-05-22T04:48:15.000Z</time>
      </trkpt>
      <trkpt lat="45.21588" lon="5.73117">
        <ele>1014.200012207</ele>
        <time>2021-05-22T04:48:17.000Z</time>
      </trkpt>
      <trkpt lat="45.21593" lon="5.73115">
        <ele>1015.200012207</ele>
        <time>2021-05-22T04:48:20.000Z</time>
      </trkpt>
      <trkpt lat="45.21594" lon="5.73115">
        <ele>1015.5999755859</ele>
        <time>2021-05-22T04:48:21.000Z</time>
      </trkpt>
      <trkpt lat="45.21599" lon="5.73118">
        <ele>1016.4000244141</ele>
        <time>2021-05-22T04:48:25.000Z</time>
      </trkpt>
      <trkpt lat="45.21605" lon="5.73119">
        <ele>1017.200012207</ele>
        <time>2021-05-22T04:48:29.000Z</time>
      </trkpt>
      <trkpt lat="45.21606" lon="5.73119">
        <ele>1017.4000244141</ele>
        <time>2021-05-22T04:48:30.000Z</time>
      </trkpt>
      <trkpt lat="45.21609" lon="5.73121">
        <ele>1018.5999755859</ele>
        <time>2021-05-22T04:48:33.000Z</time>
      </trkpt>
      <trkpt lat="45.21615" lon="5.73123">
        <ele>1019.799987793</ele>
        <time>2021-05-22T04:48:38.000Z</time>
      </trkpt>
      <trkpt lat="45.21619" lon="5.73124">
        <ele>1020.5999755859</ele>
        <time>2021-05-22T04:48:41.000Z</time>
      </trkpt>
      <trkpt lat="45.21621" lon="5.73125">
        <ele>1020.799987793</ele>
        <time>2021-05-22T04:48:43.000Z</time>
      </trkpt>
      <trkpt lat="45.21623" lon="5.73126">
        <ele>1021.4000244141</ele>
        <time>2021-05-22T04:48:45.000Z</time>
      </trkpt>
      <trkpt lat="45.21624" lon="5.73127">
        <ele>1021.799987793</ele>
        <time>2021-05-22T04:48:46.000Z</time>
      </trkpt>
      <trkpt lat="45.21624" lon="5.73128">
        <ele>1022</ele>
        <time>2021-05-22T04:48:47.000Z</time>
      </trkpt>
      <trkpt lat="45.21626" lon="5.73129">
        <ele>1022.4000244141</ele>
        <time>2021-05-22T04:48:49.000Z</time>
      </trkpt>
      <trkpt lat="45.21628" lon="5.73129">
        <ele>1023</ele>
        <time>2021-05-22T04:48:52.000Z</time>
      </trkpt>
      <trkpt lat="45.21629" lon="5.7313">
        <ele>1023.200012207</ele>
        <time>2021-05-22T04:48:53.000Z</time>
      </trkpt>
      <trkpt lat="45.21631" lon="5.7313">
        <ele>1024.1999511719</ele>
        <time>2021-05-22T04:48:55.000Z</time>
      </trkpt>
      <trkpt lat="45.21632" lon="5.73129">
        <ele>1024.4000244141</ele>
        <time>2021-05-22T04:48:56.000Z</time>
      </trkpt>
      <trkpt lat="45.21635" lon="5.73128">
        <ele>1025.1999511719</ele>
        <time>2021-05-22T04:48:59.000Z</time>
      </trkpt>
      <trkpt lat="45.21638" lon="5.73126">
        <ele>1026.5999755859</ele>
        <time>2021-05-22T04:49:04.000Z</time>
      </trkpt>
      <trkpt lat="45.21642" lon="5.73126">
        <ele>1027.8000488281</ele>
        <time>2021-05-22T04:49:07.000Z</time>
      </trkpt>
      <trkpt lat="45.21647" lon="5.73128">
        <ele>1028.8000488281</ele>
        <time>2021-05-22T04:49:12.000Z</time>
      </trkpt>
      <trkpt lat="45.21648" lon="5.73128">
        <ele>1029</ele>
        <time>2021-05-22T04:49:13.000Z</time>
      </trkpt>
      <trkpt lat="45.21651" lon="5.7313">
        <ele>1030</ele>
        <time>2021-05-22T04:49:16.000Z</time>
      </trkpt>
      <trkpt lat="45.21655" lon="5.7313">
        <ele>1031</ele>
        <time>2021-05-22T04:49:20.000Z</time>
      </trkpt>
      <trkpt lat="45.21658" lon="5.73131">
        <ele>1032</ele>
        <time>2021-05-22T04:49:24.000Z</time>
      </trkpt>
      <trkpt lat="45.21659" lon="5.73131">
        <ele>1032.1999511719</ele>
        <time>2021-05-22T04:49:25.000Z</time>
      </trkpt>
      <trkpt lat="45.21659" lon="5.73131">
        <ele>1032.4000244141</ele>
        <time>2021-05-22T04:49:26.000Z</time>
      </trkpt>
      <trkpt lat="45.21661" lon="5.73132">
        <ele>1033.4000244141</ele>
        <time>2021-05-22T04:49:28.000Z</time>
      </trkpt>
      <trkpt lat="45.21662" lon="5.73132">
        <ele>1033.5999755859</ele>
        <time>2021-05-22T04:49:29.000Z</time>
      </trkpt>
      <trkpt lat="45.21663" lon="5.73133">
        <ele>1033.5999755859</ele>
        <time>2021-05-22T04:49:30.000Z</time>
      </trkpt>
      <trkpt lat="45.21665" lon="5.73133">
        <ele>1034.4000244141</ele>
        <time>2021-05-22T04:49:33.000Z</time>
      </trkpt>
      <trkpt lat="45.21668" lon="5.73133">
        <ele>1035.5999755859</ele>
        <time>2021-05-22T04:49:36.000Z</time>
      </trkpt>
      <trkpt lat="45.21672" lon="5.73138">
        <ele>1036.8000488281</ele>
        <time>2021-05-22T04:49:40.000Z</time>
      </trkpt>
      <trkpt lat="45.21673" lon="5.73142">
        <ele>1037.4000244141</ele>
        <time>2021-05-22T04:49:43.000Z</time>
      </trkpt>
      <trkpt lat="45.21675" lon="5.73143">
        <ele>1037.8000488281</ele>
        <time>2021-05-22T04:49:45.000Z</time>
      </trkpt>
      <trkpt lat="45.21676" lon="5.73147">
        <ele>1038.1999511719</ele>
        <time>2021-05-22T04:49:47.000Z</time>
      </trkpt>
      <trkpt lat="45.21676" lon="5.7315">
        <ele>1039</ele>
        <time>2021-05-22T04:49:49.000Z</time>
      </trkpt>
      <trkpt lat="45.21676" lon="5.7315">
        <ele>1039.4000244141</ele>
        <time>2021-05-22T04:49:50.000Z</time>
      </trkpt>
      <trkpt lat="45.21676" lon="5.73151">
        <ele>1039.8000488281</ele>
        <time>2021-05-22T04:49:52.000Z</time>
      </trkpt>
      <trkpt lat="45.21677" lon="5.73153">
        <ele>1040</ele>
        <time>2021-05-22T04:49:54.000Z</time>
      </trkpt>
      <trkpt lat="45.21678" lon="5.73154">
        <ele>1040.5999755859</ele>
        <time>2021-05-22T04:49:56.000Z</time>
      </trkpt>
      <trkpt lat="45.21679" lon="5.73154">
        <ele>1040.8000488281</ele>
        <time>2021-05-22T04:49:57.000Z</time>
      </trkpt>
      <trkpt lat="45.21679" lon="5.73155">
        <ele>1041</ele>
        <time>2021-05-22T04:49:58.000Z</time>
      </trkpt>
      <trkpt lat="45.21681" lon="5.73157">
        <ele>1041.5999755859</ele>
        <time>2021-05-22T04:50:00.000Z</time>
      </trkpt>
      <trkpt lat="45.21683" lon="5.73159">
        <ele>1042.8000488281</ele>
        <time>2021-05-22T04:50:03.000Z</time>
      </trkpt>
      <trkpt lat="45.21684" lon="5.73159">
        <ele>1043.4000244141</ele>
        <time>2021-05-22T04:50:05.000Z</time>
      </trkpt>
      <trkpt lat="45.21684" lon="5.73161">
        <ele>1043.5999755859</ele>
        <time>2021-05-22T04:50:06.000Z</time>
      </trkpt>
      <trkpt lat="45.21684" lon="5.73163">
        <ele>1043.8000488281</ele>
        <time>2021-05-22T04:50:08.000Z</time>
      </trkpt>
      <trkpt lat="45.21687" lon="5.73169">
        <ele>1045</ele>
        <time>2021-05-22T04:50:14.000Z</time>
      </trkpt>
      <trkpt lat="45.21688" lon="5.73171">
        <ele>1045.5999755859</ele>
        <time>2021-05-22T04:50:15.000Z</time>
      </trkpt>
      <trkpt lat="45.2169" lon="5.73173">
        <ele>1046.1999511719</ele>
        <time>2021-05-22T04:50:17.000Z</time>
      </trkpt>
      <trkpt lat="45.2169" lon="5.73175">
        <ele>1046.4000244141</ele>
        <time>2021-05-22T04:50:18.000Z</time>
      </trkpt>
      <trkpt lat="45.21693" lon="5.73179">
        <ele>1047</ele>
        <time>2021-05-22T04:50:21.000Z</time>
      </trkpt>
      <trkpt lat="45.21694" lon="5.7318">
        <ele>1047.1999511719</ele>
        <time>2021-05-22T04:50:22.000Z</time>
      </trkpt>
      <trkpt lat="45.21698" lon="5.73184">
        <ele>1047.8000488281</ele>
        <time>2021-05-22T04:50:26.000Z</time>
      </trkpt>
      <trkpt lat="45.21699" lon="5.73186">
        <ele>1047.8000488281</ele>
        <time>2021-05-22T04:50:27.000Z</time>
      </trkpt>
      <trkpt lat="45.21701" lon="5.73189">
        <ele>1048.1999511719</ele>
        <time>2021-05-22T04:50:29.000Z</time>
      </trkpt>
      <trkpt lat="45.21708" lon="5.73198">
        <ele>1048.5999755859</ele>
        <time>2021-05-22T04:50:36.000Z</time>
      </trkpt>
      <trkpt lat="45.21709" lon="5.73199">
        <ele>1048.5999755859</ele>
        <time>2021-05-22T04:50:37.000Z</time>
      </trkpt>
      <trkpt lat="45.21716" lon="5.73206">
        <ele>1049</ele>
        <time>2021-05-22T04:50:42.000Z</time>
      </trkpt>
      <trkpt lat="45.21716" lon="5.73208">
        <ele>1049.4000244141</ele>
        <time>2021-05-22T04:50:43.000Z</time>
      </trkpt>
      <trkpt lat="45.21718" lon="5.73211">
        <ele>1049.5999755859</ele>
        <time>2021-05-22T04:50:45.000Z</time>
      </trkpt>
      <trkpt lat="45.21721" lon="5.73215">
        <ele>1050.4000244141</ele>
        <time>2021-05-22T04:50:48.000Z</time>
      </trkpt>
      <trkpt lat="45.21723" lon="5.73213">
        <ele>1051.5999755859</ele>
        <time>2021-05-22T04:50:52.000Z</time>
      </trkpt>
      <trkpt lat="45.21724" lon="5.73212">
        <ele>1051.8000488281</ele>
        <time>2021-05-22T04:50:53.000Z</time>
      </trkpt>
      <trkpt lat="45.21724" lon="5.73212">
        <ele>1052.1999511719</ele>
        <time>2021-05-22T04:50:54.000Z</time>
      </trkpt>
      <trkpt lat="45.21725" lon="5.73212">
        <ele>1052.8000488281</ele>
        <time>2021-05-22T04:50:56.000Z</time>
      </trkpt>
      <trkpt lat="45.21727" lon="5.73209">
        <ele>1053.5999755859</ele>
        <time>2021-05-22T04:50:59.000Z</time>
      </trkpt>
      <trkpt lat="45.21727" lon="5.73209">
        <ele>1053.8000488281</ele>
        <time>2021-05-22T04:51:00.000Z</time>
      </trkpt>
      <trkpt lat="45.21729" lon="5.73205">
        <ele>1054.4000244141</ele>
        <time>2021-05-22T04:51:02.000Z</time>
      </trkpt>
      <trkpt lat="45.2173" lon="5.73203">
        <ele>1054.5999755859</ele>
        <time>2021-05-22T04:51:05.000Z</time>
      </trkpt>
      <trkpt lat="45.21737" lon="5.73199">
        <ele>1054.8000488281</ele>
        <time>2021-05-22T04:51:12.000Z</time>
      </trkpt>
      <trkpt lat="45.2174" lon="5.73198">
        <ele>1054.5999755859</ele>
        <time>2021-05-22T04:51:15.000Z</time>
      </trkpt>
      <trkpt lat="45.21743" lon="5.73196">
        <ele>1054.1999511719</ele>
        <time>2021-05-22T04:51:18.000Z</time>
      </trkpt>
      <trkpt lat="45.21745" lon="5.73198">
        <ele>1054</ele>
        <time>2021-05-22T04:51:20.000Z</time>
      </trkpt>
      <trkpt lat="45.21748" lon="5.732">
        <ele>1053.8000488281</ele>
        <time>2021-05-22T04:51:22.000Z</time>
      </trkpt>
      <trkpt lat="45.21751" lon="5.73203">
        <ele>1054</ele>
        <time>2021-05-22T04:51:25.000Z</time>
      </trkpt>
      <trkpt lat="45.21753" lon="5.73206">
        <ele>1054.1999511719</ele>
        <time>2021-05-22T04:51:27.000Z</time>
      </trkpt>
      <trkpt lat="45.21754" lon="5.73208">
        <ele>1055</ele>
        <time>2021-05-22T04:51:29.000Z</time>
      </trkpt>
      <trkpt lat="45.21754" lon="5.73209">
        <ele>1055.5999755859</ele>
        <time>2021-05-22T04:51:30.000Z</time>
      </trkpt>
      <trkpt lat="45.21754" lon="5.73212">
        <ele>1056</ele>
        <time>2021-05-22T04:51:32.000Z</time>
      </trkpt>
      <trkpt lat="45.21756" lon="5.73215">
        <ele>1057.1999511719</ele>
        <time>2021-05-22T04:51:35.000Z</time>
      </trkpt>
      <trkpt lat="45.2176" lon="5.73219">
        <ele>1057.5999755859</ele>
        <time>2021-05-22T04:51:39.000Z</time>
      </trkpt>
      <trkpt lat="45.21766" lon="5.73222">
        <ele>1057.8000488281</ele>
        <time>2021-05-22T04:51:46.000Z</time>
      </trkpt>
      <trkpt lat="45.2177" lon="5.73225">
        <ele>1057.5999755859</ele>
        <time>2021-05-22T04:51:49.000Z</time>
      </trkpt>
      <trkpt lat="45.21773" lon="5.73227">
        <ele>1057.5999755859</ele>
        <time>2021-05-22T04:51:51.000Z</time>
      </trkpt>
      <trkpt lat="45.21774" lon="5.73229">
        <ele>1057.4000244141</ele>
        <time>2021-05-22T04:51:52.000Z</time>
      </trkpt>
      <trkpt lat="45.21775" lon="5.73233">
        <ele>1058.1999511719</ele>
        <time>2021-05-22T04:51:55.000Z</time>
      </trkpt>
      <trkpt lat="45.21778" lon="5.7324">
        <ele>1059.4000244141</ele>
        <time>2021-05-22T04:51:59.000Z</time>
      </trkpt>
      <trkpt lat="45.21781" lon="5.73245">
        <ele>1060.5999755859</ele>
        <time>2021-05-22T04:52:03.000Z</time>
      </trkpt>
      <trkpt lat="45.21783" lon="5.73252">
        <ele>1061.1999511719</ele>
        <time>2021-05-22T04:52:06.000Z</time>
      </trkpt>
      <trkpt lat="45.21781" lon="5.73255">
        <ele>1061.5999755859</ele>
        <time>2021-05-22T04:52:08.000Z</time>
      </trkpt>
      <trkpt lat="45.21781" lon="5.73256">
        <ele>1062</ele>
        <time>2021-05-22T04:52:09.000Z</time>
      </trkpt>
      <trkpt lat="45.21779" lon="5.73259">
        <ele>1062.4000244141</ele>
        <time>2021-05-22T04:52:11.000Z</time>
      </trkpt>
      <trkpt lat="45.21779" lon="5.73264">
        <ele>1062.5999755859</ele>
        <time>2021-05-22T04:52:13.000Z</time>
      </trkpt>
      <trkpt lat="45.21779" lon="5.73267">
        <ele>1062.8000488281</ele>
        <time>2021-05-22T04:52:14.000Z</time>
      </trkpt>
      <trkpt lat="45.21782" lon="5.7327">
        <ele>1062.8000488281</ele>
        <time>2021-05-22T04:52:16.000Z</time>
      </trkpt>
      <trkpt lat="45.21783" lon="5.73271">
        <ele>1063</ele>
        <time>2021-05-22T04:52:17.000Z</time>
      </trkpt>
      <trkpt lat="45.21785" lon="5.73272">
        <ele>1063.8000488281</ele>
        <time>2021-05-22T04:52:19.000Z</time>
      </trkpt>
      <trkpt lat="45.21786" lon="5.73273">
        <ele>1064.1999511719</ele>
        <time>2021-05-22T04:52:21.000Z</time>
      </trkpt>
      <trkpt lat="45.21787" lon="5.73273">
        <ele>1064.4000244141</ele>
        <time>2021-05-22T04:52:22.000Z</time>
      </trkpt>
      <trkpt lat="45.21789" lon="5.73275">
        <ele>1065</ele>
        <time>2021-05-22T04:52:24.000Z</time>
      </trkpt>
      <trkpt lat="45.21795" lon="5.73278">
        <ele>1066.1999511719</ele>
        <time>2021-05-22T04:52:29.000Z</time>
      </trkpt>
      <trkpt lat="45.21795" lon="5.73279">
        <ele>1066.4000244141</ele>
        <time>2021-05-22T04:52:30.000Z</time>
      </trkpt>
      <trkpt lat="45.21797" lon="5.73281">
        <ele>1066.8000488281</ele>
        <time>2021-05-22T04:52:32.000Z</time>
      </trkpt>
      <trkpt lat="45.21799" lon="5.73283">
        <ele>1067.1999511719</ele>
        <time>2021-05-22T04:52:34.000Z</time>
      </trkpt>
      <trkpt lat="45.21804" lon="5.73287">
        <ele>1067.5999755859</ele>
        <time>2021-05-22T04:52:38.000Z</time>
      </trkpt>
      <trkpt lat="45.21807" lon="5.73289">
        <ele>1068</ele>
        <time>2021-05-22T04:52:40.000Z</time>
      </trkpt>
      <trkpt lat="45.21808" lon="5.7329">
        <ele>1068.1999511719</ele>
        <time>2021-05-22T04:52:41.000Z</time>
      </trkpt>
      <trkpt lat="45.21811" lon="5.73296">
        <ele>1069</ele>
        <time>2021-05-22T04:52:45.000Z</time>
      </trkpt>
      <trkpt lat="45.21812" lon="5.73297">
        <ele>1069.1999511719</ele>
        <time>2021-05-22T04:52:46.000Z</time>
      </trkpt>
      <trkpt lat="45.21814" lon="5.73299">
        <ele>1069.4000244141</ele>
        <time>2021-05-22T04:52:48.000Z</time>
      </trkpt>
      <trkpt lat="45.2182" lon="5.73303">
        <ele>1070.4000244141</ele>
        <time>2021-05-22T04:52:53.000Z</time>
      </trkpt>
      <trkpt lat="45.21822" lon="5.73306">
        <ele>1071</ele>
        <time>2021-05-22T04:52:55.000Z</time>
      </trkpt>
      <trkpt lat="45.21823" lon="5.73307">
        <ele>1071.1999511719</ele>
        <time>2021-05-22T04:52:56.000Z</time>
      </trkpt>
      <trkpt lat="45.21823" lon="5.73308">
        <ele>1071.4000244141</ele>
        <time>2021-05-22T04:52:57.000Z</time>
      </trkpt>
      <trkpt lat="45.21824" lon="5.73309">
        <ele>1071.5999755859</ele>
        <time>2021-05-22T04:52:58.000Z</time>
      </trkpt>
      <trkpt lat="45.21827" lon="5.73312">
        <ele>1072.4000244141</ele>
        <time>2021-05-22T04:53:01.000Z</time>
      </trkpt>
      <trkpt lat="45.21828" lon="5.73313">
        <ele>1072.8000488281</ele>
        <time>2021-05-22T04:53:02.000Z</time>
      </trkpt>
      <trkpt lat="45.21832" lon="5.73319">
        <ele>1073.5999755859</ele>
        <time>2021-05-22T04:53:06.000Z</time>
      </trkpt>
      <trkpt lat="45.21835" lon="5.73323">
        <ele>1074.1999511719</ele>
        <time>2021-05-22T04:53:09.000Z</time>
      </trkpt>
      <trkpt lat="45.2184" lon="5.73329">
        <ele>1074.5999755859</ele>
        <time>2021-05-22T04:53:14.000Z</time>
      </trkpt>
      <trkpt lat="45.21841" lon="5.7333">
        <ele>1074.5999755859</ele>
        <time>2021-05-22T04:53:15.000Z</time>
      </trkpt>
      <trkpt lat="45.21841" lon="5.7333">
        <ele>1074.8000488281</ele>
        <time>2021-05-22T04:53:16.000Z</time>
      </trkpt>
      <trkpt lat="45.21844" lon="5.73335">
        <ele>1074.8000488281</ele>
        <time>2021-05-22T04:53:19.000Z</time>
      </trkpt>
      <trkpt lat="45.21845" lon="5.73336">
        <ele>1075</ele>
        <time>2021-05-22T04:53:20.000Z</time>
      </trkpt>
      <trkpt lat="45.21847" lon="5.73337">
        <ele>1075.1999511719</ele>
        <time>2021-05-22T04:53:23.000Z</time>
      </trkpt>
      <trkpt lat="45.21847" lon="5.73338">
        <ele>1075.1999511719</ele>
        <time>2021-05-22T04:53:24.000Z</time>
      </trkpt>
      <trkpt lat="45.21847" lon="5.73338">
        <ele>1075.1999511719</ele>
        <time>2021-05-22T04:53:28.000Z</time>
      </trkpt>
      <trkpt lat="45.21848" lon="5.73338">
        <ele>1075.1999511719</ele>
        <time>2021-05-22T04:53:32.000Z</time>
      </trkpt>
      <trkpt lat="45.21848" lon="5.73338">
        <ele>1075.1999511719</ele>
        <time>2021-05-22T04:53:37.000Z</time>
      </trkpt>
      <trkpt lat="45.21848" lon="5.73338">
        <ele>1075.1999511719</ele>
        <time>2021-05-22T04:53:39.000Z</time>
      </trkpt>
      <trkpt lat="45.21848" lon="5.73338">
        <ele>1075.4000244141</ele>
        <time>2021-05-22T04:53:41.000Z</time>
      </trkpt>
      <trkpt lat="45.21848" lon="5.73338">
        <ele>1075.4000244141</ele>
        <time>2021-05-22T04:53:45.000Z</time>
      </trkpt>
      <trkpt lat="45.21848" lon="5.73338">
        <ele>1075.5999755859</ele>
        <time>2021-05-22T04:53:48.000Z</time>
      </trkpt>
      <trkpt lat="45.21848" lon="5.73338">
        <ele>1075.5999755859</ele>
        <time>2021-05-22T04:53:50.000Z</time>
      </trkpt>
      <trkpt lat="45.21848" lon="5.73339">
        <ele>1075.5999755859</ele>
        <time>2021-05-22T04:53:54.000Z</time>
      </trkpt>
      <trkpt lat="45.21846" lon="5.73344">
        <ele>1075.1999511719</ele>
        <time>2021-05-22T04:53:57.000Z</time>
      </trkpt>
      <trkpt lat="45.21845" lon="5.73346">
        <ele>1075.1999511719</ele>
        <time>2021-05-22T04:53:58.000Z</time>
      </trkpt>
      <trkpt lat="45.21845" lon="5.73349">
        <ele>1075</ele>
        <time>2021-05-22T04:54:00.000Z</time>
      </trkpt>
      <trkpt lat="45.21844" lon="5.73353">
        <ele>1074.8000488281</ele>
        <time>2021-05-22T04:54:04.000Z</time>
      </trkpt>
      <trkpt lat="45.21844" lon="5.73355">
        <ele>1075</ele>
        <time>2021-05-22T04:54:10.000Z</time>
      </trkpt>
      <trkpt lat="45.21844" lon="5.73355">
        <ele>1075</ele>
        <time>2021-05-22T04:54:11.000Z</time>
      </trkpt>
      <trkpt lat="45.21844" lon="5.73355">
        <ele>1075</ele>
        <time>2021-05-22T04:54:12.000Z</time>
      </trkpt>
      <trkpt lat="45.21844" lon="5.73355">
        <ele>1074.8000488281</ele>
        <time>2021-05-22T04:54:19.000Z</time>
      </trkpt>
      <trkpt lat="45.21844" lon="5.73355">
        <ele>1074.8000488281</ele>
        <time>2021-05-22T04:54:24.000Z</time>
      </trkpt>
      <trkpt lat="45.21844" lon="5.73355">
        <ele>1074.8000488281</ele>
        <time>2021-05-22T04:54:26.000Z</time>
      </trkpt>
      <trkpt lat="45.21844" lon="5.73355">
        <ele>1075</ele>
        <time>2021-05-22T04:54:28.000Z</time>
      </trkpt>
      <trkpt lat="45.21844" lon="5.73355">
        <ele>1075</ele>
        <time>2021-05-22T04:54:31.000Z</time>
      </trkpt>
      <trkpt lat="45.21844" lon="5.73357">
        <ele>1075</ele>
        <time>2021-05-22T04:54:43.000Z</time>
      </trkpt>
      <trkpt lat="45.21844" lon="5.73358">
        <ele>1075</ele>
        <time>2021-05-22T04:54:48.000Z</time>
      </trkpt>
      <trkpt lat="45.21844" lon="5.7336">
        <ele>1075</ele>
        <time>2021-05-22T04:55:12.000Z</time>
      </trkpt>
      <trkpt lat="45.21846" lon="5.7335">
        <ele>1075</ele>
        <time>2021-05-22T04:55:18.000Z</time>
      </trkpt>
      <trkpt lat="45.21847" lon="5.73349">
        <ele>1075</ele>
        <time>2021-05-22T04:55:19.000Z</time>
      </trkpt>
      <trkpt lat="45.21849" lon="5.73346">
        <ele>1075</ele>
        <time>2021-05-22T04:55:22.000Z</time>
      </trkpt>
      <trkpt lat="45.21851" lon="5.73346">
        <ele>1074.5999755859</ele>
        <time>2021-05-22T04:55:25.000Z</time>
      </trkpt>
      <trkpt lat="45.21853" lon="5.73349">
        <ele>1073.5999755859</ele>
        <time>2021-05-22T04:55:29.000Z</time>
      </trkpt>
      <trkpt lat="45.21853" lon="5.7335">
        <ele>1073.4000244141</ele>
        <time>2021-05-22T04:55:30.000Z</time>
      </trkpt>
      <trkpt lat="45.21855" lon="5.73351">
        <ele>1072.5999755859</ele>
        <time>2021-05-22T04:55:32.000Z</time>
      </trkpt>
      <trkpt lat="45.21856" lon="5.73352">
        <ele>1072.4000244141</ele>
        <time>2021-05-22T04:55:33.000Z</time>
      </trkpt>
      <trkpt lat="45.2186" lon="5.73353">
        <ele>1071</ele>
        <time>2021-05-22T04:55:37.000Z</time>
      </trkpt>
      <trkpt lat="45.21861" lon="5.73353">
        <ele>1070.8000488281</ele>
        <time>2021-05-22T04:55:38.000Z</time>
      </trkpt>
      <trkpt lat="45.21862" lon="5.73353">
        <ele>1070.5999755859</ele>
        <time>2021-05-22T04:55:39.000Z</time>
      </trkpt>
      <trkpt lat="45.21863" lon="5.73352">
        <ele>1069.8000488281</ele>
        <time>2021-05-22T04:55:41.000Z</time>
      </trkpt>
      <trkpt lat="45.21863" lon="5.73353">
        <ele>1069.8000488281</ele>
        <time>2021-05-22T04:55:42.000Z</time>
      </trkpt>
      <trkpt lat="45.21864" lon="5.73354">
        <ele>1069.5999755859</ele>
        <time>2021-05-22T04:55:43.000Z</time>
      </trkpt>
      <trkpt lat="45.21868" lon="5.73357">
        <ele>1069.1999511719</ele>
        <time>2021-05-22T04:55:46.000Z</time>
      </trkpt>
      <trkpt lat="45.2187" lon="5.73359">
        <ele>1068.8000488281</ele>
        <time>2021-05-22T04:55:47.000Z</time>
      </trkpt>
      <trkpt lat="45.21875" lon="5.73362">
        <ele>1068.4000244141</ele>
        <time>2021-05-22T04:55:50.000Z</time>
      </trkpt>
      <trkpt lat="45.21876" lon="5.73361">
        <ele>1067.5999755859</ele>
        <time>2021-05-22T04:55:52.000Z</time>
      </trkpt>
      <trkpt lat="45.21881" lon="5.73363">
        <ele>1067.1999511719</ele>
        <time>2021-05-22T04:55:55.000Z</time>
      </trkpt>
      <trkpt lat="45.21886" lon="5.73365">
        <ele>1067.1999511719</ele>
        <time>2021-05-22T04:55:58.000Z</time>
      </trkpt>
      <trkpt lat="45.2189" lon="5.73369">
        <ele>1067.4000244141</ele>
        <time>2021-05-22T04:56:02.000Z</time>
      </trkpt>
      <trkpt lat="45.21893" lon="5.73374">
        <ele>1067.4000244141</ele>
        <time>2021-05-22T04:56:05.000Z</time>
      </trkpt>
      <trkpt lat="45.219" lon="5.73375">
        <ele>1068</ele>
        <time>2021-05-22T04:56:09.000Z</time>
      </trkpt>
      <trkpt lat="45.21908" lon="5.7338">
        <ele>1068.1999511719</ele>
        <time>2021-05-22T04:56:13.000Z</time>
      </trkpt>
      <trkpt lat="45.2191" lon="5.73382">
        <ele>1068.1999511719</ele>
        <time>2021-05-22T04:56:15.000Z</time>
      </trkpt>
      <trkpt lat="45.21911" lon="5.73382">
        <ele>1068.1999511719</ele>
        <time>2021-05-22T04:56:16.000Z</time>
      </trkpt>
      <trkpt lat="45.21913" lon="5.73383">
        <ele>1067.8000488281</ele>
        <time>2021-05-22T04:56:19.000Z</time>
      </trkpt>
      <trkpt lat="45.21915" lon="5.73384">
        <ele>1067.5999755859</ele>
        <time>2021-05-22T04:56:21.000Z</time>
      </trkpt>
      <trkpt lat="45.21916" lon="5.73384">
        <ele>1067.4000244141</ele>
        <time>2021-05-22T04:56:22.000Z</time>
      </trkpt>
      <trkpt lat="45.21922" lon="5.73392">
        <ele>1066.8000488281</ele>
        <time>2021-05-22T04:56:27.000Z</time>
      </trkpt>
      <trkpt lat="45.21923" lon="5.73394">
        <ele>1066.8000488281</ele>
        <time>2021-05-22T04:56:28.000Z</time>
      </trkpt>
      <trkpt lat="45.21927" lon="5.73399">
        <ele>1066.8000488281</ele>
        <time>2021-05-22T04:56:31.000Z</time>
      </trkpt>
      <trkpt lat="45.21931" lon="5.73405">
        <ele>1067.1999511719</ele>
        <time>2021-05-22T04:56:35.000Z</time>
      </trkpt>
      <trkpt lat="45.21933" lon="5.73409">
        <ele>1067.8000488281</ele>
        <time>2021-05-22T04:56:37.000Z</time>
      </trkpt>
      <trkpt lat="45.21936" lon="5.73413">
        <ele>1068.1999511719</ele>
        <time>2021-05-22T04:56:40.000Z</time>
      </trkpt>
      <trkpt lat="45.21938" lon="5.73417">
        <ele>1069</ele>
        <time>2021-05-22T04:56:43.000Z</time>
      </trkpt>
      <trkpt lat="45.2194" lon="5.7342">
        <ele>1069.4000244141</ele>
        <time>2021-05-22T04:56:45.000Z</time>
      </trkpt>
      <trkpt lat="45.21946" lon="5.73423">
        <ele>1069.8000488281</ele>
        <time>2021-05-22T04:56:49.000Z</time>
      </trkpt>
      <trkpt lat="45.21947" lon="5.73424">
        <ele>1070</ele>
        <time>2021-05-22T04:56:50.000Z</time>
      </trkpt>
      <trkpt lat="45.21955" lon="5.73424">
        <ele>1070.4000244141</ele>
        <time>2021-05-22T04:56:53.000Z</time>
      </trkpt>
      <trkpt lat="45.21958" lon="5.73423">
        <ele>1070.5999755859</ele>
        <time>2021-05-22T04:56:55.000Z</time>
      </trkpt>
      <trkpt lat="45.21963" lon="5.73422">
        <ele>1071</ele>
        <time>2021-05-22T04:56:58.000Z</time>
      </trkpt>
      <trkpt lat="45.21965" lon="5.73422">
        <ele>1071.1999511719</ele>
        <time>2021-05-22T04:56:59.000Z</time>
      </trkpt>
      <trkpt lat="45.21972" lon="5.73425">
        <ele>1071.5999755859</ele>
        <time>2021-05-22T04:57:03.000Z</time>
      </trkpt>
      <trkpt lat="45.21974" lon="5.73426">
        <ele>1072</ele>
        <time>2021-05-22T04:57:05.000Z</time>
      </trkpt>
      <trkpt lat="45.21976" lon="5.73426">
        <ele>1072.1999511719</ele>
        <time>2021-05-22T04:57:06.000Z</time>
      </trkpt>
      <trkpt lat="45.21983" lon="5.7343">
        <ele>1073.4000244141</ele>
        <time>2021-05-22T04:57:11.000Z</time>
      </trkpt>
      <trkpt lat="45.21985" lon="5.73432">
        <ele>1074</ele>
        <time>2021-05-22T04:57:13.000Z</time>
      </trkpt>
      <trkpt lat="45.21989" lon="5.73433">
        <ele>1074.5999755859</ele>
        <time>2021-05-22T04:57:15.000Z</time>
      </trkpt>
      <trkpt lat="45.21998" lon="5.73432">
        <ele>1075.5999755859</ele>
        <time>2021-05-22T04:57:20.000Z</time>
      </trkpt>
      <trkpt lat="45.22013" lon="5.73435">
        <ele>1075.1999511719</ele>
        <time>2021-05-22T04:57:27.000Z</time>
      </trkpt>
      <trkpt lat="45.2202" lon="5.7344">
        <ele>1074.5999755859</ele>
        <time>2021-05-22T04:57:30.000Z</time>
      </trkpt>
      <trkpt lat="45.22021" lon="5.73442">
        <ele>1074.4000244141</ele>
        <time>2021-05-22T04:57:31.000Z</time>
      </trkpt>
      <trkpt lat="45.22023" lon="5.73443">
        <ele>1074.1999511719</ele>
        <time>2021-05-22T04:57:32.000Z</time>
      </trkpt>
      <trkpt lat="45.22027" lon="5.73447">
        <ele>1073.4000244141</ele>
        <time>2021-05-22T04:57:35.000Z</time>
      </trkpt>
      <trkpt lat="45.22028" lon="5.73449">
        <ele>1073</ele>
        <time>2021-05-22T04:57:36.000Z</time>
      </trkpt>
      <trkpt lat="45.2203" lon="5.73451">
        <ele>1072.1999511719</ele>
        <time>2021-05-22T04:57:39.000Z</time>
      </trkpt>
      <trkpt lat="45.22032" lon="5.73451">
        <ele>1072</ele>
        <time>2021-05-22T04:57:40.000Z</time>
      </trkpt>
      <trkpt lat="45.22036" lon="5.73452">
        <ele>1071</ele>
        <time>2021-05-22T04:57:43.000Z</time>
      </trkpt>
      <trkpt lat="45.22036" lon="5.73452">
        <ele>1070.5999755859</ele>
        <time>2021-05-22T04:57:44.000Z</time>
      </trkpt>
      <trkpt lat="45.22037" lon="5.73453">
        <ele>1070.5999755859</ele>
        <time>2021-05-22T04:57:45.000Z</time>
      </trkpt>
      <trkpt lat="45.22041" lon="5.73456">
        <ele>1069.8000488281</ele>
        <time>2021-05-22T04:57:48.000Z</time>
      </trkpt>
      <trkpt lat="45.22044" lon="5.73458">
        <ele>1068.8000488281</ele>
        <time>2021-05-22T04:57:51.000Z</time>
      </trkpt>
      <trkpt lat="45.22046" lon="5.73459">
        <ele>1068.4000244141</ele>
        <time>2021-05-22T04:57:52.000Z</time>
      </trkpt>
      <trkpt lat="45.22048" lon="5.73461">
        <ele>1068.1999511719</ele>
        <time>2021-05-22T04:57:53.000Z</time>
      </trkpt>
      <trkpt lat="45.22054" lon="5.73464">
        <ele>1067.1999511719</ele>
        <time>2021-05-22T04:57:57.000Z</time>
      </trkpt>
      <trkpt lat="45.2206" lon="5.73471">
        <ele>1066.1999511719</ele>
        <time>2021-05-22T04:58:01.000Z</time>
      </trkpt>
      <trkpt lat="45.22061" lon="5.73472">
        <ele>1066.1999511719</ele>
        <time>2021-05-22T04:58:02.000Z</time>
      </trkpt>
      <trkpt lat="45.22062" lon="5.73474">
        <ele>1066</ele>
        <time>2021-05-22T04:58:03.000Z</time>
      </trkpt>
      <trkpt lat="45.22069" lon="5.73478">
        <ele>1065.1999511719</ele>
        <time>2021-05-22T04:58:07.000Z</time>
      </trkpt>
      <trkpt lat="45.22074" lon="5.73482">
        <ele>1064.4000244141</ele>
        <time>2021-05-22T04:58:10.000Z</time>
      </trkpt>
      <trkpt lat="45.22076" lon="5.73483">
        <ele>1064.1999511719</ele>
        <time>2021-05-22T04:58:11.000Z</time>
      </trkpt>
      <trkpt lat="45.22077" lon="5.73485">
        <ele>1064</ele>
        <time>2021-05-22T04:58:12.000Z</time>
      </trkpt>
      <trkpt lat="45.22078" lon="5.73486">
        <ele>1063.8000488281</ele>
        <time>2021-05-22T04:58:13.000Z</time>
      </trkpt>
      <trkpt lat="45.2208" lon="5.73488">
        <ele>1063.4000244141</ele>
        <time>2021-05-22T04:58:14.000Z</time>
      </trkpt>
      <trkpt lat="45.22082" lon="5.73489">
        <ele>1063</ele>
        <time>2021-05-22T04:58:15.000Z</time>
      </trkpt>
      <trkpt lat="45.22088" lon="5.73494">
        <ele>1061.8000488281</ele>
        <time>2021-05-22T04:58:19.000Z</time>
      </trkpt>
      <trkpt lat="45.22091" lon="5.73496">
        <ele>1061.1999511719</ele>
        <time>2021-05-22T04:58:21.000Z</time>
      </trkpt>
      <trkpt lat="45.22094" lon="5.73498">
        <ele>1060.5999755859</ele>
        <time>2021-05-22T04:58:23.000Z</time>
      </trkpt>
      <trkpt lat="45.22099" lon="5.73501">
        <ele>1059.4000244141</ele>
        <time>2021-05-22T04:58:26.000Z</time>
      </trkpt>
      <trkpt lat="45.22099" lon="5.73501">
        <ele>1059.1999511719</ele>
        <time>2021-05-22T04:58:27.000Z</time>
      </trkpt>
      <trkpt lat="45.221" lon="5.73502">
        <ele>1059</ele>
        <time>2021-05-22T04:58:28.000Z</time>
      </trkpt>
      <trkpt lat="45.22101" lon="5.73503">
        <ele>1058.8000488281</ele>
        <time>2021-05-22T04:58:29.000Z</time>
      </trkpt>
      <trkpt lat="45.22102" lon="5.73503">
        <ele>1058.4000244141</ele>
        <time>2021-05-22T04:58:30.000Z</time>
      </trkpt>
      <trkpt lat="45.22104" lon="5.73504">
        <ele>1057.5999755859</ele>
        <time>2021-05-22T04:58:33.000Z</time>
      </trkpt>
      <trkpt lat="45.22105" lon="5.73504">
        <ele>1057.4000244141</ele>
        <time>2021-05-22T04:58:34.000Z</time>
      </trkpt>
      <trkpt lat="45.22106" lon="5.73504">
        <ele>1056.8000488281</ele>
        <time>2021-05-22T04:58:35.000Z</time>
      </trkpt>
      <trkpt lat="45.22106" lon="5.73504">
        <ele>1056.4000244141</ele>
        <time>2021-05-22T04:58:36.000Z</time>
      </trkpt>
      <trkpt lat="45.22108" lon="5.73504">
        <ele>1055.5999755859</ele>
        <time>2021-05-22T04:58:38.000Z</time>
      </trkpt>
      <trkpt lat="45.2211" lon="5.73505">
        <ele>1055.1999511719</ele>
        <time>2021-05-22T04:58:39.000Z</time>
      </trkpt>
      <trkpt lat="45.22113" lon="5.73505">
        <ele>1054.4000244141</ele>
        <time>2021-05-22T04:58:41.000Z</time>
      </trkpt>
      <trkpt lat="45.22114" lon="5.73505">
        <ele>1054</ele>
        <time>2021-05-22T04:58:42.000Z</time>
      </trkpt>
      <trkpt lat="45.22115" lon="5.73508">
        <ele>1053.5999755859</ele>
        <time>2021-05-22T04:58:44.000Z</time>
      </trkpt>
      <trkpt lat="45.22115" lon="5.7351">
        <ele>1053.1999511719</ele>
        <time>2021-05-22T04:58:45.000Z</time>
      </trkpt>
      <trkpt lat="45.22117" lon="5.73522">
        <ele>1052</ele>
        <time>2021-05-22T04:58:49.000Z</time>
      </trkpt>
      <trkpt lat="45.22119" lon="5.73524">
        <ele>1051.5999755859</ele>
        <time>2021-05-22T04:58:50.000Z</time>
      </trkpt>
      <trkpt lat="45.22121" lon="5.73525">
        <ele>1051.4000244141</ele>
        <time>2021-05-22T04:58:51.000Z</time>
      </trkpt>
      <trkpt lat="45.22123" lon="5.73526">
        <ele>1050.8000488281</ele>
        <time>2021-05-22T04:58:52.000Z</time>
      </trkpt>
      <trkpt lat="45.22126" lon="5.73527">
        <ele>1049.8000488281</ele>
        <time>2021-05-22T04:58:54.000Z</time>
      </trkpt>
      <trkpt lat="45.22128" lon="5.73528">
        <ele>1049.1999511719</ele>
        <time>2021-05-22T04:58:56.000Z</time>
      </trkpt>
      <trkpt lat="45.22129" lon="5.73529">
        <ele>1049</ele>
        <time>2021-05-22T04:58:57.000Z</time>
      </trkpt>
      <trkpt lat="45.22129" lon="5.73529">
        <ele>1048.1999511719</ele>
        <time>2021-05-22T04:58:58.000Z</time>
      </trkpt>
      <trkpt lat="45.22133" lon="5.73531">
        <ele>1047.1999511719</ele>
        <time>2021-05-22T04:59:01.000Z</time>
      </trkpt>
      <trkpt lat="45.22135" lon="5.73532">
        <ele>1046.8000488281</ele>
        <time>2021-05-22T04:59:02.000Z</time>
      </trkpt>
      <trkpt lat="45.2214" lon="5.73534">
        <ele>1045.8000488281</ele>
        <time>2021-05-22T04:59:06.000Z</time>
      </trkpt>
      <trkpt lat="45.22146" lon="5.73535">
        <ele>1044.5999755859</ele>
        <time>2021-05-22T04:59:09.000Z</time>
      </trkpt>
      <trkpt lat="45.22149" lon="5.73538">
        <ele>1043.5999755859</ele>
        <time>2021-05-22T04:59:12.000Z</time>
      </trkpt>
      <trkpt lat="45.22153" lon="5.73539">
        <ele>1042.5999755859</ele>
        <time>2021-05-22T04:59:15.000Z</time>
      </trkpt>
      <trkpt lat="45.22154" lon="5.73539">
        <ele>1042.1999511719</ele>
        <time>2021-05-22T04:59:16.000Z</time>
      </trkpt>
      <trkpt lat="45.2216" lon="5.73542">
        <ele>1040.8000488281</ele>
        <time>2021-05-22T04:59:20.000Z</time>
      </trkpt>
      <trkpt lat="45.22161" lon="5.73543">
        <ele>1040.5999755859</ele>
        <time>2021-05-22T04:59:21.000Z</time>
      </trkpt>
      <trkpt lat="45.22167" lon="5.73549">
        <ele>1039.8000488281</ele>
        <time>2021-05-22T04:59:24.000Z</time>
      </trkpt>
      <trkpt lat="45.2217" lon="5.73555">
        <ele>1039.1999511719</ele>
        <time>2021-05-22T04:59:26.000Z</time>
      </trkpt>
      <trkpt lat="45.22172" lon="5.73558">
        <ele>1038.5999755859</ele>
        <time>2021-05-22T04:59:28.000Z</time>
      </trkpt>
      <trkpt lat="45.22172" lon="5.73558">
        <ele>1038.4000244141</ele>
        <time>2021-05-22T04:59:29.000Z</time>
      </trkpt>
      <trkpt lat="45.22174" lon="5.7356">
        <ele>1038</ele>
        <time>2021-05-22T04:59:31.000Z</time>
      </trkpt>
      <trkpt lat="45.22175" lon="5.73561">
        <ele>1037.5999755859</ele>
        <time>2021-05-22T04:59:32.000Z</time>
      </trkpt>
      <trkpt lat="45.22177" lon="5.73562">
        <ele>1037</ele>
        <time>2021-05-22T04:59:34.000Z</time>
      </trkpt>
      <trkpt lat="45.22178" lon="5.73565">
        <ele>1036.4000244141</ele>
        <time>2021-05-22T04:59:36.000Z</time>
      </trkpt>
      <trkpt lat="45.22179" lon="5.73566">
        <ele>1036</ele>
        <time>2021-05-22T04:59:37.000Z</time>
      </trkpt>
      <trkpt lat="45.22184" lon="5.73573">
        <ele>1035.1999511719</ele>
        <time>2021-05-22T04:59:40.000Z</time>
      </trkpt>
      <trkpt lat="45.22188" lon="5.73578">
        <ele>1034.5999755859</ele>
        <time>2021-05-22T04:59:42.000Z</time>
      </trkpt>
      <trkpt lat="45.2219" lon="5.73579">
        <ele>1034.5999755859</ele>
        <time>2021-05-22T04:59:43.000Z</time>
      </trkpt>
      <trkpt lat="45.22193" lon="5.73583">
        <ele>1034.1999511719</ele>
        <time>2021-05-22T04:59:46.000Z</time>
      </trkpt>
      <trkpt lat="45.22194" lon="5.73584">
        <ele>1034</ele>
        <time>2021-05-22T04:59:47.000Z</time>
      </trkpt>
      <trkpt lat="45.22196" lon="5.73587">
        <ele>1033.5999755859</ele>
        <time>2021-05-22T04:59:49.000Z</time>
      </trkpt>
      <trkpt lat="45.222" lon="5.73592">
        <ele>1033</ele>
        <time>2021-05-22T04:59:52.000Z</time>
      </trkpt>
      <trkpt lat="45.22205" lon="5.736">
        <ele>1032.1999511719</ele>
        <time>2021-05-22T04:59:56.000Z</time>
      </trkpt>
      <trkpt lat="45.22208" lon="5.73603">
        <ele>1032</ele>
        <time>2021-05-22T04:59:58.000Z</time>
      </trkpt>
      <trkpt lat="45.22211" lon="5.73607">
        <ele>1031.8000488281</ele>
        <time>2021-05-22T05:00:00.000Z</time>
      </trkpt>
      <trkpt lat="45.22217" lon="5.73611">
        <ele>1031</ele>
        <time>2021-05-22T05:00:03.000Z</time>
      </trkpt>
      <trkpt lat="45.22221" lon="5.73612">
        <ele>1031</ele>
        <time>2021-05-22T05:00:04.000Z</time>
      </trkpt>
      <trkpt lat="45.22228" lon="5.73616">
        <ele>1030.5999755859</ele>
        <time>2021-05-22T05:00:07.000Z</time>
      </trkpt>
      <trkpt lat="45.22231" lon="5.73618">
        <ele>1030.4000244141</ele>
        <time>2021-05-22T05:00:09.000Z</time>
      </trkpt>
      <trkpt lat="45.22237" lon="5.73623">
        <ele>1029.8000488281</ele>
        <time>2021-05-22T05:00:12.000Z</time>
      </trkpt>
      <trkpt lat="45.2224" lon="5.73626">
        <ele>1029.4000244141</ele>
        <time>2021-05-22T05:00:13.000Z</time>
      </trkpt>
      <trkpt lat="45.22247" lon="5.73632">
        <ele>1028.5999755859</ele>
        <time>2021-05-22T05:00:16.000Z</time>
      </trkpt>
      <trkpt lat="45.22249" lon="5.73634">
        <ele>1028.4000244141</ele>
        <time>2021-05-22T05:00:17.000Z</time>
      </trkpt>
      <trkpt lat="45.22251" lon="5.73635">
        <ele>1027.8000488281</ele>
        <time>2021-05-22T05:00:18.000Z</time>
      </trkpt>
      <trkpt lat="45.22253" lon="5.73636">
        <ele>1027.4000244141</ele>
        <time>2021-05-22T05:00:19.000Z</time>
      </trkpt>
      <trkpt lat="45.22261" lon="5.73641">
        <ele>1026</ele>
        <time>2021-05-22T05:00:23.000Z</time>
      </trkpt>
      <trkpt lat="45.22265" lon="5.73645">
        <ele>1025.4000244141</ele>
        <time>2021-05-22T05:00:25.000Z</time>
      </trkpt>
      <trkpt lat="45.22266" lon="5.73645">
        <ele>1025</ele>
        <time>2021-05-22T05:00:27.000Z</time>
      </trkpt>
      <trkpt lat="45.2227" lon="5.73642">
        <ele>1024.1999511719</ele>
        <time>2021-05-22T05:00:30.000Z</time>
      </trkpt>
      <trkpt lat="45.22273" lon="5.73641">
        <ele>1023.799987793</ele>
        <time>2021-05-22T05:00:32.000Z</time>
      </trkpt>
      <trkpt lat="45.22277" lon="5.73642">
        <ele>1022.4000244141</ele>
        <time>2021-05-22T05:00:35.000Z</time>
      </trkpt>
      <trkpt lat="45.22278" lon="5.73643">
        <ele>1022</ele>
        <time>2021-05-22T05:00:36.000Z</time>
      </trkpt>
      <trkpt lat="45.2228" lon="5.73644">
        <ele>1021.200012207</ele>
        <time>2021-05-22T05:00:38.000Z</time>
      </trkpt>
      <trkpt lat="45.22282" lon="5.73645">
        <ele>1020.200012207</ele>
        <time>2021-05-22T05:00:40.000Z</time>
      </trkpt>
      <trkpt lat="45.22283" lon="5.73645">
        <ele>1019.799987793</ele>
        <time>2021-05-22T05:00:41.000Z</time>
      </trkpt>
      <trkpt lat="45.22287" lon="5.73645">
        <ele>1018.799987793</ele>
        <time>2021-05-22T05:00:44.000Z</time>
      </trkpt>
      <trkpt lat="45.22289" lon="5.73645">
        <ele>1018.4000244141</ele>
        <time>2021-05-22T05:00:45.000Z</time>
      </trkpt>
      <trkpt lat="45.2229" lon="5.73645">
        <ele>1017.799987793</ele>
        <time>2021-05-22T05:00:46.000Z</time>
      </trkpt>
      <trkpt lat="45.22291" lon="5.73645">
        <ele>1017.4000244141</ele>
        <time>2021-05-22T05:00:47.000Z</time>
      </trkpt>
      <trkpt lat="45.22292" lon="5.73646">
        <ele>1017.200012207</ele>
        <time>2021-05-22T05:00:48.000Z</time>
      </trkpt>
      <trkpt lat="45.22294" lon="5.73646">
        <ele>1016.799987793</ele>
        <time>2021-05-22T05:00:49.000Z</time>
      </trkpt>
      <trkpt lat="45.22304" lon="5.73647">
        <ele>1015.5999755859</ele>
        <time>2021-05-22T05:00:53.000Z</time>
      </trkpt>
      <trkpt lat="45.22306" lon="5.73648">
        <ele>1015.4000244141</ele>
        <time>2021-05-22T05:00:54.000Z</time>
      </trkpt>
      <trkpt lat="45.2231" lon="5.73649">
        <ele>1014.799987793</ele>
        <time>2021-05-22T05:00:56.000Z</time>
      </trkpt>
      <trkpt lat="45.22313" lon="5.73651">
        <ele>1014.4000244141</ele>
        <time>2021-05-22T05:00:58.000Z</time>
      </trkpt>
      <trkpt lat="45.22319" lon="5.73654">
        <ele>1013.200012207</ele>
        <time>2021-05-22T05:01:01.000Z</time>
      </trkpt>
      <trkpt lat="45.22324" lon="5.73655">
        <ele>1012.4000244141</ele>
        <time>2021-05-22T05:01:04.000Z</time>
      </trkpt>
      <trkpt lat="45.22325" lon="5.73655">
        <ele>1012.200012207</ele>
        <time>2021-05-22T05:01:05.000Z</time>
      </trkpt>
      <trkpt lat="45.22327" lon="5.73654">
        <ele>1012</ele>
        <time>2021-05-22T05:01:06.000Z</time>
      </trkpt>
      <trkpt lat="45.2233" lon="5.73654">
        <ele>1011.4000244141</ele>
        <time>2021-05-22T05:01:07.000Z</time>
      </trkpt>
      <trkpt lat="45.22332" lon="5.73655">
        <ele>1011</ele>
        <time>2021-05-22T05:01:08.000Z</time>
      </trkpt>
      <trkpt lat="45.22335" lon="5.73655">
        <ele>1010.799987793</ele>
        <time>2021-05-22T05:01:09.000Z</time>
      </trkpt>
      <trkpt lat="45.22343" lon="5.73656">
        <ele>1010.200012207</ele>
        <time>2021-05-22T05:01:13.000Z</time>
      </trkpt>
      <trkpt lat="45.22352" lon="5.7366">
        <ele>1010</ele>
        <time>2021-05-22T05:01:16.000Z</time>
      </trkpt>
      <trkpt lat="45.22358" lon="5.73665">
        <ele>1009.5999755859</ele>
        <time>2021-05-22T05:01:19.000Z</time>
      </trkpt>
      <trkpt lat="45.22362" lon="5.73667">
        <ele>1009</ele>
        <time>2021-05-22T05:01:22.000Z</time>
      </trkpt>
      <trkpt lat="45.22364" lon="5.73668">
        <ele>1008.5999755859</ele>
        <time>2021-05-22T05:01:23.000Z</time>
      </trkpt>
      <trkpt lat="45.22366" lon="5.73671">
        <ele>1008.4000244141</ele>
        <time>2021-05-22T05:01:25.000Z</time>
      </trkpt>
      <trkpt lat="45.22367" lon="5.73672">
        <ele>1008.200012207</ele>
        <time>2021-05-22T05:01:27.000Z</time>
      </trkpt>
      <trkpt lat="45.22368" lon="5.73673">
        <ele>1008.4000244141</ele>
        <time>2021-05-22T05:01:28.000Z</time>
      </trkpt>
      <trkpt lat="45.2237" lon="5.73673">
        <ele>1008.4000244141</ele>
        <time>2021-05-22T05:01:29.000Z</time>
      </trkpt>
      <trkpt lat="45.22372" lon="5.73674">
        <ele>1008.4000244141</ele>
        <time>2021-05-22T05:01:31.000Z</time>
      </trkpt>
      <trkpt lat="45.22375" lon="5.73675">
        <ele>1008.5999755859</ele>
        <time>2021-05-22T05:01:33.000Z</time>
      </trkpt>
      <trkpt lat="45.22378" lon="5.73676">
        <ele>1008.799987793</ele>
        <time>2021-05-22T05:01:35.000Z</time>
      </trkpt>
      <trkpt lat="45.22382" lon="5.73677">
        <ele>1009</ele>
        <time>2021-05-22T05:01:37.000Z</time>
      </trkpt>
      <trkpt lat="45.22385" lon="5.73677">
        <ele>1009.799987793</ele>
        <time>2021-05-22T05:01:40.000Z</time>
      </trkpt>
      <trkpt lat="45.22394" lon="5.73683">
        <ele>1011</ele>
        <time>2021-05-22T05:01:46.000Z</time>
      </trkpt>
      <trkpt lat="45.22396" lon="5.73684">
        <ele>1011.200012207</ele>
        <time>2021-05-22T05:01:47.000Z</time>
      </trkpt>
      <trkpt lat="45.224" lon="5.73685">
        <ele>1012</ele>
        <time>2021-05-22T05:01:49.000Z</time>
      </trkpt>
      <trkpt lat="45.22405" lon="5.73684">
        <ele>1013.4000244141</ele>
        <time>2021-05-22T05:01:54.000Z</time>
      </trkpt>
      <trkpt lat="45.22407" lon="5.73684">
        <ele>1014</ele>
        <time>2021-05-22T05:01:56.000Z</time>
      </trkpt>
      <trkpt lat="45.2241" lon="5.73686">
        <ele>1014.4000244141</ele>
        <time>2021-05-22T05:01:58.000Z</time>
      </trkpt>
      <trkpt lat="45.22412" lon="5.73688">
        <ele>1015.799987793</ele>
        <time>2021-05-22T05:02:01.000Z</time>
      </trkpt>
      <trkpt lat="45.22413" lon="5.73689">
        <ele>1016</ele>
        <time>2021-05-22T05:02:02.000Z</time>
      </trkpt>
      <trkpt lat="45.22419" lon="5.73692">
        <ele>1017</ele>
        <time>2021-05-22T05:02:06.000Z</time>
      </trkpt>
      <trkpt lat="45.2242" lon="5.73693">
        <ele>1017.200012207</ele>
        <time>2021-05-22T05:02:07.000Z</time>
      </trkpt>
      <trkpt lat="45.2242" lon="5.73694">
        <ele>1017.4000244141</ele>
        <time>2021-05-22T05:02:08.000Z</time>
      </trkpt>
      <trkpt lat="45.22424" lon="5.73694">
        <ele>1018</ele>
        <time>2021-05-22T05:02:11.000Z</time>
      </trkpt>
      <trkpt lat="45.22426" lon="5.73691">
        <ele>1019.200012207</ele>
        <time>2021-05-22T05:02:14.000Z</time>
      </trkpt>
      <trkpt lat="45.22426" lon="5.7369">
        <ele>1019.200012207</ele>
        <time>2021-05-22T05:02:15.000Z</time>
      </trkpt>
      <trkpt lat="45.22427" lon="5.7369">
        <ele>1019.5999755859</ele>
        <time>2021-05-22T05:02:16.000Z</time>
      </trkpt>
      <trkpt lat="45.22431" lon="5.73689">
        <ele>1020.200012207</ele>
        <time>2021-05-22T05:02:19.000Z</time>
      </trkpt>
      <trkpt lat="45.22439" lon="5.73689">
        <ele>1021.200012207</ele>
        <time>2021-05-22T05:02:25.000Z</time>
      </trkpt>
      <trkpt lat="45.2244" lon="5.73692">
        <ele>1021.5999755859</ele>
        <time>2021-05-22T05:02:27.000Z</time>
      </trkpt>
      <trkpt lat="45.22446" lon="5.73693">
        <ele>1022</ele>
        <time>2021-05-22T05:02:32.000Z</time>
      </trkpt>
      <trkpt lat="45.2245" lon="5.73693">
        <ele>1021.5999755859</ele>
        <time>2021-05-22T05:02:35.000Z</time>
      </trkpt>
      <trkpt lat="45.22456" lon="5.73693">
        <ele>1021.4000244141</ele>
        <time>2021-05-22T05:02:38.000Z</time>
      </trkpt>
      <trkpt lat="45.22466" lon="5.73692">
        <ele>1022.4000244141</ele>
        <time>2021-05-22T05:02:44.000Z</time>
      </trkpt>
      <trkpt lat="45.22471" lon="5.73693">
        <ele>1023.5999755859</ele>
        <time>2021-05-22T05:02:48.000Z</time>
      </trkpt>
      <trkpt lat="45.22473" lon="5.73693">
        <ele>1024.4000244141</ele>
        <time>2021-05-22T05:02:50.000Z</time>
      </trkpt>
      <trkpt lat="45.22475" lon="5.73693">
        <ele>1024.8000488281</ele>
        <time>2021-05-22T05:02:52.000Z</time>
      </trkpt>
      <trkpt lat="45.22475" lon="5.73693">
        <ele>1025.4000244141</ele>
        <time>2021-05-22T05:02:53.000Z</time>
      </trkpt>
      <trkpt lat="45.22477" lon="5.73693">
        <ele>1026</ele>
        <time>2021-05-22T05:02:55.000Z</time>
      </trkpt>
      <trkpt lat="45.22478" lon="5.73692">
        <ele>1026.4000244141</ele>
        <time>2021-05-22T05:02:56.000Z</time>
      </trkpt>
      <trkpt lat="45.22479" lon="5.73691">
        <ele>1026.8000488281</ele>
        <time>2021-05-22T05:02:57.000Z</time>
      </trkpt>
      <trkpt lat="45.22479" lon="5.73691">
        <ele>1027.1999511719</ele>
        <time>2021-05-22T05:02:58.000Z</time>
      </trkpt>
      <trkpt lat="45.22483" lon="5.73689">
        <ele>1028.4000244141</ele>
        <time>2021-05-22T05:03:03.000Z</time>
      </trkpt>
      <trkpt lat="45.22485" lon="5.73689">
        <ele>1029.1999511719</ele>
        <time>2021-05-22T05:03:05.000Z</time>
      </trkpt>
      <trkpt lat="45.22488" lon="5.7369">
        <ele>1029.4000244141</ele>
        <time>2021-05-22T05:03:07.000Z</time>
      </trkpt>
      <trkpt lat="45.22494" lon="5.7369">
        <ele>1030.5999755859</ele>
        <time>2021-05-22T05:03:12.000Z</time>
      </trkpt>
      <trkpt lat="45.22495" lon="5.73688">
        <ele>1030.8000488281</ele>
        <time>2021-05-22T05:03:13.000Z</time>
      </trkpt>
      <trkpt lat="45.22499" lon="5.73684">
        <ele>1031.5999755859</ele>
        <time>2021-05-22T05:03:18.000Z</time>
      </trkpt>
      <trkpt lat="45.225" lon="5.73683">
        <ele>1032</ele>
        <time>2021-05-22T05:03:19.000Z</time>
      </trkpt>
      <trkpt lat="45.22503" lon="5.73682">
        <ele>1032.1999511719</ele>
        <time>2021-05-22T05:03:21.000Z</time>
      </trkpt>
      <trkpt lat="45.22506" lon="5.73683">
        <ele>1032.8000488281</ele>
        <time>2021-05-22T05:03:23.000Z</time>
      </trkpt>
      <trkpt lat="45.22508" lon="5.73684">
        <ele>1033.4000244141</ele>
        <time>2021-05-22T05:03:26.000Z</time>
      </trkpt>
      <trkpt lat="45.22509" lon="5.73684">
        <ele>1033.8000488281</ele>
        <time>2021-05-22T05:03:27.000Z</time>
      </trkpt>
      <trkpt lat="45.22513" lon="5.73686">
        <ele>1034.4000244141</ele>
        <time>2021-05-22T05:03:30.000Z</time>
      </trkpt>
      <trkpt lat="45.22514" lon="5.73686">
        <ele>1035.1999511719</ele>
        <time>2021-05-22T05:03:32.000Z</time>
      </trkpt>
      <trkpt lat="45.22517" lon="5.73687">
        <ele>1036.4000244141</ele>
        <time>2021-05-22T05:03:36.000Z</time>
      </trkpt>
      <trkpt lat="45.22522" lon="5.73689">
        <ele>1037.5999755859</ele>
        <time>2021-05-22T05:03:41.000Z</time>
      </trkpt>
      <trkpt lat="45.22527" lon="5.73689">
        <ele>1038.1999511719</ele>
        <time>2021-05-22T05:03:44.000Z</time>
      </trkpt>
      <trkpt lat="45.22528" lon="5.73688">
        <ele>1038.5999755859</ele>
        <time>2021-05-22T05:03:46.000Z</time>
      </trkpt>
      <trkpt lat="45.22532" lon="5.73687">
        <ele>1039.1999511719</ele>
        <time>2021-05-22T05:03:48.000Z</time>
      </trkpt>
      <trkpt lat="45.22533" lon="5.73687">
        <ele>1039.4000244141</ele>
        <time>2021-05-22T05:03:49.000Z</time>
      </trkpt>
      <trkpt lat="45.22534" lon="5.73688">
        <ele>1039.8000488281</ele>
        <time>2021-05-22T05:03:51.000Z</time>
      </trkpt>
      <trkpt lat="45.22535" lon="5.73688">
        <ele>1040</ele>
        <time>2021-05-22T05:03:52.000Z</time>
      </trkpt>
      <trkpt lat="45.22538" lon="5.73689">
        <ele>1040.8000488281</ele>
        <time>2021-05-22T05:03:55.000Z</time>
      </trkpt>
      <trkpt lat="45.22544" lon="5.73692">
        <ele>1042</ele>
        <time>2021-05-22T05:04:00.000Z</time>
      </trkpt>
      <trkpt lat="45.22544" lon="5.73692">
        <ele>1042.1999511719</ele>
        <time>2021-05-22T05:04:01.000Z</time>
      </trkpt>
      <trkpt lat="45.22548" lon="5.73693">
        <ele>1043</ele>
        <time>2021-05-22T05:04:04.000Z</time>
      </trkpt>
      <trkpt lat="45.22549" lon="5.73694">
        <ele>1043.1999511719</ele>
        <time>2021-05-22T05:04:05.000Z</time>
      </trkpt>
      <trkpt lat="45.22552" lon="5.73696">
        <ele>1044.4000244141</ele>
        <time>2021-05-22T05:04:09.000Z</time>
      </trkpt>
      <trkpt lat="45.22555" lon="5.73697">
        <ele>1044.8000488281</ele>
        <time>2021-05-22T05:04:11.000Z</time>
      </trkpt>
      <trkpt lat="45.22556" lon="5.73698">
        <ele>1045</ele>
        <time>2021-05-22T05:04:12.000Z</time>
      </trkpt>
      <trkpt lat="45.2256" lon="5.73701">
        <ele>1045.4000244141</ele>
        <time>2021-05-22T05:04:14.000Z</time>
      </trkpt>
      <trkpt lat="45.2257" lon="5.7371">
        <ele>1046.1999511719</ele>
        <time>2021-05-22T05:04:21.000Z</time>
      </trkpt>
      <trkpt lat="45.22572" lon="5.7371">
        <ele>1046.1999511719</ele>
        <time>2021-05-22T05:04:22.000Z</time>
      </trkpt>
      <trkpt lat="45.22576" lon="5.73711">
        <ele>1046.5999755859</ele>
        <time>2021-05-22T05:04:24.000Z</time>
      </trkpt>
      <trkpt lat="45.22581" lon="5.73711">
        <ele>1047.1999511719</ele>
        <time>2021-05-22T05:04:27.000Z</time>
      </trkpt>
      <trkpt lat="45.22587" lon="5.73713">
        <ele>1047.5999755859</ele>
        <time>2021-05-22T05:04:31.000Z</time>
      </trkpt>
      <trkpt lat="45.2259" lon="5.73715">
        <ele>1048.8000488281</ele>
        <time>2021-05-22T05:04:35.000Z</time>
      </trkpt>
      <trkpt lat="45.22595" lon="5.73718">
        <ele>1050.4000244141</ele>
        <time>2021-05-22T05:04:41.000Z</time>
      </trkpt>
      <trkpt lat="45.22598" lon="5.73718">
        <ele>1051</ele>
        <time>2021-05-22T05:04:44.000Z</time>
      </trkpt>
      <trkpt lat="45.22599" lon="5.7372">
        <ele>1051.5999755859</ele>
        <time>2021-05-22T05:04:46.000Z</time>
      </trkpt>
      <trkpt lat="45.22603" lon="5.73723">
        <ele>1052.4000244141</ele>
        <time>2021-05-22T05:04:50.000Z</time>
      </trkpt>
      <trkpt lat="45.22606" lon="5.73724">
        <ele>1052.5999755859</ele>
        <time>2021-05-22T05:04:52.000Z</time>
      </trkpt>
      <trkpt lat="45.22616" lon="5.73733">
        <ele>1053.5999755859</ele>
        <time>2021-05-22T05:04:57.000Z</time>
      </trkpt>
      <trkpt lat="45.22618" lon="5.73735">
        <ele>1054</ele>
        <time>2021-05-22T05:04:58.000Z</time>
      </trkpt>
      <trkpt lat="45.22625" lon="5.73739">
        <ele>1054.4000244141</ele>
        <time>2021-05-22T05:05:03.000Z</time>
      </trkpt>
      <trkpt lat="45.22626" lon="5.7374">
        <ele>1054.4000244141</ele>
        <time>2021-05-22T05:05:04.000Z</time>
      </trkpt>
      <trkpt lat="45.22634" lon="5.73748">
        <ele>1054.1999511719</ele>
        <time>2021-05-22T05:05:10.000Z</time>
      </trkpt>
      <trkpt lat="45.22636" lon="5.7375">
        <ele>1054</ele>
        <time>2021-05-22T05:05:12.000Z</time>
      </trkpt>
      <trkpt lat="45.22647" lon="5.73763">
        <ele>1054.1999511719</ele>
        <time>2021-05-22T05:05:18.000Z</time>
      </trkpt>
      <trkpt lat="45.22655" lon="5.73767">
        <ele>1054.8000488281</ele>
        <time>2021-05-22T05:05:24.000Z</time>
      </trkpt>
      <trkpt lat="45.22655" lon="5.73767">
        <ele>1055.4000244141</ele>
        <time>2021-05-22T05:05:25.000Z</time>
      </trkpt>
      <trkpt lat="45.22659" lon="5.73768">
        <ele>1056.4000244141</ele>
        <time>2021-05-22T05:05:29.000Z</time>
      </trkpt>
      <trkpt lat="45.22661" lon="5.73769">
        <ele>1057.1999511719</ele>
        <time>2021-05-22T05:05:31.000Z</time>
      </trkpt>
      <trkpt lat="45.22663" lon="5.73771">
        <ele>1057.4000244141</ele>
        <time>2021-05-22T05:05:32.000Z</time>
      </trkpt>
      <trkpt lat="45.22669" lon="5.73778">
        <ele>1058.5999755859</ele>
        <time>2021-05-22T05:05:37.000Z</time>
      </trkpt>
      <trkpt lat="45.2267" lon="5.7378">
        <ele>1059</ele>
        <time>2021-05-22T05:05:38.000Z</time>
      </trkpt>
      <trkpt lat="45.2268" lon="5.7379">
        <ele>1059</ele>
        <time>2021-05-22T05:05:45.000Z</time>
      </trkpt>
      <trkpt lat="45.22681" lon="5.7379">
        <ele>1059</ele>
        <time>2021-05-22T05:05:46.000Z</time>
      </trkpt>
      <trkpt lat="45.22685" lon="5.73791">
        <ele>1059.5999755859</ele>
        <time>2021-05-22T05:05:49.000Z</time>
      </trkpt>
      <trkpt lat="45.22687" lon="5.73791">
        <ele>1059.5999755859</ele>
        <time>2021-05-22T05:05:50.000Z</time>
      </trkpt>
      <trkpt lat="45.22692" lon="5.73791">
        <ele>1060.1999511719</ele>
        <time>2021-05-22T05:05:53.000Z</time>
      </trkpt>
      <trkpt lat="45.22701" lon="5.73795">
        <ele>1060.5999755859</ele>
        <time>2021-05-22T05:05:58.000Z</time>
      </trkpt>
      <trkpt lat="45.22708" lon="5.738">
        <ele>1060.4000244141</ele>
        <time>2021-05-22T05:06:01.000Z</time>
      </trkpt>
      <trkpt lat="45.2271" lon="5.73801">
        <ele>1060.4000244141</ele>
        <time>2021-05-22T05:06:02.000Z</time>
      </trkpt>
      <trkpt lat="45.22723" lon="5.73805">
        <ele>1059.5999755859</ele>
        <time>2021-05-22T05:06:08.000Z</time>
      </trkpt>
      <trkpt lat="45.2274" lon="5.73814">
        <ele>1059.1999511719</ele>
        <time>2021-05-22T05:06:15.000Z</time>
      </trkpt>
      <trkpt lat="45.22742" lon="5.73816">
        <ele>1059.1999511719</ele>
        <time>2021-05-22T05:06:16.000Z</time>
      </trkpt>
      <trkpt lat="45.22757" lon="5.73824">
        <ele>1059.1999511719</ele>
        <time>2021-05-22T05:06:23.000Z</time>
      </trkpt>
      <trkpt lat="45.22759" lon="5.73826">
        <ele>1059.4000244141</ele>
        <time>2021-05-22T05:06:24.000Z</time>
      </trkpt>
      <trkpt lat="45.22767" lon="5.73832">
        <ele>1059.4000244141</ele>
        <time>2021-05-22T05:06:28.000Z</time>
      </trkpt>
      <trkpt lat="45.22774" lon="5.73835">
        <ele>1059</ele>
        <time>2021-05-22T05:06:31.000Z</time>
      </trkpt>
      <trkpt lat="45.22779" lon="5.73836">
        <ele>1058.5999755859</ele>
        <time>2021-05-22T05:06:33.000Z</time>
      </trkpt>
      <trkpt lat="45.22781" lon="5.73838">
        <ele>1058.4000244141</ele>
        <time>2021-05-22T05:06:34.000Z</time>
      </trkpt>
      <trkpt lat="45.22789" lon="5.73843">
        <ele>1058</ele>
        <time>2021-05-22T05:06:38.000Z</time>
      </trkpt>
      <trkpt lat="45.22795" lon="5.73846">
        <ele>1057.4000244141</ele>
        <time>2021-05-22T05:06:41.000Z</time>
      </trkpt>
      <trkpt lat="45.22801" lon="5.73848">
        <ele>1056.4000244141</ele>
        <time>2021-05-22T05:06:44.000Z</time>
      </trkpt>
      <trkpt lat="45.22809" lon="5.7385">
        <ele>1055.1999511719</ele>
        <time>2021-05-22T05:06:47.000Z</time>
      </trkpt>
      <trkpt lat="45.22822" lon="5.73855">
        <ele>1054.1999511719</ele>
        <time>2021-05-22T05:06:52.000Z</time>
      </trkpt>
      <trkpt lat="45.22831" lon="5.73858">
        <ele>1053.5999755859</ele>
        <time>2021-05-22T05:06:56.000Z</time>
      </trkpt>
      <trkpt lat="45.2284" lon="5.7386">
        <ele>1053</ele>
        <time>2021-05-22T05:07:00.000Z</time>
      </trkpt>
      <trkpt lat="45.22848" lon="5.73865">
        <ele>1052.4000244141</ele>
        <time>2021-05-22T05:07:03.000Z</time>
      </trkpt>
      <trkpt lat="45.22861" lon="5.73869">
        <ele>1052</ele>
        <time>2021-05-22T05:07:07.000Z</time>
      </trkpt>
      <trkpt lat="45.22865" lon="5.73868">
        <ele>1051.8000488281</ele>
        <time>2021-05-22T05:07:08.000Z</time>
      </trkpt>
      <trkpt lat="45.22875" lon="5.73862">
        <ele>1051.5999755859</ele>
        <time>2021-05-22T05:07:12.000Z</time>
      </trkpt>
      <trkpt lat="45.22889" lon="5.73859">
        <ele>1051.1999511719</ele>
        <time>2021-05-22T05:07:18.000Z</time>
      </trkpt>
      <trkpt lat="45.22892" lon="5.73859">
        <ele>1051.1999511719</ele>
        <time>2021-05-22T05:07:19.000Z</time>
      </trkpt>
      <trkpt lat="45.22898" lon="5.73858">
        <ele>1050.8000488281</ele>
        <time>2021-05-22T05:07:21.000Z</time>
      </trkpt>
      <trkpt lat="45.2291" lon="5.73856">
        <ele>1050.1999511719</ele>
        <time>2021-05-22T05:07:25.000Z</time>
      </trkpt>
      <trkpt lat="45.22912" lon="5.73855">
        <ele>1050</ele>
        <time>2021-05-22T05:07:26.000Z</time>
      </trkpt>
      <trkpt lat="45.2292" lon="5.73856">
        <ele>1049.5999755859</ele>
        <time>2021-05-22T05:07:29.000Z</time>
      </trkpt>
      <trkpt lat="45.22932" lon="5.73856">
        <ele>1049</ele>
        <time>2021-05-22T05:07:33.000Z</time>
      </trkpt>
      <trkpt lat="45.22937" lon="5.73858">
        <ele>1048.4000244141</ele>
        <time>2021-05-22T05:07:35.000Z</time>
      </trkpt>
      <trkpt lat="45.2294" lon="5.7386">
        <ele>1048</ele>
        <time>2021-05-22T05:07:37.000Z</time>
      </trkpt>
      <trkpt lat="45.2294" lon="5.7387">
        <ele>1047.4000244141</ele>
        <time>2021-05-22T05:07:41.000Z</time>
      </trkpt>
      <trkpt lat="45.22945" lon="5.73883">
        <ele>1045.5999755859</ele>
        <time>2021-05-22T05:07:45.000Z</time>
      </trkpt>
      <trkpt lat="45.22947" lon="5.73892">
        <ele>1044.4000244141</ele>
        <time>2021-05-22T05:07:47.000Z</time>
      </trkpt>
      <trkpt lat="45.22948" lon="5.73897">
        <ele>1044.1999511719</ele>
        <time>2021-05-22T05:07:48.000Z</time>
      </trkpt>
      <trkpt lat="45.22949" lon="5.73906">
        <ele>1043.1999511719</ele>
        <time>2021-05-22T05:07:50.000Z</time>
      </trkpt>
      <trkpt lat="45.22952" lon="5.73915">
        <ele>1042.1999511719</ele>
        <time>2021-05-22T05:07:52.000Z</time>
      </trkpt>
      <trkpt lat="45.22953" lon="5.73919">
        <ele>1042</ele>
        <time>2021-05-22T05:07:53.000Z</time>
      </trkpt>
      <trkpt lat="45.22954" lon="5.73922">
        <ele>1041.8000488281</ele>
        <time>2021-05-22T05:07:54.000Z</time>
      </trkpt>
      <trkpt lat="45.22956" lon="5.73926">
        <ele>1041.8000488281</ele>
        <time>2021-05-22T05:07:55.000Z</time>
      </trkpt>
      <trkpt lat="45.22959" lon="5.73935">
        <ele>1041.8000488281</ele>
        <time>2021-05-22T05:07:58.000Z</time>
      </trkpt>
      <trkpt lat="45.22961" lon="5.73939">
        <ele>1042</ele>
        <time>2021-05-22T05:07:59.000Z</time>
      </trkpt>
      <trkpt lat="45.22969" lon="5.73952">
        <ele>1042.1999511719</ele>
        <time>2021-05-22T05:08:04.000Z</time>
      </trkpt>
      <trkpt lat="45.22977" lon="5.7396">
        <ele>1042.4000244141</ele>
        <time>2021-05-22T05:08:08.000Z</time>
      </trkpt>
      <trkpt lat="45.22979" lon="5.73961">
        <ele>1042.4000244141</ele>
        <time>2021-05-22T05:08:09.000Z</time>
      </trkpt>
      <trkpt lat="45.22998" lon="5.73965">
        <ele>1043.1999511719</ele>
        <time>2021-05-22T05:08:17.000Z</time>
      </trkpt>
      <trkpt lat="45.23017" lon="5.73969">
        <ele>1043.8000488281</ele>
        <time>2021-05-22T05:08:26.000Z</time>
      </trkpt>
      <trkpt lat="45.23022" lon="5.7397">
        <ele>1043.8000488281</ele>
        <time>2021-05-22T05:08:28.000Z</time>
      </trkpt>
      <trkpt lat="45.23039" lon="5.73972">
        <ele>1044</ele>
        <time>2021-05-22T05:08:35.000Z</time>
      </trkpt>
      <trkpt lat="45.23048" lon="5.73967">
        <ele>1044.1999511719</ele>
        <time>2021-05-22T05:08:39.000Z</time>
      </trkpt>
      <trkpt lat="45.23054" lon="5.73962">
        <ele>1044.8000488281</ele>
        <time>2021-05-22T05:08:42.000Z</time>
      </trkpt>
      <trkpt lat="45.23059" lon="5.73959">
        <ele>1045.4000244141</ele>
        <time>2021-05-22T05:08:45.000Z</time>
      </trkpt>
      <trkpt lat="45.23061" lon="5.73958">
        <ele>1045.5999755859</ele>
        <time>2021-05-22T05:08:46.000Z</time>
      </trkpt>
      <trkpt lat="45.23063" lon="5.73959">
        <ele>1045.8000488281</ele>
        <time>2021-05-22T05:08:47.000Z</time>
      </trkpt>
      <trkpt lat="45.23067" lon="5.73959">
        <ele>1046</ele>
        <time>2021-05-22T05:08:49.000Z</time>
      </trkpt>
      <trkpt lat="45.23071" lon="5.7396">
        <ele>1046.5999755859</ele>
        <time>2021-05-22T05:08:51.000Z</time>
      </trkpt>
      <trkpt lat="45.23076" lon="5.7396">
        <ele>1047.8000488281</ele>
        <time>2021-05-22T05:08:54.000Z</time>
      </trkpt>
      <trkpt lat="45.23081" lon="5.73962">
        <ele>1048.8000488281</ele>
        <time>2021-05-22T05:08:57.000Z</time>
      </trkpt>
      <trkpt lat="45.23083" lon="5.73963">
        <ele>1049</ele>
        <time>2021-05-22T05:08:58.000Z</time>
      </trkpt>
      <trkpt lat="45.23089" lon="5.73969">
        <ele>1050</ele>
        <time>2021-05-22T05:09:02.000Z</time>
      </trkpt>
      <trkpt lat="45.23093" lon="5.73971">
        <ele>1050.4000244141</ele>
        <time>2021-05-22T05:09:05.000Z</time>
      </trkpt>
      <trkpt lat="45.23097" lon="5.73971">
        <ele>1050.4000244141</ele>
        <time>2021-05-22T05:09:08.000Z</time>
      </trkpt>
      <trkpt lat="45.23106" lon="5.73974">
        <ele>1050.5999755859</ele>
        <time>2021-05-22T05:09:13.000Z</time>
      </trkpt>
      <trkpt lat="45.23109" lon="5.73973">
        <ele>1050.5999755859</ele>
        <time>2021-05-22T05:09:15.000Z</time>
      </trkpt>
      <trkpt lat="45.23124" lon="5.7397">
        <ele>1051.1999511719</ele>
        <time>2021-05-22T05:09:23.000Z</time>
      </trkpt>
      <trkpt lat="45.23127" lon="5.7397">
        <ele>1051.4000244141</ele>
        <time>2021-05-22T05:09:25.000Z</time>
      </trkpt>
      <trkpt lat="45.23139" lon="5.73972">
        <ele>1052.4000244141</ele>
        <time>2021-05-22T05:09:31.000Z</time>
      </trkpt>
      <trkpt lat="45.23144" lon="5.73974">
        <ele>1052.1999511719</ele>
        <time>2021-05-22T05:09:33.000Z</time>
      </trkpt>
      <trkpt lat="45.23161" lon="5.73982">
        <ele>1051.5999755859</ele>
        <time>2021-05-22T05:09:40.000Z</time>
      </trkpt>
      <trkpt lat="45.23167" lon="5.73984">
        <ele>1051</ele>
        <time>2021-05-22T05:09:43.000Z</time>
      </trkpt>
      <trkpt lat="45.23176" lon="5.73988">
        <ele>1050.1999511719</ele>
        <time>2021-05-22T05:09:47.000Z</time>
      </trkpt>
      <trkpt lat="45.23178" lon="5.73989">
        <ele>1049.8000488281</ele>
        <time>2021-05-22T05:09:48.000Z</time>
      </trkpt>
      <trkpt lat="45.2319" lon="5.73993">
        <ele>1048.8000488281</ele>
        <time>2021-05-22T05:09:53.000Z</time>
      </trkpt>
      <trkpt lat="45.23196" lon="5.73998">
        <ele>1048.4000244141</ele>
        <time>2021-05-22T05:09:56.000Z</time>
      </trkpt>
      <trkpt lat="45.23202" lon="5.74006">
        <ele>1047.5999755859</ele>
        <time>2021-05-22T05:09:59.000Z</time>
      </trkpt>
      <trkpt lat="45.2321" lon="5.74013">
        <ele>1047.4000244141</ele>
        <time>2021-05-22T05:10:03.000Z</time>
      </trkpt>
      <trkpt lat="45.23216" lon="5.74017">
        <ele>1047.1999511719</ele>
        <time>2021-05-22T05:10:06.000Z</time>
      </trkpt>
      <trkpt lat="45.23221" lon="5.74024">
        <ele>1047.5999755859</ele>
        <time>2021-05-22T05:10:09.000Z</time>
      </trkpt>
      <trkpt lat="45.23224" lon="5.74032">
        <ele>1047.8000488281</ele>
        <time>2021-05-22T05:10:12.000Z</time>
      </trkpt>
      <trkpt lat="45.23224" lon="5.74038">
        <ele>1048.1999511719</ele>
        <time>2021-05-22T05:10:14.000Z</time>
      </trkpt>
      <trkpt lat="45.23224" lon="5.74046">
        <ele>1048.8000488281</ele>
        <time>2021-05-22T05:10:16.000Z</time>
      </trkpt>
      <trkpt lat="45.23225" lon="5.74055">
        <ele>1050</ele>
        <time>2021-05-22T05:10:19.000Z</time>
      </trkpt>
      <trkpt lat="45.23225" lon="5.7406">
        <ele>1050.1999511719</ele>
        <time>2021-05-22T05:10:21.000Z</time>
      </trkpt>
      <trkpt lat="45.23225" lon="5.74069">
        <ele>1050.8000488281</ele>
        <time>2021-05-22T05:10:24.000Z</time>
      </trkpt>
      <trkpt lat="45.23225" lon="5.74072">
        <ele>1050.8000488281</ele>
        <time>2021-05-22T05:10:25.000Z</time>
      </trkpt>
      <trkpt lat="45.23224" lon="5.74081">
        <ele>1051</ele>
        <time>2021-05-22T05:10:28.000Z</time>
      </trkpt>
      <trkpt lat="45.23223" lon="5.74086">
        <ele>1051</ele>
        <time>2021-05-22T05:10:30.000Z</time>
      </trkpt>
      <trkpt lat="45.23222" lon="5.74091">
        <ele>1051</ele>
        <time>2021-05-22T05:10:32.000Z</time>
      </trkpt>
      <trkpt lat="45.23222" lon="5.74096">
        <ele>1051.1999511719</ele>
        <time>2021-05-22T05:10:34.000Z</time>
      </trkpt>
      <trkpt lat="45.23224" lon="5.74103">
        <ele>1051</ele>
        <time>2021-05-22T05:10:38.000Z</time>
      </trkpt>
      <trkpt lat="45.23224" lon="5.74104">
        <ele>1050.8000488281</ele>
        <time>2021-05-22T05:10:39.000Z</time>
      </trkpt>
      <trkpt lat="45.23234" lon="5.74114">
        <ele>1050.1999511719</ele>
        <time>2021-05-22T05:10:45.000Z</time>
      </trkpt>
      <trkpt lat="45.23246" lon="5.74121">
        <ele>1050.1999511719</ele>
        <time>2021-05-22T05:10:50.000Z</time>
      </trkpt>
      <trkpt lat="45.23259" lon="5.74131">
        <ele>1051</ele>
        <time>2021-05-22T05:10:56.000Z</time>
      </trkpt>
      <trkpt lat="45.23273" lon="5.74143">
        <ele>1051.1999511719</ele>
        <time>2021-05-22T05:11:02.000Z</time>
      </trkpt>
      <trkpt lat="45.23282" lon="5.7416">
        <ele>1050.5999755859</ele>
        <time>2021-05-22T05:11:07.000Z</time>
      </trkpt>
      <trkpt lat="45.23285" lon="5.74165">
        <ele>1050.4000244141</ele>
        <time>2021-05-22T05:11:08.000Z</time>
      </trkpt>
      <trkpt lat="45.23288" lon="5.7417">
        <ele>1050</ele>
        <time>2021-05-22T05:11:11.000Z</time>
      </trkpt>
      <trkpt lat="45.23296" lon="5.74178">
        <ele>1049.4000244141</ele>
        <time>2021-05-22T05:11:15.000Z</time>
      </trkpt>
      <trkpt lat="45.23307" lon="5.74186">
        <ele>1048.8000488281</ele>
        <time>2021-05-22T05:11:20.000Z</time>
      </trkpt>
      <trkpt lat="45.23309" lon="5.74188">
        <ele>1048.8000488281</ele>
        <time>2021-05-22T05:11:21.000Z</time>
      </trkpt>
      <trkpt lat="45.23324" lon="5.74197">
        <ele>1048.8000488281</ele>
        <time>2021-05-22T05:11:28.000Z</time>
      </trkpt>
      <trkpt lat="45.23338" lon="5.74207">
        <ele>1048.8000488281</ele>
        <time>2021-05-22T05:11:34.000Z</time>
      </trkpt>
      <trkpt lat="45.23352" lon="5.74215">
        <ele>1048.5999755859</ele>
        <time>2021-05-22T05:11:41.000Z</time>
      </trkpt>
      <trkpt lat="45.23359" lon="5.7422">
        <ele>1048.8000488281</ele>
        <time>2021-05-22T05:11:44.000Z</time>
      </trkpt>
      <trkpt lat="45.23364" lon="5.74225">
        <ele>1048.5999755859</ele>
        <time>2021-05-22T05:11:47.000Z</time>
      </trkpt>
      <trkpt lat="45.23373" lon="5.74231">
        <ele>1047.8000488281</ele>
        <time>2021-05-22T05:11:51.000Z</time>
      </trkpt>
      <trkpt lat="45.23377" lon="5.74236">
        <ele>1047.8000488281</ele>
        <time>2021-05-22T05:11:53.000Z</time>
      </trkpt>
      <trkpt lat="45.23378" lon="5.74238">
        <ele>1047.8000488281</ele>
        <time>2021-05-22T05:11:54.000Z</time>
      </trkpt>
      <trkpt lat="45.23379" lon="5.74247">
        <ele>1047.4000244141</ele>
        <time>2021-05-22T05:11:57.000Z</time>
      </trkpt>
      <trkpt lat="45.23381" lon="5.7426">
        <ele>1046.4000244141</ele>
        <time>2021-05-22T05:12:00.000Z</time>
      </trkpt>
      <trkpt lat="45.23382" lon="5.74266">
        <ele>1045.5999755859</ele>
        <time>2021-05-22T05:12:02.000Z</time>
      </trkpt>
      <trkpt lat="45.23384" lon="5.7427">
        <ele>1045</ele>
        <time>2021-05-22T05:12:03.000Z</time>
      </trkpt>
      <trkpt lat="45.23385" lon="5.74275">
        <ele>1043.8000488281</ele>
        <time>2021-05-22T05:12:05.000Z</time>
      </trkpt>
      <trkpt lat="45.23384" lon="5.74283">
        <ele>1043</ele>
        <time>2021-05-22T05:12:07.000Z</time>
      </trkpt>
      <trkpt lat="45.23384" lon="5.74286">
        <ele>1042.4000244141</ele>
        <time>2021-05-22T05:12:08.000Z</time>
      </trkpt>
      <trkpt lat="45.23382" lon="5.74296">
        <ele>1041.4000244141</ele>
        <time>2021-05-22T05:12:11.000Z</time>
      </trkpt>
      <trkpt lat="45.23382" lon="5.74301">
        <ele>1040.8000488281</ele>
        <time>2021-05-22T05:12:12.000Z</time>
      </trkpt>
      <trkpt lat="45.23382" lon="5.74317">
        <ele>1039.8000488281</ele>
        <time>2021-05-22T05:12:17.000Z</time>
      </trkpt>
      <trkpt lat="45.23386" lon="5.74337">
        <ele>1038.8000488281</ele>
        <time>2021-05-22T05:12:23.000Z</time>
      </trkpt>
      <trkpt lat="45.23387" lon="5.74339">
        <ele>1038.8000488281</ele>
        <time>2021-05-22T05:12:24.000Z</time>
      </trkpt>
      <trkpt lat="45.23391" lon="5.7435">
        <ele>1037.5999755859</ele>
        <time>2021-05-22T05:12:28.000Z</time>
      </trkpt>
      <trkpt lat="45.23392" lon="5.74354">
        <ele>1036.8000488281</ele>
        <time>2021-05-22T05:12:30.000Z</time>
      </trkpt>
      <trkpt lat="45.23389" lon="5.7436">
        <ele>1036.5999755859</ele>
        <time>2021-05-22T05:12:31.000Z</time>
      </trkpt>
      <trkpt lat="45.23386" lon="5.74361">
        <ele>1035.8000488281</ele>
        <time>2021-05-22T05:12:33.000Z</time>
      </trkpt>
      <trkpt lat="45.23384" lon="5.74363">
        <ele>1035.1999511719</ele>
        <time>2021-05-22T05:12:34.000Z</time>
      </trkpt>
      <trkpt lat="45.23366" lon="5.74374">
        <ele>1034.1999511719</ele>
        <time>2021-05-22T05:12:39.000Z</time>
      </trkpt>
      <trkpt lat="45.23355" lon="5.74378">
        <ele>1033.1999511719</ele>
        <time>2021-05-22T05:12:42.000Z</time>
      </trkpt>
      <trkpt lat="45.23353" lon="5.74378">
        <ele>1032.8000488281</ele>
        <time>2021-05-22T05:12:43.000Z</time>
      </trkpt>
      <trkpt lat="45.2334" lon="5.74382">
        <ele>1032</ele>
        <time>2021-05-22T05:12:47.000Z</time>
      </trkpt>
      <trkpt lat="45.2333" lon="5.7438">
        <ele>1031.4000244141</ele>
        <time>2021-05-22T05:12:50.000Z</time>
      </trkpt>
      <trkpt lat="45.23324" lon="5.74378">
        <ele>1030.8000488281</ele>
        <time>2021-05-22T05:12:52.000Z</time>
      </trkpt>
      <trkpt lat="45.23316" lon="5.74374">
        <ele>1029.4000244141</ele>
        <time>2021-05-22T05:12:56.000Z</time>
      </trkpt>
      <trkpt lat="45.23306" lon="5.74369">
        <ele>1028.5999755859</ele>
        <time>2021-05-22T05:13:00.000Z</time>
      </trkpt>
      <trkpt lat="45.23304" lon="5.74367">
        <ele>1028</ele>
        <time>2021-05-22T05:13:01.000Z</time>
      </trkpt>
      <trkpt lat="45.23296" lon="5.74363">
        <ele>1027.1999511719</ele>
        <time>2021-05-22T05:13:04.000Z</time>
      </trkpt>
      <trkpt lat="45.23294" lon="5.74361">
        <ele>1026.8000488281</ele>
        <time>2021-05-22T05:13:05.000Z</time>
      </trkpt>
      <trkpt lat="45.23285" lon="5.74355">
        <ele>1025.5999755859</ele>
        <time>2021-05-22T05:13:09.000Z</time>
      </trkpt>
      <trkpt lat="45.23282" lon="5.74353">
        <ele>1025.4000244141</ele>
        <time>2021-05-22T05:13:10.000Z</time>
      </trkpt>
      <trkpt lat="45.23272" lon="5.74348">
        <ele>1024.4000244141</ele>
        <time>2021-05-22T05:13:14.000Z</time>
      </trkpt>
      <trkpt lat="45.23265" lon="5.74343">
        <ele>1023.4000244141</ele>
        <time>2021-05-22T05:13:17.000Z</time>
      </trkpt>
      <trkpt lat="45.23263" lon="5.74341">
        <ele>1023.200012207</ele>
        <time>2021-05-22T05:13:18.000Z</time>
      </trkpt>
      <trkpt lat="45.23254" lon="5.74333">
        <ele>1022</ele>
        <time>2021-05-22T05:13:22.000Z</time>
      </trkpt>
      <trkpt lat="45.23247" lon="5.74328">
        <ele>1021.200012207</ele>
        <time>2021-05-22T05:13:25.000Z</time>
      </trkpt>
      <trkpt lat="45.23245" lon="5.74327">
        <ele>1021</ele>
        <time>2021-05-22T05:13:26.000Z</time>
      </trkpt>
      <trkpt lat="45.2324" lon="5.74325">
        <ele>1020.200012207</ele>
        <time>2021-05-22T05:13:28.000Z</time>
      </trkpt>
      <trkpt lat="45.23237" lon="5.74324">
        <ele>1019.799987793</ele>
        <time>2021-05-22T05:13:29.000Z</time>
      </trkpt>
      <trkpt lat="45.23231" lon="5.74323">
        <ele>1019</ele>
        <time>2021-05-22T05:13:31.000Z</time>
      </trkpt>
      <trkpt lat="45.23226" lon="5.74321">
        <ele>1018.5999755859</ele>
        <time>2021-05-22T05:13:33.000Z</time>
      </trkpt>
      <trkpt lat="45.23224" lon="5.74321">
        <ele>1018.4000244141</ele>
        <time>2021-05-22T05:13:34.000Z</time>
      </trkpt>
      <trkpt lat="45.23216" lon="5.74317">
        <ele>1017.799987793</ele>
        <time>2021-05-22T05:13:37.000Z</time>
      </trkpt>
      <trkpt lat="45.23214" lon="5.74316">
        <ele>1017.4000244141</ele>
        <time>2021-05-22T05:13:38.000Z</time>
      </trkpt>
      <trkpt lat="45.23207" lon="5.74314">
        <ele>1016.200012207</ele>
        <time>2021-05-22T05:13:41.000Z</time>
      </trkpt>
      <trkpt lat="45.23202" lon="5.74312">
        <ele>1015.4000244141</ele>
        <time>2021-05-22T05:13:43.000Z</time>
      </trkpt>
      <trkpt lat="45.232" lon="5.74312">
        <ele>1015.200012207</ele>
        <time>2021-05-22T05:13:44.000Z</time>
      </trkpt>
      <trkpt lat="45.23198" lon="5.74311">
        <ele>1014.799987793</ele>
        <time>2021-05-22T05:13:45.000Z</time>
      </trkpt>
      <trkpt lat="45.23194" lon="5.7431">
        <ele>1014</ele>
        <time>2021-05-22T05:13:47.000Z</time>
      </trkpt>
      <trkpt lat="45.23184" lon="5.74306">
        <ele>1013</ele>
        <time>2021-05-22T05:13:51.000Z</time>
      </trkpt>
      <trkpt lat="45.23181" lon="5.74305">
        <ele>1012.799987793</ele>
        <time>2021-05-22T05:13:52.000Z</time>
      </trkpt>
      <trkpt lat="45.23169" lon="5.74304">
        <ele>1011.799987793</ele>
        <time>2021-05-22T05:13:56.000Z</time>
      </trkpt>
      <trkpt lat="45.23163" lon="5.74302">
        <ele>1011.4000244141</ele>
        <time>2021-05-22T05:13:58.000Z</time>
      </trkpt>
      <trkpt lat="45.23159" lon="5.74301">
        <ele>1010.5999755859</ele>
        <time>2021-05-22T05:14:00.000Z</time>
      </trkpt>
      <trkpt lat="45.23151" lon="5.74299">
        <ele>1009.799987793</ele>
        <time>2021-05-22T05:14:03.000Z</time>
      </trkpt>
      <trkpt lat="45.23148" lon="5.74297">
        <ele>1009.4000244141</ele>
        <time>2021-05-22T05:14:04.000Z</time>
      </trkpt>
      <trkpt lat="45.23141" lon="5.74295">
        <ele>1008.5999755859</ele>
        <time>2021-05-22T05:14:07.000Z</time>
      </trkpt>
      <trkpt lat="45.23138" lon="5.74294">
        <ele>1008.200012207</ele>
        <time>2021-05-22T05:14:08.000Z</time>
      </trkpt>
      <trkpt lat="45.23134" lon="5.74292">
        <ele>1007.5999755859</ele>
        <time>2021-05-22T05:14:10.000Z</time>
      </trkpt>
      <trkpt lat="45.23129" lon="5.74291">
        <ele>1007</ele>
        <time>2021-05-22T05:14:12.000Z</time>
      </trkpt>
      <trkpt lat="45.23123" lon="5.74289">
        <ele>1005.799987793</ele>
        <time>2021-05-22T05:14:15.000Z</time>
      </trkpt>
      <trkpt lat="45.23115" lon="5.74286">
        <ele>1005.200012207</ele>
        <time>2021-05-22T05:14:18.000Z</time>
      </trkpt>
      <trkpt lat="45.2311" lon="5.74285">
        <ele>1004.799987793</ele>
        <time>2021-05-22T05:14:20.000Z</time>
      </trkpt>
      <trkpt lat="45.23097" lon="5.74281">
        <ele>1003.5999755859</ele>
        <time>2021-05-22T05:14:24.000Z</time>
      </trkpt>
      <trkpt lat="45.23097" lon="5.74281">
        <ele>1003.200012207</ele>
        <time>2021-05-22T05:14:25.000Z</time>
      </trkpt>
      <trkpt lat="45.23092" lon="5.74278">
        <ele>1002.4000244141</ele>
        <time>2021-05-22T05:14:27.000Z</time>
      </trkpt>
      <trkpt lat="45.2308" lon="5.74272">
        <ele>1001.200012207</ele>
        <time>2021-05-22T05:14:32.000Z</time>
      </trkpt>
      <trkpt lat="45.23077" lon="5.74271">
        <ele>1000.799987793</ele>
        <time>2021-05-22T05:14:33.000Z</time>
      </trkpt>
      <trkpt lat="45.23071" lon="5.74266">
        <ele>1000</ele>
        <time>2021-05-22T05:14:36.000Z</time>
      </trkpt>
      <trkpt lat="45.23063" lon="5.74264">
        <ele>999.40002441406</ele>
        <time>2021-05-22T05:14:39.000Z</time>
      </trkpt>
      <trkpt lat="45.23058" lon="5.74261">
        <ele>998.79998779297</ele>
        <time>2021-05-22T05:14:41.000Z</time>
      </trkpt>
      <trkpt lat="45.23047" lon="5.74257">
        <ele>997.59997558594</ele>
        <time>2021-05-22T05:14:45.000Z</time>
      </trkpt>
      <trkpt lat="45.23037" lon="5.74254">
        <ele>996.59997558594</ele>
        <time>2021-05-22T05:14:49.000Z</time>
      </trkpt>
      <trkpt lat="45.23032" lon="5.74253">
        <ele>995.79998779297</ele>
        <time>2021-05-22T05:14:51.000Z</time>
      </trkpt>
      <trkpt lat="45.23027" lon="5.74251">
        <ele>995.20001220703</ele>
        <time>2021-05-22T05:14:53.000Z</time>
      </trkpt>
      <trkpt lat="45.2302" lon="5.74248">
        <ele>994.20001220703</ele>
        <time>2021-05-22T05:14:56.000Z</time>
      </trkpt>
      <trkpt lat="45.23014" lon="5.74247">
        <ele>993.59997558594</ele>
        <time>2021-05-22T05:14:58.000Z</time>
      </trkpt>
      <trkpt lat="45.23008" lon="5.74247">
        <ele>993</ele>
        <time>2021-05-22T05:15:00.000Z</time>
      </trkpt>
      <trkpt lat="45.23003" lon="5.74245">
        <ele>992.59997558594</ele>
        <time>2021-05-22T05:15:02.000Z</time>
      </trkpt>
      <trkpt lat="45.22994" lon="5.74241">
        <ele>991.79998779297</ele>
        <time>2021-05-22T05:15:05.000Z</time>
      </trkpt>
      <trkpt lat="45.22991" lon="5.7424">
        <ele>991.59997558594</ele>
        <time>2021-05-22T05:15:06.000Z</time>
      </trkpt>
      <trkpt lat="45.22984" lon="5.74237">
        <ele>990.40002441406</ele>
        <time>2021-05-22T05:15:08.000Z</time>
      </trkpt>
      <trkpt lat="45.22972" lon="5.74234">
        <ele>989.20001220703</ele>
        <time>2021-05-22T05:15:12.000Z</time>
      </trkpt>
      <trkpt lat="45.22957" lon="5.74228">
        <ele>988</ele>
        <time>2021-05-22T05:15:17.000Z</time>
      </trkpt>
      <trkpt lat="45.22942" lon="5.74217">
        <ele>987</ele>
        <time>2021-05-22T05:15:22.000Z</time>
      </trkpt>
      <trkpt lat="45.22939" lon="5.74215">
        <ele>986.40002441406</ele>
        <time>2021-05-22T05:15:23.000Z</time>
      </trkpt>
      <trkpt lat="45.22931" lon="5.74207">
        <ele>985.40002441406</ele>
        <time>2021-05-22T05:15:26.000Z</time>
      </trkpt>
      <trkpt lat="45.22921" lon="5.74203">
        <ele>984.40002441406</ele>
        <time>2021-05-22T05:15:30.000Z</time>
      </trkpt>
      <trkpt lat="45.22919" lon="5.74201">
        <ele>984</ele>
        <time>2021-05-22T05:15:31.000Z</time>
      </trkpt>
      <trkpt lat="45.22913" lon="5.742">
        <ele>983</ele>
        <time>2021-05-22T05:15:34.000Z</time>
      </trkpt>
      <trkpt lat="45.22908" lon="5.74199">
        <ele>982.40002441406</ele>
        <time>2021-05-22T05:15:36.000Z</time>
      </trkpt>
      <trkpt lat="45.22902" lon="5.74196">
        <ele>981.79998779297</ele>
        <time>2021-05-22T05:15:38.000Z</time>
      </trkpt>
      <trkpt lat="45.22893" lon="5.74194">
        <ele>980.79998779297</ele>
        <time>2021-05-22T05:15:41.000Z</time>
      </trkpt>
      <trkpt lat="45.22888" lon="5.74192">
        <ele>980.59997558594</ele>
        <time>2021-05-22T05:15:42.000Z</time>
      </trkpt>
      <trkpt lat="45.22881" lon="5.74191">
        <ele>979.40002441406</ele>
        <time>2021-05-22T05:15:46.000Z</time>
      </trkpt>
      <trkpt lat="45.22868" lon="5.74185">
        <ele>978</ele>
        <time>2021-05-22T05:15:51.000Z</time>
      </trkpt>
      <trkpt lat="45.22858" lon="5.74179">
        <ele>976.59997558594</ele>
        <time>2021-05-22T05:15:55.000Z</time>
      </trkpt>
      <trkpt lat="45.22847" lon="5.74169">
        <ele>975.40002441406</ele>
        <time>2021-05-22T05:15:59.000Z</time>
      </trkpt>
      <trkpt lat="45.22844" lon="5.74168">
        <ele>975</ele>
        <time>2021-05-22T05:16:00.000Z</time>
      </trkpt>
      <trkpt lat="45.22839" lon="5.74164">
        <ele>974.40002441406</ele>
        <time>2021-05-22T05:16:02.000Z</time>
      </trkpt>
      <trkpt lat="45.22828" lon="5.74158">
        <ele>973.20001220703</ele>
        <time>2021-05-22T05:16:06.000Z</time>
      </trkpt>
      <trkpt lat="45.22825" lon="5.74158">
        <ele>972.79998779297</ele>
        <time>2021-05-22T05:16:07.000Z</time>
      </trkpt>
      <trkpt lat="45.22822" lon="5.74158">
        <ele>972.40002441406</ele>
        <time>2021-05-22T05:16:08.000Z</time>
      </trkpt>
      <trkpt lat="45.2282" lon="5.74158">
        <ele>972</ele>
        <time>2021-05-22T05:16:09.000Z</time>
      </trkpt>
      <trkpt lat="45.22805" lon="5.74155">
        <ele>971</ele>
        <time>2021-05-22T05:16:14.000Z</time>
      </trkpt>
      <trkpt lat="45.22794" lon="5.74152">
        <ele>969.79998779297</ele>
        <time>2021-05-22T05:16:18.000Z</time>
      </trkpt>
      <trkpt lat="45.22789" lon="5.74149">
        <ele>969</ele>
        <time>2021-05-22T05:16:20.000Z</time>
      </trkpt>
      <trkpt lat="45.22787" lon="5.74147">
        <ele>968.59997558594</ele>
        <time>2021-05-22T05:16:21.000Z</time>
      </trkpt>
      <trkpt lat="45.22774" lon="5.7414">
        <ele>967.40002441406</ele>
        <time>2021-05-22T05:16:26.000Z</time>
      </trkpt>
      <trkpt lat="45.22772" lon="5.74139">
        <ele>967</ele>
        <time>2021-05-22T05:16:27.000Z</time>
      </trkpt>
      <trkpt lat="45.22768" lon="5.74137">
        <ele>966.20001220703</ele>
        <time>2021-05-22T05:16:29.000Z</time>
      </trkpt>
      <trkpt lat="45.22757" lon="5.7413">
        <ele>965.59997558594</ele>
        <time>2021-05-22T05:16:33.000Z</time>
      </trkpt>
      <trkpt lat="45.22752" lon="5.74127">
        <ele>965</ele>
        <time>2021-05-22T05:16:35.000Z</time>
      </trkpt>
      <trkpt lat="45.22738" lon="5.74121">
        <ele>963.40002441406</ele>
        <time>2021-05-22T05:16:40.000Z</time>
      </trkpt>
      <trkpt lat="45.22735" lon="5.7412">
        <ele>963</ele>
        <time>2021-05-22T05:16:41.000Z</time>
      </trkpt>
      <trkpt lat="45.22729" lon="5.74119">
        <ele>962.40002441406</ele>
        <time>2021-05-22T05:16:43.000Z</time>
      </trkpt>
      <trkpt lat="45.22715" lon="5.74118">
        <ele>961.20001220703</ele>
        <time>2021-05-22T05:16:47.000Z</time>
      </trkpt>
      <trkpt lat="45.22713" lon="5.74117">
        <ele>961</ele>
        <time>2021-05-22T05:16:48.000Z</time>
      </trkpt>
      <trkpt lat="45.2271" lon="5.74117">
        <ele>960.59997558594</ele>
        <time>2021-05-22T05:16:49.000Z</time>
      </trkpt>
      <trkpt lat="45.22705" lon="5.74117">
        <ele>960.20001220703</ele>
        <time>2021-05-22T05:16:51.000Z</time>
      </trkpt>
      <trkpt lat="45.227" lon="5.74117">
        <ele>959.79998779297</ele>
        <time>2021-05-22T05:16:53.000Z</time>
      </trkpt>
      <trkpt lat="45.22692" lon="5.74117">
        <ele>958.59997558594</ele>
        <time>2021-05-22T05:16:56.000Z</time>
      </trkpt>
      <trkpt lat="45.22677" lon="5.74111">
        <ele>957.40002441406</ele>
        <time>2021-05-22T05:17:00.000Z</time>
      </trkpt>
      <trkpt lat="45.22666" lon="5.74106">
        <ele>956</ele>
        <time>2021-05-22T05:17:04.000Z</time>
      </trkpt>
      <trkpt lat="45.22663" lon="5.74105">
        <ele>955.79998779297</ele>
        <time>2021-05-22T05:17:05.000Z</time>
      </trkpt>
      <trkpt lat="45.22658" lon="5.74104">
        <ele>955.20001220703</ele>
        <time>2021-05-22T05:17:07.000Z</time>
      </trkpt>
      <trkpt lat="45.22652" lon="5.74104">
        <ele>955</ele>
        <time>2021-05-22T05:17:09.000Z</time>
      </trkpt>
      <trkpt lat="45.22646" lon="5.74105">
        <ele>954</ele>
        <time>2021-05-22T05:17:11.000Z</time>
      </trkpt>
      <trkpt lat="45.22643" lon="5.74104">
        <ele>953.59997558594</ele>
        <time>2021-05-22T05:17:12.000Z</time>
      </trkpt>
      <trkpt lat="45.22628" lon="5.74102">
        <ele>952.59997558594</ele>
        <time>2021-05-22T05:17:17.000Z</time>
      </trkpt>
      <trkpt lat="45.22625" lon="5.74102">
        <ele>952.40002441406</ele>
        <time>2021-05-22T05:17:18.000Z</time>
      </trkpt>
      <trkpt lat="45.22617" lon="5.741">
        <ele>951.40002441406</ele>
        <time>2021-05-22T05:17:21.000Z</time>
      </trkpt>
      <trkpt lat="45.22606" lon="5.74098">
        <ele>950.20001220703</ele>
        <time>2021-05-22T05:17:25.000Z</time>
      </trkpt>
      <trkpt lat="45.22597" lon="5.74095">
        <ele>949</ele>
        <time>2021-05-22T05:17:29.000Z</time>
      </trkpt>
      <trkpt lat="45.22593" lon="5.74095">
        <ele>948.59997558594</ele>
        <time>2021-05-22T05:17:30.000Z</time>
      </trkpt>
      <trkpt lat="45.22586" lon="5.74097">
        <ele>947.79998779297</ele>
        <time>2021-05-22T05:17:32.000Z</time>
      </trkpt>
      <trkpt lat="45.22579" lon="5.74103">
        <ele>946.59997558594</ele>
        <time>2021-05-22T05:17:35.000Z</time>
      </trkpt>
      <trkpt lat="45.22576" lon="5.74105">
        <ele>946.40002441406</ele>
        <time>2021-05-22T05:17:36.000Z</time>
      </trkpt>
      <trkpt lat="45.22567" lon="5.7411">
        <ele>945.59997558594</ele>
        <time>2021-05-22T05:17:39.000Z</time>
      </trkpt>
      <trkpt lat="45.22555" lon="5.74117">
        <ele>944.59997558594</ele>
        <time>2021-05-22T05:17:43.000Z</time>
      </trkpt>
      <trkpt lat="45.22552" lon="5.74118">
        <ele>944.20001220703</ele>
        <time>2021-05-22T05:17:44.000Z</time>
      </trkpt>
      <trkpt lat="45.22543" lon="5.74121">
        <ele>943.20001220703</ele>
        <time>2021-05-22T05:17:47.000Z</time>
      </trkpt>
      <trkpt lat="45.22531" lon="5.74121">
        <ele>942</ele>
        <time>2021-05-22T05:17:50.000Z</time>
      </trkpt>
      <trkpt lat="45.22525" lon="5.74121">
        <ele>941.40002441406</ele>
        <time>2021-05-22T05:17:52.000Z</time>
      </trkpt>
      <trkpt lat="45.2252" lon="5.74122">
        <ele>941</ele>
        <time>2021-05-22T05:17:54.000Z</time>
      </trkpt>
      <trkpt lat="45.22512" lon="5.74121">
        <ele>940</ele>
        <time>2021-05-22T05:17:57.000Z</time>
      </trkpt>
      <trkpt lat="45.2251" lon="5.74121">
        <ele>939.79998779297</ele>
        <time>2021-05-22T05:17:58.000Z</time>
      </trkpt>
      <trkpt lat="45.22499" lon="5.7412">
        <ele>938.40002441406</ele>
        <time>2021-05-22T05:18:03.000Z</time>
      </trkpt>
      <trkpt lat="45.22496" lon="5.74119">
        <ele>938</ele>
        <time>2021-05-22T05:18:04.000Z</time>
      </trkpt>
      <trkpt lat="45.22488" lon="5.74118">
        <ele>937.20001220703</ele>
        <time>2021-05-22T05:18:07.000Z</time>
      </trkpt>
      <trkpt lat="45.22472" lon="5.74113">
        <ele>935.79998779297</ele>
        <time>2021-05-22T05:18:12.000Z</time>
      </trkpt>
      <trkpt lat="45.22462" lon="5.74109">
        <ele>934.79998779297</ele>
        <time>2021-05-22T05:18:15.000Z</time>
      </trkpt>
      <trkpt lat="45.22454" lon="5.74103">
        <ele>933.59997558594</ele>
        <time>2021-05-22T05:18:18.000Z</time>
      </trkpt>
      <trkpt lat="45.22451" lon="5.74102">
        <ele>933.40002441406</ele>
        <time>2021-05-22T05:18:19.000Z</time>
      </trkpt>
      <trkpt lat="45.22442" lon="5.74096">
        <ele>932.40002441406</ele>
        <time>2021-05-22T05:18:22.000Z</time>
      </trkpt>
      <trkpt lat="45.22432" lon="5.74092">
        <ele>931.20001220703</ele>
        <time>2021-05-22T05:18:25.000Z</time>
      </trkpt>
      <trkpt lat="45.22426" lon="5.74087">
        <ele>930.20001220703</ele>
        <time>2021-05-22T05:18:27.000Z</time>
      </trkpt>
      <trkpt lat="45.22423" lon="5.74085">
        <ele>930</ele>
        <time>2021-05-22T05:18:28.000Z</time>
      </trkpt>
      <trkpt lat="45.22414" lon="5.74077">
        <ele>928.79998779297</ele>
        <time>2021-05-22T05:18:32.000Z</time>
      </trkpt>
      <trkpt lat="45.22408" lon="5.74075">
        <ele>928</ele>
        <time>2021-05-22T05:18:34.000Z</time>
      </trkpt>
      <trkpt lat="45.22405" lon="5.74074">
        <ele>927.59997558594</ele>
        <time>2021-05-22T05:18:35.000Z</time>
      </trkpt>
      <trkpt lat="45.22398" lon="5.74074">
        <ele>927</ele>
        <time>2021-05-22T05:18:38.000Z</time>
      </trkpt>
      <trkpt lat="45.22398" lon="5.74076">
        <ele>926.79998779297</ele>
        <time>2021-05-22T05:18:39.000Z</time>
      </trkpt>
      <trkpt lat="45.22399" lon="5.74076">
        <ele>926.79998779297</ele>
        <time>2021-05-22T05:18:40.000Z</time>
      </trkpt>
      <trkpt lat="45.22401" lon="5.74077">
        <ele>926.40002441406</ele>
        <time>2021-05-22T05:18:41.000Z</time>
      </trkpt>
      <trkpt lat="45.22405" lon="5.74079">
        <ele>925.79998779297</ele>
        <time>2021-05-22T05:18:43.000Z</time>
      </trkpt>
      <trkpt lat="45.22408" lon="5.74082">
        <ele>925.20001220703</ele>
        <time>2021-05-22T05:18:45.000Z</time>
      </trkpt>
      <trkpt lat="45.22413" lon="5.74085">
        <ele>924.20001220703</ele>
        <time>2021-05-22T05:18:47.000Z</time>
      </trkpt>
      <trkpt lat="45.22417" lon="5.74088">
        <ele>923.59997558594</ele>
        <time>2021-05-22T05:18:49.000Z</time>
      </trkpt>
      <trkpt lat="45.2242" lon="5.74093">
        <ele>923.20001220703</ele>
        <time>2021-05-22T05:18:51.000Z</time>
      </trkpt>
      <trkpt lat="45.22426" lon="5.74103">
        <ele>922.40002441406</ele>
        <time>2021-05-22T05:18:54.000Z</time>
      </trkpt>
      <trkpt lat="45.22428" lon="5.74107">
        <ele>921.79998779297</ele>
        <time>2021-05-22T05:18:55.000Z</time>
      </trkpt>
      <trkpt lat="45.2243" lon="5.7411">
        <ele>921.20001220703</ele>
        <time>2021-05-22T05:18:56.000Z</time>
      </trkpt>
      <trkpt lat="45.22432" lon="5.74119">
        <ele>920.59997558594</ele>
        <time>2021-05-22T05:18:58.000Z</time>
      </trkpt>
      <trkpt lat="45.22433" lon="5.74122">
        <ele>920.40002441406</ele>
        <time>2021-05-22T05:18:59.000Z</time>
      </trkpt>
      <trkpt lat="45.22439" lon="5.7413">
        <ele>919.59997558594</ele>
        <time>2021-05-22T05:19:02.000Z</time>
      </trkpt>
      <trkpt lat="45.22443" lon="5.74134">
        <ele>918.79998779297</ele>
        <time>2021-05-22T05:19:04.000Z</time>
      </trkpt>
      <trkpt lat="45.22445" lon="5.74136">
        <ele>918.40002441406</ele>
        <time>2021-05-22T05:19:05.000Z</time>
      </trkpt>
      <trkpt lat="45.22452" lon="5.74146">
        <ele>917.40002441406</ele>
        <time>2021-05-22T05:19:09.000Z</time>
      </trkpt>
      <trkpt lat="45.22457" lon="5.74151">
        <ele>916.79998779297</ele>
        <time>2021-05-22T05:19:11.000Z</time>
      </trkpt>
      <trkpt lat="45.22461" lon="5.74155">
        <ele>916.20001220703</ele>
        <time>2021-05-22T05:19:13.000Z</time>
      </trkpt>
      <trkpt lat="45.22467" lon="5.74162">
        <ele>915.20001220703</ele>
        <time>2021-05-22T05:19:16.000Z</time>
      </trkpt>
      <trkpt lat="45.22473" lon="5.7417">
        <ele>914.20001220703</ele>
        <time>2021-05-22T05:19:19.000Z</time>
      </trkpt>
      <trkpt lat="45.22474" lon="5.74173">
        <ele>914</ele>
        <time>2021-05-22T05:19:20.000Z</time>
      </trkpt>
      <trkpt lat="45.22479" lon="5.74186">
        <ele>912.79998779297</ele>
        <time>2021-05-22T05:19:24.000Z</time>
      </trkpt>
      <trkpt lat="45.22481" lon="5.74188">
        <ele>912.59997558594</ele>
        <time>2021-05-22T05:19:25.000Z</time>
      </trkpt>
      <trkpt lat="45.22485" lon="5.74191">
        <ele>911.79998779297</ele>
        <time>2021-05-22T05:19:27.000Z</time>
      </trkpt>
      <trkpt lat="45.22489" lon="5.74191">
        <ele>911.40002441406</ele>
        <time>2021-05-22T05:19:29.000Z</time>
      </trkpt>
      <trkpt lat="45.22494" lon="5.74192">
        <ele>910.79998779297</ele>
        <time>2021-05-22T05:19:31.000Z</time>
      </trkpt>
      <trkpt lat="45.22504" lon="5.74197">
        <ele>909.79998779297</ele>
        <time>2021-05-22T05:19:34.000Z</time>
      </trkpt>
      <trkpt lat="45.22506" lon="5.74199">
        <ele>909</ele>
        <time>2021-05-22T05:19:36.000Z</time>
      </trkpt>
      <trkpt lat="45.22509" lon="5.74201">
        <ele>908.79998779297</ele>
        <time>2021-05-22T05:19:37.000Z</time>
      </trkpt>
      <trkpt lat="45.22519" lon="5.74204">
        <ele>907.79998779297</ele>
        <time>2021-05-22T05:19:40.000Z</time>
      </trkpt>
      <trkpt lat="45.22525" lon="5.74204">
        <ele>907.20001220703</ele>
        <time>2021-05-22T05:19:42.000Z</time>
      </trkpt>
      <trkpt lat="45.22528" lon="5.74206">
        <ele>907</ele>
        <time>2021-05-22T05:19:43.000Z</time>
      </trkpt>
      <trkpt lat="45.2253" lon="5.74208">
        <ele>906.59997558594</ele>
        <time>2021-05-22T05:19:44.000Z</time>
      </trkpt>
      <trkpt lat="45.22538" lon="5.74216">
        <ele>905.40002441406</ele>
        <time>2021-05-22T05:19:48.000Z</time>
      </trkpt>
      <trkpt lat="45.22545" lon="5.74219">
        <ele>904.40002441406</ele>
        <time>2021-05-22T05:19:51.000Z</time>
      </trkpt>
      <trkpt lat="45.22554" lon="5.74222">
        <ele>903.20001220703</ele>
        <time>2021-05-22T05:19:55.000Z</time>
      </trkpt>
      <trkpt lat="45.22567" lon="5.74227">
        <ele>902</ele>
        <time>2021-05-22T05:20:00.000Z</time>
      </trkpt>
      <trkpt lat="45.22572" lon="5.74229">
        <ele>901.40002441406</ele>
        <time>2021-05-22T05:20:02.000Z</time>
      </trkpt>
      <trkpt lat="45.22578" lon="5.74229">
        <ele>900.59997558594</ele>
        <time>2021-05-22T05:20:04.000Z</time>
      </trkpt>
      <trkpt lat="45.22584" lon="5.74231">
        <ele>899.40002441406</ele>
        <time>2021-05-22T05:20:07.000Z</time>
      </trkpt>
      <trkpt lat="45.22591" lon="5.74234">
        <ele>898.59997558594</ele>
        <time>2021-05-22T05:20:10.000Z</time>
      </trkpt>
      <trkpt lat="45.22599" lon="5.74238">
        <ele>897.79998779297</ele>
        <time>2021-05-22T05:20:12.000Z</time>
      </trkpt>
      <trkpt lat="45.22615" lon="5.74246">
        <ele>896.20001220703</ele>
        <time>2021-05-22T05:20:17.000Z</time>
      </trkpt>
      <trkpt lat="45.22618" lon="5.74246">
        <ele>895.59997558594</ele>
        <time>2021-05-22T05:20:18.000Z</time>
      </trkpt>
      <trkpt lat="45.22625" lon="5.7425">
        <ele>895.20001220703</ele>
        <time>2021-05-22T05:20:21.000Z</time>
      </trkpt>
      <trkpt lat="45.22628" lon="5.74251">
        <ele>894.59997558594</ele>
        <time>2021-05-22T05:20:22.000Z</time>
      </trkpt>
      <trkpt lat="45.22635" lon="5.74254">
        <ele>893.59997558594</ele>
        <time>2021-05-22T05:20:25.000Z</time>
      </trkpt>
      <trkpt lat="45.22637" lon="5.74256">
        <ele>893.20001220703</ele>
        <time>2021-05-22T05:20:26.000Z</time>
      </trkpt>
      <trkpt lat="45.22643" lon="5.74257">
        <ele>892.20001220703</ele>
        <time>2021-05-22T05:20:28.000Z</time>
      </trkpt>
      <trkpt lat="45.2265" lon="5.74258">
        <ele>892</ele>
        <time>2021-05-22T05:20:32.000Z</time>
      </trkpt>
      <trkpt lat="45.22651" lon="5.74259">
        <ele>892</ele>
        <time>2021-05-22T05:20:33.000Z</time>
      </trkpt>
      <trkpt lat="45.22653" lon="5.74262">
        <ele>892.40002441406</ele>
        <time>2021-05-22T05:20:35.000Z</time>
      </trkpt>
      <trkpt lat="45.22654" lon="5.74262">
        <ele>893</ele>
        <time>2021-05-22T05:20:36.000Z</time>
      </trkpt>
      <trkpt lat="45.22655" lon="5.74263">
        <ele>893.59997558594</ele>
        <time>2021-05-22T05:20:37.000Z</time>
      </trkpt>
      <trkpt lat="45.22656" lon="5.74263">
        <ele>893.79998779297</ele>
        <time>2021-05-22T05:20:38.000Z</time>
      </trkpt>
      <trkpt lat="45.22658" lon="5.74262">
        <ele>894.79998779297</ele>
        <time>2021-05-22T05:20:40.000Z</time>
      </trkpt>
      <trkpt lat="45.22658" lon="5.74262">
        <ele>895</ele>
        <time>2021-05-22T05:20:41.000Z</time>
      </trkpt>
      <trkpt lat="45.22659" lon="5.74261">
        <ele>895.20001220703</ele>
        <time>2021-05-22T05:20:42.000Z</time>
      </trkpt>
      <trkpt lat="45.22659" lon="5.74262">
        <ele>896</ele>
        <time>2021-05-22T05:20:44.000Z</time>
      </trkpt>
      <trkpt lat="45.22659" lon="5.74261">
        <ele>896.20001220703</ele>
        <time>2021-05-22T05:20:45.000Z</time>
      </trkpt>
      <trkpt lat="45.22658" lon="5.74261">
        <ele>897.20001220703</ele>
        <time>2021-05-22T05:20:48.000Z</time>
      </trkpt>
      <trkpt lat="45.22658" lon="5.7426">
        <ele>897.40002441406</ele>
        <time>2021-05-22T05:20:49.000Z</time>
      </trkpt>
      <trkpt lat="45.22658" lon="5.7426">
        <ele>897.59997558594</ele>
        <time>2021-05-22T05:20:50.000Z</time>
      </trkpt>
      <trkpt lat="45.22657" lon="5.7426">
        <ele>898.20001220703</ele>
        <time>2021-05-22T05:20:51.000Z</time>
      </trkpt>
      <trkpt lat="45.22656" lon="5.7426">
        <ele>899</ele>
        <time>2021-05-22T05:20:53.000Z</time>
      </trkpt>
      <trkpt lat="45.22655" lon="5.7426">
        <ele>899.40002441406</ele>
        <time>2021-05-22T05:20:54.000Z</time>
      </trkpt>
      <trkpt lat="45.22655" lon="5.7426">
        <ele>899.79998779297</ele>
        <time>2021-05-22T05:20:55.000Z</time>
      </trkpt>
      <trkpt lat="45.22653" lon="5.74259">
        <ele>900.59997558594</ele>
        <time>2021-05-22T05:20:58.000Z</time>
      </trkpt>
      <trkpt lat="45.22653" lon="5.74258">
        <ele>900.79998779297</ele>
        <time>2021-05-22T05:20:59.000Z</time>
      </trkpt>
      <trkpt lat="45.22651" lon="5.74256">
        <ele>901.40002441406</ele>
        <time>2021-05-22T05:21:01.000Z</time>
      </trkpt>
      <trkpt lat="45.2265" lon="5.74256">
        <ele>901.79998779297</ele>
        <time>2021-05-22T05:21:02.000Z</time>
      </trkpt>
      <trkpt lat="45.22645" lon="5.74253">
        <ele>902.59997558594</ele>
        <time>2021-05-22T05:21:06.000Z</time>
      </trkpt>
      <trkpt lat="45.22645" lon="5.74252">
        <ele>903</ele>
        <time>2021-05-22T05:21:07.000Z</time>
      </trkpt>
      <trkpt lat="45.22643" lon="5.7425">
        <ele>904</ele>
        <time>2021-05-22T05:21:10.000Z</time>
      </trkpt>
      <trkpt lat="45.22641" lon="5.74247">
        <ele>904.79998779297</ele>
        <time>2021-05-22T05:21:13.000Z</time>
      </trkpt>
      <trkpt lat="45.2264" lon="5.74246">
        <ele>905.20001220703</ele>
        <time>2021-05-22T05:21:14.000Z</time>
      </trkpt>
      <trkpt lat="45.22639" lon="5.7424">
        <ele>906.59997558594</ele>
        <time>2021-05-22T05:21:19.000Z</time>
      </trkpt>
      <trkpt lat="45.22638" lon="5.74239">
        <ele>906.79998779297</ele>
        <time>2021-05-22T05:21:20.000Z</time>
      </trkpt>
      <trkpt lat="45.22638" lon="5.74239">
        <ele>907</ele>
        <time>2021-05-22T05:21:21.000Z</time>
      </trkpt>
      <trkpt lat="45.22638" lon="5.74238">
        <ele>907.40002441406</ele>
        <time>2021-05-22T05:21:22.000Z</time>
      </trkpt>
      <trkpt lat="45.22637" lon="5.74238">
        <ele>907.79998779297</ele>
        <time>2021-05-22T05:21:23.000Z</time>
      </trkpt>
      <trkpt lat="45.22636" lon="5.74237">
        <ele>908</ele>
        <time>2021-05-22T05:21:24.000Z</time>
      </trkpt>
      <trkpt lat="45.22633" lon="5.74233">
        <ele>908.59997558594</ele>
        <time>2021-05-22T05:21:28.000Z</time>
      </trkpt>
      <trkpt lat="45.22631" lon="5.74232">
        <ele>909.20001220703</ele>
        <time>2021-05-22T05:21:30.000Z</time>
      </trkpt>
      <trkpt lat="45.2263" lon="5.7423">
        <ele>910.20001220703</ele>
        <time>2021-05-22T05:21:33.000Z</time>
      </trkpt>
      <trkpt lat="45.2263" lon="5.7423">
        <ele>910.59997558594</ele>
        <time>2021-05-22T05:21:34.000Z</time>
      </trkpt>
      <trkpt lat="45.22628" lon="5.74227">
        <ele>911.40002441406</ele>
        <time>2021-05-22T05:21:38.000Z</time>
      </trkpt>
      <trkpt lat="45.22629" lon="5.74225">
        <ele>912.79998779297</ele>
        <time>2021-05-22T05:21:41.000Z</time>
      </trkpt>
      <trkpt lat="45.22629" lon="5.74223">
        <ele>913</ele>
        <time>2021-05-22T05:21:42.000Z</time>
      </trkpt>
      <trkpt lat="45.2263" lon="5.7422">
        <ele>913.40002441406</ele>
        <time>2021-05-22T05:21:44.000Z</time>
      </trkpt>
      <trkpt lat="45.2263" lon="5.74219">
        <ele>913.79998779297</ele>
        <time>2021-05-22T05:21:46.000Z</time>
      </trkpt>
      <trkpt lat="45.2263" lon="5.74218">
        <ele>914.40002441406</ele>
        <time>2021-05-22T05:21:47.000Z</time>
      </trkpt>
      <trkpt lat="45.22629" lon="5.74215">
        <ele>915</ele>
        <time>2021-05-22T05:21:50.000Z</time>
      </trkpt>
      <trkpt lat="45.22628" lon="5.74211">
        <ele>915.40002441406</ele>
        <time>2021-05-22T05:21:52.000Z</time>
      </trkpt>
      <trkpt lat="45.22627" lon="5.7421">
        <ele>915.59997558594</ele>
        <time>2021-05-22T05:21:53.000Z</time>
      </trkpt>
      <trkpt lat="45.22626" lon="5.74209">
        <ele>916.20001220703</ele>
        <time>2021-05-22T05:21:55.000Z</time>
      </trkpt>
      <trkpt lat="45.22623" lon="5.74206">
        <ele>917.20001220703</ele>
        <time>2021-05-22T05:21:59.000Z</time>
      </trkpt>
      <trkpt lat="45.22622" lon="5.74206">
        <ele>917.59997558594</ele>
        <time>2021-05-22T05:22:00.000Z</time>
      </trkpt>
      <trkpt lat="45.2262" lon="5.74203">
        <ele>918</ele>
        <time>2021-05-22T05:22:03.000Z</time>
      </trkpt>
      <trkpt lat="45.22619" lon="5.74203">
        <ele>918.40002441406</ele>
        <time>2021-05-22T05:22:04.000Z</time>
      </trkpt>
      <trkpt lat="45.22617" lon="5.742">
        <ele>919.20001220703</ele>
        <time>2021-05-22T05:22:07.000Z</time>
      </trkpt>
      <trkpt lat="45.22615" lon="5.74198">
        <ele>919.59997558594</ele>
        <time>2021-05-22T05:22:09.000Z</time>
      </trkpt>
      <trkpt lat="45.22614" lon="5.74197">
        <ele>920</ele>
        <time>2021-05-22T05:22:10.000Z</time>
      </trkpt>
      <trkpt lat="45.22613" lon="5.74197">
        <ele>920.79998779297</ele>
        <time>2021-05-22T05:22:12.000Z</time>
      </trkpt>
      <trkpt lat="45.22611" lon="5.74195">
        <ele>922</ele>
        <time>2021-05-22T05:22:16.000Z</time>
      </trkpt>
      <trkpt lat="45.2261" lon="5.74193">
        <ele>922.40002441406</ele>
        <time>2021-05-22T05:22:18.000Z</time>
      </trkpt>
      <trkpt lat="45.22608" lon="5.74192">
        <ele>923</ele>
        <time>2021-05-22T05:22:20.000Z</time>
      </trkpt>
      <trkpt lat="45.22608" lon="5.74191">
        <ele>923.20001220703</ele>
        <time>2021-05-22T05:22:21.000Z</time>
      </trkpt>
      <trkpt lat="45.22608" lon="5.74189">
        <ele>923.79998779297</ele>
        <time>2021-05-22T05:22:23.000Z</time>
      </trkpt>
      <trkpt lat="45.22607" lon="5.74188">
        <ele>924.20001220703</ele>
        <time>2021-05-22T05:22:24.000Z</time>
      </trkpt>
      <trkpt lat="45.22606" lon="5.74184">
        <ele>924.79998779297</ele>
        <time>2021-05-22T05:22:26.000Z</time>
      </trkpt>
      <trkpt lat="45.22606" lon="5.74182">
        <ele>925.20001220703</ele>
        <time>2021-05-22T05:22:27.000Z</time>
      </trkpt>
      <trkpt lat="45.22605" lon="5.74178">
        <ele>925.79998779297</ele>
        <time>2021-05-22T05:22:30.000Z</time>
      </trkpt>
      <trkpt lat="45.22604" lon="5.74177">
        <ele>926.40002441406</ele>
        <time>2021-05-22T05:22:31.000Z</time>
      </trkpt>
      <trkpt lat="45.22604" lon="5.74177">
        <ele>926.79998779297</ele>
        <time>2021-05-22T05:22:32.000Z</time>
      </trkpt>
      <trkpt lat="45.22601" lon="5.74175">
        <ele>927.79998779297</ele>
        <time>2021-05-22T05:22:35.000Z</time>
      </trkpt>
      <trkpt lat="45.22601" lon="5.74174">
        <ele>928.40002441406</ele>
        <time>2021-05-22T05:22:36.000Z</time>
      </trkpt>
      <trkpt lat="45.22599" lon="5.74171">
        <ele>928.79998779297</ele>
        <time>2021-05-22T05:22:39.000Z</time>
      </trkpt>
      <trkpt lat="45.22598" lon="5.7417">
        <ele>929.40002441406</ele>
        <time>2021-05-22T05:22:41.000Z</time>
      </trkpt>
      <trkpt lat="45.22597" lon="5.7417">
        <ele>929.79998779297</ele>
        <time>2021-05-22T05:22:42.000Z</time>
      </trkpt>
      <trkpt lat="45.22597" lon="5.74169">
        <ele>930.20001220703</ele>
        <time>2021-05-22T05:22:43.000Z</time>
      </trkpt>
      <trkpt lat="45.22598" lon="5.74168">
        <ele>930.59997558594</ele>
        <time>2021-05-22T05:22:44.000Z</time>
      </trkpt>
      <trkpt lat="45.22598" lon="5.74164">
        <ele>931.20001220703</ele>
        <time>2021-05-22T05:22:46.000Z</time>
      </trkpt>
      <trkpt lat="45.22597" lon="5.7416">
        <ele>932</ele>
        <time>2021-05-22T05:22:48.000Z</time>
      </trkpt>
      <trkpt lat="45.22596" lon="5.74159">
        <ele>932.40002441406</ele>
        <time>2021-05-22T05:22:49.000Z</time>
      </trkpt>
      <trkpt lat="45.22594" lon="5.74157">
        <ele>932.79998779297</ele>
        <time>2021-05-22T05:22:51.000Z</time>
      </trkpt>
      <trkpt lat="45.22591" lon="5.74155">
        <ele>933.59997558594</ele>
        <time>2021-05-22T05:22:54.000Z</time>
      </trkpt>
      <trkpt lat="45.22589" lon="5.74152">
        <ele>934.59997558594</ele>
        <time>2021-05-22T05:22:57.000Z</time>
      </trkpt>
      <trkpt lat="45.22588" lon="5.7415">
        <ele>935</ele>
        <time>2021-05-22T05:22:58.000Z</time>
      </trkpt>
      <trkpt lat="45.22587" lon="5.74146">
        <ele>935.79998779297</ele>
        <time>2021-05-22T05:23:01.000Z</time>
      </trkpt>
      <trkpt lat="45.22584" lon="5.74143">
        <ele>936.59997558594</ele>
        <time>2021-05-22T05:23:04.000Z</time>
      </trkpt>
      <trkpt lat="45.22584" lon="5.74143">
        <ele>936.79998779297</ele>
        <time>2021-05-22T05:23:05.000Z</time>
      </trkpt>
      <trkpt lat="45.2258" lon="5.74138">
        <ele>938</ele>
        <time>2021-05-22T05:23:10.000Z</time>
      </trkpt>
      <trkpt lat="45.22579" lon="5.74136">
        <ele>938.20001220703</ele>
        <time>2021-05-22T05:23:11.000Z</time>
      </trkpt>
      <trkpt lat="45.22576" lon="5.74131">
        <ele>939.20001220703</ele>
        <time>2021-05-22T05:23:15.000Z</time>
      </trkpt>
      <trkpt lat="45.22572" lon="5.74126">
        <ele>940.40002441406</ele>
        <time>2021-05-22T05:23:19.000Z</time>
      </trkpt>
      <trkpt lat="45.22569" lon="5.74119">
        <ele>941.40002441406</ele>
        <time>2021-05-22T05:23:23.000Z</time>
      </trkpt>
      <trkpt lat="45.22567" lon="5.74112">
        <ele>942.40002441406</ele>
        <time>2021-05-22T05:23:27.000Z</time>
      </trkpt>
      <trkpt lat="45.22567" lon="5.74111">
        <ele>942.59997558594</ele>
        <time>2021-05-22T05:23:28.000Z</time>
      </trkpt>
      <trkpt lat="45.22562" lon="5.74106">
        <ele>943.79998779297</ele>
        <time>2021-05-22T05:23:32.000Z</time>
      </trkpt>
      <trkpt lat="45.22562" lon="5.74104">
        <ele>944.20001220703</ele>
        <time>2021-05-22T05:23:34.000Z</time>
      </trkpt>
      <trkpt lat="45.22565" lon="5.74098">
        <ele>945</ele>
        <time>2021-05-22T05:23:39.000Z</time>
      </trkpt>
      <trkpt lat="45.22572" lon="5.74093">
        <ele>946</ele>
        <time>2021-05-22T05:23:45.000Z</time>
      </trkpt>
      <trkpt lat="45.22573" lon="5.74091">
        <ele>946</ele>
        <time>2021-05-22T05:23:46.000Z</time>
      </trkpt>
      <trkpt lat="45.22578" lon="5.74087">
        <ele>946.59997558594</ele>
        <time>2021-05-22T05:23:49.000Z</time>
      </trkpt>
      <trkpt lat="45.22582" lon="5.74086">
        <ele>947.20001220703</ele>
        <time>2021-05-22T05:23:52.000Z</time>
      </trkpt>
      <trkpt lat="45.22585" lon="5.74086">
        <ele>947.40002441406</ele>
        <time>2021-05-22T05:23:54.000Z</time>
      </trkpt>
      <trkpt lat="45.22588" lon="5.74086">
        <ele>947.79998779297</ele>
        <time>2021-05-22T05:23:56.000Z</time>
      </trkpt>
      <trkpt lat="45.22595" lon="5.74086">
        <ele>948.40002441406</ele>
        <time>2021-05-22T05:23:59.000Z</time>
      </trkpt>
      <trkpt lat="45.22597" lon="5.74087">
        <ele>948.59997558594</ele>
        <time>2021-05-22T05:24:00.000Z</time>
      </trkpt>
      <trkpt lat="45.226" lon="5.74086">
        <ele>949</ele>
        <time>2021-05-22T05:24:02.000Z</time>
      </trkpt>
      <trkpt lat="45.22603" lon="5.74087">
        <ele>949.59997558594</ele>
        <time>2021-05-22T05:24:04.000Z</time>
      </trkpt>
      <trkpt lat="45.22607" lon="5.74087">
        <ele>950</ele>
        <time>2021-05-22T05:24:06.000Z</time>
      </trkpt>
      <trkpt lat="45.22613" lon="5.74088">
        <ele>950.59997558594</ele>
        <time>2021-05-22T05:24:10.000Z</time>
      </trkpt>
      <trkpt lat="45.22618" lon="5.74091">
        <ele>951.20001220703</ele>
        <time>2021-05-22T05:24:13.000Z</time>
      </trkpt>
      <trkpt lat="45.22622" lon="5.74091">
        <ele>951.59997558594</ele>
        <time>2021-05-22T05:24:15.000Z</time>
      </trkpt>
      <trkpt lat="45.22627" lon="5.74091">
        <ele>952</ele>
        <time>2021-05-22T05:24:18.000Z</time>
      </trkpt>
      <trkpt lat="45.22631" lon="5.74092">
        <ele>952.20001220703</ele>
        <time>2021-05-22T05:24:20.000Z</time>
      </trkpt>
      <trkpt lat="45.22633" lon="5.74093">
        <ele>952.40002441406</ele>
        <time>2021-05-22T05:24:21.000Z</time>
      </trkpt>
      <trkpt lat="45.22636" lon="5.74096">
        <ele>952.79998779297</ele>
        <time>2021-05-22T05:24:23.000Z</time>
      </trkpt>
      <trkpt lat="45.22645" lon="5.74099">
        <ele>953.79998779297</ele>
        <time>2021-05-22T05:24:28.000Z</time>
      </trkpt>
      <trkpt lat="45.22649" lon="5.74099">
        <ele>954.20001220703</ele>
        <time>2021-05-22T05:24:30.000Z</time>
      </trkpt>
      <trkpt lat="45.22657" lon="5.741">
        <ele>955</ele>
        <time>2021-05-22T05:24:34.000Z</time>
      </trkpt>
      <trkpt lat="45.2266" lon="5.741">
        <ele>955.20001220703</ele>
        <time>2021-05-22T05:24:36.000Z</time>
      </trkpt>
      <trkpt lat="45.22662" lon="5.741">
        <ele>955.40002441406</ele>
        <time>2021-05-22T05:24:37.000Z</time>
      </trkpt>
      <trkpt lat="45.22668" lon="5.741">
        <ele>955.79998779297</ele>
        <time>2021-05-22T05:24:40.000Z</time>
      </trkpt>
      <trkpt lat="45.22669" lon="5.74101">
        <ele>956.20001220703</ele>
        <time>2021-05-22T05:24:41.000Z</time>
      </trkpt>
      <trkpt lat="45.22673" lon="5.74101">
        <ele>956.59997558594</ele>
        <time>2021-05-22T05:24:43.000Z</time>
      </trkpt>
      <trkpt lat="45.22679" lon="5.74103">
        <ele>957.20001220703</ele>
        <time>2021-05-22T05:24:47.000Z</time>
      </trkpt>
      <trkpt lat="45.22688" lon="5.74105">
        <ele>958.40002441406</ele>
        <time>2021-05-22T05:24:53.000Z</time>
      </trkpt>
      <trkpt lat="45.22697" lon="5.74103">
        <ele>959.40002441406</ele>
        <time>2021-05-22T05:24:58.000Z</time>
      </trkpt>
      <trkpt lat="45.22699" lon="5.74103">
        <ele>959.59997558594</ele>
        <time>2021-05-22T05:24:59.000Z</time>
      </trkpt>
      <trkpt lat="45.22707" lon="5.74103">
        <ele>960.59997558594</ele>
        <time>2021-05-22T05:25:04.000Z</time>
      </trkpt>
      <trkpt lat="45.2271" lon="5.74103">
        <ele>960.79998779297</ele>
        <time>2021-05-22T05:25:06.000Z</time>
      </trkpt>
      <trkpt lat="45.22717" lon="5.74104">
        <ele>961.79998779297</ele>
        <time>2021-05-22T05:25:10.000Z</time>
      </trkpt>
      <trkpt lat="45.22727" lon="5.74107">
        <ele>962.59997558594</ele>
        <time>2021-05-22T05:25:15.000Z</time>
      </trkpt>
      <trkpt lat="45.22728" lon="5.74107">
        <ele>962.79998779297</ele>
        <time>2021-05-22T05:25:16.000Z</time>
      </trkpt>
      <trkpt lat="45.22739" lon="5.74108">
        <ele>963.59997558594</ele>
        <time>2021-05-22T05:25:21.000Z</time>
      </trkpt>
      <trkpt lat="45.22741" lon="5.74109">
        <ele>964</ele>
        <time>2021-05-22T05:25:22.000Z</time>
      </trkpt>
      <trkpt lat="45.22746" lon="5.74115">
        <ele>964.79998779297</ele>
        <time>2021-05-22T05:25:26.000Z</time>
      </trkpt>
      <trkpt lat="45.22747" lon="5.74116">
        <ele>965.20001220703</ele>
        <time>2021-05-22T05:25:27.000Z</time>
      </trkpt>
      <trkpt lat="45.22756" lon="5.74118">
        <ele>966</ele>
        <time>2021-05-22T05:25:32.000Z</time>
      </trkpt>
      <trkpt lat="45.22757" lon="5.74119">
        <ele>966.20001220703</ele>
        <time>2021-05-22T05:25:33.000Z</time>
      </trkpt>
      <trkpt lat="45.22762" lon="5.74122">
        <ele>966.79998779297</ele>
        <time>2021-05-22T05:25:36.000Z</time>
      </trkpt>
      <trkpt lat="45.22766" lon="5.74121">
        <ele>967</ele>
        <time>2021-05-22T05:25:38.000Z</time>
      </trkpt>
      <trkpt lat="45.22769" lon="5.74123">
        <ele>967.40002441406</ele>
        <time>2021-05-22T05:25:40.000Z</time>
      </trkpt>
      <trkpt lat="45.22781" lon="5.74131">
        <ele>968.59997558594</ele>
        <time>2021-05-22T05:25:46.000Z</time>
      </trkpt>
      <trkpt lat="45.22783" lon="5.74133">
        <ele>969</ele>
        <time>2021-05-22T05:25:48.000Z</time>
      </trkpt>
      <trkpt lat="45.22792" lon="5.74136">
        <ele>969.59997558594</ele>
        <time>2021-05-22T05:25:53.000Z</time>
      </trkpt>
      <trkpt lat="45.22795" lon="5.74136">
        <ele>969.79998779297</ele>
        <time>2021-05-22T05:25:54.000Z</time>
      </trkpt>
      <trkpt lat="45.22802" lon="5.74138">
        <ele>970.79998779297</ele>
        <time>2021-05-22T05:25:58.000Z</time>
      </trkpt>
      <trkpt lat="45.22803" lon="5.74138">
        <ele>970.79998779297</ele>
        <time>2021-05-22T05:25:59.000Z</time>
      </trkpt>
      <trkpt lat="45.22808" lon="5.74138">
        <ele>971.59997558594</ele>
        <time>2021-05-22T05:26:02.000Z</time>
      </trkpt>
      <trkpt lat="45.22812" lon="5.74137">
        <ele>971.79998779297</ele>
        <time>2021-05-22T05:26:04.000Z</time>
      </trkpt>
      <trkpt lat="45.22814" lon="5.74137">
        <ele>972</ele>
        <time>2021-05-22T05:26:05.000Z</time>
      </trkpt>
      <trkpt lat="45.22815" lon="5.74138">
        <ele>972.20001220703</ele>
        <time>2021-05-22T05:26:06.000Z</time>
      </trkpt>
      <trkpt lat="45.22821" lon="5.74139">
        <ele>973</ele>
        <time>2021-05-22T05:26:09.000Z</time>
      </trkpt>
      <trkpt lat="45.22826" lon="5.74141">
        <ele>974</ele>
        <time>2021-05-22T05:26:12.000Z</time>
      </trkpt>
      <trkpt lat="45.22827" lon="5.74142">
        <ele>974</ele>
        <time>2021-05-22T05:26:13.000Z</time>
      </trkpt>
      <trkpt lat="45.22832" lon="5.74143">
        <ele>974.59997558594</ele>
        <time>2021-05-22T05:26:16.000Z</time>
      </trkpt>
      <trkpt lat="45.22833" lon="5.74144">
        <ele>974.59997558594</ele>
        <time>2021-05-22T05:26:17.000Z</time>
      </trkpt>
      <trkpt lat="45.22841" lon="5.74146">
        <ele>975.20001220703</ele>
        <time>2021-05-22T05:26:20.000Z</time>
      </trkpt>
      <trkpt lat="45.22845" lon="5.74147">
        <ele>975.79998779297</ele>
        <time>2021-05-22T05:26:23.000Z</time>
      </trkpt>
      <trkpt lat="45.22849" lon="5.74148">
        <ele>976</ele>
        <time>2021-05-22T05:26:25.000Z</time>
      </trkpt>
      <trkpt lat="45.22851" lon="5.74149">
        <ele>976.20001220703</ele>
        <time>2021-05-22T05:26:26.000Z</time>
      </trkpt>
      <trkpt lat="45.22856" lon="5.74152">
        <ele>976.59997558594</ele>
        <time>2021-05-22T05:26:29.000Z</time>
      </trkpt>
      <trkpt lat="45.22862" lon="5.74156">
        <ele>977.40002441406</ele>
        <time>2021-05-22T05:26:32.000Z</time>
      </trkpt>
      <trkpt lat="45.22863" lon="5.74157">
        <ele>977.59997558594</ele>
        <time>2021-05-22T05:26:33.000Z</time>
      </trkpt>
      <trkpt lat="45.22867" lon="5.74159">
        <ele>978.40002441406</ele>
        <time>2021-05-22T05:26:36.000Z</time>
      </trkpt>
      <trkpt lat="45.22869" lon="5.74161">
        <ele>978.40002441406</ele>
        <time>2021-05-22T05:26:37.000Z</time>
      </trkpt>
      <trkpt lat="45.22871" lon="5.74162">
        <ele>978.79998779297</ele>
        <time>2021-05-22T05:26:38.000Z</time>
      </trkpt>
      <trkpt lat="45.22873" lon="5.74164">
        <ele>979</ele>
        <time>2021-05-22T05:26:39.000Z</time>
      </trkpt>
      <trkpt lat="45.22875" lon="5.74166">
        <ele>979.20001220703</ele>
        <time>2021-05-22T05:26:40.000Z</time>
      </trkpt>
      <trkpt lat="45.22879" lon="5.7417">
        <ele>979.79998779297</ele>
        <time>2021-05-22T05:26:44.000Z</time>
      </trkpt>
      <trkpt lat="45.22882" lon="5.74172">
        <ele>980.20001220703</ele>
        <time>2021-05-22T05:26:46.000Z</time>
      </trkpt>
      <trkpt lat="45.22885" lon="5.74173">
        <ele>980.59997558594</ele>
        <time>2021-05-22T05:26:48.000Z</time>
      </trkpt>
      <trkpt lat="45.22886" lon="5.74173">
        <ele>980.59997558594</ele>
        <time>2021-05-22T05:26:49.000Z</time>
      </trkpt>
      <trkpt lat="45.22888" lon="5.74174">
        <ele>981</ele>
        <time>2021-05-22T05:26:50.000Z</time>
      </trkpt>
      <trkpt lat="45.2289" lon="5.74175">
        <ele>981.40002441406</ele>
        <time>2021-05-22T05:26:52.000Z</time>
      </trkpt>
      <trkpt lat="45.22895" lon="5.74175">
        <ele>981.79998779297</ele>
        <time>2021-05-22T05:26:55.000Z</time>
      </trkpt>
      <trkpt lat="45.22897" lon="5.74176">
        <ele>982</ele>
        <time>2021-05-22T05:26:56.000Z</time>
      </trkpt>
      <trkpt lat="45.22907" lon="5.74178">
        <ele>983.20001220703</ele>
        <time>2021-05-22T05:27:02.000Z</time>
      </trkpt>
      <trkpt lat="45.2291" lon="5.74178">
        <ele>983.40002441406</ele>
        <time>2021-05-22T05:27:03.000Z</time>
      </trkpt>
      <trkpt lat="45.22914" lon="5.74179">
        <ele>983.79998779297</ele>
        <time>2021-05-22T05:27:05.000Z</time>
      </trkpt>
      <trkpt lat="45.22917" lon="5.74183">
        <ele>984.20001220703</ele>
        <time>2021-05-22T05:27:07.000Z</time>
      </trkpt>
      <trkpt lat="45.22919" lon="5.74184">
        <ele>984.40002441406</ele>
        <time>2021-05-22T05:27:08.000Z</time>
      </trkpt>
      <trkpt lat="45.22922" lon="5.74186">
        <ele>984.79998779297</ele>
        <time>2021-05-22T05:27:10.000Z</time>
      </trkpt>
      <trkpt lat="45.22925" lon="5.7419">
        <ele>985.20001220703</ele>
        <time>2021-05-22T05:27:13.000Z</time>
      </trkpt>
      <trkpt lat="45.22927" lon="5.74191">
        <ele>985.40002441406</ele>
        <time>2021-05-22T05:27:14.000Z</time>
      </trkpt>
      <trkpt lat="45.22936" lon="5.74194">
        <ele>986.40002441406</ele>
        <time>2021-05-22T05:27:19.000Z</time>
      </trkpt>
      <trkpt lat="45.22937" lon="5.74195">
        <ele>986.40002441406</ele>
        <time>2021-05-22T05:27:20.000Z</time>
      </trkpt>
      <trkpt lat="45.22944" lon="5.742">
        <ele>987.40002441406</ele>
        <time>2021-05-22T05:27:24.000Z</time>
      </trkpt>
      <trkpt lat="45.2295" lon="5.74204">
        <ele>988.20001220703</ele>
        <time>2021-05-22T05:27:27.000Z</time>
      </trkpt>
      <trkpt lat="45.22952" lon="5.74204">
        <ele>988.40002441406</ele>
        <time>2021-05-22T05:27:28.000Z</time>
      </trkpt>
      <trkpt lat="45.22954" lon="5.74206">
        <ele>988.40002441406</ele>
        <time>2021-05-22T05:27:29.000Z</time>
      </trkpt>
      <trkpt lat="45.22959" lon="5.74212">
        <ele>989</ele>
        <time>2021-05-22T05:27:33.000Z</time>
      </trkpt>
      <trkpt lat="45.2296" lon="5.74213">
        <ele>989.40002441406</ele>
        <time>2021-05-22T05:27:34.000Z</time>
      </trkpt>
      <trkpt lat="45.22961" lon="5.74214">
        <ele>989.59997558594</ele>
        <time>2021-05-22T05:27:35.000Z</time>
      </trkpt>
      <trkpt lat="45.22963" lon="5.74215">
        <ele>989.79998779297</ele>
        <time>2021-05-22T05:27:36.000Z</time>
      </trkpt>
      <trkpt lat="45.22969" lon="5.74217">
        <ele>990.20001220703</ele>
        <time>2021-05-22T05:27:40.000Z</time>
      </trkpt>
      <trkpt lat="45.22972" lon="5.74217">
        <ele>990.40002441406</ele>
        <time>2021-05-22T05:27:42.000Z</time>
      </trkpt>
      <trkpt lat="45.22973" lon="5.74217">
        <ele>990.59997558594</ele>
        <time>2021-05-22T05:27:43.000Z</time>
      </trkpt>
      <trkpt lat="45.22974" lon="5.74218">
        <ele>990.79998779297</ele>
        <time>2021-05-22T05:27:44.000Z</time>
      </trkpt>
      <trkpt lat="45.22976" lon="5.74219">
        <ele>991.20001220703</ele>
        <time>2021-05-22T05:27:45.000Z</time>
      </trkpt>
      <trkpt lat="45.22978" lon="5.74219">
        <ele>991.40002441406</ele>
        <time>2021-05-22T05:27:46.000Z</time>
      </trkpt>
      <trkpt lat="45.22983" lon="5.74216">
        <ele>992</ele>
        <time>2021-05-22T05:27:48.000Z</time>
      </trkpt>
      <trkpt lat="45.22986" lon="5.74216">
        <ele>992.40002441406</ele>
        <time>2021-05-22T05:27:49.000Z</time>
      </trkpt>
      <trkpt lat="45.22988" lon="5.74217">
        <ele>992.40002441406</ele>
        <time>2021-05-22T05:27:50.000Z</time>
      </trkpt>
      <trkpt lat="45.22992" lon="5.74221">
        <ele>993.20001220703</ele>
        <time>2021-05-22T05:27:53.000Z</time>
      </trkpt>
      <trkpt lat="45.22999" lon="5.74221">
        <ele>993.79998779297</ele>
        <time>2021-05-22T05:27:57.000Z</time>
      </trkpt>
      <trkpt lat="45.23004" lon="5.74223">
        <ele>994.20001220703</ele>
        <time>2021-05-22T05:28:00.000Z</time>
      </trkpt>
      <trkpt lat="45.23012" lon="5.74227">
        <ele>995.59997558594</ele>
        <time>2021-05-22T05:28:05.000Z</time>
      </trkpt>
      <trkpt lat="45.23014" lon="5.74228">
        <ele>995.79998779297</ele>
        <time>2021-05-22T05:28:06.000Z</time>
      </trkpt>
      <trkpt lat="45.23015" lon="5.74229">
        <ele>996</ele>
        <time>2021-05-22T05:28:07.000Z</time>
      </trkpt>
      <trkpt lat="45.23021" lon="5.74233">
        <ele>996.40002441406</ele>
        <time>2021-05-22T05:28:10.000Z</time>
      </trkpt>
      <trkpt lat="45.23024" lon="5.74232">
        <ele>996.59997558594</ele>
        <time>2021-05-22T05:28:11.000Z</time>
      </trkpt>
      <trkpt lat="45.23031" lon="5.74236">
        <ele>997.40002441406</ele>
        <time>2021-05-22T05:28:15.000Z</time>
      </trkpt>
      <trkpt lat="45.23033" lon="5.74237">
        <ele>997.79998779297</ele>
        <time>2021-05-22T05:28:17.000Z</time>
      </trkpt>
      <trkpt lat="45.23036" lon="5.74237">
        <ele>998.20001220703</ele>
        <time>2021-05-22T05:28:19.000Z</time>
      </trkpt>
      <trkpt lat="45.2304" lon="5.74237">
        <ele>998.59997558594</ele>
        <time>2021-05-22T05:28:21.000Z</time>
      </trkpt>
      <trkpt lat="45.23042" lon="5.74238">
        <ele>998.79998779297</ele>
        <time>2021-05-22T05:28:22.000Z</time>
      </trkpt>
      <trkpt lat="45.23043" lon="5.74239">
        <ele>999</ele>
        <time>2021-05-22T05:28:23.000Z</time>
      </trkpt>
      <trkpt lat="45.23047" lon="5.74241">
        <ele>999.59997558594</ele>
        <time>2021-05-22T05:28:25.000Z</time>
      </trkpt>
      <trkpt lat="45.23052" lon="5.74242">
        <ele>999.79998779297</ele>
        <time>2021-05-22T05:28:27.000Z</time>
      </trkpt>
      <trkpt lat="45.23054" lon="5.74242">
        <ele>1000</ele>
        <time>2021-05-22T05:28:28.000Z</time>
      </trkpt>
      <trkpt lat="45.23059" lon="5.74246">
        <ele>1000.4000244141</ele>
        <time>2021-05-22T05:28:31.000Z</time>
      </trkpt>
      <trkpt lat="45.23063" lon="5.74248">
        <ele>1000.799987793</ele>
        <time>2021-05-22T05:28:33.000Z</time>
      </trkpt>
      <trkpt lat="45.23068" lon="5.74249">
        <ele>1001.200012207</ele>
        <time>2021-05-22T05:28:35.000Z</time>
      </trkpt>
      <trkpt lat="45.2307" lon="5.74249">
        <ele>1001.4000244141</ele>
        <time>2021-05-22T05:28:36.000Z</time>
      </trkpt>
      <trkpt lat="45.23075" lon="5.74251">
        <ele>1002</ele>
        <time>2021-05-22T05:28:39.000Z</time>
      </trkpt>
      <trkpt lat="45.23079" lon="5.74254">
        <ele>1002.200012207</ele>
        <time>2021-05-22T05:28:41.000Z</time>
      </trkpt>
      <trkpt lat="45.23084" lon="5.74257">
        <ele>1003</ele>
        <time>2021-05-22T05:28:44.000Z</time>
      </trkpt>
      <trkpt lat="45.23087" lon="5.7426">
        <ele>1003.4000244141</ele>
        <time>2021-05-22T05:28:46.000Z</time>
      </trkpt>
      <trkpt lat="45.2309" lon="5.74261">
        <ele>1004</ele>
        <time>2021-05-22T05:28:48.000Z</time>
      </trkpt>
      <trkpt lat="45.23093" lon="5.74261">
        <ele>1004.200012207</ele>
        <time>2021-05-22T05:28:50.000Z</time>
      </trkpt>
      <trkpt lat="45.23093" lon="5.74261">
        <ele>1004.4000244141</ele>
        <time>2021-05-22T05:28:51.000Z</time>
      </trkpt>
      <trkpt lat="45.23096" lon="5.74265">
        <ele>1004.799987793</ele>
        <time>2021-05-22T05:28:53.000Z</time>
      </trkpt>
      <trkpt lat="45.23103" lon="5.74268">
        <ele>1005.4000244141</ele>
        <time>2021-05-22T05:28:57.000Z</time>
      </trkpt>
      <trkpt lat="45.23103" lon="5.74268">
        <ele>1005.5999755859</ele>
        <time>2021-05-22T05:28:58.000Z</time>
      </trkpt>
      <trkpt lat="45.23104" lon="5.74269">
        <ele>1005.799987793</ele>
        <time>2021-05-22T05:28:59.000Z</time>
      </trkpt>
      <trkpt lat="45.23108" lon="5.7427">
        <ele>1006.200012207</ele>
        <time>2021-05-22T05:29:01.000Z</time>
      </trkpt>
      <trkpt lat="45.23113" lon="5.7427">
        <ele>1006.5999755859</ele>
        <time>2021-05-22T05:29:03.000Z</time>
      </trkpt>
      <trkpt lat="45.23115" lon="5.7427">
        <ele>1006.799987793</ele>
        <time>2021-05-22T05:29:04.000Z</time>
      </trkpt>
      <trkpt lat="45.23122" lon="5.74275">
        <ele>1007.5999755859</ele>
        <time>2021-05-22T05:29:08.000Z</time>
      </trkpt>
      <trkpt lat="45.23124" lon="5.74275">
        <ele>1007.799987793</ele>
        <time>2021-05-22T05:29:09.000Z</time>
      </trkpt>
      <trkpt lat="45.23127" lon="5.74275">
        <ele>1008</ele>
        <time>2021-05-22T05:29:10.000Z</time>
      </trkpt>
      <trkpt lat="45.23127" lon="5.74275">
        <ele>1008</ele>
        <time>2021-05-22T05:29:11.000Z</time>
      </trkpt>
      <trkpt lat="45.23131" lon="5.74276">
        <ele>1008.4000244141</ele>
        <time>2021-05-22T05:29:13.000Z</time>
      </trkpt>
      <trkpt lat="45.23132" lon="5.74277">
        <ele>1008.5999755859</ele>
        <time>2021-05-22T05:29:14.000Z</time>
      </trkpt>
      <trkpt lat="45.23133" lon="5.74277">
        <ele>1008.799987793</ele>
        <time>2021-05-22T05:29:15.000Z</time>
      </trkpt>
      <trkpt lat="45.23134" lon="5.74277">
        <ele>1009.200012207</ele>
        <time>2021-05-22T05:29:16.000Z</time>
      </trkpt>
      <trkpt lat="45.23141" lon="5.74278">
        <ele>1009.5999755859</ele>
        <time>2021-05-22T05:29:19.000Z</time>
      </trkpt>
      <trkpt lat="45.23145" lon="5.74279">
        <ele>1010</ele>
        <time>2021-05-22T05:29:21.000Z</time>
      </trkpt>
      <trkpt lat="45.2315" lon="5.74277">
        <ele>1010.4000244141</ele>
        <time>2021-05-22T05:29:23.000Z</time>
      </trkpt>
      <trkpt lat="45.23152" lon="5.74277">
        <ele>1010.5999755859</ele>
        <time>2021-05-22T05:29:24.000Z</time>
      </trkpt>
      <trkpt lat="45.23155" lon="5.74278">
        <ele>1010.799987793</ele>
        <time>2021-05-22T05:29:25.000Z</time>
      </trkpt>
      <trkpt lat="45.23161" lon="5.74283">
        <ele>1011.5999755859</ele>
        <time>2021-05-22T05:29:29.000Z</time>
      </trkpt>
      <trkpt lat="45.23164" lon="5.74285">
        <ele>1012</ele>
        <time>2021-05-22T05:29:31.000Z</time>
      </trkpt>
      <trkpt lat="45.23169" lon="5.74288">
        <ele>1012.5999755859</ele>
        <time>2021-05-22T05:29:34.000Z</time>
      </trkpt>
      <trkpt lat="45.23173" lon="5.74289">
        <ele>1012.799987793</ele>
        <time>2021-05-22T05:29:36.000Z</time>
      </trkpt>
      <trkpt lat="45.23175" lon="5.7429">
        <ele>1013</ele>
        <time>2021-05-22T05:29:37.000Z</time>
      </trkpt>
      <trkpt lat="45.23178" lon="5.74292">
        <ele>1013.5999755859</ele>
        <time>2021-05-22T05:29:39.000Z</time>
      </trkpt>
      <trkpt lat="45.23179" lon="5.74293">
        <ele>1013.5999755859</ele>
        <time>2021-05-22T05:29:40.000Z</time>
      </trkpt>
      <trkpt lat="45.23182" lon="5.74293">
        <ele>1013.799987793</ele>
        <time>2021-05-22T05:29:41.000Z</time>
      </trkpt>
      <trkpt lat="45.23183" lon="5.74293">
        <ele>1014</ele>
        <time>2021-05-22T05:29:42.000Z</time>
      </trkpt>
      <trkpt lat="45.23188" lon="5.74293">
        <ele>1014.799987793</ele>
        <time>2021-05-22T05:29:45.000Z</time>
      </trkpt>
      <trkpt lat="45.23191" lon="5.74294">
        <ele>1015.4000244141</ele>
        <time>2021-05-22T05:29:47.000Z</time>
      </trkpt>
      <trkpt lat="45.23194" lon="5.74296">
        <ele>1015.799987793</ele>
        <time>2021-05-22T05:29:49.000Z</time>
      </trkpt>
      <trkpt lat="45.23196" lon="5.74298">
        <ele>1016</ele>
        <time>2021-05-22T05:29:50.000Z</time>
      </trkpt>
      <trkpt lat="45.23199" lon="5.74299">
        <ele>1016.4000244141</ele>
        <time>2021-05-22T05:29:52.000Z</time>
      </trkpt>
      <trkpt lat="45.23203" lon="5.74299">
        <ele>1016.799987793</ele>
        <time>2021-05-22T05:29:54.000Z</time>
      </trkpt>
      <trkpt lat="45.23205" lon="5.743">
        <ele>1017.200012207</ele>
        <time>2021-05-22T05:29:55.000Z</time>
      </trkpt>
      <trkpt lat="45.2321" lon="5.743">
        <ele>1018</ele>
        <time>2021-05-22T05:29:59.000Z</time>
      </trkpt>
      <trkpt lat="45.23212" lon="5.74301">
        <ele>1018.200012207</ele>
        <time>2021-05-22T05:30:00.000Z</time>
      </trkpt>
      <trkpt lat="45.23214" lon="5.74302">
        <ele>1018.200012207</ele>
        <time>2021-05-22T05:30:01.000Z</time>
      </trkpt>
      <trkpt lat="45.23226" lon="5.74304">
        <ele>1019.200012207</ele>
        <time>2021-05-22T05:30:07.000Z</time>
      </trkpt>
      <trkpt lat="45.2323" lon="5.74304">
        <ele>1019.5999755859</ele>
        <time>2021-05-22T05:30:09.000Z</time>
      </trkpt>
      <trkpt lat="45.23238" lon="5.74306">
        <ele>1020.4000244141</ele>
        <time>2021-05-22T05:30:13.000Z</time>
      </trkpt>
      <trkpt lat="45.23244" lon="5.74307">
        <ele>1021</ele>
        <time>2021-05-22T05:30:16.000Z</time>
      </trkpt>
      <trkpt lat="45.2325" lon="5.74311">
        <ele>1021.5999755859</ele>
        <time>2021-05-22T05:30:19.000Z</time>
      </trkpt>
      <trkpt lat="45.2326" lon="5.74317">
        <ele>1022.5999755859</ele>
        <time>2021-05-22T05:30:24.000Z</time>
      </trkpt>
      <trkpt lat="45.23264" lon="5.7432">
        <ele>1022.799987793</ele>
        <time>2021-05-22T05:30:26.000Z</time>
      </trkpt>
      <trkpt lat="45.23272" lon="5.74324">
        <ele>1023.799987793</ele>
        <time>2021-05-22T05:30:30.000Z</time>
      </trkpt>
      <trkpt lat="45.23277" lon="5.74328">
        <ele>1024.1999511719</ele>
        <time>2021-05-22T05:30:33.000Z</time>
      </trkpt>
      <trkpt lat="45.23281" lon="5.74331">
        <ele>1024.8000488281</ele>
        <time>2021-05-22T05:30:36.000Z</time>
      </trkpt>
      <trkpt lat="45.2329" lon="5.74336">
        <ele>1025.5999755859</ele>
        <time>2021-05-22T05:30:41.000Z</time>
      </trkpt>
      <trkpt lat="45.23291" lon="5.74337">
        <ele>1026</ele>
        <time>2021-05-22T05:30:42.000Z</time>
      </trkpt>
      <trkpt lat="45.23299" lon="5.74341">
        <ele>1027</ele>
        <time>2021-05-22T05:30:46.000Z</time>
      </trkpt>
      <trkpt lat="45.233" lon="5.74342">
        <ele>1027.1999511719</ele>
        <time>2021-05-22T05:30:47.000Z</time>
      </trkpt>
      <trkpt lat="45.23303" lon="5.74345">
        <ele>1027.5999755859</ele>
        <time>2021-05-22T05:30:49.000Z</time>
      </trkpt>
      <trkpt lat="45.23305" lon="5.74347">
        <ele>1028</ele>
        <time>2021-05-22T05:30:51.000Z</time>
      </trkpt>
      <trkpt lat="45.23311" lon="5.74351">
        <ele>1028.5999755859</ele>
        <time>2021-05-22T05:30:55.000Z</time>
      </trkpt>
      <trkpt lat="45.23315" lon="5.74352">
        <ele>1029</ele>
        <time>2021-05-22T05:30:57.000Z</time>
      </trkpt>
      <trkpt lat="45.23322" lon="5.74356">
        <ele>1030.1999511719</ele>
        <time>2021-05-22T05:31:03.000Z</time>
      </trkpt>
      <trkpt lat="45.23335" lon="5.7436">
        <ele>1031.1999511719</ele>
        <time>2021-05-22T05:31:09.000Z</time>
      </trkpt>
      <trkpt lat="45.23337" lon="5.74361">
        <ele>1031.4000244141</ele>
        <time>2021-05-22T05:31:10.000Z</time>
      </trkpt>
      <trkpt lat="45.23345" lon="5.74365">
        <ele>1032.1999511719</ele>
        <time>2021-05-22T05:31:15.000Z</time>
      </trkpt>
      <trkpt lat="45.23349" lon="5.74365">
        <ele>1032.5999755859</ele>
        <time>2021-05-22T05:31:17.000Z</time>
      </trkpt>
      <trkpt lat="45.23353" lon="5.74365">
        <ele>1033</ele>
        <time>2021-05-22T05:31:19.000Z</time>
      </trkpt>
      <trkpt lat="45.2336" lon="5.74366">
        <ele>1033.5999755859</ele>
        <time>2021-05-22T05:31:23.000Z</time>
      </trkpt>
      <trkpt lat="45.23361" lon="5.74366">
        <ele>1033.8000488281</ele>
        <time>2021-05-22T05:31:24.000Z</time>
      </trkpt>
      <trkpt lat="45.23367" lon="5.74366">
        <ele>1034.8000488281</ele>
        <time>2021-05-22T05:31:28.000Z</time>
      </trkpt>
      <trkpt lat="45.2337" lon="5.74365">
        <ele>1035</ele>
        <time>2021-05-22T05:31:30.000Z</time>
      </trkpt>
      <trkpt lat="45.23377" lon="5.74363">
        <ele>1035.8000488281</ele>
        <time>2021-05-22T05:31:34.000Z</time>
      </trkpt>
      <trkpt lat="45.2338" lon="5.74361">
        <ele>1036.1999511719</ele>
        <time>2021-05-22T05:31:36.000Z</time>
      </trkpt>
      <trkpt lat="45.2338" lon="5.74359">
        <ele>1036.1999511719</ele>
        <time>2021-05-22T05:31:37.000Z</time>
      </trkpt>
      <trkpt lat="45.23381" lon="5.74354">
        <ele>1036.4000244141</ele>
        <time>2021-05-22T05:31:39.000Z</time>
      </trkpt>
      <trkpt lat="45.23378" lon="5.74352">
        <ele>1036.8000488281</ele>
        <time>2021-05-22T05:31:40.000Z</time>
      </trkpt>
      <trkpt lat="45.23378" lon="5.74352">
        <ele>1037</ele>
        <time>2021-05-22T05:31:41.000Z</time>
      </trkpt>
      <trkpt lat="45.23373" lon="5.74349">
        <ele>1037.8000488281</ele>
        <time>2021-05-22T05:31:45.000Z</time>
      </trkpt>
      <trkpt lat="45.23371" lon="5.74346">
        <ele>1038.4000244141</ele>
        <time>2021-05-22T05:31:47.000Z</time>
      </trkpt>
      <trkpt lat="45.23369" lon="5.74342">
        <ele>1039</ele>
        <time>2021-05-22T05:31:50.000Z</time>
      </trkpt>
      <trkpt lat="45.23367" lon="5.74323">
        <ele>1040</ele>
        <time>2021-05-22T05:31:57.000Z</time>
      </trkpt>
      <trkpt lat="45.23367" lon="5.74321">
        <ele>1040</ele>
        <time>2021-05-22T05:31:58.000Z</time>
      </trkpt>
      <trkpt lat="45.23369" lon="5.74313">
        <ele>1040.4000244141</ele>
        <time>2021-05-22T05:32:01.000Z</time>
      </trkpt>
      <trkpt lat="45.23371" lon="5.74307">
        <ele>1040.5999755859</ele>
        <time>2021-05-22T05:32:04.000Z</time>
      </trkpt>
      <trkpt lat="45.23373" lon="5.74303">
        <ele>1041.4000244141</ele>
        <time>2021-05-22T05:32:06.000Z</time>
      </trkpt>
      <trkpt lat="45.23379" lon="5.74291">
        <ele>1042.5999755859</ele>
        <time>2021-05-22T05:32:12.000Z</time>
      </trkpt>
      <trkpt lat="45.2338" lon="5.74289">
        <ele>1043.1999511719</ele>
        <time>2021-05-22T05:32:13.000Z</time>
      </trkpt>
      <trkpt lat="45.2338" lon="5.74287">
        <ele>1043.5999755859</ele>
        <time>2021-05-22T05:32:14.000Z</time>
      </trkpt>
      <trkpt lat="45.23381" lon="5.74286">
        <ele>1043.8000488281</ele>
        <time>2021-05-22T05:32:15.000Z</time>
      </trkpt>
      <trkpt lat="45.23381" lon="5.74283">
        <ele>1044.4000244141</ele>
        <time>2021-05-22T05:32:17.000Z</time>
      </trkpt>
      <trkpt lat="45.23382" lon="5.74282">
        <ele>1045</ele>
        <time>2021-05-22T05:32:19.000Z</time>
      </trkpt>
      <trkpt lat="45.23382" lon="5.74277">
        <ele>1046.1999511719</ele>
        <time>2021-05-22T05:32:23.000Z</time>
      </trkpt>
      <trkpt lat="45.23382" lon="5.74274">
        <ele>1046.5999755859</ele>
        <time>2021-05-22T05:32:25.000Z</time>
      </trkpt>
      <trkpt lat="45.23385" lon="5.7427">
        <ele>1047.4000244141</ele>
        <time>2021-05-22T05:32:28.000Z</time>
      </trkpt>
      <trkpt lat="45.23386" lon="5.74266">
        <ele>1047.5999755859</ele>
        <time>2021-05-22T05:32:30.000Z</time>
      </trkpt>
      <trkpt lat="45.23385" lon="5.74264">
        <ele>1047.8000488281</ele>
        <time>2021-05-22T05:32:31.000Z</time>
      </trkpt>
      <trkpt lat="45.23379" lon="5.74257">
        <ele>1048</ele>
        <time>2021-05-22T05:32:36.000Z</time>
      </trkpt>
      <trkpt lat="45.23378" lon="5.74255">
        <ele>1048</ele>
        <time>2021-05-22T05:32:37.000Z</time>
      </trkpt>
      <trkpt lat="45.23374" lon="5.74247">
        <ele>1048.4000244141</ele>
        <time>2021-05-22T05:32:40.000Z</time>
      </trkpt>
      <trkpt lat="45.23371" lon="5.74245">
        <ele>1048.5999755859</ele>
        <time>2021-05-22T05:32:41.000Z</time>
      </trkpt>
      <trkpt lat="45.23361" lon="5.74237">
        <ele>1049</ele>
        <time>2021-05-22T05:32:46.000Z</time>
      </trkpt>
      <trkpt lat="45.23358" lon="5.74235">
        <ele>1049.1999511719</ele>
        <time>2021-05-22T05:32:48.000Z</time>
      </trkpt>
      <trkpt lat="45.23356" lon="5.74233">
        <ele>1049.1999511719</ele>
        <time>2021-05-22T05:32:50.000Z</time>
      </trkpt>
      <trkpt lat="45.23351" lon="5.74229">
        <ele>1049.4000244141</ele>
        <time>2021-05-22T05:32:53.000Z</time>
      </trkpt>
      <trkpt lat="45.23338" lon="5.74223">
        <ele>1049.4000244141</ele>
        <time>2021-05-22T05:33:00.000Z</time>
      </trkpt>
      <trkpt lat="45.23324" lon="5.74218">
        <ele>1049.4000244141</ele>
        <time>2021-05-22T05:33:05.000Z</time>
      </trkpt>
      <trkpt lat="45.23319" lon="5.74216">
        <ele>1049.4000244141</ele>
        <time>2021-05-22T05:33:08.000Z</time>
      </trkpt>
      <trkpt lat="45.23313" lon="5.74211">
        <ele>1049.4000244141</ele>
        <time>2021-05-22T05:33:11.000Z</time>
      </trkpt>
      <trkpt lat="45.23306" lon="5.74206">
        <ele>1049.5999755859</ele>
        <time>2021-05-22T05:33:15.000Z</time>
      </trkpt>
      <trkpt lat="45.23294" lon="5.74198">
        <ele>1050</ele>
        <time>2021-05-22T05:33:21.000Z</time>
      </trkpt>
      <trkpt lat="45.23285" lon="5.74186">
        <ele>1050.5999755859</ele>
        <time>2021-05-22T05:33:25.000Z</time>
      </trkpt>
      <trkpt lat="45.23278" lon="5.74176">
        <ele>1051.1999511719</ele>
        <time>2021-05-22T05:33:28.000Z</time>
      </trkpt>
      <trkpt lat="45.23269" lon="5.74164">
        <ele>1051.8000488281</ele>
        <time>2021-05-22T05:33:34.000Z</time>
      </trkpt>
      <trkpt lat="45.23267" lon="5.74162">
        <ele>1051.8000488281</ele>
        <time>2021-05-22T05:33:35.000Z</time>
      </trkpt>
      <trkpt lat="45.23251" lon="5.7415">
        <ele>1051</ele>
        <time>2021-05-22T05:33:43.000Z</time>
      </trkpt>
      <trkpt lat="45.2325" lon="5.74149">
        <ele>1050.5999755859</ele>
        <time>2021-05-22T05:33:44.000Z</time>
      </trkpt>
      <trkpt lat="45.23237" lon="5.74138">
        <ele>1050.8000488281</ele>
        <time>2021-05-22T05:33:51.000Z</time>
      </trkpt>
      <trkpt lat="45.23233" lon="5.74133">
        <ele>1051</ele>
        <time>2021-05-22T05:33:53.000Z</time>
      </trkpt>
      <trkpt lat="45.23227" lon="5.74126">
        <ele>1051.5999755859</ele>
        <time>2021-05-22T05:33:56.000Z</time>
      </trkpt>
      <trkpt lat="45.23227" lon="5.74122">
        <ele>1051.8000488281</ele>
        <time>2021-05-22T05:33:57.000Z</time>
      </trkpt>
      <trkpt lat="45.23226" lon="5.74104">
        <ele>1051.8000488281</ele>
        <time>2021-05-22T05:34:02.000Z</time>
      </trkpt>
      <trkpt lat="45.23227" lon="5.74101">
        <ele>1051.5999755859</ele>
        <time>2021-05-22T05:34:03.000Z</time>
      </trkpt>
      <trkpt lat="45.23226" lon="5.74088">
        <ele>1051.1999511719</ele>
        <time>2021-05-22T05:34:07.000Z</time>
      </trkpt>
      <trkpt lat="45.23226" lon="5.74076">
        <ele>1051.1999511719</ele>
        <time>2021-05-22T05:34:10.000Z</time>
      </trkpt>
      <trkpt lat="45.23229" lon="5.74067">
        <ele>1050.8000488281</ele>
        <time>2021-05-22T05:34:13.000Z</time>
      </trkpt>
      <trkpt lat="45.2323" lon="5.74058">
        <ele>1049.5999755859</ele>
        <time>2021-05-22T05:34:16.000Z</time>
      </trkpt>
      <trkpt lat="45.23229" lon="5.74052">
        <ele>1048.8000488281</ele>
        <time>2021-05-22T05:34:18.000Z</time>
      </trkpt>
      <trkpt lat="45.23226" lon="5.74048">
        <ele>1048.4000244141</ele>
        <time>2021-05-22T05:34:20.000Z</time>
      </trkpt>
      <trkpt lat="45.23217" lon="5.74043">
        <ele>1048.1999511719</ele>
        <time>2021-05-22T05:34:23.000Z</time>
      </trkpt>
      <trkpt lat="45.23207" lon="5.74031">
        <ele>1048</ele>
        <time>2021-05-22T05:34:28.000Z</time>
      </trkpt>
      <trkpt lat="45.23203" lon="5.74028">
        <ele>1048.1999511719</ele>
        <time>2021-05-22T05:34:30.000Z</time>
      </trkpt>
      <trkpt lat="45.23198" lon="5.74024">
        <ele>1048.4000244141</ele>
        <time>2021-05-22T05:34:32.000Z</time>
      </trkpt>
      <trkpt lat="45.23198" lon="5.74024">
        <ele>1048.5999755859</ele>
        <time>2021-05-22T05:34:33.000Z</time>
      </trkpt>
      <trkpt lat="45.2319" lon="5.7402">
        <ele>1049.1999511719</ele>
        <time>2021-05-22T05:34:37.000Z</time>
      </trkpt>
      <trkpt lat="45.23187" lon="5.74017">
        <ele>1049.8000488281</ele>
        <time>2021-05-22T05:34:39.000Z</time>
      </trkpt>
      <trkpt lat="45.23178" lon="5.74012">
        <ele>1050.8000488281</ele>
        <time>2021-05-22T05:34:44.000Z</time>
      </trkpt>
      <trkpt lat="45.23176" lon="5.74008">
        <ele>1051.4000244141</ele>
        <time>2021-05-22T05:34:46.000Z</time>
      </trkpt>
      <trkpt lat="45.2317" lon="5.74001">
        <ele>1052</ele>
        <time>2021-05-22T05:34:50.000Z</time>
      </trkpt>
      <trkpt lat="45.23167" lon="5.74">
        <ele>1052.1999511719</ele>
        <time>2021-05-22T05:34:51.000Z</time>
      </trkpt>
      <trkpt lat="45.23163" lon="5.73999">
        <ele>1052.4000244141</ele>
        <time>2021-05-22T05:34:52.000Z</time>
      </trkpt>
      <trkpt lat="45.23147" lon="5.73994">
        <ele>1052.5999755859</ele>
        <time>2021-05-22T05:34:59.000Z</time>
      </trkpt>
      <trkpt lat="45.23127" lon="5.7399">
        <ele>1052</ele>
        <time>2021-05-22T05:35:07.000Z</time>
      </trkpt>
      <trkpt lat="45.2311" lon="5.73991">
        <ele>1051.4000244141</ele>
        <time>2021-05-22T05:35:14.000Z</time>
      </trkpt>
      <trkpt lat="45.23106" lon="5.73991">
        <ele>1051.1999511719</ele>
        <time>2021-05-22T05:35:16.000Z</time>
      </trkpt>
      <trkpt lat="45.23105" lon="5.73989">
        <ele>1051</ele>
        <time>2021-05-22T05:35:18.000Z</time>
      </trkpt>
      <trkpt lat="45.23103" lon="5.73988">
        <ele>1051</ele>
        <time>2021-05-22T05:35:19.000Z</time>
      </trkpt>
      <trkpt lat="45.23093" lon="5.73982">
        <ele>1050.8000488281</ele>
        <time>2021-05-22T05:35:24.000Z</time>
      </trkpt>
      <trkpt lat="45.2308" lon="5.73974">
        <ele>1049.4000244141</ele>
        <time>2021-05-22T05:35:28.000Z</time>
      </trkpt>
      <trkpt lat="45.23075" lon="5.73972">
        <ele>1049</ele>
        <time>2021-05-22T05:35:30.000Z</time>
      </trkpt>
      <trkpt lat="45.23073" lon="5.73973">
        <ele>1048.4000244141</ele>
        <time>2021-05-22T05:35:31.000Z</time>
      </trkpt>
      <trkpt lat="45.23062" lon="5.73977">
        <ele>1047</ele>
        <time>2021-05-22T05:35:34.000Z</time>
      </trkpt>
      <trkpt lat="45.23053" lon="5.73979">
        <ele>1046</ele>
        <time>2021-05-22T05:35:37.000Z</time>
      </trkpt>
      <trkpt lat="45.2305" lon="5.7398">
        <ele>1045.8000488281</ele>
        <time>2021-05-22T05:35:38.000Z</time>
      </trkpt>
      <trkpt lat="45.23036" lon="5.73984">
        <ele>1044.5999755859</ele>
        <time>2021-05-22T05:35:43.000Z</time>
      </trkpt>
      <trkpt lat="45.23026" lon="5.73986">
        <ele>1044.5999755859</ele>
        <time>2021-05-22T05:35:46.000Z</time>
      </trkpt>
      <trkpt lat="45.23018" lon="5.73982">
        <ele>1044.1999511719</ele>
        <time>2021-05-22T05:35:49.000Z</time>
      </trkpt>
      <trkpt lat="45.23008" lon="5.73981">
        <ele>1044.1999511719</ele>
        <time>2021-05-22T05:35:53.000Z</time>
      </trkpt>
      <trkpt lat="45.22988" lon="5.73978">
        <ele>1043.8000488281</ele>
        <time>2021-05-22T05:36:00.000Z</time>
      </trkpt>
      <trkpt lat="45.22985" lon="5.73976">
        <ele>1043.5999755859</ele>
        <time>2021-05-22T05:36:01.000Z</time>
      </trkpt>
      <trkpt lat="45.2298" lon="5.73975">
        <ele>1043.5999755859</ele>
        <time>2021-05-22T05:36:03.000Z</time>
      </trkpt>
      <trkpt lat="45.22962" lon="5.73961">
        <ele>1042.5999755859</ele>
        <time>2021-05-22T05:36:10.000Z</time>
      </trkpt>
      <trkpt lat="45.22958" lon="5.73957">
        <ele>1042.5999755859</ele>
        <time>2021-05-22T05:36:12.000Z</time>
      </trkpt>
      <trkpt lat="45.22952" lon="5.73947">
        <ele>1042.5999755859</ele>
        <time>2021-05-22T05:36:15.000Z</time>
      </trkpt>
      <trkpt lat="45.22945" lon="5.73927">
        <ele>1042.4000244141</ele>
        <time>2021-05-22T05:36:21.000Z</time>
      </trkpt>
      <trkpt lat="45.22943" lon="5.73903">
        <ele>1043.1999511719</ele>
        <time>2021-05-22T05:36:28.000Z</time>
      </trkpt>
      <trkpt lat="45.22943" lon="5.73897">
        <ele>1043.5999755859</ele>
        <time>2021-05-22T05:36:30.000Z</time>
      </trkpt>
      <trkpt lat="45.22943" lon="5.7389">
        <ele>1044.8000488281</ele>
        <time>2021-05-22T05:36:33.000Z</time>
      </trkpt>
      <trkpt lat="45.22943" lon="5.73888">
        <ele>1045.1999511719</ele>
        <time>2021-05-22T05:36:34.000Z</time>
      </trkpt>
      <trkpt lat="45.22942" lon="5.73886">
        <ele>1045.5999755859</ele>
        <time>2021-05-22T05:36:35.000Z</time>
      </trkpt>
      <trkpt lat="45.22942" lon="5.73885">
        <ele>1045.8000488281</ele>
        <time>2021-05-22T05:36:36.000Z</time>
      </trkpt>
      <trkpt lat="45.22942" lon="5.73882">
        <ele>1046.5999755859</ele>
        <time>2021-05-22T05:36:38.000Z</time>
      </trkpt>
      <trkpt lat="45.22942" lon="5.73879">
        <ele>1047</ele>
        <time>2021-05-22T05:36:39.000Z</time>
      </trkpt>
      <trkpt lat="45.2294" lon="5.73871">
        <ele>1047.8000488281</ele>
        <time>2021-05-22T05:36:43.000Z</time>
      </trkpt>
      <trkpt lat="45.22938" lon="5.73869">
        <ele>1048</ele>
        <time>2021-05-22T05:36:45.000Z</time>
      </trkpt>
      <trkpt lat="45.22929" lon="5.7387">
        <ele>1049.1999511719</ele>
        <time>2021-05-22T05:36:51.000Z</time>
      </trkpt>
      <trkpt lat="45.22926" lon="5.73869">
        <ele>1049.5999755859</ele>
        <time>2021-05-22T05:36:53.000Z</time>
      </trkpt>
      <trkpt lat="45.22925" lon="5.7387">
        <ele>1049.5999755859</ele>
        <time>2021-05-22T05:36:54.000Z</time>
      </trkpt>
      <trkpt lat="45.22919" lon="5.73871">
        <ele>1050.1999511719</ele>
        <time>2021-05-22T05:36:58.000Z</time>
      </trkpt>
      <trkpt lat="45.22919" lon="5.73871">
        <ele>1050.1999511719</ele>
        <time>2021-05-22T05:36:59.000Z</time>
      </trkpt>
      <trkpt lat="45.22914" lon="5.7387">
        <ele>1050.5999755859</ele>
        <time>2021-05-22T05:37:02.000Z</time>
      </trkpt>
      <trkpt lat="45.2291" lon="5.73871">
        <ele>1050.5999755859</ele>
        <time>2021-05-22T05:37:04.000Z</time>
      </trkpt>
      <trkpt lat="45.22902" lon="5.73874">
        <ele>1050.8000488281</ele>
        <time>2021-05-22T05:37:09.000Z</time>
      </trkpt>
      <trkpt lat="45.22899" lon="5.73874">
        <ele>1051</ele>
        <time>2021-05-22T05:37:10.000Z</time>
      </trkpt>
      <trkpt lat="45.22896" lon="5.73875">
        <ele>1051.1999511719</ele>
        <time>2021-05-22T05:37:11.000Z</time>
      </trkpt>
      <trkpt lat="45.22875" lon="5.73887">
        <ele>1051.5999755859</ele>
        <time>2021-05-22T05:37:18.000Z</time>
      </trkpt>
      <trkpt lat="45.22864" lon="5.7389">
        <ele>1051.8000488281</ele>
        <time>2021-05-22T05:37:24.000Z</time>
      </trkpt>
      <trkpt lat="45.22862" lon="5.7389">
        <ele>1051.8000488281</ele>
        <time>2021-05-22T05:37:25.000Z</time>
      </trkpt>
      <trkpt lat="45.22858" lon="5.73889">
        <ele>1052.1999511719</ele>
        <time>2021-05-22T05:37:27.000Z</time>
      </trkpt>
      <trkpt lat="45.22856" lon="5.73888">
        <ele>1052.4000244141</ele>
        <time>2021-05-22T05:37:28.000Z</time>
      </trkpt>
      <trkpt lat="45.22853" lon="5.73888">
        <ele>1052.8000488281</ele>
        <time>2021-05-22T05:37:30.000Z</time>
      </trkpt>
      <trkpt lat="45.22847" lon="5.73887">
        <ele>1053.1999511719</ele>
        <time>2021-05-22T05:37:33.000Z</time>
      </trkpt>
      <trkpt lat="45.22842" lon="5.73887">
        <ele>1053</ele>
        <time>2021-05-22T05:37:37.000Z</time>
      </trkpt>
      <trkpt lat="45.22839" lon="5.73885">
        <ele>1053.1999511719</ele>
        <time>2021-05-22T05:37:39.000Z</time>
      </trkpt>
      <trkpt lat="45.22836" lon="5.73883">
        <ele>1053.4000244141</ele>
        <time>2021-05-22T05:37:41.000Z</time>
      </trkpt>
      <trkpt lat="45.22831" lon="5.7388">
        <ele>1054</ele>
        <time>2021-05-22T05:37:44.000Z</time>
      </trkpt>
      <trkpt lat="45.22828" lon="5.73879">
        <ele>1054.5999755859</ele>
        <time>2021-05-22T05:37:46.000Z</time>
      </trkpt>
      <trkpt lat="45.22823" lon="5.73877">
        <ele>1054.8000488281</ele>
        <time>2021-05-22T05:37:48.000Z</time>
      </trkpt>
      <trkpt lat="45.22822" lon="5.73876">
        <ele>1055</ele>
        <time>2021-05-22T05:37:49.000Z</time>
      </trkpt>
      <trkpt lat="45.2282" lon="5.73876">
        <ele>1055.1999511719</ele>
        <time>2021-05-22T05:37:50.000Z</time>
      </trkpt>
      <trkpt lat="45.22815" lon="5.73873">
        <ele>1055.5999755859</ele>
        <time>2021-05-22T05:37:52.000Z</time>
      </trkpt>
      <trkpt lat="45.22809" lon="5.73873">
        <ele>1056.4000244141</ele>
        <time>2021-05-22T05:37:55.000Z</time>
      </trkpt>
      <trkpt lat="45.22805" lon="5.73871">
        <ele>1056.8000488281</ele>
        <time>2021-05-22T05:37:57.000Z</time>
      </trkpt>
      <trkpt lat="45.22803" lon="5.73867">
        <ele>1057.1999511719</ele>
        <time>2021-05-22T05:37:59.000Z</time>
      </trkpt>
      <trkpt lat="45.228" lon="5.73864">
        <ele>1057.5999755859</ele>
        <time>2021-05-22T05:38:01.000Z</time>
      </trkpt>
      <trkpt lat="45.22797" lon="5.73863">
        <ele>1057.5999755859</ele>
        <time>2021-05-22T05:38:03.000Z</time>
      </trkpt>
      <trkpt lat="45.22795" lon="5.73861">
        <ele>1057.8000488281</ele>
        <time>2021-05-22T05:38:04.000Z</time>
      </trkpt>
      <trkpt lat="45.22792" lon="5.73861">
        <ele>1058.1999511719</ele>
        <time>2021-05-22T05:38:06.000Z</time>
      </trkpt>
      <trkpt lat="45.22783" lon="5.73858">
        <ele>1059</ele>
        <time>2021-05-22T05:38:11.000Z</time>
      </trkpt>
      <trkpt lat="45.2278" lon="5.73858">
        <ele>1059</ele>
        <time>2021-05-22T05:38:12.000Z</time>
      </trkpt>
      <trkpt lat="45.22777" lon="5.73857">
        <ele>1059</ele>
        <time>2021-05-22T05:38:13.000Z</time>
      </trkpt>
      <trkpt lat="45.22767" lon="5.73853">
        <ele>1058.8000488281</ele>
        <time>2021-05-22T05:38:18.000Z</time>
      </trkpt>
      <trkpt lat="45.22765" lon="5.73852">
        <ele>1058.5999755859</ele>
        <time>2021-05-22T05:38:19.000Z</time>
      </trkpt>
      <trkpt lat="45.22764" lon="5.73851">
        <ele>1058.5999755859</ele>
        <time>2021-05-22T05:38:20.000Z</time>
      </trkpt>
      <trkpt lat="45.22763" lon="5.7385">
        <ele>1058.5999755859</ele>
        <time>2021-05-22T05:38:21.000Z</time>
      </trkpt>
      <trkpt lat="45.22759" lon="5.73845">
        <ele>1058.5999755859</ele>
        <time>2021-05-22T05:38:24.000Z</time>
      </trkpt>
      <trkpt lat="45.22752" lon="5.73839">
        <ele>1058.8000488281</ele>
        <time>2021-05-22T05:38:28.000Z</time>
      </trkpt>
      <trkpt lat="45.2275" lon="5.73838">
        <ele>1058.8000488281</ele>
        <time>2021-05-22T05:38:30.000Z</time>
      </trkpt>
      <trkpt lat="45.22748" lon="5.73837">
        <ele>1058.8000488281</ele>
        <time>2021-05-22T05:38:31.000Z</time>
      </trkpt>
      <trkpt lat="45.22745" lon="5.73835">
        <ele>1059</ele>
        <time>2021-05-22T05:38:33.000Z</time>
      </trkpt>
      <trkpt lat="45.22739" lon="5.73834">
        <ele>1059.1999511719</ele>
        <time>2021-05-22T05:38:36.000Z</time>
      </trkpt>
      <trkpt lat="45.22737" lon="5.73833">
        <ele>1059.1999511719</ele>
        <time>2021-05-22T05:38:37.000Z</time>
      </trkpt>
      <trkpt lat="45.22732" lon="5.73829">
        <ele>1059.5999755859</ele>
        <time>2021-05-22T05:38:39.000Z</time>
      </trkpt>
      <trkpt lat="45.22731" lon="5.73828">
        <ele>1059.5999755859</ele>
        <time>2021-05-22T05:38:41.000Z</time>
      </trkpt>
      <trkpt lat="45.22726" lon="5.73825">
        <ele>1060</ele>
        <time>2021-05-22T05:38:43.000Z</time>
      </trkpt>
      <trkpt lat="45.22717" lon="5.73821">
        <ele>1059.8000488281</ele>
        <time>2021-05-22T05:38:48.000Z</time>
      </trkpt>
      <trkpt lat="45.22709" lon="5.73823">
        <ele>1059.4000244141</ele>
        <time>2021-05-22T05:38:50.000Z</time>
      </trkpt>
      <trkpt lat="45.22696" lon="5.7382">
        <ele>1059</ele>
        <time>2021-05-22T05:38:53.000Z</time>
      </trkpt>
      <trkpt lat="45.2269" lon="5.73817">
        <ele>1058.5999755859</ele>
        <time>2021-05-22T05:38:55.000Z</time>
      </trkpt>
      <trkpt lat="45.22683" lon="5.7381">
        <ele>1058.4000244141</ele>
        <time>2021-05-22T05:38:58.000Z</time>
      </trkpt>
      <trkpt lat="45.22678" lon="5.73803">
        <ele>1058</ele>
        <time>2021-05-22T05:39:01.000Z</time>
      </trkpt>
      <trkpt lat="45.22674" lon="5.738">
        <ele>1057.5999755859</ele>
        <time>2021-05-22T05:39:03.000Z</time>
      </trkpt>
      <trkpt lat="45.22673" lon="5.73799">
        <ele>1057.1999511719</ele>
        <time>2021-05-22T05:39:04.000Z</time>
      </trkpt>
      <trkpt lat="45.22669" lon="5.73794">
        <ele>1056.5999755859</ele>
        <time>2021-05-22T05:39:07.000Z</time>
      </trkpt>
      <trkpt lat="45.22667" lon="5.73793">
        <ele>1055.8000488281</ele>
        <time>2021-05-22T05:39:08.000Z</time>
      </trkpt>
      <trkpt lat="45.22662" lon="5.73789">
        <ele>1054.8000488281</ele>
        <time>2021-05-22T05:39:10.000Z</time>
      </trkpt>
      <trkpt lat="45.22656" lon="5.73788">
        <ele>1054.1999511719</ele>
        <time>2021-05-22T05:39:13.000Z</time>
      </trkpt>
      <trkpt lat="45.22652" lon="5.73785">
        <ele>1053.8000488281</ele>
        <time>2021-05-22T05:39:15.000Z</time>
      </trkpt>
      <trkpt lat="45.22647" lon="5.73781">
        <ele>1053.4000244141</ele>
        <time>2021-05-22T05:39:18.000Z</time>
      </trkpt>
      <trkpt lat="45.22645" lon="5.73779">
        <ele>1053.1999511719</ele>
        <time>2021-05-22T05:39:19.000Z</time>
      </trkpt>
      <trkpt lat="45.22643" lon="5.73777">
        <ele>1053.4000244141</ele>
        <time>2021-05-22T05:39:21.000Z</time>
      </trkpt>
      <trkpt lat="45.22638" lon="5.73774">
        <ele>1053.4000244141</ele>
        <time>2021-05-22T05:39:24.000Z</time>
      </trkpt>
      <trkpt lat="45.22637" lon="5.73772">
        <ele>1053.4000244141</ele>
        <time>2021-05-22T05:39:25.000Z</time>
      </trkpt>
      <trkpt lat="45.2263" lon="5.7376">
        <ele>1053.8000488281</ele>
        <time>2021-05-22T05:39:29.000Z</time>
      </trkpt>
      <trkpt lat="45.22621" lon="5.73754">
        <ele>1052.8000488281</ele>
        <time>2021-05-22T05:39:34.000Z</time>
      </trkpt>
      <trkpt lat="45.22619" lon="5.73753">
        <ele>1052.5999755859</ele>
        <time>2021-05-22T05:39:35.000Z</time>
      </trkpt>
      <trkpt lat="45.22615" lon="5.73752">
        <ele>1052</ele>
        <time>2021-05-22T05:39:37.000Z</time>
      </trkpt>
      <trkpt lat="45.22611" lon="5.73748">
        <ele>1051.4000244141</ele>
        <time>2021-05-22T05:39:39.000Z</time>
      </trkpt>
      <trkpt lat="45.22609" lon="5.73747">
        <ele>1051.1999511719</ele>
        <time>2021-05-22T05:39:40.000Z</time>
      </trkpt>
      <trkpt lat="45.22605" lon="5.73745">
        <ele>1050.4000244141</ele>
        <time>2021-05-22T05:39:42.000Z</time>
      </trkpt>
      <trkpt lat="45.22604" lon="5.73745">
        <ele>1049.8000488281</ele>
        <time>2021-05-22T05:39:43.000Z</time>
      </trkpt>
      <trkpt lat="45.226" lon="5.73744">
        <ele>1049.1999511719</ele>
        <time>2021-05-22T05:39:45.000Z</time>
      </trkpt>
      <trkpt lat="45.22599" lon="5.73743">
        <ele>1048.5999755859</ele>
        <time>2021-05-22T05:39:46.000Z</time>
      </trkpt>
      <trkpt lat="45.22596" lon="5.7374">
        <ele>1048</ele>
        <time>2021-05-22T05:39:48.000Z</time>
      </trkpt>
      <trkpt lat="45.22594" lon="5.73738">
        <ele>1047.5999755859</ele>
        <time>2021-05-22T05:39:49.000Z</time>
      </trkpt>
      <trkpt lat="45.2259" lon="5.73735">
        <ele>1046.8000488281</ele>
        <time>2021-05-22T05:39:52.000Z</time>
      </trkpt>
      <trkpt lat="45.22579" lon="5.73733">
        <ele>1045.8000488281</ele>
        <time>2021-05-22T05:39:57.000Z</time>
      </trkpt>
      <trkpt lat="45.22576" lon="5.73733">
        <ele>1045.5999755859</ele>
        <time>2021-05-22T05:39:58.000Z</time>
      </trkpt>
      <trkpt lat="45.22569" lon="5.73729">
        <ele>1045.4000244141</ele>
        <time>2021-05-22T05:40:01.000Z</time>
      </trkpt>
      <trkpt lat="45.22566" lon="5.73724">
        <ele>1045.1999511719</ele>
        <time>2021-05-22T05:40:03.000Z</time>
      </trkpt>
      <trkpt lat="45.22562" lon="5.73718">
        <ele>1044.5999755859</ele>
        <time>2021-05-22T05:40:05.000Z</time>
      </trkpt>
      <trkpt lat="45.22559" lon="5.73715">
        <ele>1043.5999755859</ele>
        <time>2021-05-22T05:40:07.000Z</time>
      </trkpt>
      <trkpt lat="45.22556" lon="5.73713">
        <ele>1043</ele>
        <time>2021-05-22T05:40:09.000Z</time>
      </trkpt>
      <trkpt lat="45.22554" lon="5.73713">
        <ele>1042.5999755859</ele>
        <time>2021-05-22T05:40:10.000Z</time>
      </trkpt>
      <trkpt lat="45.22546" lon="5.73712">
        <ele>1040.8000488281</ele>
        <time>2021-05-22T05:40:14.000Z</time>
      </trkpt>
      <trkpt lat="45.22544" lon="5.73711">
        <ele>1040.4000244141</ele>
        <time>2021-05-22T05:40:15.000Z</time>
      </trkpt>
      <trkpt lat="45.2254" lon="5.73708">
        <ele>1039.8000488281</ele>
        <time>2021-05-22T05:40:17.000Z</time>
      </trkpt>
      <trkpt lat="45.22536" lon="5.73707">
        <ele>1039</ele>
        <time>2021-05-22T05:40:19.000Z</time>
      </trkpt>
      <trkpt lat="45.22534" lon="5.73707">
        <ele>1038.5999755859</ele>
        <time>2021-05-22T05:40:21.000Z</time>
      </trkpt>
      <trkpt lat="45.22532" lon="5.73706">
        <ele>1038.1999511719</ele>
        <time>2021-05-22T05:40:22.000Z</time>
      </trkpt>
      <trkpt lat="45.2253" lon="5.73705">
        <ele>1037.8000488281</ele>
        <time>2021-05-22T05:40:23.000Z</time>
      </trkpt>
      <trkpt lat="45.22528" lon="5.73703">
        <ele>1037.4000244141</ele>
        <time>2021-05-22T05:40:24.000Z</time>
      </trkpt>
      <trkpt lat="45.22524" lon="5.73702">
        <ele>1036.4000244141</ele>
        <time>2021-05-22T05:40:27.000Z</time>
      </trkpt>
      <trkpt lat="45.22522" lon="5.73701">
        <ele>1035.4000244141</ele>
        <time>2021-05-22T05:40:29.000Z</time>
      </trkpt>
      <trkpt lat="45.22522" lon="5.737">
        <ele>1035</ele>
        <time>2021-05-22T05:40:30.000Z</time>
      </trkpt>
      <trkpt lat="45.2252" lon="5.73698">
        <ele>1034.1999511719</ele>
        <time>2021-05-22T05:40:32.000Z</time>
      </trkpt>
      <trkpt lat="45.22519" lon="5.73698">
        <ele>1033.4000244141</ele>
        <time>2021-05-22T05:40:33.000Z</time>
      </trkpt>
      <trkpt lat="45.22517" lon="5.73698">
        <ele>1033</ele>
        <time>2021-05-22T05:40:34.000Z</time>
      </trkpt>
      <trkpt lat="45.22514" lon="5.73698">
        <ele>1032.1999511719</ele>
        <time>2021-05-22T05:40:36.000Z</time>
      </trkpt>
      <trkpt lat="45.22511" lon="5.73699">
        <ele>1031.5999755859</ele>
        <time>2021-05-22T05:40:38.000Z</time>
      </trkpt>
      <trkpt lat="45.22509" lon="5.73701">
        <ele>1030.8000488281</ele>
        <time>2021-05-22T05:40:39.000Z</time>
      </trkpt>
      <trkpt lat="45.22507" lon="5.73703">
        <ele>1030</ele>
        <time>2021-05-22T05:40:41.000Z</time>
      </trkpt>
      <trkpt lat="45.22505" lon="5.73704">
        <ele>1029.5999755859</ele>
        <time>2021-05-22T05:40:42.000Z</time>
      </trkpt>
      <trkpt lat="45.22502" lon="5.73705">
        <ele>1029.1999511719</ele>
        <time>2021-05-22T05:40:44.000Z</time>
      </trkpt>
      <trkpt lat="45.22499" lon="5.73706">
        <ele>1028.4000244141</ele>
        <time>2021-05-22T05:40:46.000Z</time>
      </trkpt>
      <trkpt lat="45.22498" lon="5.73706">
        <ele>1028.1999511719</ele>
        <time>2021-05-22T05:40:47.000Z</time>
      </trkpt>
      <trkpt lat="45.22497" lon="5.73706">
        <ele>1027.4000244141</ele>
        <time>2021-05-22T05:40:48.000Z</time>
      </trkpt>
      <trkpt lat="45.22496" lon="5.73707">
        <ele>1027</ele>
        <time>2021-05-22T05:40:49.000Z</time>
      </trkpt>
      <trkpt lat="45.22493" lon="5.7371">
        <ele>1025.4000244141</ele>
        <time>2021-05-22T05:40:53.000Z</time>
      </trkpt>
      <trkpt lat="45.22488" lon="5.7371">
        <ele>1024.5999755859</ele>
        <time>2021-05-22T05:40:55.000Z</time>
      </trkpt>
      <trkpt lat="45.22486" lon="5.7371">
        <ele>1024.1999511719</ele>
        <time>2021-05-22T05:40:56.000Z</time>
      </trkpt>
      <trkpt lat="45.22483" lon="5.73708">
        <ele>1023.200012207</ele>
        <time>2021-05-22T05:40:58.000Z</time>
      </trkpt>
      <trkpt lat="45.22481" lon="5.73707">
        <ele>1022.5999755859</ele>
        <time>2021-05-22T05:40:59.000Z</time>
      </trkpt>
      <trkpt lat="45.22479" lon="5.73708">
        <ele>1022.200012207</ele>
        <time>2021-05-22T05:41:00.000Z</time>
      </trkpt>
      <trkpt lat="45.22477" lon="5.73708">
        <ele>1021.5999755859</ele>
        <time>2021-05-22T05:41:01.000Z</time>
      </trkpt>
      <trkpt lat="45.22469" lon="5.73707">
        <ele>1020.799987793</ele>
        <time>2021-05-22T05:41:05.000Z</time>
      </trkpt>
      <trkpt lat="45.22461" lon="5.73704">
        <ele>1020.799987793</ele>
        <time>2021-05-22T05:41:09.000Z</time>
      </trkpt>
      <trkpt lat="45.22457" lon="5.73703">
        <ele>1020.799987793</ele>
        <time>2021-05-22T05:41:11.000Z</time>
      </trkpt>
      <trkpt lat="45.22455" lon="5.73702">
        <ele>1020.799987793</ele>
        <time>2021-05-22T05:41:12.000Z</time>
      </trkpt>
      <trkpt lat="45.22454" lon="5.73702">
        <ele>1020.5999755859</ele>
        <time>2021-05-22T05:41:13.000Z</time>
      </trkpt>
      <trkpt lat="45.22448" lon="5.73703">
        <ele>1020.4000244141</ele>
        <time>2021-05-22T05:41:14.000Z</time>
      </trkpt>
      <trkpt lat="45.22442" lon="5.73703">
        <ele>1019.5999755859</ele>
        <time>2021-05-22T05:41:18.000Z</time>
      </trkpt>
      <trkpt lat="45.2244" lon="5.73704">
        <ele>1019.4000244141</ele>
        <time>2021-05-22T05:41:19.000Z</time>
      </trkpt>
      <trkpt lat="45.22435" lon="5.73705">
        <ele>1018.200012207</ele>
        <time>2021-05-22T05:41:23.000Z</time>
      </trkpt>
      <trkpt lat="45.22432" lon="5.73707">
        <ele>1017.4000244141</ele>
        <time>2021-05-22T05:41:26.000Z</time>
      </trkpt>
      <trkpt lat="45.22431" lon="5.73708">
        <ele>1017</ele>
        <time>2021-05-22T05:41:27.000Z</time>
      </trkpt>
      <trkpt lat="45.22427" lon="5.73708">
        <ele>1016.200012207</ele>
        <time>2021-05-22T05:41:29.000Z</time>
      </trkpt>
      <trkpt lat="45.22426" lon="5.73708">
        <ele>1015.799987793</ele>
        <time>2021-05-22T05:41:30.000Z</time>
      </trkpt>
      <trkpt lat="45.22424" lon="5.73709">
        <ele>1015.4000244141</ele>
        <time>2021-05-22T05:41:32.000Z</time>
      </trkpt>
      <trkpt lat="45.22423" lon="5.73709">
        <ele>1014.799987793</ele>
        <time>2021-05-22T05:41:33.000Z</time>
      </trkpt>
      <trkpt lat="45.22421" lon="5.73706">
        <ele>1013.4000244141</ele>
        <time>2021-05-22T05:41:37.000Z</time>
      </trkpt>
      <trkpt lat="45.22421" lon="5.73705">
        <ele>1013.200012207</ele>
        <time>2021-05-22T05:41:38.000Z</time>
      </trkpt>
      <trkpt lat="45.22419" lon="5.73705">
        <ele>1012</ele>
        <time>2021-05-22T05:41:40.000Z</time>
      </trkpt>
      <trkpt lat="45.22413" lon="5.73707">
        <ele>1011</ele>
        <time>2021-05-22T05:41:43.000Z</time>
      </trkpt>
      <trkpt lat="45.2241" lon="5.73707">
        <ele>1010.4000244141</ele>
        <time>2021-05-22T05:41:44.000Z</time>
      </trkpt>
      <trkpt lat="45.22409" lon="5.73707">
        <ele>1010.200012207</ele>
        <time>2021-05-22T05:41:45.000Z</time>
      </trkpt>
      <trkpt lat="45.22408" lon="5.73706">
        <ele>1009.5999755859</ele>
        <time>2021-05-22T05:41:46.000Z</time>
      </trkpt>
      <trkpt lat="45.22403" lon="5.73703">
        <ele>1008.799987793</ele>
        <time>2021-05-22T05:41:49.000Z</time>
      </trkpt>
      <trkpt lat="45.22402" lon="5.73702">
        <ele>1008.200012207</ele>
        <time>2021-05-22T05:41:50.000Z</time>
      </trkpt>
      <trkpt lat="45.22394" lon="5.73702">
        <ele>1007.4000244141</ele>
        <time>2021-05-22T05:41:54.000Z</time>
      </trkpt>
      <trkpt lat="45.22391" lon="5.73702">
        <ele>1007.200012207</ele>
        <time>2021-05-22T05:41:55.000Z</time>
      </trkpt>
      <trkpt lat="45.22384" lon="5.73701">
        <ele>1007</ele>
        <time>2021-05-22T05:41:59.000Z</time>
      </trkpt>
      <trkpt lat="45.22381" lon="5.73698">
        <ele>1006.799987793</ele>
        <time>2021-05-22T05:42:01.000Z</time>
      </trkpt>
      <trkpt lat="45.22378" lon="5.73694">
        <ele>1006.799987793</ele>
        <time>2021-05-22T05:42:03.000Z</time>
      </trkpt>
      <trkpt lat="45.22375" lon="5.73691">
        <ele>1007.200012207</ele>
        <time>2021-05-22T05:42:05.000Z</time>
      </trkpt>
      <trkpt lat="45.22372" lon="5.73689">
        <ele>1007.799987793</ele>
        <time>2021-05-22T05:42:07.000Z</time>
      </trkpt>
      <trkpt lat="45.22367" lon="5.73685">
        <ele>1008.200012207</ele>
        <time>2021-05-22T05:42:11.000Z</time>
      </trkpt>
      <trkpt lat="45.22365" lon="5.73684">
        <ele>1008.200012207</ele>
        <time>2021-05-22T05:42:12.000Z</time>
      </trkpt>
      <trkpt lat="45.22361" lon="5.7368">
        <ele>1008.200012207</ele>
        <time>2021-05-22T05:42:15.000Z</time>
      </trkpt>
      <trkpt lat="45.22355" lon="5.73677">
        <ele>1008.200012207</ele>
        <time>2021-05-22T05:42:18.000Z</time>
      </trkpt>
      <trkpt lat="45.22353" lon="5.73675">
        <ele>1008.4000244141</ele>
        <time>2021-05-22T05:42:19.000Z</time>
      </trkpt>
      <trkpt lat="45.22349" lon="5.73675">
        <ele>1008.799987793</ele>
        <time>2021-05-22T05:42:22.000Z</time>
      </trkpt>
      <trkpt lat="45.22347" lon="5.73675">
        <ele>1009.4000244141</ele>
        <time>2021-05-22T05:42:24.000Z</time>
      </trkpt>
      <trkpt lat="45.22345" lon="5.73676">
        <ele>1009.799987793</ele>
        <time>2021-05-22T05:42:25.000Z</time>
      </trkpt>
      <trkpt lat="45.22339" lon="5.73678">
        <ele>1010.4000244141</ele>
        <time>2021-05-22T05:42:27.000Z</time>
      </trkpt>
      <trkpt lat="45.22336" lon="5.73678">
        <ele>1010.799987793</ele>
        <time>2021-05-22T05:42:28.000Z</time>
      </trkpt>
      <trkpt lat="45.22332" lon="5.73678">
        <ele>1011.5999755859</ele>
        <time>2021-05-22T05:42:30.000Z</time>
      </trkpt>
      <trkpt lat="45.22329" lon="5.73676">
        <ele>1012.200012207</ele>
        <time>2021-05-22T05:42:33.000Z</time>
      </trkpt>
      <trkpt lat="45.22328" lon="5.73673">
        <ele>1012.5999755859</ele>
        <time>2021-05-22T05:42:35.000Z</time>
      </trkpt>
      <trkpt lat="45.22328" lon="5.73673">
        <ele>1012.5999755859</ele>
        <time>2021-05-22T05:42:36.000Z</time>
      </trkpt>
      <trkpt lat="45.22327" lon="5.73673">
        <ele>1013</ele>
        <time>2021-05-22T05:42:38.000Z</time>
      </trkpt>
      <trkpt lat="45.22325" lon="5.73671">
        <ele>1013.4000244141</ele>
        <time>2021-05-22T05:42:41.000Z</time>
      </trkpt>
      <trkpt lat="45.22323" lon="5.73671">
        <ele>1013.799987793</ele>
        <time>2021-05-22T05:42:42.000Z</time>
      </trkpt>
      <trkpt lat="45.22321" lon="5.7367">
        <ele>1014.200012207</ele>
        <time>2021-05-22T05:42:44.000Z</time>
      </trkpt>
      <trkpt lat="45.2232" lon="5.7367">
        <ele>1014.200012207</ele>
        <time>2021-05-22T05:42:45.000Z</time>
      </trkpt>
      <trkpt lat="45.22319" lon="5.73669">
        <ele>1014.4000244141</ele>
        <time>2021-05-22T05:42:46.000Z</time>
      </trkpt>
      <trkpt lat="45.22318" lon="5.73669">
        <ele>1014.799987793</ele>
        <time>2021-05-22T05:42:47.000Z</time>
      </trkpt>
      <trkpt lat="45.22312" lon="5.73668">
        <ele>1015.5999755859</ele>
        <time>2021-05-22T05:42:50.000Z</time>
      </trkpt>
      <trkpt lat="45.2231" lon="5.73667">
        <ele>1015.799987793</ele>
        <time>2021-05-22T05:42:52.000Z</time>
      </trkpt>
      <trkpt lat="45.22308" lon="5.73667">
        <ele>1016.200012207</ele>
        <time>2021-05-22T05:42:53.000Z</time>
      </trkpt>
      <trkpt lat="45.22306" lon="5.73667">
        <ele>1016.4000244141</ele>
        <time>2021-05-22T05:42:54.000Z</time>
      </trkpt>
      <trkpt lat="45.22303" lon="5.73665">
        <ele>1017.200012207</ele>
        <time>2021-05-22T05:42:58.000Z</time>
      </trkpt>
      <trkpt lat="45.223" lon="5.73664">
        <ele>1018</ele>
        <time>2021-05-22T05:43:00.000Z</time>
      </trkpt>
      <trkpt lat="45.22299" lon="5.73664">
        <ele>1018.4000244141</ele>
        <time>2021-05-22T05:43:01.000Z</time>
      </trkpt>
      <trkpt lat="45.22295" lon="5.73663">
        <ele>1018.799987793</ele>
        <time>2021-05-22T05:43:03.000Z</time>
      </trkpt>
      <trkpt lat="45.22292" lon="5.73664">
        <ele>1019.5999755859</ele>
        <time>2021-05-22T05:43:06.000Z</time>
      </trkpt>
      <trkpt lat="45.22291" lon="5.73664">
        <ele>1020</ele>
        <time>2021-05-22T05:43:07.000Z</time>
      </trkpt>
      <trkpt lat="45.22288" lon="5.73663">
        <ele>1020.4000244141</ele>
        <time>2021-05-22T05:43:09.000Z</time>
      </trkpt>
      <trkpt lat="45.22287" lon="5.73664">
        <ele>1020.5999755859</ele>
        <time>2021-05-22T05:43:10.000Z</time>
      </trkpt>
      <trkpt lat="45.22282" lon="5.73664">
        <ele>1021.5999755859</ele>
        <time>2021-05-22T05:43:13.000Z</time>
      </trkpt>
      <trkpt lat="45.2228" lon="5.73664">
        <ele>1021.799987793</ele>
        <time>2021-05-22T05:43:14.000Z</time>
      </trkpt>
      <trkpt lat="45.22277" lon="5.73663">
        <ele>1022.4000244141</ele>
        <time>2021-05-22T05:43:17.000Z</time>
      </trkpt>
      <trkpt lat="45.22277" lon="5.73664">
        <ele>1022.799987793</ele>
        <time>2021-05-22T05:43:18.000Z</time>
      </trkpt>
      <trkpt lat="45.22274" lon="5.73666">
        <ele>1023.200012207</ele>
        <time>2021-05-22T05:43:20.000Z</time>
      </trkpt>
      <trkpt lat="45.2227" lon="5.73666">
        <ele>1023.4000244141</ele>
        <time>2021-05-22T05:43:22.000Z</time>
      </trkpt>
      <trkpt lat="45.22267" lon="5.73666">
        <ele>1024</ele>
        <time>2021-05-22T05:43:24.000Z</time>
      </trkpt>
      <trkpt lat="45.22264" lon="5.73665">
        <ele>1024.1999511719</ele>
        <time>2021-05-22T05:43:26.000Z</time>
      </trkpt>
      <trkpt lat="45.22261" lon="5.7366">
        <ele>1025</ele>
        <time>2021-05-22T05:43:30.000Z</time>
      </trkpt>
      <trkpt lat="45.22256" lon="5.73658">
        <ele>1026</ele>
        <time>2021-05-22T05:43:33.000Z</time>
      </trkpt>
      <trkpt lat="45.22255" lon="5.73657">
        <ele>1026.1999511719</ele>
        <time>2021-05-22T05:43:34.000Z</time>
      </trkpt>
      <trkpt lat="45.22254" lon="5.73656">
        <ele>1026.4000244141</ele>
        <time>2021-05-22T05:43:35.000Z</time>
      </trkpt>
      <trkpt lat="45.22252" lon="5.73654">
        <ele>1026.5999755859</ele>
        <time>2021-05-22T05:43:37.000Z</time>
      </trkpt>
      <trkpt lat="45.22249" lon="5.73654">
        <ele>1027</ele>
        <time>2021-05-22T05:43:39.000Z</time>
      </trkpt>
      <trkpt lat="45.22247" lon="5.73652">
        <ele>1027.4000244141</ele>
        <time>2021-05-22T05:43:40.000Z</time>
      </trkpt>
      <trkpt lat="45.2224" lon="5.73645">
        <ele>1028.4000244141</ele>
        <time>2021-05-22T05:43:46.000Z</time>
      </trkpt>
      <trkpt lat="45.22236" lon="5.73639">
        <ele>1028.8000488281</ele>
        <time>2021-05-22T05:43:49.000Z</time>
      </trkpt>
      <trkpt lat="45.22228" lon="5.73634">
        <ele>1029.4000244141</ele>
        <time>2021-05-22T05:43:54.000Z</time>
      </trkpt>
      <trkpt lat="45.22221" lon="5.73628">
        <ele>1030.1999511719</ele>
        <time>2021-05-22T05:43:59.000Z</time>
      </trkpt>
      <trkpt lat="45.22218" lon="5.73626">
        <ele>1030.4000244141</ele>
        <time>2021-05-22T05:44:01.000Z</time>
      </trkpt>
      <trkpt lat="45.22209" lon="5.73618">
        <ele>1031.1999511719</ele>
        <time>2021-05-22T05:44:08.000Z</time>
      </trkpt>
      <trkpt lat="45.22206" lon="5.73614">
        <ele>1031.5999755859</ele>
        <time>2021-05-22T05:44:10.000Z</time>
      </trkpt>
      <trkpt lat="45.22203" lon="5.7361">
        <ele>1032</ele>
        <time>2021-05-22T05:44:13.000Z</time>
      </trkpt>
      <trkpt lat="45.22199" lon="5.73607">
        <ele>1032.4000244141</ele>
        <time>2021-05-22T05:44:16.000Z</time>
      </trkpt>
      <trkpt lat="45.22198" lon="5.73607">
        <ele>1032.5999755859</ele>
        <time>2021-05-22T05:44:17.000Z</time>
      </trkpt>
      <trkpt lat="45.22197" lon="5.73606">
        <ele>1032.8000488281</ele>
        <time>2021-05-22T05:44:18.000Z</time>
      </trkpt>
      <trkpt lat="45.22195" lon="5.73602">
        <ele>1033.1999511719</ele>
        <time>2021-05-22T05:44:21.000Z</time>
      </trkpt>
      <trkpt lat="45.22193" lon="5.73599">
        <ele>1034</ele>
        <time>2021-05-22T05:44:24.000Z</time>
      </trkpt>
      <trkpt lat="45.22191" lon="5.73597">
        <ele>1034.1999511719</ele>
        <time>2021-05-22T05:44:27.000Z</time>
      </trkpt>
      <trkpt lat="45.22189" lon="5.73596">
        <ele>1035</ele>
        <time>2021-05-22T05:44:29.000Z</time>
      </trkpt>
      <trkpt lat="45.22188" lon="5.73593">
        <ele>1035.4000244141</ele>
        <time>2021-05-22T05:44:31.000Z</time>
      </trkpt>
      <trkpt lat="45.22183" lon="5.73589">
        <ele>1036</ele>
        <time>2021-05-22T05:44:34.000Z</time>
      </trkpt>
      <trkpt lat="45.2218" lon="5.73588">
        <ele>1036.1999511719</ele>
        <time>2021-05-22T05:44:35.000Z</time>
      </trkpt>
      <trkpt lat="45.22173" lon="5.73581">
        <ele>1036.8000488281</ele>
        <time>2021-05-22T05:44:40.000Z</time>
      </trkpt>
      <trkpt lat="45.22173" lon="5.73579">
        <ele>1037.1999511719</ele>
        <time>2021-05-22T05:44:41.000Z</time>
      </trkpt>
      <trkpt lat="45.22172" lon="5.73575">
        <ele>1037.5999755859</ele>
        <time>2021-05-22T05:44:43.000Z</time>
      </trkpt>
      <trkpt lat="45.22169" lon="5.7357">
        <ele>1038.4000244141</ele>
        <time>2021-05-22T05:44:47.000Z</time>
      </trkpt>
      <trkpt lat="45.22164" lon="5.73567">
        <ele>1039.5999755859</ele>
        <time>2021-05-22T05:44:50.000Z</time>
      </trkpt>
      <trkpt lat="45.22161" lon="5.73567">
        <ele>1040.1999511719</ele>
        <time>2021-05-22T05:44:52.000Z</time>
      </trkpt>
      <trkpt lat="45.22159" lon="5.73566">
        <ele>1040.8000488281</ele>
        <time>2021-05-22T05:44:54.000Z</time>
      </trkpt>
      <trkpt lat="45.22158" lon="5.73565">
        <ele>1040.8000488281</ele>
        <time>2021-05-22T05:44:55.000Z</time>
      </trkpt>
      <trkpt lat="45.22157" lon="5.73563">
        <ele>1041.1999511719</ele>
        <time>2021-05-22T05:44:56.000Z</time>
      </trkpt>
      <trkpt lat="45.22154" lon="5.73561">
        <ele>1041.5999755859</ele>
        <time>2021-05-22T05:44:58.000Z</time>
      </trkpt>
      <trkpt lat="45.22153" lon="5.73561">
        <ele>1042</ele>
        <time>2021-05-22T05:44:59.000Z</time>
      </trkpt>
      <trkpt lat="45.22149" lon="5.73561">
        <ele>1043</ele>
        <time>2021-05-22T05:45:03.000Z</time>
      </trkpt>
      <trkpt lat="45.22147" lon="5.73562">
        <ele>1043.1999511719</ele>
        <time>2021-05-22T05:45:04.000Z</time>
      </trkpt>
      <trkpt lat="45.22144" lon="5.73558">
        <ele>1044.1999511719</ele>
        <time>2021-05-22T05:45:08.000Z</time>
      </trkpt>
      <trkpt lat="45.22142" lon="5.73558">
        <ele>1044.8000488281</ele>
        <time>2021-05-22T05:45:10.000Z</time>
      </trkpt>
      <trkpt lat="45.22139" lon="5.73557">
        <ele>1045.1999511719</ele>
        <time>2021-05-22T05:45:12.000Z</time>
      </trkpt>
      <trkpt lat="45.22135" lon="5.73556">
        <ele>1046</ele>
        <time>2021-05-22T05:45:15.000Z</time>
      </trkpt>
      <trkpt lat="45.22133" lon="5.73555">
        <ele>1046.4000244141</ele>
        <time>2021-05-22T05:45:17.000Z</time>
      </trkpt>
      <trkpt lat="45.2213" lon="5.73551">
        <ele>1047</ele>
        <time>2021-05-22T05:45:21.000Z</time>
      </trkpt>
      <trkpt lat="45.22129" lon="5.73551">
        <ele>1047.5999755859</ele>
        <time>2021-05-22T05:45:22.000Z</time>
      </trkpt>
      <trkpt lat="45.22127" lon="5.73549">
        <ele>1048</ele>
        <time>2021-05-22T05:45:24.000Z</time>
      </trkpt>
      <trkpt lat="45.22125" lon="5.73548">
        <ele>1048.5999755859</ele>
        <time>2021-05-22T05:45:26.000Z</time>
      </trkpt>
      <trkpt lat="45.22125" lon="5.73548">
        <ele>1049</ele>
        <time>2021-05-22T05:45:27.000Z</time>
      </trkpt>
      <trkpt lat="45.22123" lon="5.73545">
        <ele>1049.5999755859</ele>
        <time>2021-05-22T05:45:29.000Z</time>
      </trkpt>
      <trkpt lat="45.22122" lon="5.73537">
        <ele>1050.4000244141</ele>
        <time>2021-05-22T05:45:33.000Z</time>
      </trkpt>
      <trkpt lat="45.22123" lon="5.73535">
        <ele>1050.8000488281</ele>
        <time>2021-05-22T05:45:34.000Z</time>
      </trkpt>
      <trkpt lat="45.22122" lon="5.73532">
        <ele>1051</ele>
        <time>2021-05-22T05:45:35.000Z</time>
      </trkpt>
      <trkpt lat="45.22122" lon="5.73528">
        <ele>1051.5999755859</ele>
        <time>2021-05-22T05:45:38.000Z</time>
      </trkpt>
      <trkpt lat="45.2212" lon="5.73526">
        <ele>1052.1999511719</ele>
        <time>2021-05-22T05:45:40.000Z</time>
      </trkpt>
      <trkpt lat="45.2212" lon="5.73525">
        <ele>1052.5999755859</ele>
        <time>2021-05-22T05:45:41.000Z</time>
      </trkpt>
      <trkpt lat="45.22119" lon="5.73525">
        <ele>1053.1999511719</ele>
        <time>2021-05-22T05:45:44.000Z</time>
      </trkpt>
      <trkpt lat="45.22118" lon="5.73526">
        <ele>1053.5999755859</ele>
        <time>2021-05-22T05:45:45.000Z</time>
      </trkpt>
      <trkpt lat="45.22116" lon="5.73526">
        <ele>1053.5999755859</ele>
        <time>2021-05-22T05:45:46.000Z</time>
      </trkpt>
      <trkpt lat="45.22115" lon="5.73525">
        <ele>1054.4000244141</ele>
        <time>2021-05-22T05:45:48.000Z</time>
      </trkpt>
      <trkpt lat="45.22113" lon="5.73522">
        <ele>1055</ele>
        <time>2021-05-22T05:45:51.000Z</time>
      </trkpt>
      <trkpt lat="45.22113" lon="5.73521">
        <ele>1055</ele>
        <time>2021-05-22T05:45:52.000Z</time>
      </trkpt>
      <trkpt lat="45.22111" lon="5.73521">
        <ele>1055.5999755859</ele>
        <time>2021-05-22T05:45:53.000Z</time>
      </trkpt>
      <trkpt lat="45.2211" lon="5.73522">
        <ele>1056.1999511719</ele>
        <time>2021-05-22T05:45:54.000Z</time>
      </trkpt>
      <trkpt lat="45.2211" lon="5.73522">
        <ele>1056.8000488281</ele>
        <time>2021-05-22T05:45:56.000Z</time>
      </trkpt>
      <trkpt lat="45.22107" lon="5.73523">
        <ele>1057.8000488281</ele>
        <time>2021-05-22T05:46:00.000Z</time>
      </trkpt>
      <trkpt lat="45.22106" lon="5.73522">
        <ele>1058</ele>
        <time>2021-05-22T05:46:01.000Z</time>
      </trkpt>
      <trkpt lat="45.22104" lon="5.73519">
        <ele>1058.4000244141</ele>
        <time>2021-05-22T05:46:03.000Z</time>
      </trkpt>
      <trkpt lat="45.22102" lon="5.73517">
        <ele>1058.8000488281</ele>
        <time>2021-05-22T05:46:06.000Z</time>
      </trkpt>
      <trkpt lat="45.22099" lon="5.73514">
        <ele>1060</ele>
        <time>2021-05-22T05:46:09.000Z</time>
      </trkpt>
      <trkpt lat="45.22093" lon="5.73509">
        <ele>1061</ele>
        <time>2021-05-22T05:46:14.000Z</time>
      </trkpt>
      <trkpt lat="45.22092" lon="5.7351">
        <ele>1061.1999511719</ele>
        <time>2021-05-22T05:46:15.000Z</time>
      </trkpt>
      <trkpt lat="45.22089" lon="5.7351">
        <ele>1061.5999755859</ele>
        <time>2021-05-22T05:46:17.000Z</time>
      </trkpt>
      <trkpt lat="45.22085" lon="5.73508">
        <ele>1062.4000244141</ele>
        <time>2021-05-22T05:46:20.000Z</time>
      </trkpt>
      <trkpt lat="45.2208" lon="5.73507">
        <ele>1063.4000244141</ele>
        <time>2021-05-22T05:46:24.000Z</time>
      </trkpt>
      <trkpt lat="45.22075" lon="5.73505">
        <ele>1063.5999755859</ele>
        <time>2021-05-22T05:46:26.000Z</time>
      </trkpt>
      <trkpt lat="45.22069" lon="5.73501">
        <ele>1064.1999511719</ele>
        <time>2021-05-22T05:46:29.000Z</time>
      </trkpt>
      <trkpt lat="45.22065" lon="5.73499">
        <ele>1064.4000244141</ele>
        <time>2021-05-22T05:46:31.000Z</time>
      </trkpt>
      <trkpt lat="45.22063" lon="5.73498">
        <ele>1064.5999755859</ele>
        <time>2021-05-22T05:46:32.000Z</time>
      </trkpt>
      <trkpt lat="45.22057" lon="5.73492">
        <ele>1065.5999755859</ele>
        <time>2021-05-22T05:46:37.000Z</time>
      </trkpt>
      <trkpt lat="45.22052" lon="5.7349">
        <ele>1065.8000488281</ele>
        <time>2021-05-22T05:46:40.000Z</time>
      </trkpt>
      <trkpt lat="45.22048" lon="5.73487">
        <ele>1066.5999755859</ele>
        <time>2021-05-22T05:46:43.000Z</time>
      </trkpt>
      <trkpt lat="45.22048" lon="5.73484">
        <ele>1066.5999755859</ele>
        <time>2021-05-22T05:46:44.000Z</time>
      </trkpt>
      <trkpt lat="45.22045" lon="5.73478">
        <ele>1067.4000244141</ele>
        <time>2021-05-22T05:46:47.000Z</time>
      </trkpt>
      <trkpt lat="45.22043" lon="5.73477">
        <ele>1067.8000488281</ele>
        <time>2021-05-22T05:46:48.000Z</time>
      </trkpt>
      <trkpt lat="45.2204" lon="5.73475">
        <ele>1068.1999511719</ele>
        <time>2021-05-22T05:46:50.000Z</time>
      </trkpt>
      <trkpt lat="45.22038" lon="5.73473">
        <ele>1069</ele>
        <time>2021-05-22T05:46:52.000Z</time>
      </trkpt>
      <trkpt lat="45.22037" lon="5.73471">
        <ele>1069.1999511719</ele>
        <time>2021-05-22T05:46:53.000Z</time>
      </trkpt>
      <trkpt lat="45.22035" lon="5.7347">
        <ele>1069.4000244141</ele>
        <time>2021-05-22T05:46:55.000Z</time>
      </trkpt>
      <trkpt lat="45.22033" lon="5.73469">
        <ele>1070.4000244141</ele>
        <time>2021-05-22T05:46:57.000Z</time>
      </trkpt>
      <trkpt lat="45.22032" lon="5.73466">
        <ele>1070.8000488281</ele>
        <time>2021-05-22T05:46:59.000Z</time>
      </trkpt>
      <trkpt lat="45.22031" lon="5.73464">
        <ele>1071.4000244141</ele>
        <time>2021-05-22T05:47:01.000Z</time>
      </trkpt>
      <trkpt lat="45.2203" lon="5.73462">
        <ele>1071.5999755859</ele>
        <time>2021-05-22T05:47:02.000Z</time>
      </trkpt>
      <trkpt lat="45.22027" lon="5.73456">
        <ele>1072.4000244141</ele>
        <time>2021-05-22T05:47:06.000Z</time>
      </trkpt>
      <trkpt lat="45.22024" lon="5.73454">
        <ele>1073.1999511719</ele>
        <time>2021-05-22T05:47:09.000Z</time>
      </trkpt>
      <trkpt lat="45.22023" lon="5.73452">
        <ele>1073.5999755859</ele>
        <time>2021-05-22T05:47:10.000Z</time>
      </trkpt>
      <trkpt lat="45.22016" lon="5.7345">
        <ele>1074</ele>
        <time>2021-05-22T05:47:13.000Z</time>
      </trkpt>
      <trkpt lat="45.22004" lon="5.73446">
        <ele>1074.8000488281</ele>
        <time>2021-05-22T05:47:18.000Z</time>
      </trkpt>
      <trkpt lat="45.22003" lon="5.73446">
        <ele>1075</ele>
        <time>2021-05-22T05:47:19.000Z</time>
      </trkpt>
      <trkpt lat="45.21993" lon="5.73447">
        <ele>1074.8000488281</ele>
        <time>2021-05-22T05:47:24.000Z</time>
      </trkpt>
      <trkpt lat="45.2199" lon="5.73445">
        <ele>1074.4000244141</ele>
        <time>2021-05-22T05:47:26.000Z</time>
      </trkpt>
      <trkpt lat="45.21983" lon="5.73442">
        <ele>1073.5999755859</ele>
        <time>2021-05-22T05:47:30.000Z</time>
      </trkpt>
      <trkpt lat="45.2198" lon="5.7344">
        <ele>1073</ele>
        <time>2021-05-22T05:47:32.000Z</time>
      </trkpt>
      <trkpt lat="45.21977" lon="5.73437">
        <ele>1072.4000244141</ele>
        <time>2021-05-22T05:47:34.000Z</time>
      </trkpt>
      <trkpt lat="45.2197" lon="5.73435">
        <ele>1071.1999511719</ele>
        <time>2021-05-22T05:47:38.000Z</time>
      </trkpt>
      <trkpt lat="45.21968" lon="5.73435">
        <ele>1071.1999511719</ele>
        <time>2021-05-22T05:47:39.000Z</time>
      </trkpt>
      <trkpt lat="45.21951" lon="5.73437">
        <ele>1070.4000244141</ele>
        <time>2021-05-22T05:47:46.000Z</time>
      </trkpt>
      <trkpt lat="45.21949" lon="5.73438">
        <ele>1070.1999511719</ele>
        <time>2021-05-22T05:47:47.000Z</time>
      </trkpt>
      <trkpt lat="45.21943" lon="5.73436">
        <ele>1069.5999755859</ele>
        <time>2021-05-22T05:47:50.000Z</time>
      </trkpt>
      <trkpt lat="45.21943" lon="5.73435">
        <ele>1069.5999755859</ele>
        <time>2021-05-22T05:47:51.000Z</time>
      </trkpt>
      <trkpt lat="45.2194" lon="5.73433">
        <ele>1069.1999511719</ele>
        <time>2021-05-22T05:47:54.000Z</time>
      </trkpt>
      <trkpt lat="45.21939" lon="5.73432">
        <ele>1069</ele>
        <time>2021-05-22T05:47:55.000Z</time>
      </trkpt>
      <trkpt lat="45.21937" lon="5.7343">
        <ele>1068.8000488281</ele>
        <time>2021-05-22T05:47:56.000Z</time>
      </trkpt>
      <trkpt lat="45.21935" lon="5.73426">
        <ele>1068.1999511719</ele>
        <time>2021-05-22T05:47:59.000Z</time>
      </trkpt>
      <trkpt lat="45.21933" lon="5.73424">
        <ele>1068</ele>
        <time>2021-05-22T05:48:00.000Z</time>
      </trkpt>
      <trkpt lat="45.2193" lon="5.73421">
        <ele>1067.5999755859</ele>
        <time>2021-05-22T05:48:02.000Z</time>
      </trkpt>
      <trkpt lat="45.21925" lon="5.73413">
        <ele>1067</ele>
        <time>2021-05-22T05:48:05.000Z</time>
      </trkpt>
      <trkpt lat="45.21922" lon="5.73409">
        <ele>1066.8000488281</ele>
        <time>2021-05-22T05:48:07.000Z</time>
      </trkpt>
      <trkpt lat="45.21921" lon="5.73402">
        <ele>1066.5999755859</ele>
        <time>2021-05-22T05:48:09.000Z</time>
      </trkpt>
      <trkpt lat="45.2192" lon="5.73397">
        <ele>1067</ele>
        <time>2021-05-22T05:48:11.000Z</time>
      </trkpt>
      <trkpt lat="45.21914" lon="5.73396">
        <ele>1067.5999755859</ele>
        <time>2021-05-22T05:48:14.000Z</time>
      </trkpt>
      <trkpt lat="45.21909" lon="5.73395">
        <ele>1068.1999511719</ele>
        <time>2021-05-22T05:48:17.000Z</time>
      </trkpt>
      <trkpt lat="45.21904" lon="5.73392">
        <ele>1068.4000244141</ele>
        <time>2021-05-22T05:48:20.000Z</time>
      </trkpt>
      <trkpt lat="45.21898" lon="5.73391">
        <ele>1067.8000488281</ele>
        <time>2021-05-22T05:48:24.000Z</time>
      </trkpt>
      <trkpt lat="45.21895" lon="5.73388">
        <ele>1067.8000488281</ele>
        <time>2021-05-22T05:48:26.000Z</time>
      </trkpt>
      <trkpt lat="45.2189" lon="5.73384">
        <ele>1067.1999511719</ele>
        <time>2021-05-22T05:48:29.000Z</time>
      </trkpt>
      <trkpt lat="45.21887" lon="5.73383">
        <ele>1067</ele>
        <time>2021-05-22T05:48:31.000Z</time>
      </trkpt>
      <trkpt lat="45.21886" lon="5.73382">
        <ele>1067</ele>
        <time>2021-05-22T05:48:32.000Z</time>
      </trkpt>
      <trkpt lat="45.2188" lon="5.73375">
        <ele>1067</ele>
        <time>2021-05-22T05:48:37.000Z</time>
      </trkpt>
      <trkpt lat="45.21878" lon="5.73373">
        <ele>1067.1999511719</ele>
        <time>2021-05-22T05:48:39.000Z</time>
      </trkpt>
      <trkpt lat="45.21874" lon="5.73369">
        <ele>1067.5999755859</ele>
        <time>2021-05-22T05:48:43.000Z</time>
      </trkpt>
      <trkpt lat="45.21872" lon="5.73368">
        <ele>1068</ele>
        <time>2021-05-22T05:48:44.000Z</time>
      </trkpt>
      <trkpt lat="45.21871" lon="5.73367">
        <ele>1068.1999511719</ele>
        <time>2021-05-22T05:48:45.000Z</time>
      </trkpt>
      <trkpt lat="45.2187" lon="5.73366">
        <ele>1068.8000488281</ele>
        <time>2021-05-22T05:48:46.000Z</time>
      </trkpt>
      <trkpt lat="45.21869" lon="5.73364">
        <ele>1069.5999755859</ele>
        <time>2021-05-22T05:48:48.000Z</time>
      </trkpt>
      <trkpt lat="45.21868" lon="5.73363">
        <ele>1069.8000488281</ele>
        <time>2021-05-22T05:48:49.000Z</time>
      </trkpt>
      <trkpt lat="45.21865" lon="5.73362">
        <ele>1070.5999755859</ele>
        <time>2021-05-22T05:48:52.000Z</time>
      </trkpt>
      <trkpt lat="45.21861" lon="5.7336">
        <ele>1071.4000244141</ele>
        <time>2021-05-22T05:48:55.000Z</time>
      </trkpt>
      <trkpt lat="45.21859" lon="5.73358">
        <ele>1071.8000488281</ele>
        <time>2021-05-22T05:48:57.000Z</time>
      </trkpt>
      <trkpt lat="45.21856" lon="5.73356">
        <ele>1072.4000244141</ele>
        <time>2021-05-22T05:48:59.000Z</time>
      </trkpt>
      <trkpt lat="45.21856" lon="5.73356">
        <ele>1072.8000488281</ele>
        <time>2021-05-22T05:49:00.000Z</time>
      </trkpt>
      <trkpt lat="45.21851" lon="5.73355">
        <ele>1073.8000488281</ele>
        <time>2021-05-22T05:49:03.000Z</time>
      </trkpt>
      <trkpt lat="45.2185" lon="5.73354">
        <ele>1074.1999511719</ele>
        <time>2021-05-22T05:49:04.000Z</time>
      </trkpt>
      <trkpt lat="45.21842" lon="5.73345">
        <ele>1074.5999755859</ele>
        <time>2021-05-22T05:49:09.000Z</time>
      </trkpt>
      <trkpt lat="45.21839" lon="5.73342">
        <ele>1074.5999755859</ele>
        <time>2021-05-22T05:49:11.000Z</time>
      </trkpt>
      <trkpt lat="45.21834" lon="5.73336">
        <ele>1074.1999511719</ele>
        <time>2021-05-22T05:49:14.000Z</time>
      </trkpt>
      <trkpt lat="45.21831" lon="5.73332">
        <ele>1073.5999755859</ele>
        <time>2021-05-22T05:49:16.000Z</time>
      </trkpt>
      <trkpt lat="45.21828" lon="5.7333">
        <ele>1072.8000488281</ele>
        <time>2021-05-22T05:49:18.000Z</time>
      </trkpt>
      <trkpt lat="45.21827" lon="5.73329">
        <ele>1072.4000244141</ele>
        <time>2021-05-22T05:49:19.000Z</time>
      </trkpt>
      <trkpt lat="45.21823" lon="5.73326">
        <ele>1071.8000488281</ele>
        <time>2021-05-22T05:49:22.000Z</time>
      </trkpt>
      <trkpt lat="45.21822" lon="5.73326">
        <ele>1071.5999755859</ele>
        <time>2021-05-22T05:49:23.000Z</time>
      </trkpt>
      <trkpt lat="45.21816" lon="5.7332">
        <ele>1070</ele>
        <time>2021-05-22T05:49:27.000Z</time>
      </trkpt>
      <trkpt lat="45.21809" lon="5.73315">
        <ele>1068.8000488281</ele>
        <time>2021-05-22T05:49:31.000Z</time>
      </trkpt>
      <trkpt lat="45.21807" lon="5.73313">
        <ele>1068.8000488281</ele>
        <time>2021-05-22T05:49:32.000Z</time>
      </trkpt>
      <trkpt lat="45.21805" lon="5.73311">
        <ele>1068.1999511719</ele>
        <time>2021-05-22T05:49:33.000Z</time>
      </trkpt>
      <trkpt lat="45.21803" lon="5.7331">
        <ele>1068</ele>
        <time>2021-05-22T05:49:34.000Z</time>
      </trkpt>
      <trkpt lat="45.21801" lon="5.73308">
        <ele>1067.8000488281</ele>
        <time>2021-05-22T05:49:35.000Z</time>
      </trkpt>
      <trkpt lat="45.21792" lon="5.73297">
        <ele>1066.5999755859</ele>
        <time>2021-05-22T05:49:40.000Z</time>
      </trkpt>
      <trkpt lat="45.21788" lon="5.73291">
        <ele>1065.5999755859</ele>
        <time>2021-05-22T05:49:43.000Z</time>
      </trkpt>
      <trkpt lat="45.21787" lon="5.7329">
        <ele>1065.4000244141</ele>
        <time>2021-05-22T05:49:44.000Z</time>
      </trkpt>
      <trkpt lat="45.21783" lon="5.73288">
        <ele>1065</ele>
        <time>2021-05-22T05:49:46.000Z</time>
      </trkpt>
      <trkpt lat="45.21782" lon="5.73286">
        <ele>1064.1999511719</ele>
        <time>2021-05-22T05:49:47.000Z</time>
      </trkpt>
      <trkpt lat="45.21777" lon="5.73281">
        <ele>1062.8000488281</ele>
        <time>2021-05-22T05:49:50.000Z</time>
      </trkpt>
      <trkpt lat="45.21776" lon="5.73279">
        <ele>1062.5999755859</ele>
        <time>2021-05-22T05:49:51.000Z</time>
      </trkpt>
      <trkpt lat="45.21777" lon="5.73276">
        <ele>1062.4000244141</ele>
        <time>2021-05-22T05:49:52.000Z</time>
      </trkpt>
      <trkpt lat="45.2178" lon="5.73273">
        <ele>1061.8000488281</ele>
        <time>2021-05-22T05:49:54.000Z</time>
      </trkpt>
      <trkpt lat="45.21781" lon="5.73272">
        <ele>1061.4000244141</ele>
        <time>2021-05-22T05:49:55.000Z</time>
      </trkpt>
      <trkpt lat="45.21781" lon="5.7327">
        <ele>1061.1999511719</ele>
        <time>2021-05-22T05:49:56.000Z</time>
      </trkpt>
      <trkpt lat="45.21781" lon="5.73267">
        <ele>1060.5999755859</ele>
        <time>2021-05-22T05:49:58.000Z</time>
      </trkpt>
      <trkpt lat="45.2178" lon="5.73265">
        <ele>1060</ele>
        <time>2021-05-22T05:49:59.000Z</time>
      </trkpt>
      <trkpt lat="45.21776" lon="5.73254">
        <ele>1059</ele>
        <time>2021-05-22T05:50:03.000Z</time>
      </trkpt>
      <trkpt lat="45.21776" lon="5.73251">
        <ele>1058.5999755859</ele>
        <time>2021-05-22T05:50:04.000Z</time>
      </trkpt>
      <trkpt lat="45.21774" lon="5.73248">
        <ele>1057.8000488281</ele>
        <time>2021-05-22T05:50:06.000Z</time>
      </trkpt>
      <trkpt lat="45.21773" lon="5.73245">
        <ele>1057.4000244141</ele>
        <time>2021-05-22T05:50:07.000Z</time>
      </trkpt>
      <trkpt lat="45.21772" lon="5.73244">
        <ele>1057.1999511719</ele>
        <time>2021-05-22T05:50:08.000Z</time>
      </trkpt>
      <trkpt lat="45.21766" lon="5.73242">
        <ele>1057</ele>
        <time>2021-05-22T05:50:12.000Z</time>
      </trkpt>
      <trkpt lat="45.21762" lon="5.73237">
        <ele>1057</ele>
        <time>2021-05-22T05:50:15.000Z</time>
      </trkpt>
      <trkpt lat="45.2176" lon="5.73234">
        <ele>1057</ele>
        <time>2021-05-22T05:50:17.000Z</time>
      </trkpt>
      <trkpt lat="45.21758" lon="5.73231">
        <ele>1056.8000488281</ele>
        <time>2021-05-22T05:50:19.000Z</time>
      </trkpt>
      <trkpt lat="45.21756" lon="5.73228">
        <ele>1056.4000244141</ele>
        <time>2021-05-22T05:50:20.000Z</time>
      </trkpt>
      <trkpt lat="45.21756" lon="5.73228">
        <ele>1056</ele>
        <time>2021-05-22T05:50:21.000Z</time>
      </trkpt>
      <trkpt lat="45.21756" lon="5.73224">
        <ele>1055.4000244141</ele>
        <time>2021-05-22T05:50:23.000Z</time>
      </trkpt>
      <trkpt lat="45.21755" lon="5.73218">
        <ele>1054</ele>
        <time>2021-05-22T05:50:26.000Z</time>
      </trkpt>
      <trkpt lat="45.21754" lon="5.73216">
        <ele>1053.5999755859</ele>
        <time>2021-05-22T05:50:27.000Z</time>
      </trkpt>
      <trkpt lat="45.21752" lon="5.73214">
        <ele>1053.1999511719</ele>
        <time>2021-05-22T05:50:28.000Z</time>
      </trkpt>
      <trkpt lat="45.21751" lon="5.73212">
        <ele>1053</ele>
        <time>2021-05-22T05:50:29.000Z</time>
      </trkpt>
      <trkpt lat="45.21748" lon="5.73209">
        <ele>1053</ele>
        <time>2021-05-22T05:50:31.000Z</time>
      </trkpt>
      <trkpt lat="45.21747" lon="5.73208">
        <ele>1053</ele>
        <time>2021-05-22T05:50:32.000Z</time>
      </trkpt>
      <trkpt lat="45.21745" lon="5.73208">
        <ele>1053.1999511719</ele>
        <time>2021-05-22T05:50:34.000Z</time>
      </trkpt>
      <trkpt lat="45.21741" lon="5.73211">
        <ele>1053.8000488281</ele>
        <time>2021-05-22T05:50:37.000Z</time>
      </trkpt>
      <trkpt lat="45.21737" lon="5.73213">
        <ele>1054</ele>
        <time>2021-05-22T05:50:40.000Z</time>
      </trkpt>
      <trkpt lat="45.21734" lon="5.73217">
        <ele>1053.5999755859</ele>
        <time>2021-05-22T05:50:44.000Z</time>
      </trkpt>
      <trkpt lat="45.21733" lon="5.73218">
        <ele>1053</ele>
        <time>2021-05-22T05:50:47.000Z</time>
      </trkpt>
      <trkpt lat="45.21731" lon="5.7322">
        <ele>1051.8000488281</ele>
        <time>2021-05-22T05:50:50.000Z</time>
      </trkpt>
      <trkpt lat="45.21726" lon="5.73222">
        <ele>1050.5999755859</ele>
        <time>2021-05-22T05:50:54.000Z</time>
      </trkpt>
      <trkpt lat="45.21724" lon="5.73221">
        <ele>1050.1999511719</ele>
        <time>2021-05-22T05:50:55.000Z</time>
      </trkpt>
      <trkpt lat="45.21721" lon="5.73219">
        <ele>1049.5999755859</ele>
        <time>2021-05-22T05:50:57.000Z</time>
      </trkpt>
      <trkpt lat="45.21719" lon="5.73216">
        <ele>1049.4000244141</ele>
        <time>2021-05-22T05:50:58.000Z</time>
      </trkpt>
      <trkpt lat="45.21714" lon="5.73212">
        <ele>1048.4000244141</ele>
        <time>2021-05-22T05:51:00.000Z</time>
      </trkpt>
      <trkpt lat="45.21707" lon="5.73201">
        <ele>1047.5999755859</ele>
        <time>2021-05-22T05:51:05.000Z</time>
      </trkpt>
      <trkpt lat="45.21704" lon="5.73197">
        <ele>1047.4000244141</ele>
        <time>2021-05-22T05:51:07.000Z</time>
      </trkpt>
      <trkpt lat="45.21697" lon="5.7319">
        <ele>1047</ele>
        <time>2021-05-22T05:51:11.000Z</time>
      </trkpt>
      <trkpt lat="45.21696" lon="5.73188">
        <ele>1046.8000488281</ele>
        <time>2021-05-22T05:51:12.000Z</time>
      </trkpt>
      <trkpt lat="45.21693" lon="5.73184">
        <ele>1046.1999511719</ele>
        <time>2021-05-22T05:51:14.000Z</time>
      </trkpt>
      <trkpt lat="45.21692" lon="5.73183">
        <ele>1046.1999511719</ele>
        <time>2021-05-22T05:51:15.000Z</time>
      </trkpt>
      <trkpt lat="45.21689" lon="5.73178">
        <ele>1045.1999511719</ele>
        <time>2021-05-22T05:51:18.000Z</time>
      </trkpt>
      <trkpt lat="45.21687" lon="5.73177">
        <ele>1044.5999755859</ele>
        <time>2021-05-22T05:51:19.000Z</time>
      </trkpt>
      <trkpt lat="45.21685" lon="5.73175">
        <ele>1043.5999755859</ele>
        <time>2021-05-22T05:51:21.000Z</time>
      </trkpt>
      <trkpt lat="45.21681" lon="5.73172">
        <ele>1042.5999755859</ele>
        <time>2021-05-22T05:51:25.000Z</time>
      </trkpt>
      <trkpt lat="45.21679" lon="5.73171">
        <ele>1041.4000244141</ele>
        <time>2021-05-22T05:51:27.000Z</time>
      </trkpt>
      <trkpt lat="45.21677" lon="5.73165">
        <ele>1040.1999511719</ele>
        <time>2021-05-22T05:51:30.000Z</time>
      </trkpt>
      <trkpt lat="45.21675" lon="5.73162">
        <ele>1039.5999755859</ele>
        <time>2021-05-22T05:51:32.000Z</time>
      </trkpt>
      <trkpt lat="45.21674" lon="5.73158">
        <ele>1038.8000488281</ele>
        <time>2021-05-22T05:51:34.000Z</time>
      </trkpt>
      <trkpt lat="45.21672" lon="5.73153">
        <ele>1038.1999511719</ele>
        <time>2021-05-22T05:51:37.000Z</time>
      </trkpt>
      <trkpt lat="45.21672" lon="5.73152">
        <ele>1037.5999755859</ele>
        <time>2021-05-22T05:51:38.000Z</time>
      </trkpt>
      <trkpt lat="45.21671" lon="5.73151">
        <ele>1037</ele>
        <time>2021-05-22T05:51:39.000Z</time>
      </trkpt>
      <trkpt lat="45.21671" lon="5.7315">
        <ele>1036.4000244141</ele>
        <time>2021-05-22T05:51:40.000Z</time>
      </trkpt>
      <trkpt lat="45.21668" lon="5.73148">
        <ele>1035.1999511719</ele>
        <time>2021-05-22T05:51:43.000Z</time>
      </trkpt>
      <trkpt lat="45.21667" lon="5.73146">
        <ele>1034.5999755859</ele>
        <time>2021-05-22T05:51:45.000Z</time>
      </trkpt>
      <trkpt lat="45.21665" lon="5.73146">
        <ele>1034.1999511719</ele>
        <time>2021-05-22T05:51:47.000Z</time>
      </trkpt>
      <trkpt lat="45.21664" lon="5.73147">
        <ele>1033.8000488281</ele>
        <time>2021-05-22T05:51:48.000Z</time>
      </trkpt>
      <trkpt lat="45.21661" lon="5.73145">
        <ele>1033.1999511719</ele>
        <time>2021-05-22T05:51:50.000Z</time>
      </trkpt>
      <trkpt lat="45.2166" lon="5.73144">
        <ele>1032.8000488281</ele>
        <time>2021-05-22T05:51:51.000Z</time>
      </trkpt>
      <trkpt lat="45.21659" lon="5.73143">
        <ele>1032</ele>
        <time>2021-05-22T05:51:52.000Z</time>
      </trkpt>
      <trkpt lat="45.21659" lon="5.73143">
        <ele>1031.4000244141</ele>
        <time>2021-05-22T05:51:53.000Z</time>
      </trkpt>
      <trkpt lat="45.21659" lon="5.73143">
        <ele>1030.8000488281</ele>
        <time>2021-05-22T05:51:54.000Z</time>
      </trkpt>
      <trkpt lat="45.21659" lon="5.73142">
        <ele>1030.1999511719</ele>
        <time>2021-05-22T05:51:55.000Z</time>
      </trkpt>
      <trkpt lat="45.21656" lon="5.73142">
        <ele>1029.5999755859</ele>
        <time>2021-05-22T05:51:57.000Z</time>
      </trkpt>
      <trkpt lat="45.21653" lon="5.7314">
        <ele>1028.5999755859</ele>
        <time>2021-05-22T05:51:59.000Z</time>
      </trkpt>
      <trkpt lat="45.21652" lon="5.7314">
        <ele>1028.1999511719</ele>
        <time>2021-05-22T05:52:00.000Z</time>
      </trkpt>
      <trkpt lat="45.21648" lon="5.73139">
        <ele>1027.4000244141</ele>
        <time>2021-05-22T05:52:02.000Z</time>
      </trkpt>
      <trkpt lat="45.21642" lon="5.7314">
        <ele>1025.8000488281</ele>
        <time>2021-05-22T05:52:06.000Z</time>
      </trkpt>
      <trkpt lat="45.21639" lon="5.73143">
        <ele>1024.5999755859</ele>
        <time>2021-05-22T05:52:08.000Z</time>
      </trkpt>
      <trkpt lat="45.21636" lon="5.73145">
        <ele>1024</ele>
        <time>2021-05-22T05:52:10.000Z</time>
      </trkpt>
      <trkpt lat="45.2163" lon="5.73144">
        <ele>1023.4000244141</ele>
        <time>2021-05-22T05:52:13.000Z</time>
      </trkpt>
      <trkpt lat="45.21626" lon="5.73142">
        <ele>1022.4000244141</ele>
        <time>2021-05-22T05:52:15.000Z</time>
      </trkpt>
      <trkpt lat="45.21623" lon="5.73141">
        <ele>1021.200012207</ele>
        <time>2021-05-22T05:52:16.000Z</time>
      </trkpt>
      <trkpt lat="45.21617" lon="5.73139">
        <ele>1019.5999755859</ele>
        <time>2021-05-22T05:52:18.000Z</time>
      </trkpt>
      <trkpt lat="45.21611" lon="5.73137">
        <ele>1018.4000244141</ele>
        <time>2021-05-22T05:52:20.000Z</time>
      </trkpt>
      <trkpt lat="45.21601" lon="5.73135">
        <ele>1017.200012207</ele>
        <time>2021-05-22T05:52:23.000Z</time>
      </trkpt>
      <trkpt lat="45.21597" lon="5.73134">
        <ele>1016.200012207</ele>
        <time>2021-05-22T05:52:24.000Z</time>
      </trkpt>
      <trkpt lat="45.21591" lon="5.7313">
        <ele>1015.4000244141</ele>
        <time>2021-05-22T05:52:26.000Z</time>
      </trkpt>
      <trkpt lat="45.21588" lon="5.7313">
        <ele>1015</ele>
        <time>2021-05-22T05:52:27.000Z</time>
      </trkpt>
      <trkpt lat="45.21585" lon="5.73131">
        <ele>1013.5999755859</ele>
        <time>2021-05-22T05:52:30.000Z</time>
      </trkpt>
      <trkpt lat="45.21583" lon="5.73134">
        <ele>1012.4000244141</ele>
        <time>2021-05-22T05:52:32.000Z</time>
      </trkpt>
      <trkpt lat="45.21582" lon="5.73136">
        <ele>1011</ele>
        <time>2021-05-22T05:52:35.000Z</time>
      </trkpt>
      <trkpt lat="45.21582" lon="5.73138">
        <ele>1010</ele>
        <time>2021-05-22T05:52:37.000Z</time>
      </trkpt>
      <trkpt lat="45.21585" lon="5.7314">
        <ele>1008.799987793</ele>
        <time>2021-05-22T05:52:40.000Z</time>
      </trkpt>
      <trkpt lat="45.21585" lon="5.73141">
        <ele>1008.4000244141</ele>
        <time>2021-05-22T05:52:41.000Z</time>
      </trkpt>
      <trkpt lat="45.21585" lon="5.73141">
        <ele>1007.799987793</ele>
        <time>2021-05-22T05:52:42.000Z</time>
      </trkpt>
      <trkpt lat="45.21585" lon="5.73143">
        <ele>1007.4000244141</ele>
        <time>2021-05-22T05:52:43.000Z</time>
      </trkpt>
      <trkpt lat="45.21582" lon="5.73146">
        <ele>1007</ele>
        <time>2021-05-22T05:52:45.000Z</time>
      </trkpt>
      <trkpt lat="45.21582" lon="5.73147">
        <ele>1006.4000244141</ele>
        <time>2021-05-22T05:52:46.000Z</time>
      </trkpt>
      <trkpt lat="45.21582" lon="5.73148">
        <ele>1005.5999755859</ele>
        <time>2021-05-22T05:52:47.000Z</time>
      </trkpt>
      <trkpt lat="45.21582" lon="5.73149">
        <ele>1005</ele>
        <time>2021-05-22T05:52:48.000Z</time>
      </trkpt>
      <trkpt lat="45.21582" lon="5.73152">
        <ele>1004.200012207</ele>
        <time>2021-05-22T05:52:50.000Z</time>
      </trkpt>
      <trkpt lat="45.21582" lon="5.73154">
        <ele>1003.799987793</ele>
        <time>2021-05-22T05:52:51.000Z</time>
      </trkpt>
      <trkpt lat="45.21581" lon="5.73157">
        <ele>1003</ele>
        <time>2021-05-22T05:52:53.000Z</time>
      </trkpt>
      <trkpt lat="45.21581" lon="5.73159">
        <ele>1002.799987793</ele>
        <time>2021-05-22T05:52:54.000Z</time>
      </trkpt>
      <trkpt lat="45.21581" lon="5.7316">
        <ele>1002.5999755859</ele>
        <time>2021-05-22T05:52:55.000Z</time>
      </trkpt>
      <trkpt lat="45.21581" lon="5.73161">
        <ele>1001.799987793</ele>
        <time>2021-05-22T05:52:56.000Z</time>
      </trkpt>
      <trkpt lat="45.2158" lon="5.73164">
        <ele>1001.4000244141</ele>
        <time>2021-05-22T05:52:57.000Z</time>
      </trkpt>
      <trkpt lat="45.21579" lon="5.73165">
        <ele>1000.200012207</ele>
        <time>2021-05-22T05:52:59.000Z</time>
      </trkpt>
      <trkpt lat="45.21577" lon="5.73166">
        <ele>999.40002441406</ele>
        <time>2021-05-22T05:53:01.000Z</time>
      </trkpt>
      <trkpt lat="45.21576" lon="5.73166">
        <ele>999</ele>
        <time>2021-05-22T05:53:02.000Z</time>
      </trkpt>
      <trkpt lat="45.21575" lon="5.73166">
        <ele>998.40002441406</ele>
        <time>2021-05-22T05:53:03.000Z</time>
      </trkpt>
      <trkpt lat="45.21575" lon="5.73167">
        <ele>998</ele>
        <time>2021-05-22T05:53:04.000Z</time>
      </trkpt>
      <trkpt lat="45.21575" lon="5.7317">
        <ele>997.20001220703</ele>
        <time>2021-05-22T05:53:06.000Z</time>
      </trkpt>
      <trkpt lat="45.21575" lon="5.73172">
        <ele>996.59997558594</ele>
        <time>2021-05-22T05:53:07.000Z</time>
      </trkpt>
      <trkpt lat="45.21575" lon="5.73175">
        <ele>995.20001220703</ele>
        <time>2021-05-22T05:53:10.000Z</time>
      </trkpt>
      <trkpt lat="45.21575" lon="5.73175">
        <ele>995</ele>
        <time>2021-05-22T05:53:11.000Z</time>
      </trkpt>
      <trkpt lat="45.21575" lon="5.73175">
        <ele>994.59997558594</ele>
        <time>2021-05-22T05:53:12.000Z</time>
      </trkpt>
      <trkpt lat="45.21576" lon="5.73177">
        <ele>994.20001220703</ele>
        <time>2021-05-22T05:53:13.000Z</time>
      </trkpt>
      <trkpt lat="45.21576" lon="5.73181">
        <ele>993.79998779297</ele>
        <time>2021-05-22T05:53:15.000Z</time>
      </trkpt>
      <trkpt lat="45.21577" lon="5.73181">
        <ele>993.20001220703</ele>
        <time>2021-05-22T05:53:16.000Z</time>
      </trkpt>
      <trkpt lat="45.21577" lon="5.73182">
        <ele>992.79998779297</ele>
        <time>2021-05-22T05:53:17.000Z</time>
      </trkpt>
      <trkpt lat="45.21578" lon="5.73184">
        <ele>992</ele>
        <time>2021-05-22T05:53:18.000Z</time>
      </trkpt>
      <trkpt lat="45.21581" lon="5.73187">
        <ele>991</ele>
        <time>2021-05-22T05:53:20.000Z</time>
      </trkpt>
      <trkpt lat="45.21585" lon="5.73191">
        <ele>990</ele>
        <time>2021-05-22T05:53:22.000Z</time>
      </trkpt>
      <trkpt lat="45.21586" lon="5.73194">
        <ele>989.40002441406</ele>
        <time>2021-05-22T05:53:23.000Z</time>
      </trkpt>
      <trkpt lat="45.21589" lon="5.732">
        <ele>988.79998779297</ele>
        <time>2021-05-22T05:53:25.000Z</time>
      </trkpt>
      <trkpt lat="45.21592" lon="5.73205">
        <ele>988.20001220703</ele>
        <time>2021-05-22T05:53:27.000Z</time>
      </trkpt>
      <trkpt lat="45.21598" lon="5.73212">
        <ele>986.79998779297</ele>
        <time>2021-05-22T05:53:31.000Z</time>
      </trkpt>
      <trkpt lat="45.21603" lon="5.73216">
        <ele>985.59997558594</ele>
        <time>2021-05-22T05:53:33.000Z</time>
      </trkpt>
      <trkpt lat="45.21605" lon="5.73218">
        <ele>985.20001220703</ele>
        <time>2021-05-22T05:53:34.000Z</time>
      </trkpt>
      <trkpt lat="45.21608" lon="5.73221">
        <ele>984.59997558594</ele>
        <time>2021-05-22T05:53:36.000Z</time>
      </trkpt>
      <trkpt lat="45.2161" lon="5.73223">
        <ele>984</ele>
        <time>2021-05-22T05:53:38.000Z</time>
      </trkpt>
      <trkpt lat="45.21611" lon="5.73226">
        <ele>983</ele>
        <time>2021-05-22T05:53:39.000Z</time>
      </trkpt>
      <trkpt lat="45.21612" lon="5.73228">
        <ele>982.59997558594</ele>
        <time>2021-05-22T05:53:40.000Z</time>
      </trkpt>
      <trkpt lat="45.21615" lon="5.73232">
        <ele>981.79998779297</ele>
        <time>2021-05-22T05:53:43.000Z</time>
      </trkpt>
      <trkpt lat="45.21617" lon="5.73237">
        <ele>980.59997558594</ele>
        <time>2021-05-22T05:53:44.000Z</time>
      </trkpt>
      <trkpt lat="45.21617" lon="5.73239">
        <ele>979.20001220703</ele>
        <time>2021-05-22T05:53:47.000Z</time>
      </trkpt>
      <trkpt lat="45.21621" lon="5.73245">
        <ele>977.79998779297</ele>
        <time>2021-05-22T05:53:50.000Z</time>
      </trkpt>
      <trkpt lat="45.21623" lon="5.73247">
        <ele>977.40002441406</ele>
        <time>2021-05-22T05:53:51.000Z</time>
      </trkpt>
      <trkpt lat="45.21627" lon="5.73254">
        <ele>976.40002441406</ele>
        <time>2021-05-22T05:53:54.000Z</time>
      </trkpt>
      <trkpt lat="45.21629" lon="5.73255">
        <ele>975.79998779297</ele>
        <time>2021-05-22T05:53:55.000Z</time>
      </trkpt>
      <trkpt lat="45.21631" lon="5.73257">
        <ele>975.40002441406</ele>
        <time>2021-05-22T05:53:56.000Z</time>
      </trkpt>
      <trkpt lat="45.21632" lon="5.73261">
        <ele>975.20001220703</ele>
        <time>2021-05-22T05:53:57.000Z</time>
      </trkpt>
      <trkpt lat="45.21636" lon="5.73271">
        <ele>974</ele>
        <time>2021-05-22T05:54:00.000Z</time>
      </trkpt>
      <trkpt lat="45.21639" lon="5.73281">
        <ele>973.20001220703</ele>
        <time>2021-05-22T05:54:03.000Z</time>
      </trkpt>
      <trkpt lat="45.21641" lon="5.73284">
        <ele>972.79998779297</ele>
        <time>2021-05-22T05:54:04.000Z</time>
      </trkpt>
      <trkpt lat="45.21642" lon="5.73288">
        <ele>972.59997558594</ele>
        <time>2021-05-22T05:54:05.000Z</time>
      </trkpt>
      <trkpt lat="45.21642" lon="5.73297">
        <ele>971.79998779297</ele>
        <time>2021-05-22T05:54:07.000Z</time>
      </trkpt>
      <trkpt lat="45.21644" lon="5.73304">
        <ele>970.59997558594</ele>
        <time>2021-05-22T05:54:10.000Z</time>
      </trkpt>
      <trkpt lat="45.21646" lon="5.73312">
        <ele>969</ele>
        <time>2021-05-22T05:54:13.000Z</time>
      </trkpt>
      <trkpt lat="45.21649" lon="5.73319">
        <ele>967.59997558594</ele>
        <time>2021-05-22T05:54:16.000Z</time>
      </trkpt>
      <trkpt lat="45.21651" lon="5.7332">
        <ele>967</ele>
        <time>2021-05-22T05:54:18.000Z</time>
      </trkpt>
      <trkpt lat="45.21652" lon="5.73321">
        <ele>966.40002441406</ele>
        <time>2021-05-22T05:54:20.000Z</time>
      </trkpt>
      <trkpt lat="45.21654" lon="5.73324">
        <ele>965.20001220703</ele>
        <time>2021-05-22T05:54:22.000Z</time>
      </trkpt>
      <trkpt lat="45.21655" lon="5.73328">
        <ele>964.40002441406</ele>
        <time>2021-05-22T05:54:24.000Z</time>
      </trkpt>
      <trkpt lat="45.21655" lon="5.73331">
        <ele>963.79998779297</ele>
        <time>2021-05-22T05:54:25.000Z</time>
      </trkpt>
      <trkpt lat="45.21656" lon="5.73337">
        <ele>962.59997558594</ele>
        <time>2021-05-22T05:54:27.000Z</time>
      </trkpt>
      <trkpt lat="45.21657" lon="5.73342">
        <ele>961.79998779297</ele>
        <time>2021-05-22T05:54:29.000Z</time>
      </trkpt>
      <trkpt lat="45.21658" lon="5.73344">
        <ele>961.20001220703</ele>
        <time>2021-05-22T05:54:30.000Z</time>
      </trkpt>
      <trkpt lat="45.21658" lon="5.73348">
        <ele>960.79998779297</ele>
        <time>2021-05-22T05:54:31.000Z</time>
      </trkpt>
      <trkpt lat="45.21658" lon="5.73351">
        <ele>960.20001220703</ele>
        <time>2021-05-22T05:54:32.000Z</time>
      </trkpt>
      <trkpt lat="45.21659" lon="5.73358">
        <ele>958.40002441406</ele>
        <time>2021-05-22T05:54:35.000Z</time>
      </trkpt>
      <trkpt lat="45.21659" lon="5.73359">
        <ele>958</ele>
        <time>2021-05-22T05:54:36.000Z</time>
      </trkpt>
      <trkpt lat="45.2166" lon="5.73362">
        <ele>957.20001220703</ele>
        <time>2021-05-22T05:54:37.000Z</time>
      </trkpt>
      <trkpt lat="45.21659" lon="5.73369">
        <ele>956.20001220703</ele>
        <time>2021-05-22T05:54:39.000Z</time>
      </trkpt>
      <trkpt lat="45.21659" lon="5.73372">
        <ele>955.79998779297</ele>
        <time>2021-05-22T05:54:40.000Z</time>
      </trkpt>
      <trkpt lat="45.21659" lon="5.73379">
        <ele>954.79998779297</ele>
        <time>2021-05-22T05:54:42.000Z</time>
      </trkpt>
      <trkpt lat="45.2166" lon="5.73388">
        <ele>953.20001220703</ele>
        <time>2021-05-22T05:54:45.000Z</time>
      </trkpt>
      <trkpt lat="45.2166" lon="5.7339">
        <ele>953</ele>
        <time>2021-05-22T05:54:46.000Z</time>
      </trkpt>
      <trkpt lat="45.21661" lon="5.73393">
        <ele>952.79998779297</ele>
        <time>2021-05-22T05:54:47.000Z</time>
      </trkpt>
      <trkpt lat="45.21661" lon="5.73397">
        <ele>952</ele>
        <time>2021-05-22T05:54:48.000Z</time>
      </trkpt>
      <trkpt lat="45.21662" lon="5.73403">
        <ele>951</ele>
        <time>2021-05-22T05:54:50.000Z</time>
      </trkpt>
      <trkpt lat="45.21663" lon="5.73412">
        <ele>949.20001220703</ele>
        <time>2021-05-22T05:54:53.000Z</time>
      </trkpt>
      <trkpt lat="45.21665" lon="5.73427">
        <ele>948</ele>
        <time>2021-05-22T05:54:56.000Z</time>
      </trkpt>
      <trkpt lat="45.21669" lon="5.73438">
        <ele>946.40002441406</ele>
        <time>2021-05-22T05:54:59.000Z</time>
      </trkpt>
      <trkpt lat="45.21671" lon="5.73448">
        <ele>945</ele>
        <time>2021-05-22T05:55:01.000Z</time>
      </trkpt>
      <trkpt lat="45.21672" lon="5.73458">
        <ele>943.59997558594</ele>
        <time>2021-05-22T05:55:04.000Z</time>
      </trkpt>
      <trkpt lat="45.21673" lon="5.73469">
        <ele>942.40002441406</ele>
        <time>2021-05-22T05:55:07.000Z</time>
      </trkpt>
      <trkpt lat="45.21674" lon="5.73472">
        <ele>942.20001220703</ele>
        <time>2021-05-22T05:55:08.000Z</time>
      </trkpt>
      <trkpt lat="45.21678" lon="5.73476">
        <ele>941.20001220703</ele>
        <time>2021-05-22T05:55:11.000Z</time>
      </trkpt>
      <trkpt lat="45.21679" lon="5.73479">
        <ele>940.59997558594</ele>
        <time>2021-05-22T05:55:13.000Z</time>
      </trkpt>
      <trkpt lat="45.21678" lon="5.73482">
        <ele>939.79998779297</ele>
        <time>2021-05-22T05:55:14.000Z</time>
      </trkpt>
      <trkpt lat="45.21679" lon="5.73486">
        <ele>938.79998779297</ele>
        <time>2021-05-22T05:55:17.000Z</time>
      </trkpt>
      <trkpt lat="45.21679" lon="5.73487">
        <ele>938.59997558594</ele>
        <time>2021-05-22T05:55:18.000Z</time>
      </trkpt>
      <trkpt lat="45.2168" lon="5.73489">
        <ele>937.59997558594</ele>
        <time>2021-05-22T05:55:21.000Z</time>
      </trkpt>
      <trkpt lat="45.21682" lon="5.73492">
        <ele>936.40002441406</ele>
        <time>2021-05-22T05:55:24.000Z</time>
      </trkpt>
      <trkpt lat="45.21681" lon="5.735">
        <ele>935.79998779297</ele>
        <time>2021-05-22T05:55:27.000Z</time>
      </trkpt>
      <trkpt lat="45.21683" lon="5.73501">
        <ele>935.40002441406</ele>
        <time>2021-05-22T05:55:29.000Z</time>
      </trkpt>
      <trkpt lat="45.21684" lon="5.73501">
        <ele>935.20001220703</ele>
        <time>2021-05-22T05:55:30.000Z</time>
      </trkpt>
      <trkpt lat="45.21687" lon="5.73501">
        <ele>934.40002441406</ele>
        <time>2021-05-22T05:55:33.000Z</time>
      </trkpt>
      <trkpt lat="45.21689" lon="5.73502">
        <ele>933.59997558594</ele>
        <time>2021-05-22T05:55:35.000Z</time>
      </trkpt>
      <trkpt lat="45.2169" lon="5.73502">
        <ele>933.20001220703</ele>
        <time>2021-05-22T05:55:36.000Z</time>
      </trkpt>
      <trkpt lat="45.21693" lon="5.73504">
        <ele>932.59997558594</ele>
        <time>2021-05-22T05:55:38.000Z</time>
      </trkpt>
      <trkpt lat="45.21695" lon="5.73506">
        <ele>931.59997558594</ele>
        <time>2021-05-22T05:55:41.000Z</time>
      </trkpt>
      <trkpt lat="45.21697" lon="5.73506">
        <ele>931</ele>
        <time>2021-05-22T05:55:42.000Z</time>
      </trkpt>
      <trkpt lat="45.21699" lon="5.73507">
        <ele>930</ele>
        <time>2021-05-22T05:55:44.000Z</time>
      </trkpt>
      <trkpt lat="45.217" lon="5.73508">
        <ele>929.59997558594</ele>
        <time>2021-05-22T05:55:45.000Z</time>
      </trkpt>
      <trkpt lat="45.21707" lon="5.7351">
        <ele>928.79998779297</ele>
        <time>2021-05-22T05:55:48.000Z</time>
      </trkpt>
      <trkpt lat="45.21711" lon="5.73511">
        <ele>928.20001220703</ele>
        <time>2021-05-22T05:55:50.000Z</time>
      </trkpt>
      <trkpt lat="45.21713" lon="5.73512">
        <ele>927.79998779297</ele>
        <time>2021-05-22T05:55:52.000Z</time>
      </trkpt>
      <trkpt lat="45.21713" lon="5.73514">
        <ele>927.59997558594</ele>
        <time>2021-05-22T05:55:53.000Z</time>
      </trkpt>
      <trkpt lat="45.21714" lon="5.73516">
        <ele>927.20001220703</ele>
        <time>2021-05-22T05:55:54.000Z</time>
      </trkpt>
      <trkpt lat="45.21717" lon="5.73517">
        <ele>927</ele>
        <time>2021-05-22T05:55:55.000Z</time>
      </trkpt>
      <trkpt lat="45.21722" lon="5.73518">
        <ele>926.79998779297</ele>
        <time>2021-05-22T05:55:57.000Z</time>
      </trkpt>
      <trkpt lat="45.21725" lon="5.73525">
        <ele>927</ele>
        <time>2021-05-22T05:56:00.000Z</time>
      </trkpt>
      <trkpt lat="45.21728" lon="5.73527">
        <ele>927.59997558594</ele>
        <time>2021-05-22T05:56:02.000Z</time>
      </trkpt>
      <trkpt lat="45.21734" lon="5.73528">
        <ele>927.79998779297</ele>
        <time>2021-05-22T05:56:05.000Z</time>
      </trkpt>
      <trkpt lat="45.21736" lon="5.73527">
        <ele>927.79998779297</ele>
        <time>2021-05-22T05:56:06.000Z</time>
      </trkpt>
      <trkpt lat="45.21738" lon="5.73527">
        <ele>927.79998779297</ele>
        <time>2021-05-22T05:56:07.000Z</time>
      </trkpt>
      <trkpt lat="45.21741" lon="5.73528">
        <ele>928</ele>
        <time>2021-05-22T05:56:09.000Z</time>
      </trkpt>
      <trkpt lat="45.21742" lon="5.73528">
        <ele>928</ele>
        <time>2021-05-22T05:56:10.000Z</time>
      </trkpt>
      <trkpt lat="45.21746" lon="5.7353">
        <ele>927.40002441406</ele>
        <time>2021-05-22T05:56:12.000Z</time>
      </trkpt>
      <trkpt lat="45.21755" lon="5.73532">
        <ele>926.40002441406</ele>
        <time>2021-05-22T05:56:15.000Z</time>
      </trkpt>
      <trkpt lat="45.21761" lon="5.73536">
        <ele>925.20001220703</ele>
        <time>2021-05-22T05:56:17.000Z</time>
      </trkpt>
      <trkpt lat="45.21763" lon="5.73538">
        <ele>924.79998779297</ele>
        <time>2021-05-22T05:56:18.000Z</time>
      </trkpt>
      <trkpt lat="45.21766" lon="5.73545">
        <ele>924.40002441406</ele>
        <time>2021-05-22T05:56:20.000Z</time>
      </trkpt>
      <trkpt lat="45.21766" lon="5.73546">
        <ele>924.20001220703</ele>
        <time>2021-05-22T05:56:22.000Z</time>
      </trkpt>
      <trkpt lat="45.21765" lon="5.73548">
        <ele>924.20001220703</ele>
        <time>2021-05-22T05:56:23.000Z</time>
      </trkpt>
      <trkpt lat="45.21765" lon="5.73549">
        <ele>924.20001220703</ele>
        <time>2021-05-22T05:56:27.000Z</time>
      </trkpt>
      <trkpt lat="45.21765" lon="5.73548">
        <ele>924.20001220703</ele>
        <time>2021-05-22T05:56:29.000Z</time>
      </trkpt>
      <trkpt lat="45.21765" lon="5.73547">
        <ele>924.20001220703</ele>
        <time>2021-05-22T05:56:32.000Z</time>
      </trkpt>
      <trkpt lat="45.21765" lon="5.73544">
        <ele>924.20001220703</ele>
        <time>2021-05-22T05:56:36.000Z</time>
      </trkpt>
      <trkpt lat="45.21765" lon="5.73546">
        <ele>924.20001220703</ele>
        <time>2021-05-22T05:56:38.000Z</time>
      </trkpt>
      <trkpt lat="45.21763" lon="5.73545">
        <ele>924.20001220703</ele>
        <time>2021-05-22T05:56:41.000Z</time>
      </trkpt>
      <trkpt lat="45.21761" lon="5.73544">
        <ele>924.59997558594</ele>
        <time>2021-05-22T05:56:44.000Z</time>
      </trkpt>
      <trkpt lat="45.21758" lon="5.73545">
        <ele>925.20001220703</ele>
        <time>2021-05-22T05:56:46.000Z</time>
      </trkpt>
      <trkpt lat="45.21755" lon="5.73544">
        <ele>925.79998779297</ele>
        <time>2021-05-22T05:56:48.000Z</time>
      </trkpt>
      <trkpt lat="45.21753" lon="5.73541">
        <ele>926.20001220703</ele>
        <time>2021-05-22T05:56:50.000Z</time>
      </trkpt>
      <trkpt lat="45.21752" lon="5.73541">
        <ele>926.40002441406</ele>
        <time>2021-05-22T05:56:51.000Z</time>
      </trkpt>
      <trkpt lat="45.2175" lon="5.73541">
        <ele>926.79998779297</ele>
        <time>2021-05-22T05:56:53.000Z</time>
      </trkpt>
      <trkpt lat="45.21748" lon="5.73542">
        <ele>927</ele>
        <time>2021-05-22T05:56:55.000Z</time>
      </trkpt>
      <trkpt lat="45.21747" lon="5.73541">
        <ele>927.40002441406</ele>
        <time>2021-05-22T05:56:56.000Z</time>
      </trkpt>
      <trkpt lat="45.21746" lon="5.73539">
        <ele>927.40002441406</ele>
        <time>2021-05-22T05:56:57.000Z</time>
      </trkpt>
      <trkpt lat="45.21745" lon="5.73539">
        <ele>927.59997558594</ele>
        <time>2021-05-22T05:56:58.000Z</time>
      </trkpt>
      <trkpt lat="45.21743" lon="5.7354">
        <ele>927.59997558594</ele>
        <time>2021-05-22T05:57:00.000Z</time>
      </trkpt>
      <trkpt lat="45.21741" lon="5.73541">
        <ele>927.59997558594</ele>
        <time>2021-05-22T05:57:01.000Z</time>
      </trkpt>
      <trkpt lat="45.21738" lon="5.73542">
        <ele>927.79998779297</ele>
        <time>2021-05-22T05:57:03.000Z</time>
      </trkpt>
      <trkpt lat="45.21732" lon="5.73544">
        <ele>927.79998779297</ele>
        <time>2021-05-22T05:57:06.000Z</time>
      </trkpt>
      <trkpt lat="45.21731" lon="5.73544">
        <ele>927.79998779297</ele>
        <time>2021-05-22T05:57:07.000Z</time>
      </trkpt>
      <trkpt lat="45.21729" lon="5.73542">
        <ele>927.79998779297</ele>
        <time>2021-05-22T05:57:08.000Z</time>
      </trkpt>
      <trkpt lat="45.21723" lon="5.73537">
        <ele>927.59997558594</ele>
        <time>2021-05-22T05:57:11.000Z</time>
      </trkpt>
      <trkpt lat="45.21722" lon="5.73536">
        <ele>927.40002441406</ele>
        <time>2021-05-22T05:57:12.000Z</time>
      </trkpt>
      <trkpt lat="45.21719" lon="5.73532">
        <ele>927.20001220703</ele>
        <time>2021-05-22T05:57:14.000Z</time>
      </trkpt>
      <trkpt lat="45.21716" lon="5.73528">
        <ele>927.40002441406</ele>
        <time>2021-05-22T05:57:17.000Z</time>
      </trkpt>
      <trkpt lat="45.21711" lon="5.73527">
        <ele>927.59997558594</ele>
        <time>2021-05-22T05:57:20.000Z</time>
      </trkpt>
      <trkpt lat="45.21705" lon="5.73527">
        <ele>928.20001220703</ele>
        <time>2021-05-22T05:57:23.000Z</time>
      </trkpt>
      <trkpt lat="45.21704" lon="5.73526">
        <ele>928.59997558594</ele>
        <time>2021-05-22T05:57:24.000Z</time>
      </trkpt>
      <trkpt lat="45.21701" lon="5.73523">
        <ele>928.79998779297</ele>
        <time>2021-05-22T05:57:26.000Z</time>
      </trkpt>
      <trkpt lat="45.21699" lon="5.73522">
        <ele>929.20001220703</ele>
        <time>2021-05-22T05:57:27.000Z</time>
      </trkpt>
      <trkpt lat="45.21698" lon="5.73522">
        <ele>929.59997558594</ele>
        <time>2021-05-22T05:57:28.000Z</time>
      </trkpt>
      <trkpt lat="45.21696" lon="5.7352">
        <ele>930</ele>
        <time>2021-05-22T05:57:30.000Z</time>
      </trkpt>
      <trkpt lat="45.21695" lon="5.73519">
        <ele>930.59997558594</ele>
        <time>2021-05-22T05:57:31.000Z</time>
      </trkpt>
      <trkpt lat="45.21694" lon="5.73519">
        <ele>930.79998779297</ele>
        <time>2021-05-22T05:57:32.000Z</time>
      </trkpt>
      <trkpt lat="45.21689" lon="5.73519">
        <ele>931.79998779297</ele>
        <time>2021-05-22T05:57:35.000Z</time>
      </trkpt>
      <trkpt lat="45.21686" lon="5.73517">
        <ele>932.59997558594</ele>
        <time>2021-05-22T05:57:36.000Z</time>
      </trkpt>
      <trkpt lat="45.21685" lon="5.73515">
        <ele>933</ele>
        <time>2021-05-22T05:57:39.000Z</time>
      </trkpt>
      <trkpt lat="45.21682" lon="5.73511">
        <ele>934.20001220703</ele>
        <time>2021-05-22T05:57:43.000Z</time>
      </trkpt>
      <trkpt lat="45.21681" lon="5.7351">
        <ele>934.40002441406</ele>
        <time>2021-05-22T05:57:44.000Z</time>
      </trkpt>
      <trkpt lat="45.2168" lon="5.7351">
        <ele>934.79998779297</ele>
        <time>2021-05-22T05:57:45.000Z</time>
      </trkpt>
      <trkpt lat="45.21678" lon="5.73507">
        <ele>935</ele>
        <time>2021-05-22T05:57:47.000Z</time>
      </trkpt>
      <trkpt lat="45.21677" lon="5.73506">
        <ele>935.40002441406</ele>
        <time>2021-05-22T05:57:48.000Z</time>
      </trkpt>
      <trkpt lat="45.21675" lon="5.73504">
        <ele>935.79998779297</ele>
        <time>2021-05-22T05:57:50.000Z</time>
      </trkpt>
      <trkpt lat="45.21674" lon="5.73502">
        <ele>936</ele>
        <time>2021-05-22T05:57:51.000Z</time>
      </trkpt>
      <trkpt lat="45.21673" lon="5.73499">
        <ele>936.40002441406</ele>
        <time>2021-05-22T05:57:53.000Z</time>
      </trkpt>
      <trkpt lat="45.21672" lon="5.73493">
        <ele>937.40002441406</ele>
        <time>2021-05-22T05:57:57.000Z</time>
      </trkpt>
      <trkpt lat="45.21672" lon="5.73491">
        <ele>937.59997558594</ele>
        <time>2021-05-22T05:57:58.000Z</time>
      </trkpt>
      <trkpt lat="45.21672" lon="5.73489">
        <ele>937.79998779297</ele>
        <time>2021-05-22T05:57:59.000Z</time>
      </trkpt>
      <trkpt lat="45.21667" lon="5.73476">
        <ele>938</ele>
        <time>2021-05-22T05:58:04.000Z</time>
      </trkpt>
      <trkpt lat="45.21663" lon="5.73458">
        <ele>936.40002441406</ele>
        <time>2021-05-22T05:58:09.000Z</time>
      </trkpt>
      <trkpt lat="45.21662" lon="5.73455">
        <ele>936</ele>
        <time>2021-05-22T05:58:10.000Z</time>
      </trkpt>
      <trkpt lat="45.21658" lon="5.73445">
        <ele>935.20001220703</ele>
        <time>2021-05-22T05:58:13.000Z</time>
      </trkpt>
      <trkpt lat="45.21651" lon="5.73428">
        <ele>934</ele>
        <time>2021-05-22T05:58:18.000Z</time>
      </trkpt>
      <trkpt lat="45.21642" lon="5.73413">
        <ele>933.20001220703</ele>
        <time>2021-05-22T05:58:23.000Z</time>
      </trkpt>
      <trkpt lat="45.21638" lon="5.73407">
        <ele>933</ele>
        <time>2021-05-22T05:58:25.000Z</time>
      </trkpt>
      <trkpt lat="45.21631" lon="5.73399">
        <ele>932.40002441406</ele>
        <time>2021-05-22T05:58:28.000Z</time>
      </trkpt>
      <trkpt lat="45.21629" lon="5.73397">
        <ele>932</ele>
        <time>2021-05-22T05:58:29.000Z</time>
      </trkpt>
      <trkpt lat="45.21627" lon="5.73395">
        <ele>931.59997558594</ele>
        <time>2021-05-22T05:58:30.000Z</time>
      </trkpt>
      <trkpt lat="45.21617" lon="5.73392">
        <ele>930.59997558594</ele>
        <time>2021-05-22T05:58:34.000Z</time>
      </trkpt>
      <trkpt lat="45.21614" lon="5.73391">
        <ele>930.20001220703</ele>
        <time>2021-05-22T05:58:35.000Z</time>
      </trkpt>
      <trkpt lat="45.21608" lon="5.73387">
        <ele>929.40002441406</ele>
        <time>2021-05-22T05:58:38.000Z</time>
      </trkpt>
      <trkpt lat="45.21606" lon="5.73386">
        <ele>929</ele>
        <time>2021-05-22T05:58:39.000Z</time>
      </trkpt>
      <trkpt lat="45.21603" lon="5.73381">
        <ele>928.20001220703</ele>
        <time>2021-05-22T05:58:41.000Z</time>
      </trkpt>
      <trkpt lat="45.21601" lon="5.7338">
        <ele>927.79998779297</ele>
        <time>2021-05-22T05:58:42.000Z</time>
      </trkpt>
      <trkpt lat="45.216" lon="5.73378">
        <ele>927.20001220703</ele>
        <time>2021-05-22T05:58:43.000Z</time>
      </trkpt>
      <trkpt lat="45.21598" lon="5.73375">
        <ele>926.20001220703</ele>
        <time>2021-05-22T05:58:44.000Z</time>
      </trkpt>
      <trkpt lat="45.21594" lon="5.73366">
        <ele>924.79998779297</ele>
        <time>2021-05-22T05:58:47.000Z</time>
      </trkpt>
      <trkpt lat="45.21587" lon="5.73357">
        <ele>923.40002441406</ele>
        <time>2021-05-22T05:58:51.000Z</time>
      </trkpt>
      <trkpt lat="45.2158" lon="5.73355">
        <ele>922.40002441406</ele>
        <time>2021-05-22T05:58:54.000Z</time>
      </trkpt>
      <trkpt lat="45.21572" lon="5.73354">
        <ele>921.79998779297</ele>
        <time>2021-05-22T05:58:56.000Z</time>
      </trkpt>
      <trkpt lat="45.21572" lon="5.73354">
        <ele>921.20001220703</ele>
        <time>2021-05-22T05:58:57.000Z</time>
      </trkpt>
      <trkpt lat="45.21565" lon="5.73351">
        <ele>919.79998779297</ele>
        <time>2021-05-22T05:59:00.000Z</time>
      </trkpt>
      <trkpt lat="45.21559" lon="5.73346">
        <ele>918.59997558594</ele>
        <time>2021-05-22T05:59:03.000Z</time>
      </trkpt>
      <trkpt lat="45.21548" lon="5.7334">
        <ele>917.59997558594</ele>
        <time>2021-05-22T05:59:08.000Z</time>
      </trkpt>
      <trkpt lat="45.21545" lon="5.7334">
        <ele>916.79998779297</ele>
        <time>2021-05-22T05:59:09.000Z</time>
      </trkpt>
      <trkpt lat="45.21538" lon="5.73343">
        <ele>915.40002441406</ele>
        <time>2021-05-22T05:59:12.000Z</time>
      </trkpt>
      <trkpt lat="45.21527" lon="5.73339">
        <ele>913.79998779297</ele>
        <time>2021-05-22T05:59:16.000Z</time>
      </trkpt>
      <trkpt lat="45.21522" lon="5.73336">
        <ele>912.79998779297</ele>
        <time>2021-05-22T05:59:18.000Z</time>
      </trkpt>
      <trkpt lat="45.21515" lon="5.73332">
        <ele>911.40002441406</ele>
        <time>2021-05-22T05:59:21.000Z</time>
      </trkpt>
      <trkpt lat="45.2151" lon="5.73324">
        <ele>910.40002441406</ele>
        <time>2021-05-22T05:59:25.000Z</time>
      </trkpt>
      <trkpt lat="45.2151" lon="5.73321">
        <ele>910</ele>
        <time>2021-05-22T05:59:26.000Z</time>
      </trkpt>
      <trkpt lat="45.21508" lon="5.73311">
        <ele>909</ele>
        <time>2021-05-22T05:59:29.000Z</time>
      </trkpt>
      <trkpt lat="45.21508" lon="5.73306">
        <ele>908.79998779297</ele>
        <time>2021-05-22T05:59:30.000Z</time>
      </trkpt>
      <trkpt lat="45.21506" lon="5.73301">
        <ele>908.59997558594</ele>
        <time>2021-05-22T05:59:32.000Z</time>
      </trkpt>
      <trkpt lat="45.21505" lon="5.73295">
        <ele>908.40002441406</ele>
        <time>2021-05-22T05:59:34.000Z</time>
      </trkpt>
      <trkpt lat="45.21506" lon="5.7328">
        <ele>908.59997558594</ele>
        <time>2021-05-22T05:59:38.000Z</time>
      </trkpt>
      <trkpt lat="45.21504" lon="5.73278">
        <ele>908.59997558594</ele>
        <time>2021-05-22T05:59:39.000Z</time>
      </trkpt>
      <trkpt lat="45.21498" lon="5.73272">
        <ele>908.20001220703</ele>
        <time>2021-05-22T05:59:42.000Z</time>
      </trkpt>
      <trkpt lat="45.21496" lon="5.73268">
        <ele>907.79998779297</ele>
        <time>2021-05-22T05:59:43.000Z</time>
      </trkpt>
      <trkpt lat="45.21492" lon="5.73259">
        <ele>906.40002441406</ele>
        <time>2021-05-22T05:59:46.000Z</time>
      </trkpt>
      <trkpt lat="45.21491" lon="5.73257">
        <ele>906.20001220703</ele>
        <time>2021-05-22T05:59:47.000Z</time>
      </trkpt>
      <trkpt lat="45.21486" lon="5.73252">
        <ele>905.40002441406</ele>
        <time>2021-05-22T05:59:50.000Z</time>
      </trkpt>
      <trkpt lat="45.21482" lon="5.73249">
        <ele>904.20001220703</ele>
        <time>2021-05-22T05:59:52.000Z</time>
      </trkpt>
      <trkpt lat="45.21477" lon="5.73243">
        <ele>903</ele>
        <time>2021-05-22T05:59:55.000Z</time>
      </trkpt>
      <trkpt lat="45.21473" lon="5.73237">
        <ele>902</ele>
        <time>2021-05-22T05:59:57.000Z</time>
      </trkpt>
      <trkpt lat="45.2147" lon="5.73231">
        <ele>901.40002441406</ele>
        <time>2021-05-22T05:59:59.000Z</time>
      </trkpt>
      <trkpt lat="45.2147" lon="5.73221">
        <ele>901</ele>
        <time>2021-05-22T06:00:01.000Z</time>
      </trkpt>
      <trkpt lat="45.2147" lon="5.7321">
        <ele>900.79998779297</ele>
        <time>2021-05-22T06:00:02.000Z</time>
      </trkpt>
      <trkpt lat="45.21467" lon="5.73194">
        <ele>900</ele>
        <time>2021-05-22T06:00:07.000Z</time>
      </trkpt>
      <trkpt lat="45.21466" lon="5.73192">
        <ele>899.79998779297</ele>
        <time>2021-05-22T06:00:08.000Z</time>
      </trkpt>
      <trkpt lat="45.21465" lon="5.73189">
        <ele>898.20001220703</ele>
        <time>2021-05-22T06:00:10.000Z</time>
      </trkpt>
      <trkpt lat="45.21463" lon="5.73189">
        <ele>897.79998779297</ele>
        <time>2021-05-22T06:00:11.000Z</time>
      </trkpt>
      <trkpt lat="45.21462" lon="5.73189">
        <ele>897.59997558594</ele>
        <time>2021-05-22T06:00:12.000Z</time>
      </trkpt>
      <trkpt lat="45.2146" lon="5.7319">
        <ele>897</ele>
        <time>2021-05-22T06:00:13.000Z</time>
      </trkpt>
      <trkpt lat="45.21456" lon="5.73188">
        <ele>896</ele>
        <time>2021-05-22T06:00:16.000Z</time>
      </trkpt>
      <trkpt lat="45.21455" lon="5.73182">
        <ele>894.59997558594</ele>
        <time>2021-05-22T06:00:19.000Z</time>
      </trkpt>
      <trkpt lat="45.21454" lon="5.73181">
        <ele>894</ele>
        <time>2021-05-22T06:00:20.000Z</time>
      </trkpt>
      <trkpt lat="45.21452" lon="5.73179">
        <ele>893.20001220703</ele>
        <time>2021-05-22T06:00:22.000Z</time>
      </trkpt>
      <trkpt lat="45.21448" lon="5.73176">
        <ele>892.40002441406</ele>
        <time>2021-05-22T06:00:24.000Z</time>
      </trkpt>
      <trkpt lat="45.21446" lon="5.73175">
        <ele>892</ele>
        <time>2021-05-22T06:00:25.000Z</time>
      </trkpt>
      <trkpt lat="45.21441" lon="5.73175">
        <ele>891.59997558594</ele>
        <time>2021-05-22T06:00:27.000Z</time>
      </trkpt>
      <trkpt lat="45.21437" lon="5.73176">
        <ele>890.79998779297</ele>
        <time>2021-05-22T06:00:29.000Z</time>
      </trkpt>
      <trkpt lat="45.21432" lon="5.73175">
        <ele>889.59997558594</ele>
        <time>2021-05-22T06:00:31.000Z</time>
      </trkpt>
      <trkpt lat="45.21422" lon="5.73173">
        <ele>888.20001220703</ele>
        <time>2021-05-22T06:00:34.000Z</time>
      </trkpt>
      <trkpt lat="45.2142" lon="5.73172">
        <ele>887.79998779297</ele>
        <time>2021-05-22T06:00:35.000Z</time>
      </trkpt>
      <trkpt lat="45.21415" lon="5.73169">
        <ele>887.20001220703</ele>
        <time>2021-05-22T06:00:37.000Z</time>
      </trkpt>
      <trkpt lat="45.21412" lon="5.73168">
        <ele>886.79998779297</ele>
        <time>2021-05-22T06:00:39.000Z</time>
      </trkpt>
      <trkpt lat="45.21408" lon="5.73162">
        <ele>886</ele>
        <time>2021-05-22T06:00:41.000Z</time>
      </trkpt>
      <trkpt lat="45.21403" lon="5.73153">
        <ele>885</ele>
        <time>2021-05-22T06:00:44.000Z</time>
      </trkpt>
      <trkpt lat="45.21398" lon="5.73146">
        <ele>884</ele>
        <time>2021-05-22T06:00:47.000Z</time>
      </trkpt>
      <trkpt lat="45.21393" lon="5.73137">
        <ele>883</ele>
        <time>2021-05-22T06:00:50.000Z</time>
      </trkpt>
      <trkpt lat="45.21384" lon="5.73118">
        <ele>882</ele>
        <time>2021-05-22T06:00:55.000Z</time>
      </trkpt>
      <trkpt lat="45.21382" lon="5.73115">
        <ele>881.59997558594</ele>
        <time>2021-05-22T06:00:56.000Z</time>
      </trkpt>
      <trkpt lat="45.21372" lon="5.73099">
        <ele>880.59997558594</ele>
        <time>2021-05-22T06:01:01.000Z</time>
      </trkpt>
      <trkpt lat="45.21362" lon="5.7308">
        <ele>879.79998779297</ele>
        <time>2021-05-22T06:01:07.000Z</time>
      </trkpt>
      <trkpt lat="45.21359" lon="5.73076">
        <ele>879.40002441406</ele>
        <time>2021-05-22T06:01:10.000Z</time>
      </trkpt>
      <trkpt lat="45.21357" lon="5.73074">
        <ele>879</ele>
        <time>2021-05-22T06:01:11.000Z</time>
      </trkpt>
      <trkpt lat="45.21355" lon="5.73073">
        <ele>878.20001220703</ele>
        <time>2021-05-22T06:01:13.000Z</time>
      </trkpt>
      <trkpt lat="45.21354" lon="5.73071">
        <ele>878</ele>
        <time>2021-05-22T06:01:14.000Z</time>
      </trkpt>
      <trkpt lat="45.21352" lon="5.73067">
        <ele>877</ele>
        <time>2021-05-22T06:01:16.000Z</time>
      </trkpt>
      <trkpt lat="45.21349" lon="5.73065">
        <ele>876</ele>
        <time>2021-05-22T06:01:18.000Z</time>
      </trkpt>
      <trkpt lat="45.21348" lon="5.73065">
        <ele>875.59997558594</ele>
        <time>2021-05-22T06:01:19.000Z</time>
      </trkpt>
      <trkpt lat="45.21345" lon="5.73062">
        <ele>874.40002441406</ele>
        <time>2021-05-22T06:01:22.000Z</time>
      </trkpt>
      <trkpt lat="45.21342" lon="5.73057">
        <ele>873.20001220703</ele>
        <time>2021-05-22T06:01:25.000Z</time>
      </trkpt>
      <trkpt lat="45.21339" lon="5.73052">
        <ele>872</ele>
        <time>2021-05-22T06:01:28.000Z</time>
      </trkpt>
      <trkpt lat="45.21336" lon="5.73045">
        <ele>871.20001220703</ele>
        <time>2021-05-22T06:01:31.000Z</time>
      </trkpt>
      <trkpt lat="45.21335" lon="5.73043">
        <ele>871</ele>
        <time>2021-05-22T06:01:32.000Z</time>
      </trkpt>
      <trkpt lat="45.21333" lon="5.73041">
        <ele>870</ele>
        <time>2021-05-22T06:01:33.000Z</time>
      </trkpt>
      <trkpt lat="45.2133" lon="5.73039">
        <ele>869</ele>
        <time>2021-05-22T06:01:35.000Z</time>
      </trkpt>
      <trkpt lat="45.21327" lon="5.73036">
        <ele>868</ele>
        <time>2021-05-22T06:01:37.000Z</time>
      </trkpt>
      <trkpt lat="45.21326" lon="5.73034">
        <ele>867.79998779297</ele>
        <time>2021-05-22T06:01:38.000Z</time>
      </trkpt>
      <trkpt lat="45.21325" lon="5.73032">
        <ele>867.40002441406</ele>
        <time>2021-05-22T06:01:39.000Z</time>
      </trkpt>
      <trkpt lat="45.21321" lon="5.7303">
        <ele>866.79998779297</ele>
        <time>2021-05-22T06:01:41.000Z</time>
      </trkpt>
      <trkpt lat="45.2132" lon="5.73029">
        <ele>866.40002441406</ele>
        <time>2021-05-22T06:01:42.000Z</time>
      </trkpt>
      <trkpt lat="45.21318" lon="5.73027">
        <ele>866.20001220703</ele>
        <time>2021-05-22T06:01:43.000Z</time>
      </trkpt>
      <trkpt lat="45.21318" lon="5.73025">
        <ele>865.59997558594</ele>
        <time>2021-05-22T06:01:44.000Z</time>
      </trkpt>
      <trkpt lat="45.21317" lon="5.73021">
        <ele>865.20001220703</ele>
        <time>2021-05-22T06:01:45.000Z</time>
      </trkpt>
      <trkpt lat="45.21317" lon="5.73013">
        <ele>864.59997558594</ele>
        <time>2021-05-22T06:01:47.000Z</time>
      </trkpt>
      <trkpt lat="45.21315" lon="5.73006">
        <ele>864.20001220703</ele>
        <time>2021-05-22T06:01:49.000Z</time>
      </trkpt>
      <trkpt lat="45.21311" lon="5.72998">
        <ele>863</ele>
        <time>2021-05-22T06:01:52.000Z</time>
      </trkpt>
      <trkpt lat="45.21308" lon="5.72995">
        <ele>862.40002441406</ele>
        <time>2021-05-22T06:01:54.000Z</time>
      </trkpt>
      <trkpt lat="45.21305" lon="5.72991">
        <ele>861.40002441406</ele>
        <time>2021-05-22T06:01:56.000Z</time>
      </trkpt>
      <trkpt lat="45.21299" lon="5.72988">
        <ele>860</ele>
        <time>2021-05-22T06:02:00.000Z</time>
      </trkpt>
      <trkpt lat="45.21297" lon="5.72986">
        <ele>859.40002441406</ele>
        <time>2021-05-22T06:02:01.000Z</time>
      </trkpt>
      <trkpt lat="45.21295" lon="5.72984">
        <ele>859</ele>
        <time>2021-05-22T06:02:02.000Z</time>
      </trkpt>
      <trkpt lat="45.21294" lon="5.72982">
        <ele>858.59997558594</ele>
        <time>2021-05-22T06:02:03.000Z</time>
      </trkpt>
      <trkpt lat="45.21289" lon="5.72979">
        <ele>857.79998779297</ele>
        <time>2021-05-22T06:02:05.000Z</time>
      </trkpt>
      <trkpt lat="45.21284" lon="5.72976">
        <ele>856.40002441406</ele>
        <time>2021-05-22T06:02:08.000Z</time>
      </trkpt>
      <trkpt lat="45.21281" lon="5.72973">
        <ele>855.59997558594</ele>
        <time>2021-05-22T06:02:10.000Z</time>
      </trkpt>
      <trkpt lat="45.21278" lon="5.7297">
        <ele>855.20001220703</ele>
        <time>2021-05-22T06:02:12.000Z</time>
      </trkpt>
      <trkpt lat="45.21275" lon="5.72967">
        <ele>854</ele>
        <time>2021-05-22T06:02:14.000Z</time>
      </trkpt>
      <trkpt lat="45.21273" lon="5.72964">
        <ele>853.59997558594</ele>
        <time>2021-05-22T06:02:16.000Z</time>
      </trkpt>
      <trkpt lat="45.2127" lon="5.72962">
        <ele>852.79998779297</ele>
        <time>2021-05-22T06:02:18.000Z</time>
      </trkpt>
      <trkpt lat="45.21267" lon="5.7296">
        <ele>851.79998779297</ele>
        <time>2021-05-22T06:02:20.000Z</time>
      </trkpt>
      <trkpt lat="45.21266" lon="5.7296">
        <ele>851.40002441406</ele>
        <time>2021-05-22T06:02:21.000Z</time>
      </trkpt>
      <trkpt lat="45.21262" lon="5.7296">
        <ele>850.59997558594</ele>
        <time>2021-05-22T06:02:23.000Z</time>
      </trkpt>
      <trkpt lat="45.21258" lon="5.72958">
        <ele>849.20001220703</ele>
        <time>2021-05-22T06:02:26.000Z</time>
      </trkpt>
      <trkpt lat="45.21256" lon="5.72957">
        <ele>848.59997558594</ele>
        <time>2021-05-22T06:02:27.000Z</time>
      </trkpt>
      <trkpt lat="45.21255" lon="5.72956">
        <ele>848.20001220703</ele>
        <time>2021-05-22T06:02:28.000Z</time>
      </trkpt>
      <trkpt lat="45.21251" lon="5.72952">
        <ele>846.79998779297</ele>
        <time>2021-05-22T06:02:31.000Z</time>
      </trkpt>
      <trkpt lat="45.21247" lon="5.7295">
        <ele>845.79998779297</ele>
        <time>2021-05-22T06:02:34.000Z</time>
      </trkpt>
      <trkpt lat="45.21246" lon="5.7295">
        <ele>845.40002441406</ele>
        <time>2021-05-22T06:02:35.000Z</time>
      </trkpt>
      <trkpt lat="45.21244" lon="5.7295">
        <ele>844.20001220703</ele>
        <time>2021-05-22T06:02:37.000Z</time>
      </trkpt>
      <trkpt lat="45.21237" lon="5.72944">
        <ele>842.79998779297</ele>
        <time>2021-05-22T06:02:40.000Z</time>
      </trkpt>
      <trkpt lat="45.2123" lon="5.72939">
        <ele>842.20001220703</ele>
        <time>2021-05-22T06:02:43.000Z</time>
      </trkpt>
      <trkpt lat="45.21228" lon="5.72937">
        <ele>841.79998779297</ele>
        <time>2021-05-22T06:02:44.000Z</time>
      </trkpt>
      <trkpt lat="45.21225" lon="5.72933">
        <ele>841.40002441406</ele>
        <time>2021-05-22T06:02:45.000Z</time>
      </trkpt>
      <trkpt lat="45.21223" lon="5.7293">
        <ele>840.59997558594</ele>
        <time>2021-05-22T06:02:48.000Z</time>
      </trkpt>
      <trkpt lat="45.21223" lon="5.72929">
        <ele>840.40002441406</ele>
        <time>2021-05-22T06:02:49.000Z</time>
      </trkpt>
      <trkpt lat="45.2122" lon="5.72928">
        <ele>839.59997558594</ele>
        <time>2021-05-22T06:02:51.000Z</time>
      </trkpt>
      <trkpt lat="45.21218" lon="5.72928">
        <ele>839.40002441406</ele>
        <time>2021-05-22T06:02:52.000Z</time>
      </trkpt>
      <trkpt lat="45.21215" lon="5.72928">
        <ele>838.20001220703</ele>
        <time>2021-05-22T06:02:54.000Z</time>
      </trkpt>
      <trkpt lat="45.21211" lon="5.72926">
        <ele>837.59997558594</ele>
        <time>2021-05-22T06:02:56.000Z</time>
      </trkpt>
      <trkpt lat="45.21209" lon="5.72925">
        <ele>837</ele>
        <time>2021-05-22T06:02:58.000Z</time>
      </trkpt>
      <trkpt lat="45.21208" lon="5.72926">
        <ele>836.59997558594</ele>
        <time>2021-05-22T06:02:59.000Z</time>
      </trkpt>
      <trkpt lat="45.21207" lon="5.72931">
        <ele>835.79998779297</ele>
        <time>2021-05-22T06:03:01.000Z</time>
      </trkpt>
      <trkpt lat="45.21208" lon="5.72935">
        <ele>835</ele>
        <time>2021-05-22T06:03:02.000Z</time>
      </trkpt>
      <trkpt lat="45.21208" lon="5.72935">
        <ele>834.59997558594</ele>
        <time>2021-05-22T06:03:03.000Z</time>
      </trkpt>
      <trkpt lat="45.21209" lon="5.7294">
        <ele>833.79998779297</ele>
        <time>2021-05-22T06:03:06.000Z</time>
      </trkpt>
      <trkpt lat="45.2121" lon="5.72943">
        <ele>833.59997558594</ele>
        <time>2021-05-22T06:03:07.000Z</time>
      </trkpt>
      <trkpt lat="45.21211" lon="5.72946">
        <ele>832.79998779297</ele>
        <time>2021-05-22T06:03:09.000Z</time>
      </trkpt>
      <trkpt lat="45.21213" lon="5.72946">
        <ele>832.40002441406</ele>
        <time>2021-05-22T06:03:10.000Z</time>
      </trkpt>
      <trkpt lat="45.21213" lon="5.72946">
        <ele>831.59997558594</ele>
        <time>2021-05-22T06:03:11.000Z</time>
      </trkpt>
      <trkpt lat="45.21213" lon="5.72946">
        <ele>831.20001220703</ele>
        <time>2021-05-22T06:03:12.000Z</time>
      </trkpt>
      <trkpt lat="45.21208" lon="5.72948">
        <ele>830.20001220703</ele>
        <time>2021-05-22T06:03:16.000Z</time>
      </trkpt>
      <trkpt lat="45.21205" lon="5.72945">
        <ele>829.40002441406</ele>
        <time>2021-05-22T06:03:18.000Z</time>
      </trkpt>
      <trkpt lat="45.21203" lon="5.72943">
        <ele>829</ele>
        <time>2021-05-22T06:03:19.000Z</time>
      </trkpt>
      <trkpt lat="45.21197" lon="5.72937">
        <ele>827.79998779297</ele>
        <time>2021-05-22T06:03:22.000Z</time>
      </trkpt>
      <trkpt lat="45.21189" lon="5.7293">
        <ele>826.79998779297</ele>
        <time>2021-05-22T06:03:26.000Z</time>
      </trkpt>
      <trkpt lat="45.21187" lon="5.72928">
        <ele>826.59997558594</ele>
        <time>2021-05-22T06:03:27.000Z</time>
      </trkpt>
      <trkpt lat="45.21183" lon="5.72924">
        <ele>825.20001220703</ele>
        <time>2021-05-22T06:03:29.000Z</time>
      </trkpt>
      <trkpt lat="45.21178" lon="5.7292">
        <ele>824</ele>
        <time>2021-05-22T06:03:32.000Z</time>
      </trkpt>
      <trkpt lat="45.21174" lon="5.72918">
        <ele>823.59997558594</ele>
        <time>2021-05-22T06:03:34.000Z</time>
      </trkpt>
      <trkpt lat="45.21167" lon="5.72916">
        <ele>822.59997558594</ele>
        <time>2021-05-22T06:03:37.000Z</time>
      </trkpt>
      <trkpt lat="45.21164" lon="5.72915">
        <ele>821.40002441406</ele>
        <time>2021-05-22T06:03:39.000Z</time>
      </trkpt>
      <trkpt lat="45.21161" lon="5.72915">
        <ele>820.79998779297</ele>
        <time>2021-05-22T06:03:41.000Z</time>
      </trkpt>
      <trkpt lat="45.21158" lon="5.72915">
        <ele>820.40002441406</ele>
        <time>2021-05-22T06:03:42.000Z</time>
      </trkpt>
      <trkpt lat="45.2115" lon="5.72915">
        <ele>819.20001220703</ele>
        <time>2021-05-22T06:03:45.000Z</time>
      </trkpt>
      <trkpt lat="45.21145" lon="5.72911">
        <ele>818</ele>
        <time>2021-05-22T06:03:48.000Z</time>
      </trkpt>
      <trkpt lat="45.21143" lon="5.72908">
        <ele>817</ele>
        <time>2021-05-22T06:03:50.000Z</time>
      </trkpt>
      <trkpt lat="45.21137" lon="5.72905">
        <ele>815.79998779297</ele>
        <time>2021-05-22T06:03:53.000Z</time>
      </trkpt>
      <trkpt lat="45.21133" lon="5.72902">
        <ele>814.59997558594</ele>
        <time>2021-05-22T06:03:56.000Z</time>
      </trkpt>
      <trkpt lat="45.21127" lon="5.72902">
        <ele>813.59997558594</ele>
        <time>2021-05-22T06:03:59.000Z</time>
      </trkpt>
      <trkpt lat="45.2112" lon="5.72902">
        <ele>812.40002441406</ele>
        <time>2021-05-22T06:04:02.000Z</time>
      </trkpt>
      <trkpt lat="45.21113" lon="5.729">
        <ele>811.20001220703</ele>
        <time>2021-05-22T06:04:05.000Z</time>
      </trkpt>
      <trkpt lat="45.21108" lon="5.72897">
        <ele>810.79998779297</ele>
        <time>2021-05-22T06:04:07.000Z</time>
      </trkpt>
      <trkpt lat="45.21103" lon="5.72892">
        <ele>810</ele>
        <time>2021-05-22T06:04:10.000Z</time>
      </trkpt>
      <trkpt lat="45.21098" lon="5.72885">
        <ele>809</ele>
        <time>2021-05-22T06:04:13.000Z</time>
      </trkpt>
      <trkpt lat="45.21096" lon="5.72883">
        <ele>808.59997558594</ele>
        <time>2021-05-22T06:04:14.000Z</time>
      </trkpt>
      <trkpt lat="45.21094" lon="5.7288">
        <ele>807.79998779297</ele>
        <time>2021-05-22T06:04:16.000Z</time>
      </trkpt>
      <trkpt lat="45.21092" lon="5.72878">
        <ele>807.40002441406</ele>
        <time>2021-05-22T06:04:17.000Z</time>
      </trkpt>
      <trkpt lat="45.21091" lon="5.72877">
        <ele>807</ele>
        <time>2021-05-22T06:04:18.000Z</time>
      </trkpt>
      <trkpt lat="45.21089" lon="5.72875">
        <ele>806.79998779297</ele>
        <time>2021-05-22T06:04:19.000Z</time>
      </trkpt>
      <trkpt lat="45.21084" lon="5.72873">
        <ele>806</ele>
        <time>2021-05-22T06:04:21.000Z</time>
      </trkpt>
      <trkpt lat="45.21081" lon="5.72867">
        <ele>805.40002441406</ele>
        <time>2021-05-22T06:04:24.000Z</time>
      </trkpt>
      <trkpt lat="45.2108" lon="5.72865">
        <ele>805.20001220703</ele>
        <time>2021-05-22T06:04:25.000Z</time>
      </trkpt>
      <trkpt lat="45.21079" lon="5.72864">
        <ele>805</ele>
        <time>2021-05-22T06:04:26.000Z</time>
      </trkpt>
      <trkpt lat="45.21073" lon="5.72859">
        <ele>804.20001220703</ele>
        <time>2021-05-22T06:04:29.000Z</time>
      </trkpt>
      <trkpt lat="45.21072" lon="5.72856">
        <ele>803.79998779297</ele>
        <time>2021-05-22T06:04:30.000Z</time>
      </trkpt>
      <trkpt lat="45.21071" lon="5.72852">
        <ele>803.59997558594</ele>
        <time>2021-05-22T06:04:31.000Z</time>
      </trkpt>
      <trkpt lat="45.21067" lon="5.7284">
        <ele>802.79998779297</ele>
        <time>2021-05-22T06:04:35.000Z</time>
      </trkpt>
      <trkpt lat="45.21065" lon="5.72834">
        <ele>802.40002441406</ele>
        <time>2021-05-22T06:04:37.000Z</time>
      </trkpt>
      <trkpt lat="45.21065" lon="5.72832">
        <ele>802.40002441406</ele>
        <time>2021-05-22T06:04:38.000Z</time>
      </trkpt>
      <trkpt lat="45.21065" lon="5.72827">
        <ele>802.20001220703</ele>
        <time>2021-05-22T06:04:40.000Z</time>
      </trkpt>
      <trkpt lat="45.21064" lon="5.72822">
        <ele>802</ele>
        <time>2021-05-22T06:04:42.000Z</time>
      </trkpt>
      <trkpt lat="45.2106" lon="5.72813">
        <ele>801.79998779297</ele>
        <time>2021-05-22T06:04:47.000Z</time>
      </trkpt>
      <trkpt lat="45.21059" lon="5.72811">
        <ele>801.79998779297</ele>
        <time>2021-05-22T06:04:48.000Z</time>
      </trkpt>
      <trkpt lat="45.21056" lon="5.72794">
        <ele>802</ele>
        <time>2021-05-22T06:04:54.000Z</time>
      </trkpt>
      <trkpt lat="45.21055" lon="5.72784">
        <ele>802</ele>
        <time>2021-05-22T06:04:57.000Z</time>
      </trkpt>
      <trkpt lat="45.21055" lon="5.72781">
        <ele>801.79998779297</ele>
        <time>2021-05-22T06:04:58.000Z</time>
      </trkpt>
      <trkpt lat="45.21052" lon="5.72776">
        <ele>801.79998779297</ele>
        <time>2021-05-22T06:05:00.000Z</time>
      </trkpt>
      <trkpt lat="45.2105" lon="5.7277">
        <ele>801.59997558594</ele>
        <time>2021-05-22T06:05:02.000Z</time>
      </trkpt>
      <trkpt lat="45.2105" lon="5.72767">
        <ele>801.40002441406</ele>
        <time>2021-05-22T06:05:03.000Z</time>
      </trkpt>
      <trkpt lat="45.21048" lon="5.72756">
        <ele>800.59997558594</ele>
        <time>2021-05-22T06:05:08.000Z</time>
      </trkpt>
      <trkpt lat="45.21047" lon="5.72755">
        <ele>800.40002441406</ele>
        <time>2021-05-22T06:05:09.000Z</time>
      </trkpt>
      <trkpt lat="45.21042" lon="5.72752">
        <ele>799.20001220703</ele>
        <time>2021-05-22T06:05:12.000Z</time>
      </trkpt>
      <trkpt lat="45.2104" lon="5.72752">
        <ele>798.79998779297</ele>
        <time>2021-05-22T06:05:13.000Z</time>
      </trkpt>
      <trkpt lat="45.21038" lon="5.72751">
        <ele>798.20001220703</ele>
        <time>2021-05-22T06:05:16.000Z</time>
      </trkpt>
      <trkpt lat="45.21033" lon="5.72748">
        <ele>796.79998779297</ele>
        <time>2021-05-22T06:05:20.000Z</time>
      </trkpt>
      <trkpt lat="45.21032" lon="5.72748">
        <ele>796.20001220703</ele>
        <time>2021-05-22T06:05:21.000Z</time>
      </trkpt>
      <trkpt lat="45.21032" lon="5.72748">
        <ele>795.79998779297</ele>
        <time>2021-05-22T06:05:22.000Z</time>
      </trkpt>
      <trkpt lat="45.21028" lon="5.72747">
        <ele>794.59997558594</ele>
        <time>2021-05-22T06:05:25.000Z</time>
      </trkpt>
      <trkpt lat="45.21021" lon="5.72745">
        <ele>793.79998779297</ele>
        <time>2021-05-22T06:05:29.000Z</time>
      </trkpt>
      <trkpt lat="45.2102" lon="5.72747">
        <ele>793.40002441406</ele>
        <time>2021-05-22T06:05:31.000Z</time>
      </trkpt>
      <trkpt lat="45.2102" lon="5.72748">
        <ele>792.40002441406</ele>
        <time>2021-05-22T06:05:33.000Z</time>
      </trkpt>
      <trkpt lat="45.21019" lon="5.72746">
        <ele>791.79998779297</ele>
        <time>2021-05-22T06:05:35.000Z</time>
      </trkpt>
      <trkpt lat="45.21018" lon="5.72746">
        <ele>791.59997558594</ele>
        <time>2021-05-22T06:05:36.000Z</time>
      </trkpt>
      <trkpt lat="45.21017" lon="5.72745">
        <ele>791</ele>
        <time>2021-05-22T06:05:37.000Z</time>
      </trkpt>
      <trkpt lat="45.21015" lon="5.72745">
        <ele>790</ele>
        <time>2021-05-22T06:05:39.000Z</time>
      </trkpt>
      <trkpt lat="45.21013" lon="5.72745">
        <ele>789.59997558594</ele>
        <time>2021-05-22T06:05:40.000Z</time>
      </trkpt>
      <trkpt lat="45.2101" lon="5.72746">
        <ele>788.79998779297</ele>
        <time>2021-05-22T06:05:43.000Z</time>
      </trkpt>
      <trkpt lat="45.2101" lon="5.72746">
        <ele>788</ele>
        <time>2021-05-22T06:05:45.000Z</time>
      </trkpt>
      <trkpt lat="45.2101" lon="5.72747">
        <ele>787.59997558594</ele>
        <time>2021-05-22T06:05:46.000Z</time>
      </trkpt>
      <trkpt lat="45.21008" lon="5.72748">
        <ele>786.40002441406</ele>
        <time>2021-05-22T06:05:50.000Z</time>
      </trkpt>
      <trkpt lat="45.2101" lon="5.72747">
        <ele>785.20001220703</ele>
        <time>2021-05-22T06:05:53.000Z</time>
      </trkpt>
      <trkpt lat="45.2101" lon="5.72747">
        <ele>784.40002441406</ele>
        <time>2021-05-22T06:05:55.000Z</time>
      </trkpt>
      <trkpt lat="45.21009" lon="5.72746">
        <ele>784.20001220703</ele>
        <time>2021-05-22T06:05:56.000Z</time>
      </trkpt>
      <trkpt lat="45.2101" lon="5.72746">
        <ele>783.59997558594</ele>
        <time>2021-05-22T06:05:58.000Z</time>
      </trkpt>
      <trkpt lat="45.2101" lon="5.72746">
        <ele>783</ele>
        <time>2021-05-22T06:05:59.000Z</time>
      </trkpt>
      <trkpt lat="45.2101" lon="5.72748">
        <ele>782.40002441406</ele>
        <time>2021-05-22T06:06:01.000Z</time>
      </trkpt>
      <trkpt lat="45.21007" lon="5.72749">
        <ele>782.20001220703</ele>
        <time>2021-05-22T06:06:02.000Z</time>
      </trkpt>
      <trkpt lat="45.21007" lon="5.72749">
        <ele>782</ele>
        <time>2021-05-22T06:06:03.000Z</time>
      </trkpt>
      <trkpt lat="45.21003" lon="5.72752">
        <ele>780.79998779297</ele>
        <time>2021-05-22T06:06:05.000Z</time>
      </trkpt>
      <trkpt lat="45.21001" lon="5.72754">
        <ele>780.20001220703</ele>
        <time>2021-05-22T06:06:07.000Z</time>
      </trkpt>
      <trkpt lat="45.21002" lon="5.72754">
        <ele>779.79998779297</ele>
        <time>2021-05-22T06:06:08.000Z</time>
      </trkpt>
      <trkpt lat="45.21002" lon="5.72755">
        <ele>779.20001220703</ele>
        <time>2021-05-22T06:06:09.000Z</time>
      </trkpt>
      <trkpt lat="45.20997" lon="5.72757">
        <ele>778.20001220703</ele>
        <time>2021-05-22T06:06:12.000Z</time>
      </trkpt>
      <trkpt lat="45.20994" lon="5.72758">
        <ele>777.79998779297</ele>
        <time>2021-05-22T06:06:13.000Z</time>
      </trkpt>
      <trkpt lat="45.20992" lon="5.72757">
        <ele>777.40002441406</ele>
        <time>2021-05-22T06:06:15.000Z</time>
      </trkpt>
      <trkpt lat="45.20991" lon="5.72756">
        <ele>777.20001220703</ele>
        <time>2021-05-22T06:06:16.000Z</time>
      </trkpt>
      <trkpt lat="45.20991" lon="5.72756">
        <ele>776.79998779297</ele>
        <time>2021-05-22T06:06:17.000Z</time>
      </trkpt>
      <trkpt lat="45.20989" lon="5.72757">
        <ele>776.20001220703</ele>
        <time>2021-05-22T06:06:19.000Z</time>
      </trkpt>
      <trkpt lat="45.20988" lon="5.72756">
        <ele>776</ele>
        <time>2021-05-22T06:06:20.000Z</time>
      </trkpt>
      <trkpt lat="45.20985" lon="5.72755">
        <ele>774.40002441406</ele>
        <time>2021-05-22T06:06:22.000Z</time>
      </trkpt>
      <trkpt lat="45.20982" lon="5.72754">
        <ele>773.40002441406</ele>
        <time>2021-05-22T06:06:24.000Z</time>
      </trkpt>
      <trkpt lat="45.20981" lon="5.72752">
        <ele>773</ele>
        <time>2021-05-22T06:06:25.000Z</time>
      </trkpt>
      <trkpt lat="45.2098" lon="5.72751">
        <ele>772.40002441406</ele>
        <time>2021-05-22T06:06:26.000Z</time>
      </trkpt>
      <trkpt lat="45.20976" lon="5.72748">
        <ele>771</ele>
        <time>2021-05-22T06:06:29.000Z</time>
      </trkpt>
      <trkpt lat="45.20975" lon="5.72747">
        <ele>770.59997558594</ele>
        <time>2021-05-22T06:06:30.000Z</time>
      </trkpt>
      <trkpt lat="45.20973" lon="5.72746">
        <ele>770.20001220703</ele>
        <time>2021-05-22T06:06:31.000Z</time>
      </trkpt>
      <trkpt lat="45.20972" lon="5.72745">
        <ele>770</ele>
        <time>2021-05-22T06:06:32.000Z</time>
      </trkpt>
      <trkpt lat="45.2097" lon="5.72741">
        <ele>769</ele>
        <time>2021-05-22T06:06:35.000Z</time>
      </trkpt>
      <trkpt lat="45.20968" lon="5.72737">
        <ele>768</ele>
        <time>2021-05-22T06:06:38.000Z</time>
      </trkpt>
      <trkpt lat="45.20966" lon="5.72735">
        <ele>767.40002441406</ele>
        <time>2021-05-22T06:06:40.000Z</time>
      </trkpt>
      <trkpt lat="45.20966" lon="5.72733">
        <ele>766.79998779297</ele>
        <time>2021-05-22T06:06:41.000Z</time>
      </trkpt>
      <trkpt lat="45.20966" lon="5.72733">
        <ele>766</ele>
        <time>2021-05-22T06:06:42.000Z</time>
      </trkpt>
      <trkpt lat="45.20966" lon="5.72732">
        <ele>765.40002441406</ele>
        <time>2021-05-22T06:06:43.000Z</time>
      </trkpt>
      <trkpt lat="45.20965" lon="5.72732">
        <ele>765.20001220703</ele>
        <time>2021-05-22T06:06:44.000Z</time>
      </trkpt>
      <trkpt lat="45.2096" lon="5.72728">
        <ele>764.40002441406</ele>
        <time>2021-05-22T06:06:47.000Z</time>
      </trkpt>
      <trkpt lat="45.20958" lon="5.72728">
        <ele>764</ele>
        <time>2021-05-22T06:06:48.000Z</time>
      </trkpt>
      <trkpt lat="45.20955" lon="5.72729">
        <ele>763.59997558594</ele>
        <time>2021-05-22T06:06:49.000Z</time>
      </trkpt>
      <trkpt lat="45.20953" lon="5.72729">
        <ele>763.20001220703</ele>
        <time>2021-05-22T06:06:50.000Z</time>
      </trkpt>
      <trkpt lat="45.20951" lon="5.72729">
        <ele>762</ele>
        <time>2021-05-22T06:06:52.000Z</time>
      </trkpt>
      <trkpt lat="45.2095" lon="5.72728">
        <ele>761.59997558594</ele>
        <time>2021-05-22T06:06:53.000Z</time>
      </trkpt>
      <trkpt lat="45.20948" lon="5.72727">
        <ele>761.40002441406</ele>
        <time>2021-05-22T06:06:54.000Z</time>
      </trkpt>
      <trkpt lat="45.20945" lon="5.72724">
        <ele>760.79998779297</ele>
        <time>2021-05-22T06:06:56.000Z</time>
      </trkpt>
      <trkpt lat="45.2094" lon="5.7272">
        <ele>759.40002441406</ele>
        <time>2021-05-22T06:06:58.000Z</time>
      </trkpt>
      <trkpt lat="45.20939" lon="5.72718">
        <ele>758.59997558594</ele>
        <time>2021-05-22T06:06:59.000Z</time>
      </trkpt>
      <trkpt lat="45.20938" lon="5.72715">
        <ele>758.20001220703</ele>
        <time>2021-05-22T06:07:00.000Z</time>
      </trkpt>
      <trkpt lat="45.20936" lon="5.72711">
        <ele>757.79998779297</ele>
        <time>2021-05-22T06:07:01.000Z</time>
      </trkpt>
      <trkpt lat="45.20933" lon="5.72705">
        <ele>756.59997558594</ele>
        <time>2021-05-22T06:07:04.000Z</time>
      </trkpt>
      <trkpt lat="45.20927" lon="5.72697">
        <ele>755.20001220703</ele>
        <time>2021-05-22T06:07:07.000Z</time>
      </trkpt>
      <trkpt lat="45.20923" lon="5.72696">
        <ele>754.40002441406</ele>
        <time>2021-05-22T06:07:09.000Z</time>
      </trkpt>
      <trkpt lat="45.20922" lon="5.72695">
        <ele>753.79998779297</ele>
        <time>2021-05-22T06:07:10.000Z</time>
      </trkpt>
      <trkpt lat="45.2092" lon="5.72694">
        <ele>753.20001220703</ele>
        <time>2021-05-22T06:07:11.000Z</time>
      </trkpt>
      <trkpt lat="45.20919" lon="5.72693">
        <ele>752.79998779297</ele>
        <time>2021-05-22T06:07:12.000Z</time>
      </trkpt>
      <trkpt lat="45.20918" lon="5.72689">
        <ele>751.79998779297</ele>
        <time>2021-05-22T06:07:14.000Z</time>
      </trkpt>
      <trkpt lat="45.20916" lon="5.72688">
        <ele>751.59997558594</ele>
        <time>2021-05-22T06:07:15.000Z</time>
      </trkpt>
      <trkpt lat="45.20913" lon="5.72688">
        <ele>751.20001220703</ele>
        <time>2021-05-22T06:07:16.000Z</time>
      </trkpt>
      <trkpt lat="45.20912" lon="5.72688">
        <ele>750.59997558594</ele>
        <time>2021-05-22T06:07:19.000Z</time>
      </trkpt>
      <trkpt lat="45.20909" lon="5.72687">
        <ele>749</ele>
        <time>2021-05-22T06:07:22.000Z</time>
      </trkpt>
      <trkpt lat="45.20907" lon="5.72685">
        <ele>748</ele>
        <time>2021-05-22T06:07:25.000Z</time>
      </trkpt>
      <trkpt lat="45.20903" lon="5.72686">
        <ele>746.79998779297</ele>
        <time>2021-05-22T06:07:28.000Z</time>
      </trkpt>
      <trkpt lat="45.20903" lon="5.72686">
        <ele>746.59997558594</ele>
        <time>2021-05-22T06:07:29.000Z</time>
      </trkpt>
      <trkpt lat="45.20898" lon="5.72687">
        <ele>746.20001220703</ele>
        <time>2021-05-22T06:07:31.000Z</time>
      </trkpt>
      <trkpt lat="45.20896" lon="5.72688">
        <ele>745.59997558594</ele>
        <time>2021-05-22T06:07:32.000Z</time>
      </trkpt>
      <trkpt lat="45.20893" lon="5.72687">
        <ele>744.59997558594</ele>
        <time>2021-05-22T06:07:35.000Z</time>
      </trkpt>
      <trkpt lat="45.20893" lon="5.72686">
        <ele>744.40002441406</ele>
        <time>2021-05-22T06:07:36.000Z</time>
      </trkpt>
      <trkpt lat="45.20892" lon="5.72687">
        <ele>743.79998779297</ele>
        <time>2021-05-22T06:07:38.000Z</time>
      </trkpt>
      <trkpt lat="45.20891" lon="5.72687">
        <ele>743.20001220703</ele>
        <time>2021-05-22T06:07:39.000Z</time>
      </trkpt>
      <trkpt lat="45.20887" lon="5.72684">
        <ele>742.20001220703</ele>
        <time>2021-05-22T06:07:42.000Z</time>
      </trkpt>
      <trkpt lat="45.2088" lon="5.72685">
        <ele>741</ele>
        <time>2021-05-22T06:07:46.000Z</time>
      </trkpt>
      <trkpt lat="45.20874" lon="5.72689">
        <ele>740.59997558594</ele>
        <time>2021-05-22T06:07:47.000Z</time>
      </trkpt>
      <trkpt lat="45.20874" lon="5.72689">
        <ele>740.20001220703</ele>
        <time>2021-05-22T06:07:48.000Z</time>
      </trkpt>
      <trkpt lat="45.20871" lon="5.72692">
        <ele>739.79998779297</ele>
        <time>2021-05-22T06:07:49.000Z</time>
      </trkpt>
      <trkpt lat="45.20866" lon="5.72695">
        <ele>739</ele>
        <time>2021-05-22T06:07:51.000Z</time>
      </trkpt>
      <trkpt lat="45.2086" lon="5.72697">
        <ele>738.59997558594</ele>
        <time>2021-05-22T06:07:52.000Z</time>
      </trkpt>
      <trkpt lat="45.20857" lon="5.72697">
        <ele>738.40002441406</ele>
        <time>2021-05-22T06:07:54.000Z</time>
      </trkpt>
      <trkpt lat="45.20853" lon="5.72698">
        <ele>738.20001220703</ele>
        <time>2021-05-22T06:07:55.000Z</time>
      </trkpt>
      <trkpt lat="45.20852" lon="5.72698">
        <ele>737.59997558594</ele>
        <time>2021-05-22T06:07:57.000Z</time>
      </trkpt>
      <trkpt lat="45.20851" lon="5.72698">
        <ele>737.40002441406</ele>
        <time>2021-05-22T06:07:58.000Z</time>
      </trkpt>
      <trkpt lat="45.2085" lon="5.72698">
        <ele>737</ele>
        <time>2021-05-22T06:07:59.000Z</time>
      </trkpt>
      <trkpt lat="45.20849" lon="5.72698">
        <ele>736.40002441406</ele>
        <time>2021-05-22T06:08:00.000Z</time>
      </trkpt>
      <trkpt lat="45.20849" lon="5.72698">
        <ele>736</ele>
        <time>2021-05-22T06:08:01.000Z</time>
      </trkpt>
      <trkpt lat="45.20847" lon="5.72699">
        <ele>735.59997558594</ele>
        <time>2021-05-22T06:08:03.000Z</time>
      </trkpt>
      <trkpt lat="45.20845" lon="5.72701">
        <ele>735</ele>
        <time>2021-05-22T06:08:04.000Z</time>
      </trkpt>
      <trkpt lat="45.20842" lon="5.72702">
        <ele>734</ele>
        <time>2021-05-22T06:08:08.000Z</time>
      </trkpt>
      <trkpt lat="45.20838" lon="5.72702">
        <ele>732.79998779297</ele>
        <time>2021-05-22T06:08:10.000Z</time>
      </trkpt>
      <trkpt lat="45.20837" lon="5.72701">
        <ele>732.20001220703</ele>
        <time>2021-05-22T06:08:11.000Z</time>
      </trkpt>
      <trkpt lat="45.20834" lon="5.72697">
        <ele>731.40002441406</ele>
        <time>2021-05-22T06:08:13.000Z</time>
      </trkpt>
      <trkpt lat="45.20834" lon="5.72687">
        <ele>730.20001220703</ele>
        <time>2021-05-22T06:08:17.000Z</time>
      </trkpt>
      <trkpt lat="45.20833" lon="5.72677">
        <ele>729</ele>
        <time>2021-05-22T06:08:20.000Z</time>
      </trkpt>
      <trkpt lat="45.20831" lon="5.7267">
        <ele>727.79998779297</ele>
        <time>2021-05-22T06:08:23.000Z</time>
      </trkpt>
      <trkpt lat="45.2083" lon="5.72669">
        <ele>727.59997558594</ele>
        <time>2021-05-22T06:08:24.000Z</time>
      </trkpt>
      <trkpt lat="45.20829" lon="5.72667">
        <ele>726.79998779297</ele>
        <time>2021-05-22T06:08:25.000Z</time>
      </trkpt>
      <trkpt lat="45.20827" lon="5.72666">
        <ele>726</ele>
        <time>2021-05-22T06:08:27.000Z</time>
      </trkpt>
      <trkpt lat="45.20826" lon="5.72664">
        <ele>725.79998779297</ele>
        <time>2021-05-22T06:08:28.000Z</time>
      </trkpt>
      <trkpt lat="45.20824" lon="5.72663">
        <ele>724.59997558594</ele>
        <time>2021-05-22T06:08:31.000Z</time>
      </trkpt>
      <trkpt lat="45.20823" lon="5.72662">
        <ele>724</ele>
        <time>2021-05-22T06:08:32.000Z</time>
      </trkpt>
      <trkpt lat="45.20824" lon="5.72662">
        <ele>723.40002441406</ele>
        <time>2021-05-22T06:08:33.000Z</time>
      </trkpt>
      <trkpt lat="45.20824" lon="5.72661">
        <ele>722</ele>
        <time>2021-05-22T06:08:37.000Z</time>
      </trkpt>
      <trkpt lat="45.2082" lon="5.72662">
        <ele>721.40002441406</ele>
        <time>2021-05-22T06:08:39.000Z</time>
      </trkpt>
      <trkpt lat="45.20818" lon="5.72663">
        <ele>720.40002441406</ele>
        <time>2021-05-22T06:08:41.000Z</time>
      </trkpt>
      <trkpt lat="45.20817" lon="5.72664">
        <ele>720</ele>
        <time>2021-05-22T06:08:42.000Z</time>
      </trkpt>
      <trkpt lat="45.20813" lon="5.72665">
        <ele>719.20001220703</ele>
        <time>2021-05-22T06:08:44.000Z</time>
      </trkpt>
      <trkpt lat="45.20811" lon="5.72666">
        <ele>718.79998779297</ele>
        <time>2021-05-22T06:08:45.000Z</time>
      </trkpt>
      <trkpt lat="45.20809" lon="5.72664">
        <ele>718.59997558594</ele>
        <time>2021-05-22T06:08:46.000Z</time>
      </trkpt>
      <trkpt lat="45.20809" lon="5.72662">
        <ele>717.59997558594</ele>
        <time>2021-05-22T06:08:48.000Z</time>
      </trkpt>
      <trkpt lat="45.20808" lon="5.72658">
        <ele>716.59997558594</ele>
        <time>2021-05-22T06:08:50.000Z</time>
      </trkpt>
      <trkpt lat="45.20805" lon="5.72652">
        <ele>715.20001220703</ele>
        <time>2021-05-22T06:08:53.000Z</time>
      </trkpt>
      <trkpt lat="45.20804" lon="5.72649">
        <ele>714.20001220703</ele>
        <time>2021-05-22T06:08:55.000Z</time>
      </trkpt>
      <trkpt lat="45.20803" lon="5.72648">
        <ele>713.79998779297</ele>
        <time>2021-05-22T06:08:56.000Z</time>
      </trkpt>
      <trkpt lat="45.20801" lon="5.72644">
        <ele>713.20001220703</ele>
        <time>2021-05-22T06:08:58.000Z</time>
      </trkpt>
      <trkpt lat="45.20797" lon="5.72639">
        <ele>711.59997558594</ele>
        <time>2021-05-22T06:09:01.000Z</time>
      </trkpt>
      <trkpt lat="45.20793" lon="5.72632">
        <ele>710.59997558594</ele>
        <time>2021-05-22T06:09:04.000Z</time>
      </trkpt>
      <trkpt lat="45.20791" lon="5.72628">
        <ele>709.40002441406</ele>
        <time>2021-05-22T06:09:07.000Z</time>
      </trkpt>
      <trkpt lat="45.20791" lon="5.72628">
        <ele>709.20001220703</ele>
        <time>2021-05-22T06:09:08.000Z</time>
      </trkpt>
      <trkpt lat="45.20791" lon="5.72629">
        <ele>709</ele>
        <time>2021-05-22T06:09:09.000Z</time>
      </trkpt>
      <trkpt lat="45.20793" lon="5.7263">
        <ele>708.79998779297</ele>
        <time>2021-05-22T06:09:10.000Z</time>
      </trkpt>
      <trkpt lat="45.20794" lon="5.72631">
        <ele>708.20001220703</ele>
        <time>2021-05-22T06:09:11.000Z</time>
      </trkpt>
      <trkpt lat="45.20794" lon="5.72633">
        <ele>707</ele>
        <time>2021-05-22T06:09:14.000Z</time>
      </trkpt>
      <trkpt lat="45.20793" lon="5.72635">
        <ele>706.79998779297</ele>
        <time>2021-05-22T06:09:15.000Z</time>
      </trkpt>
      <trkpt lat="45.20788" lon="5.72636">
        <ele>705.59997558594</ele>
        <time>2021-05-22T06:09:18.000Z</time>
      </trkpt>
      <trkpt lat="45.20787" lon="5.72636">
        <ele>704.40002441406</ele>
        <time>2021-05-22T06:09:20.000Z</time>
      </trkpt>
      <trkpt lat="45.20785" lon="5.72638">
        <ele>703</ele>
        <time>2021-05-22T06:09:23.000Z</time>
      </trkpt>
      <trkpt lat="45.20784" lon="5.72638">
        <ele>702.79998779297</ele>
        <time>2021-05-22T06:09:24.000Z</time>
      </trkpt>
      <trkpt lat="45.20779" lon="5.72643">
        <ele>701.79998779297</ele>
        <time>2021-05-22T06:09:27.000Z</time>
      </trkpt>
      <trkpt lat="45.20776" lon="5.72646">
        <ele>701.20001220703</ele>
        <time>2021-05-22T06:09:29.000Z</time>
      </trkpt>
      <trkpt lat="45.20776" lon="5.72645">
        <ele>700.59997558594</ele>
        <time>2021-05-22T06:09:30.000Z</time>
      </trkpt>
      <trkpt lat="45.20776" lon="5.72642">
        <ele>700</ele>
        <time>2021-05-22T06:09:32.000Z</time>
      </trkpt>
      <trkpt lat="45.20776" lon="5.72638">
        <ele>699.40002441406</ele>
        <time>2021-05-22T06:09:34.000Z</time>
      </trkpt>
      <trkpt lat="45.20778" lon="5.72631">
        <ele>698</ele>
        <time>2021-05-22T06:09:35.000Z</time>
      </trkpt>
      <trkpt lat="45.20778" lon="5.72629">
        <ele>697</ele>
        <time>2021-05-22T06:09:38.000Z</time>
      </trkpt>
      <trkpt lat="45.20778" lon="5.72627">
        <ele>696.40002441406</ele>
        <time>2021-05-22T06:09:39.000Z</time>
      </trkpt>
      <trkpt lat="45.20776" lon="5.72621">
        <ele>695</ele>
        <time>2021-05-22T06:09:42.000Z</time>
      </trkpt>
      <trkpt lat="45.20774" lon="5.7262">
        <ele>694.59997558594</ele>
        <time>2021-05-22T06:09:43.000Z</time>
      </trkpt>
      <trkpt lat="45.20773" lon="5.7262">
        <ele>693.59997558594</ele>
        <time>2021-05-22T06:09:45.000Z</time>
      </trkpt>
      <trkpt lat="45.20771" lon="5.72621">
        <ele>693.40002441406</ele>
        <time>2021-05-22T06:09:46.000Z</time>
      </trkpt>
      <trkpt lat="45.20767" lon="5.72622">
        <ele>691.79998779297</ele>
        <time>2021-05-22T06:09:49.000Z</time>
      </trkpt>
      <trkpt lat="45.20763" lon="5.72624">
        <ele>690.40002441406</ele>
        <time>2021-05-22T06:09:51.000Z</time>
      </trkpt>
      <trkpt lat="45.20758" lon="5.72624">
        <ele>689.40002441406</ele>
        <time>2021-05-22T06:09:53.000Z</time>
      </trkpt>
      <trkpt lat="45.20751" lon="5.72625">
        <ele>688.59997558594</ele>
        <time>2021-05-22T06:09:55.000Z</time>
      </trkpt>
      <trkpt lat="45.20748" lon="5.72622">
        <ele>688.40002441406</ele>
        <time>2021-05-22T06:09:56.000Z</time>
      </trkpt>
      <trkpt lat="45.20747" lon="5.72621">
        <ele>688.20001220703</ele>
        <time>2021-05-22T06:09:57.000Z</time>
      </trkpt>
      <trkpt lat="45.20747" lon="5.72619">
        <ele>687</ele>
        <time>2021-05-22T06:09:59.000Z</time>
      </trkpt>
      <trkpt lat="45.20744" lon="5.72613">
        <ele>685.20001220703</ele>
        <time>2021-05-22T06:10:01.000Z</time>
      </trkpt>
      <trkpt lat="45.20743" lon="5.72609">
        <ele>684</ele>
        <time>2021-05-22T06:10:04.000Z</time>
      </trkpt>
      <trkpt lat="45.20742" lon="5.72603">
        <ele>683.79998779297</ele>
        <time>2021-05-22T06:10:05.000Z</time>
      </trkpt>
      <trkpt lat="45.20741" lon="5.72601">
        <ele>683.20001220703</ele>
        <time>2021-05-22T06:10:07.000Z</time>
      </trkpt>
      <trkpt lat="45.20738" lon="5.72597">
        <ele>682.40002441406</ele>
        <time>2021-05-22T06:10:08.000Z</time>
      </trkpt>
      <trkpt lat="45.20736" lon="5.72597">
        <ele>681.59997558594</ele>
        <time>2021-05-22T06:10:10.000Z</time>
      </trkpt>
      <trkpt lat="45.20734" lon="5.72597">
        <ele>681.20001220703</ele>
        <time>2021-05-22T06:10:11.000Z</time>
      </trkpt>
      <trkpt lat="45.20729" lon="5.72597">
        <ele>680</ele>
        <time>2021-05-22T06:10:13.000Z</time>
      </trkpt>
      <trkpt lat="45.20725" lon="5.72595">
        <ele>679</ele>
        <time>2021-05-22T06:10:15.000Z</time>
      </trkpt>
      <trkpt lat="45.20723" lon="5.72593">
        <ele>678.79998779297</ele>
        <time>2021-05-22T06:10:16.000Z</time>
      </trkpt>
      <trkpt lat="45.20721" lon="5.72593">
        <ele>678.59997558594</ele>
        <time>2021-05-22T06:10:17.000Z</time>
      </trkpt>
      <trkpt lat="45.20719" lon="5.72594">
        <ele>678.40002441406</ele>
        <time>2021-05-22T06:10:18.000Z</time>
      </trkpt>
      <trkpt lat="45.20717" lon="5.72594">
        <ele>677.79998779297</ele>
        <time>2021-05-22T06:10:19.000Z</time>
      </trkpt>
      <trkpt lat="45.20716" lon="5.72593">
        <ele>677</ele>
        <time>2021-05-22T06:10:20.000Z</time>
      </trkpt>
      <trkpt lat="45.20715" lon="5.72592">
        <ele>676.40002441406</ele>
        <time>2021-05-22T06:10:21.000Z</time>
      </trkpt>
      <trkpt lat="45.20712" lon="5.72589">
        <ele>675.20001220703</ele>
        <time>2021-05-22T06:10:23.000Z</time>
      </trkpt>
      <trkpt lat="45.2071" lon="5.72589">
        <ele>674.59997558594</ele>
        <time>2021-05-22T06:10:24.000Z</time>
      </trkpt>
      <trkpt lat="45.20709" lon="5.72589">
        <ele>674</ele>
        <time>2021-05-22T06:10:25.000Z</time>
      </trkpt>
      <trkpt lat="45.20707" lon="5.72588">
        <ele>673.40002441406</ele>
        <time>2021-05-22T06:10:26.000Z</time>
      </trkpt>
      <trkpt lat="45.20707" lon="5.72588">
        <ele>673</ele>
        <time>2021-05-22T06:10:27.000Z</time>
      </trkpt>
      <trkpt lat="45.20705" lon="5.72586">
        <ele>672.59997558594</ele>
        <time>2021-05-22T06:10:29.000Z</time>
      </trkpt>
      <trkpt lat="45.20702" lon="5.72582">
        <ele>672</ele>
        <time>2021-05-22T06:10:31.000Z</time>
      </trkpt>
      <trkpt lat="45.20697" lon="5.72582">
        <ele>671.59997558594</ele>
        <time>2021-05-22T06:10:32.000Z</time>
      </trkpt>
      <trkpt lat="45.20697" lon="5.72582">
        <ele>671.40002441406</ele>
        <time>2021-05-22T06:10:33.000Z</time>
      </trkpt>
      <trkpt lat="45.20694" lon="5.72582">
        <ele>670.59997558594</ele>
        <time>2021-05-22T06:10:35.000Z</time>
      </trkpt>
      <trkpt lat="45.20693" lon="5.7258">
        <ele>670.40002441406</ele>
        <time>2021-05-22T06:10:36.000Z</time>
      </trkpt>
      <trkpt lat="45.20688" lon="5.7258">
        <ele>670.20001220703</ele>
        <time>2021-05-22T06:10:37.000Z</time>
      </trkpt>
      <trkpt lat="45.20688" lon="5.7258">
        <ele>669.59997558594</ele>
        <time>2021-05-22T06:10:38.000Z</time>
      </trkpt>
      <trkpt lat="45.20684" lon="5.72579">
        <ele>668.40002441406</ele>
        <time>2021-05-22T06:10:40.000Z</time>
      </trkpt>
      <trkpt lat="45.2068" lon="5.72579">
        <ele>667.59997558594</ele>
        <time>2021-05-22T06:10:42.000Z</time>
      </trkpt>
      <trkpt lat="45.20678" lon="5.7258">
        <ele>667.20001220703</ele>
        <time>2021-05-22T06:10:43.000Z</time>
      </trkpt>
      <trkpt lat="45.20677" lon="5.72581">
        <ele>666.79998779297</ele>
        <time>2021-05-22T06:10:44.000Z</time>
      </trkpt>
      <trkpt lat="45.20675" lon="5.72585">
        <ele>665.79998779297</ele>
        <time>2021-05-22T06:10:46.000Z</time>
      </trkpt>
      <trkpt lat="45.2067" lon="5.7259">
        <ele>664.59997558594</ele>
        <time>2021-05-22T06:10:50.000Z</time>
      </trkpt>
      <trkpt lat="45.20669" lon="5.72591">
        <ele>664.40002441406</ele>
        <time>2021-05-22T06:10:51.000Z</time>
      </trkpt>
      <trkpt lat="45.20667" lon="5.72595">
        <ele>664.40002441406</ele>
        <time>2021-05-22T06:10:52.000Z</time>
      </trkpt>
      <trkpt lat="45.20666" lon="5.72596">
        <ele>663.40002441406</ele>
        <time>2021-05-22T06:10:54.000Z</time>
      </trkpt>
      <trkpt lat="45.2066" lon="5.726">
        <ele>663.20001220703</ele>
        <time>2021-05-22T06:10:55.000Z</time>
      </trkpt>
      <trkpt lat="45.20644" lon="5.72603">
        <ele>662.20001220703</ele>
        <time>2021-05-22T06:11:01.000Z</time>
      </trkpt>
      <trkpt lat="45.20638" lon="5.72603">
        <ele>661.59997558594</ele>
        <time>2021-05-22T06:11:03.000Z</time>
      </trkpt>
      <trkpt lat="45.20632" lon="5.72602">
        <ele>661.20001220703</ele>
        <time>2021-05-22T06:11:05.000Z</time>
      </trkpt>
      <trkpt lat="45.20621" lon="5.726">
        <ele>660</ele>
        <time>2021-05-22T06:11:09.000Z</time>
      </trkpt>
      <trkpt lat="45.20618" lon="5.72598">
        <ele>659.59997558594</ele>
        <time>2021-05-22T06:11:10.000Z</time>
      </trkpt>
      <trkpt lat="45.20611" lon="5.72596">
        <ele>658.79998779297</ele>
        <time>2021-05-22T06:11:12.000Z</time>
      </trkpt>
      <trkpt lat="45.20598" lon="5.72591">
        <ele>658</ele>
        <time>2021-05-22T06:11:16.000Z</time>
      </trkpt>
      <trkpt lat="45.20593" lon="5.72588">
        <ele>657.59997558594</ele>
        <time>2021-05-22T06:11:18.000Z</time>
      </trkpt>
      <trkpt lat="45.20583" lon="5.72582">
        <ele>657.20001220703</ele>
        <time>2021-05-22T06:11:22.000Z</time>
      </trkpt>
      <trkpt lat="45.20577" lon="5.7258">
        <ele>656.79998779297</ele>
        <time>2021-05-22T06:11:25.000Z</time>
      </trkpt>
      <trkpt lat="45.20573" lon="5.72579">
        <ele>656.20001220703</ele>
        <time>2021-05-22T06:11:26.000Z</time>
      </trkpt>
      <trkpt lat="45.20566" lon="5.7258">
        <ele>655.20001220703</ele>
        <time>2021-05-22T06:11:29.000Z</time>
      </trkpt>
      <trkpt lat="45.20557" lon="5.72579">
        <ele>654.40002441406</ele>
        <time>2021-05-22T06:11:32.000Z</time>
      </trkpt>
      <trkpt lat="45.20551" lon="5.72579">
        <ele>654</ele>
        <time>2021-05-22T06:11:34.000Z</time>
      </trkpt>
      <trkpt lat="45.2054" lon="5.72582">
        <ele>653</ele>
        <time>2021-05-22T06:11:38.000Z</time>
      </trkpt>
      <trkpt lat="45.20538" lon="5.72582">
        <ele>652.79998779297</ele>
        <time>2021-05-22T06:11:39.000Z</time>
      </trkpt>
      <trkpt lat="45.20535" lon="5.72581">
        <ele>652.20001220703</ele>
        <time>2021-05-22T06:11:43.000Z</time>
      </trkpt>
      <trkpt lat="45.20534" lon="5.72582">
        <ele>651.79998779297</ele>
        <time>2021-05-22T06:11:44.000Z</time>
      </trkpt>
      <trkpt lat="45.20519" lon="5.72589">
        <ele>650.79998779297</ele>
        <time>2021-05-22T06:11:48.000Z</time>
      </trkpt>
      <trkpt lat="45.20519" lon="5.72589">
        <ele>650.40002441406</ele>
        <time>2021-05-22T06:11:49.000Z</time>
      </trkpt>
      <trkpt lat="45.20509" lon="5.72582">
        <ele>649.59997558594</ele>
        <time>2021-05-22T06:11:53.000Z</time>
      </trkpt>
      <trkpt lat="45.20506" lon="5.7258">
        <ele>649.59997558594</ele>
        <time>2021-05-22T06:11:54.000Z</time>
      </trkpt>
      <trkpt lat="45.20501" lon="5.72577">
        <ele>649.20001220703</ele>
        <time>2021-05-22T06:11:55.000Z</time>
      </trkpt>
      <trkpt lat="45.20497" lon="5.72576">
        <ele>649</ele>
        <time>2021-05-22T06:11:56.000Z</time>
      </trkpt>
      <trkpt lat="45.2049" lon="5.72575">
        <ele>648.79998779297</ele>
        <time>2021-05-22T06:11:59.000Z</time>
      </trkpt>
      <trkpt lat="45.20484" lon="5.72571">
        <ele>648.20001220703</ele>
        <time>2021-05-22T06:12:01.000Z</time>
      </trkpt>
      <trkpt lat="45.20473" lon="5.7256">
        <ele>646.79998779297</ele>
        <time>2021-05-22T06:12:04.000Z</time>
      </trkpt>
      <trkpt lat="45.20469" lon="5.72554">
        <ele>645.79998779297</ele>
        <time>2021-05-22T06:12:07.000Z</time>
      </trkpt>
      <trkpt lat="45.20467" lon="5.72552">
        <ele>645.59997558594</ele>
        <time>2021-05-22T06:12:08.000Z</time>
      </trkpt>
      <trkpt lat="45.20463" lon="5.72546">
        <ele>645</ele>
        <time>2021-05-22T06:12:10.000Z</time>
      </trkpt>
      <trkpt lat="45.20462" lon="5.72543">
        <ele>644.59997558594</ele>
        <time>2021-05-22T06:12:11.000Z</time>
      </trkpt>
      <trkpt lat="45.20457" lon="5.72532">
        <ele>643.59997558594</ele>
        <time>2021-05-22T06:12:14.000Z</time>
      </trkpt>
      <trkpt lat="45.20457" lon="5.72529">
        <ele>643.20001220703</ele>
        <time>2021-05-22T06:12:15.000Z</time>
      </trkpt>
      <trkpt lat="45.20456" lon="5.72525">
        <ele>643</ele>
        <time>2021-05-22T06:12:16.000Z</time>
      </trkpt>
      <trkpt lat="45.20452" lon="5.72516">
        <ele>642.20001220703</ele>
        <time>2021-05-22T06:12:19.000Z</time>
      </trkpt>
      <trkpt lat="45.20449" lon="5.72515">
        <ele>642</ele>
        <time>2021-05-22T06:12:20.000Z</time>
      </trkpt>
      <trkpt lat="45.20444" lon="5.72516">
        <ele>641.59997558594</ele>
        <time>2021-05-22T06:12:22.000Z</time>
      </trkpt>
      <trkpt lat="45.20443" lon="5.72522">
        <ele>641.40002441406</ele>
        <time>2021-05-22T06:12:23.000Z</time>
      </trkpt>
      <trkpt lat="45.20443" lon="5.72528">
        <ele>640.79998779297</ele>
        <time>2021-05-22T06:12:26.000Z</time>
      </trkpt>
      <trkpt lat="45.20444" lon="5.72537">
        <ele>640.40002441406</ele>
        <time>2021-05-22T06:12:28.000Z</time>
      </trkpt>
      <trkpt lat="45.20447" lon="5.72551">
        <ele>639.40002441406</ele>
        <time>2021-05-22T06:12:32.000Z</time>
      </trkpt>
      <trkpt lat="45.20449" lon="5.72558">
        <ele>638.59997558594</ele>
        <time>2021-05-22T06:12:34.000Z</time>
      </trkpt>
      <trkpt lat="45.2045" lon="5.72561">
        <ele>638.40002441406</ele>
        <time>2021-05-22T06:12:35.000Z</time>
      </trkpt>
      <trkpt lat="45.20458" lon="5.72579">
        <ele>637</ele>
        <time>2021-05-22T06:12:40.000Z</time>
      </trkpt>
      <trkpt lat="45.20469" lon="5.72593">
        <ele>635.59997558594</ele>
        <time>2021-05-22T06:12:45.000Z</time>
      </trkpt>
      <trkpt lat="45.20469" lon="5.72593">
        <ele>635.20001220703</ele>
        <time>2021-05-22T06:12:46.000Z</time>
      </trkpt>
      <trkpt lat="45.20471" lon="5.72596">
        <ele>634.59997558594</ele>
        <time>2021-05-22T06:12:47.000Z</time>
      </trkpt>
      <trkpt lat="45.20476" lon="5.72603">
        <ele>633.59997558594</ele>
        <time>2021-05-22T06:12:50.000Z</time>
      </trkpt>
      <trkpt lat="45.20483" lon="5.72611">
        <ele>632.20001220703</ele>
        <time>2021-05-22T06:12:54.000Z</time>
      </trkpt>
      <trkpt lat="45.20485" lon="5.72613">
        <ele>631.79998779297</ele>
        <time>2021-05-22T06:12:55.000Z</time>
      </trkpt>
      <trkpt lat="45.20489" lon="5.72617">
        <ele>631</ele>
        <time>2021-05-22T06:12:57.000Z</time>
      </trkpt>
      <trkpt lat="45.205" lon="5.72625">
        <ele>629.59997558594</ele>
        <time>2021-05-22T06:13:02.000Z</time>
      </trkpt>
      <trkpt lat="45.205" lon="5.72625">
        <ele>629.20001220703</ele>
        <time>2021-05-22T06:13:03.000Z</time>
      </trkpt>
      <trkpt lat="45.20502" lon="5.72626">
        <ele>628.79998779297</ele>
        <time>2021-05-22T06:13:04.000Z</time>
      </trkpt>
      <trkpt lat="45.20506" lon="5.72628">
        <ele>628.40002441406</ele>
        <time>2021-05-22T06:13:06.000Z</time>
      </trkpt>
      <trkpt lat="45.2051" lon="5.7263">
        <ele>628</ele>
        <time>2021-05-22T06:13:07.000Z</time>
      </trkpt>
      <trkpt lat="45.20511" lon="5.72633">
        <ele>627.40002441406</ele>
        <time>2021-05-22T06:13:09.000Z</time>
      </trkpt>
      <trkpt lat="45.20515" lon="5.72642">
        <ele>626.40002441406</ele>
        <time>2021-05-22T06:13:12.000Z</time>
      </trkpt>
      <trkpt lat="45.20516" lon="5.72645">
        <ele>626.20001220703</ele>
        <time>2021-05-22T06:13:13.000Z</time>
      </trkpt>
      <trkpt lat="45.20523" lon="5.72654">
        <ele>625.20001220703</ele>
        <time>2021-05-22T06:13:17.000Z</time>
      </trkpt>
      <trkpt lat="45.20525" lon="5.72655">
        <ele>625</ele>
        <time>2021-05-22T06:13:18.000Z</time>
      </trkpt>
      <trkpt lat="45.20538" lon="5.72663">
        <ele>624.40002441406</ele>
        <time>2021-05-22T06:13:21.000Z</time>
      </trkpt>
      <trkpt lat="45.20538" lon="5.72663">
        <ele>624</ele>
        <time>2021-05-22T06:13:22.000Z</time>
      </trkpt>
      <trkpt lat="45.20541" lon="5.72666">
        <ele>623.79998779297</ele>
        <time>2021-05-22T06:13:23.000Z</time>
      </trkpt>
      <trkpt lat="45.20549" lon="5.72673">
        <ele>622.79998779297</ele>
        <time>2021-05-22T06:13:26.000Z</time>
      </trkpt>
      <trkpt lat="45.20551" lon="5.72675">
        <ele>622.40002441406</ele>
        <time>2021-05-22T06:13:27.000Z</time>
      </trkpt>
      <trkpt lat="45.20562" lon="5.72684">
        <ele>622</ele>
        <time>2021-05-22T06:13:31.000Z</time>
      </trkpt>
      <trkpt lat="45.20567" lon="5.72688">
        <ele>621.79998779297</ele>
        <time>2021-05-22T06:13:33.000Z</time>
      </trkpt>
      <trkpt lat="45.20569" lon="5.72693">
        <ele>621.59997558594</ele>
        <time>2021-05-22T06:13:34.000Z</time>
      </trkpt>
      <trkpt lat="45.20569" lon="5.72694">
        <ele>621</ele>
        <time>2021-05-22T06:13:36.000Z</time>
      </trkpt>
      <trkpt lat="45.20565" lon="5.72697">
        <ele>620.40002441406</ele>
        <time>2021-05-22T06:13:38.000Z</time>
      </trkpt>
      <trkpt lat="45.20558" lon="5.72697">
        <ele>619.20001220703</ele>
        <time>2021-05-22T06:13:41.000Z</time>
      </trkpt>
      <trkpt lat="45.20557" lon="5.72696">
        <ele>618.79998779297</ele>
        <time>2021-05-22T06:13:42.000Z</time>
      </trkpt>
      <trkpt lat="45.20552" lon="5.72693">
        <ele>618</ele>
        <time>2021-05-22T06:13:44.000Z</time>
      </trkpt>
      <trkpt lat="45.2055" lon="5.72693">
        <ele>617.79998779297</ele>
        <time>2021-05-22T06:13:45.000Z</time>
      </trkpt>
      <trkpt lat="45.20545" lon="5.72692">
        <ele>617</ele>
        <time>2021-05-22T06:13:47.000Z</time>
      </trkpt>
      <trkpt lat="45.20537" lon="5.72691">
        <ele>615.79998779297</ele>
        <time>2021-05-22T06:13:51.000Z</time>
      </trkpt>
      <trkpt lat="45.20536" lon="5.7269">
        <ele>615.40002441406</ele>
        <time>2021-05-22T06:13:52.000Z</time>
      </trkpt>
      <trkpt lat="45.20534" lon="5.7269">
        <ele>615.20001220703</ele>
        <time>2021-05-22T06:13:53.000Z</time>
      </trkpt>
      <trkpt lat="45.20529" lon="5.72688">
        <ele>614.79998779297</ele>
        <time>2021-05-22T06:13:55.000Z</time>
      </trkpt>
      <trkpt lat="45.20525" lon="5.72686">
        <ele>614.40002441406</ele>
        <time>2021-05-22T06:13:56.000Z</time>
      </trkpt>
      <trkpt lat="45.2052" lon="5.72685">
        <ele>613</ele>
        <time>2021-05-22T06:13:59.000Z</time>
      </trkpt>
      <trkpt lat="45.20514" lon="5.7268">
        <ele>612</ele>
        <time>2021-05-22T06:14:02.000Z</time>
      </trkpt>
      <trkpt lat="45.20505" lon="5.72675">
        <ele>611</ele>
        <time>2021-05-22T06:14:06.000Z</time>
      </trkpt>
      <trkpt lat="45.20501" lon="5.72672">
        <ele>610.79998779297</ele>
        <time>2021-05-22T06:14:07.000Z</time>
      </trkpt>
      <trkpt lat="45.20495" lon="5.7267">
        <ele>609.59997558594</ele>
        <time>2021-05-22T06:14:10.000Z</time>
      </trkpt>
      <trkpt lat="45.20491" lon="5.72668">
        <ele>609.20001220703</ele>
        <time>2021-05-22T06:14:11.000Z</time>
      </trkpt>
      <trkpt lat="45.20489" lon="5.72666">
        <ele>608.59997558594</ele>
        <time>2021-05-22T06:14:13.000Z</time>
      </trkpt>
      <trkpt lat="45.20487" lon="5.72664">
        <ele>608.40002441406</ele>
        <time>2021-05-22T06:14:14.000Z</time>
      </trkpt>
      <trkpt lat="45.20486" lon="5.72662">
        <ele>608</ele>
        <time>2021-05-22T06:14:15.000Z</time>
      </trkpt>
      <trkpt lat="45.20482" lon="5.72658">
        <ele>607.59997558594</ele>
        <time>2021-05-22T06:14:16.000Z</time>
      </trkpt>
      <trkpt lat="45.20479" lon="5.72658">
        <ele>606.79998779297</ele>
        <time>2021-05-22T06:14:18.000Z</time>
      </trkpt>
      <trkpt lat="45.20474" lon="5.72656">
        <ele>606</ele>
        <time>2021-05-22T06:14:20.000Z</time>
      </trkpt>
      <trkpt lat="45.2047" lon="5.72654">
        <ele>605.40002441406</ele>
        <time>2021-05-22T06:14:22.000Z</time>
      </trkpt>
      <trkpt lat="45.2046" lon="5.72653">
        <ele>604.59997558594</ele>
        <time>2021-05-22T06:14:25.000Z</time>
      </trkpt>
      <trkpt lat="45.20456" lon="5.72654">
        <ele>604.20001220703</ele>
        <time>2021-05-22T06:14:26.000Z</time>
      </trkpt>
      <trkpt lat="45.20447" lon="5.72655">
        <ele>603.20001220703</ele>
        <time>2021-05-22T06:14:30.000Z</time>
      </trkpt>
      <trkpt lat="45.20444" lon="5.72654">
        <ele>602.79998779297</ele>
        <time>2021-05-22T06:14:31.000Z</time>
      </trkpt>
      <trkpt lat="45.20442" lon="5.72652">
        <ele>602.59997558594</ele>
        <time>2021-05-22T06:14:32.000Z</time>
      </trkpt>
      <trkpt lat="45.20435" lon="5.72648">
        <ele>602</ele>
        <time>2021-05-22T06:14:34.000Z</time>
      </trkpt>
      <trkpt lat="45.20432" lon="5.72646">
        <ele>601.59997558594</ele>
        <time>2021-05-22T06:14:35.000Z</time>
      </trkpt>
      <trkpt lat="45.20427" lon="5.72641">
        <ele>601.40002441406</ele>
        <time>2021-05-22T06:14:36.000Z</time>
      </trkpt>
      <trkpt lat="45.20422" lon="5.72636">
        <ele>600.59997558594</ele>
        <time>2021-05-22T06:14:39.000Z</time>
      </trkpt>
      <trkpt lat="45.20414" lon="5.72634">
        <ele>600</ele>
        <time>2021-05-22T06:14:42.000Z</time>
      </trkpt>
      <trkpt lat="45.20413" lon="5.72636">
        <ele>600</ele>
        <time>2021-05-22T06:14:43.000Z</time>
      </trkpt>
      <trkpt lat="45.20414" lon="5.72639">
        <ele>599.40002441406</ele>
        <time>2021-05-22T06:14:45.000Z</time>
      </trkpt>
      <trkpt lat="45.20416" lon="5.72643">
        <ele>598.79998779297</ele>
        <time>2021-05-22T06:14:47.000Z</time>
      </trkpt>
      <trkpt lat="45.20418" lon="5.72645">
        <ele>598.20001220703</ele>
        <time>2021-05-22T06:14:48.000Z</time>
      </trkpt>
      <trkpt lat="45.20423" lon="5.72651">
        <ele>597</ele>
        <time>2021-05-22T06:14:51.000Z</time>
      </trkpt>
      <trkpt lat="45.20427" lon="5.72656">
        <ele>596.59997558594</ele>
        <time>2021-05-22T06:14:53.000Z</time>
      </trkpt>
      <trkpt lat="45.20431" lon="5.7266">
        <ele>595.79998779297</ele>
        <time>2021-05-22T06:14:55.000Z</time>
      </trkpt>
      <trkpt lat="45.20433" lon="5.72665">
        <ele>594.79998779297</ele>
        <time>2021-05-22T06:14:57.000Z</time>
      </trkpt>
      <trkpt lat="45.20434" lon="5.72667">
        <ele>594.40002441406</ele>
        <time>2021-05-22T06:14:58.000Z</time>
      </trkpt>
      <trkpt lat="45.2044" lon="5.72674">
        <ele>593.59997558594</ele>
        <time>2021-05-22T06:15:01.000Z</time>
      </trkpt>
      <trkpt lat="45.20444" lon="5.72674">
        <ele>592.79998779297</ele>
        <time>2021-05-22T06:15:04.000Z</time>
      </trkpt>
      <trkpt lat="45.20448" lon="5.72673">
        <ele>592.59997558594</ele>
        <time>2021-05-22T06:15:05.000Z</time>
      </trkpt>
      <trkpt lat="45.20452" lon="5.72673">
        <ele>591.59997558594</ele>
        <time>2021-05-22T06:15:08.000Z</time>
      </trkpt>
      <trkpt lat="45.20454" lon="5.72675">
        <ele>591.40002441406</ele>
        <time>2021-05-22T06:15:09.000Z</time>
      </trkpt>
      <trkpt lat="45.20458" lon="5.72678">
        <ele>590.79998779297</ele>
        <time>2021-05-22T06:15:10.000Z</time>
      </trkpt>
      <trkpt lat="45.2046" lon="5.72679">
        <ele>590.20001220703</ele>
        <time>2021-05-22T06:15:12.000Z</time>
      </trkpt>
      <trkpt lat="45.20465" lon="5.7268">
        <ele>589.59997558594</ele>
        <time>2021-05-22T06:15:15.000Z</time>
      </trkpt>
      <trkpt lat="45.20469" lon="5.72682">
        <ele>589</ele>
        <time>2021-05-22T06:15:17.000Z</time>
      </trkpt>
      <trkpt lat="45.20474" lon="5.72685">
        <ele>588</ele>
        <time>2021-05-22T06:15:19.000Z</time>
      </trkpt>
      <trkpt lat="45.20482" lon="5.72695">
        <ele>587.40002441406</ele>
        <time>2021-05-22T06:15:23.000Z</time>
      </trkpt>
      <trkpt lat="45.20487" lon="5.727">
        <ele>586.59997558594</ele>
        <time>2021-05-22T06:15:25.000Z</time>
      </trkpt>
      <trkpt lat="45.2049" lon="5.72703">
        <ele>586.20001220703</ele>
        <time>2021-05-22T06:15:26.000Z</time>
      </trkpt>
      <trkpt lat="45.20494" lon="5.72709">
        <ele>585.79998779297</ele>
        <time>2021-05-22T06:15:28.000Z</time>
      </trkpt>
      <trkpt lat="45.20499" lon="5.72713">
        <ele>585.20001220703</ele>
        <time>2021-05-22T06:15:30.000Z</time>
      </trkpt>
      <trkpt lat="45.20505" lon="5.72719">
        <ele>584.40002441406</ele>
        <time>2021-05-22T06:15:33.000Z</time>
      </trkpt>
      <trkpt lat="45.20507" lon="5.7272">
        <ele>583.79998779297</ele>
        <time>2021-05-22T06:15:34.000Z</time>
      </trkpt>
      <trkpt lat="45.20509" lon="5.72725">
        <ele>583.59997558594</ele>
        <time>2021-05-22T06:15:35.000Z</time>
      </trkpt>
      <trkpt lat="45.20508" lon="5.72727">
        <ele>583</ele>
        <time>2021-05-22T06:15:37.000Z</time>
      </trkpt>
      <trkpt lat="45.20506" lon="5.72728">
        <ele>582.79998779297</ele>
        <time>2021-05-22T06:15:38.000Z</time>
      </trkpt>
      <trkpt lat="45.20501" lon="5.72728">
        <ele>581.79998779297</ele>
        <time>2021-05-22T06:15:40.000Z</time>
      </trkpt>
      <trkpt lat="45.20495" lon="5.72725">
        <ele>581.20001220703</ele>
        <time>2021-05-22T06:15:41.000Z</time>
      </trkpt>
      <trkpt lat="45.20491" lon="5.72722">
        <ele>580.59997558594</ele>
        <time>2021-05-22T06:15:44.000Z</time>
      </trkpt>
      <trkpt lat="45.20483" lon="5.72715">
        <ele>579.59997558594</ele>
        <time>2021-05-22T06:15:48.000Z</time>
      </trkpt>
      <trkpt lat="45.20474" lon="5.72716">
        <ele>578.40002441406</ele>
        <time>2021-05-22T06:15:52.000Z</time>
      </trkpt>
      <trkpt lat="45.20465" lon="5.72718">
        <ele>577.40002441406</ele>
        <time>2021-05-22T06:15:56.000Z</time>
      </trkpt>
      <trkpt lat="45.20462" lon="5.72719">
        <ele>576.79998779297</ele>
        <time>2021-05-22T06:15:57.000Z</time>
      </trkpt>
      <trkpt lat="45.20456" lon="5.72721">
        <ele>576.20001220703</ele>
        <time>2021-05-22T06:15:59.000Z</time>
      </trkpt>
      <trkpt lat="45.20446" lon="5.72724">
        <ele>575.40002441406</ele>
        <time>2021-05-22T06:16:02.000Z</time>
      </trkpt>
      <trkpt lat="45.20446" lon="5.72724">
        <ele>575.20001220703</ele>
        <time>2021-05-22T06:16:03.000Z</time>
      </trkpt>
      <trkpt lat="45.20444" lon="5.72723">
        <ele>575</ele>
        <time>2021-05-22T06:16:04.000Z</time>
      </trkpt>
      <trkpt lat="45.20439" lon="5.72722">
        <ele>574.59997558594</ele>
        <time>2021-05-22T06:16:05.000Z</time>
      </trkpt>
      <trkpt lat="45.20439" lon="5.72722">
        <ele>574.40002441406</ele>
        <time>2021-05-22T06:16:06.000Z</time>
      </trkpt>
      <trkpt lat="45.20435" lon="5.72723">
        <ele>573.79998779297</ele>
        <time>2021-05-22T06:16:08.000Z</time>
      </trkpt>
      <trkpt lat="45.20432" lon="5.72723">
        <ele>573.59997558594</ele>
        <time>2021-05-22T06:16:09.000Z</time>
      </trkpt>
      <trkpt lat="45.20427" lon="5.72719">
        <ele>573.40002441406</ele>
        <time>2021-05-22T06:16:10.000Z</time>
      </trkpt>
      <trkpt lat="45.20427" lon="5.72719">
        <ele>573.20001220703</ele>
        <time>2021-05-22T06:16:11.000Z</time>
      </trkpt>
      <trkpt lat="45.20425" lon="5.72718">
        <ele>572.20001220703</ele>
        <time>2021-05-22T06:16:12.000Z</time>
      </trkpt>
      <trkpt lat="45.20421" lon="5.72715">
        <ele>571.59997558594</ele>
        <time>2021-05-22T06:16:13.000Z</time>
      </trkpt>
      <trkpt lat="45.20419" lon="5.72713">
        <ele>570.79998779297</ele>
        <time>2021-05-22T06:16:15.000Z</time>
      </trkpt>
      <trkpt lat="45.20414" lon="5.72712">
        <ele>570.40002441406</ele>
        <time>2021-05-22T06:16:16.000Z</time>
      </trkpt>
      <trkpt lat="45.20412" lon="5.72711">
        <ele>569.79998779297</ele>
        <time>2021-05-22T06:16:18.000Z</time>
      </trkpt>
      <trkpt lat="45.20411" lon="5.72709">
        <ele>569.59997558594</ele>
        <time>2021-05-22T06:16:19.000Z</time>
      </trkpt>
      <trkpt lat="45.20406" lon="5.72708">
        <ele>569.40002441406</ele>
        <time>2021-05-22T06:16:20.000Z</time>
      </trkpt>
      <trkpt lat="45.20404" lon="5.72708">
        <ele>568.59997558594</ele>
        <time>2021-05-22T06:16:22.000Z</time>
      </trkpt>
      <trkpt lat="45.20397" lon="5.72705">
        <ele>567.40002441406</ele>
        <time>2021-05-22T06:16:25.000Z</time>
      </trkpt>
      <trkpt lat="45.20394" lon="5.72701">
        <ele>566.59997558594</ele>
        <time>2021-05-22T06:16:27.000Z</time>
      </trkpt>
      <trkpt lat="45.2039" lon="5.72697">
        <ele>566.40002441406</ele>
        <time>2021-05-22T06:16:28.000Z</time>
      </trkpt>
      <trkpt lat="45.20388" lon="5.72695">
        <ele>566.20001220703</ele>
        <time>2021-05-22T06:16:29.000Z</time>
      </trkpt>
      <trkpt lat="45.20385" lon="5.72691">
        <ele>565</ele>
        <time>2021-05-22T06:16:32.000Z</time>
      </trkpt>
      <trkpt lat="45.20382" lon="5.72687">
        <ele>564</ele>
        <time>2021-05-22T06:16:34.000Z</time>
      </trkpt>
      <trkpt lat="45.2038" lon="5.72684">
        <ele>563.79998779297</ele>
        <time>2021-05-22T06:16:35.000Z</time>
      </trkpt>
      <trkpt lat="45.20379" lon="5.72682">
        <ele>563.40002441406</ele>
        <time>2021-05-22T06:16:36.000Z</time>
      </trkpt>
      <trkpt lat="45.20375" lon="5.72679">
        <ele>563</ele>
        <time>2021-05-22T06:16:38.000Z</time>
      </trkpt>
      <trkpt lat="45.20371" lon="5.72677">
        <ele>562.40002441406</ele>
        <time>2021-05-22T06:16:40.000Z</time>
      </trkpt>
      <trkpt lat="45.20364" lon="5.72674">
        <ele>561.79998779297</ele>
        <time>2021-05-22T06:16:43.000Z</time>
      </trkpt>
      <trkpt lat="45.2036" lon="5.72673">
        <ele>561</ele>
        <time>2021-05-22T06:16:45.000Z</time>
      </trkpt>
      <trkpt lat="45.20358" lon="5.7267">
        <ele>560.79998779297</ele>
        <time>2021-05-22T06:16:46.000Z</time>
      </trkpt>
      <trkpt lat="45.20357" lon="5.72667">
        <ele>560.20001220703</ele>
        <time>2021-05-22T06:16:48.000Z</time>
      </trkpt>
      <trkpt lat="45.20356" lon="5.72665">
        <ele>560</ele>
        <time>2021-05-22T06:16:49.000Z</time>
      </trkpt>
      <trkpt lat="45.20354" lon="5.72663">
        <ele>559.59997558594</ele>
        <time>2021-05-22T06:16:50.000Z</time>
      </trkpt>
      <trkpt lat="45.2035" lon="5.7266">
        <ele>559</ele>
        <time>2021-05-22T06:16:52.000Z</time>
      </trkpt>
      <trkpt lat="45.20345" lon="5.72658">
        <ele>558</ele>
        <time>2021-05-22T06:16:54.000Z</time>
      </trkpt>
      <trkpt lat="45.2034" lon="5.72654">
        <ele>557.59997558594</ele>
        <time>2021-05-22T06:16:55.000Z</time>
      </trkpt>
      <trkpt lat="45.20336" lon="5.7265">
        <ele>556.59997558594</ele>
        <time>2021-05-22T06:16:58.000Z</time>
      </trkpt>
      <trkpt lat="45.20332" lon="5.72648">
        <ele>555.79998779297</ele>
        <time>2021-05-22T06:17:00.000Z</time>
      </trkpt>
      <trkpt lat="45.20327" lon="5.72646">
        <ele>555.59997558594</ele>
        <time>2021-05-22T06:17:01.000Z</time>
      </trkpt>
      <trkpt lat="45.2032" lon="5.72643">
        <ele>554.40002441406</ele>
        <time>2021-05-22T06:17:05.000Z</time>
      </trkpt>
      <trkpt lat="45.20314" lon="5.72639">
        <ele>553</ele>
        <time>2021-05-22T06:17:08.000Z</time>
      </trkpt>
      <trkpt lat="45.20312" lon="5.72636">
        <ele>552.59997558594</ele>
        <time>2021-05-22T06:17:09.000Z</time>
      </trkpt>
      <trkpt lat="45.20308" lon="5.72633">
        <ele>552.40002441406</ele>
        <time>2021-05-22T06:17:10.000Z</time>
      </trkpt>
      <trkpt lat="45.20305" lon="5.72631">
        <ele>551.79998779297</ele>
        <time>2021-05-22T06:17:12.000Z</time>
      </trkpt>
      <trkpt lat="45.20302" lon="5.7263">
        <ele>551.20001220703</ele>
        <time>2021-05-22T06:17:13.000Z</time>
      </trkpt>
      <trkpt lat="45.203" lon="5.72629">
        <ele>550.79998779297</ele>
        <time>2021-05-22T06:17:14.000Z</time>
      </trkpt>
      <trkpt lat="45.20289" lon="5.72628">
        <ele>549.79998779297</ele>
        <time>2021-05-22T06:17:18.000Z</time>
      </trkpt>
      <trkpt lat="45.20287" lon="5.72627">
        <ele>549.40002441406</ele>
        <time>2021-05-22T06:17:19.000Z</time>
      </trkpt>
      <trkpt lat="45.20282" lon="5.72625">
        <ele>548.40002441406</ele>
        <time>2021-05-22T06:17:21.000Z</time>
      </trkpt>
      <trkpt lat="45.20278" lon="5.72624">
        <ele>547.79998779297</ele>
        <time>2021-05-22T06:17:23.000Z</time>
      </trkpt>
      <trkpt lat="45.20272" lon="5.72625">
        <ele>547.20001220703</ele>
        <time>2021-05-22T06:17:25.000Z</time>
      </trkpt>
      <trkpt lat="45.20268" lon="5.72625">
        <ele>546</ele>
        <time>2021-05-22T06:17:27.000Z</time>
      </trkpt>
      <trkpt lat="45.20263" lon="5.72627">
        <ele>545</ele>
        <time>2021-05-22T06:17:29.000Z</time>
      </trkpt>
      <trkpt lat="45.20252" lon="5.7263">
        <ele>543.79998779297</ele>
        <time>2021-05-22T06:17:33.000Z</time>
      </trkpt>
      <trkpt lat="45.20247" lon="5.72631">
        <ele>542.59997558594</ele>
        <time>2021-05-22T06:17:35.000Z</time>
      </trkpt>
      <trkpt lat="45.20237" lon="5.72629">
        <ele>541.59997558594</ele>
        <time>2021-05-22T06:17:38.000Z</time>
      </trkpt>
      <trkpt lat="45.20237" lon="5.72629">
        <ele>540.79998779297</ele>
        <time>2021-05-22T06:17:39.000Z</time>
      </trkpt>
      <trkpt lat="45.20232" lon="5.72627">
        <ele>540</ele>
        <time>2021-05-22T06:17:41.000Z</time>
      </trkpt>
      <trkpt lat="45.2023" lon="5.72625">
        <ele>539.59997558594</ele>
        <time>2021-05-22T06:17:42.000Z</time>
      </trkpt>
      <trkpt lat="45.20221" lon="5.72617">
        <ele>538.20001220703</ele>
        <time>2021-05-22T06:17:46.000Z</time>
      </trkpt>
      <trkpt lat="45.20217" lon="5.72613">
        <ele>537.20001220703</ele>
        <time>2021-05-22T06:17:48.000Z</time>
      </trkpt>
      <trkpt lat="45.20213" lon="5.72609">
        <ele>537</ele>
        <time>2021-05-22T06:17:49.000Z</time>
      </trkpt>
      <trkpt lat="45.20213" lon="5.72609">
        <ele>536.79998779297</ele>
        <time>2021-05-22T06:17:50.000Z</time>
      </trkpt>
      <trkpt lat="45.20205" lon="5.72603">
        <ele>535.79998779297</ele>
        <time>2021-05-22T06:17:54.000Z</time>
      </trkpt>
      <trkpt lat="45.20202" lon="5.72599">
        <ele>535</ele>
        <time>2021-05-22T06:17:56.000Z</time>
      </trkpt>
      <trkpt lat="45.202" lon="5.72597">
        <ele>534.59997558594</ele>
        <time>2021-05-22T06:17:57.000Z</time>
      </trkpt>
      <trkpt lat="45.20196" lon="5.72594">
        <ele>533.59997558594</ele>
        <time>2021-05-22T06:17:59.000Z</time>
      </trkpt>
      <trkpt lat="45.20187" lon="5.72586">
        <ele>532.20001220703</ele>
        <time>2021-05-22T06:18:03.000Z</time>
      </trkpt>
      <trkpt lat="45.20186" lon="5.72583">
        <ele>532</ele>
        <time>2021-05-22T06:18:04.000Z</time>
      </trkpt>
      <trkpt lat="45.20179" lon="5.72576">
        <ele>531.20001220703</ele>
        <time>2021-05-22T06:18:07.000Z</time>
      </trkpt>
      <trkpt lat="45.20174" lon="5.72572">
        <ele>530.40002441406</ele>
        <time>2021-05-22T06:18:09.000Z</time>
      </trkpt>
      <trkpt lat="45.20169" lon="5.72568">
        <ele>530</ele>
        <time>2021-05-22T06:18:10.000Z</time>
      </trkpt>
      <trkpt lat="45.20167" lon="5.72566">
        <ele>529.59997558594</ele>
        <time>2021-05-22T06:18:11.000Z</time>
      </trkpt>
      <trkpt lat="45.20165" lon="5.72564">
        <ele>528.79998779297</ele>
        <time>2021-05-22T06:18:13.000Z</time>
      </trkpt>
      <trkpt lat="45.20163" lon="5.72563">
        <ele>528.59997558594</ele>
        <time>2021-05-22T06:18:14.000Z</time>
      </trkpt>
      <trkpt lat="45.20156" lon="5.72559">
        <ele>527.79998779297</ele>
        <time>2021-05-22T06:18:17.000Z</time>
      </trkpt>
      <trkpt lat="45.20151" lon="5.72556">
        <ele>527.20001220703</ele>
        <time>2021-05-22T06:18:19.000Z</time>
      </trkpt>
      <trkpt lat="45.20145" lon="5.72554">
        <ele>526.79998779297</ele>
        <time>2021-05-22T06:18:20.000Z</time>
      </trkpt>
      <trkpt lat="45.20142" lon="5.72554">
        <ele>526.20001220703</ele>
        <time>2021-05-22T06:18:21.000Z</time>
      </trkpt>
      <trkpt lat="45.20139" lon="5.72553">
        <ele>525.59997558594</ele>
        <time>2021-05-22T06:18:23.000Z</time>
      </trkpt>
      <trkpt lat="45.20137" lon="5.72552">
        <ele>525.40002441406</ele>
        <time>2021-05-22T06:18:24.000Z</time>
      </trkpt>
      <trkpt lat="45.20133" lon="5.72549">
        <ele>524.79998779297</ele>
        <time>2021-05-22T06:18:26.000Z</time>
      </trkpt>
      <trkpt lat="45.20129" lon="5.72548">
        <ele>523.59997558594</ele>
        <time>2021-05-22T06:18:28.000Z</time>
      </trkpt>
      <trkpt lat="45.20122" lon="5.72545">
        <ele>522.59997558594</ele>
        <time>2021-05-22T06:18:31.000Z</time>
      </trkpt>
      <trkpt lat="45.20118" lon="5.72544">
        <ele>521.40002441406</ele>
        <time>2021-05-22T06:18:33.000Z</time>
      </trkpt>
      <trkpt lat="45.20111" lon="5.72543">
        <ele>520.20001220703</ele>
        <time>2021-05-22T06:18:36.000Z</time>
      </trkpt>
      <trkpt lat="45.20105" lon="5.72543">
        <ele>519</ele>
        <time>2021-05-22T06:18:39.000Z</time>
      </trkpt>
      <trkpt lat="45.20097" lon="5.72545">
        <ele>517.79998779297</ele>
        <time>2021-05-22T06:18:43.000Z</time>
      </trkpt>
      <trkpt lat="45.20094" lon="5.72544">
        <ele>516.59997558594</ele>
        <time>2021-05-22T06:18:45.000Z</time>
      </trkpt>
      <trkpt lat="45.20089" lon="5.72546">
        <ele>515.40002441406</ele>
        <time>2021-05-22T06:18:47.000Z</time>
      </trkpt>
      <trkpt lat="45.20086" lon="5.72545">
        <ele>515</ele>
        <time>2021-05-22T06:18:48.000Z</time>
      </trkpt>
      <trkpt lat="45.2008" lon="5.72544">
        <ele>514.59997558594</ele>
        <time>2021-05-22T06:18:49.000Z</time>
      </trkpt>
      <trkpt lat="45.20077" lon="5.72542">
        <ele>514.20001220703</ele>
        <time>2021-05-22T06:18:50.000Z</time>
      </trkpt>
      <trkpt lat="45.2007" lon="5.72533">
        <ele>513.20001220703</ele>
        <time>2021-05-22T06:18:54.000Z</time>
      </trkpt>
      <trkpt lat="45.20068" lon="5.7253">
        <ele>513</ele>
        <time>2021-05-22T06:18:55.000Z</time>
      </trkpt>
      <trkpt lat="45.20068" lon="5.72527">
        <ele>513.20001220703</ele>
        <time>2021-05-22T06:18:56.000Z</time>
      </trkpt>
      <trkpt lat="45.20068" lon="5.72518">
        <ele>513</ele>
        <time>2021-05-22T06:18:58.000Z</time>
      </trkpt>
      <trkpt lat="45.20071" lon="5.72494">
        <ele>512.20001220703</ele>
        <time>2021-05-22T06:19:03.000Z</time>
      </trkpt>
      <trkpt lat="45.20071" lon="5.72477">
        <ele>511.60000610352</ele>
        <time>2021-05-22T06:19:07.000Z</time>
      </trkpt>
      <trkpt lat="45.20071" lon="5.7247">
        <ele>511</ele>
        <time>2021-05-22T06:19:09.000Z</time>
      </trkpt>
      <trkpt lat="45.20068" lon="5.72453">
        <ele>510</ele>
        <time>2021-05-22T06:19:14.000Z</time>
      </trkpt>
      <trkpt lat="45.20067" lon="5.7245">
        <ele>509.79998779297</ele>
        <time>2021-05-22T06:19:15.000Z</time>
      </trkpt>
      <trkpt lat="45.20061" lon="5.72443">
        <ele>508.60000610352</ele>
        <time>2021-05-22T06:19:18.000Z</time>
      </trkpt>
      <trkpt lat="45.20054" lon="5.72438">
        <ele>507.39999389648</ele>
        <time>2021-05-22T06:19:21.000Z</time>
      </trkpt>
      <trkpt lat="45.20048" lon="5.72438">
        <ele>506.60000610352</ele>
        <time>2021-05-22T06:19:23.000Z</time>
      </trkpt>
      <trkpt lat="45.20046" lon="5.72438">
        <ele>506.20001220703</ele>
        <time>2021-05-22T06:19:24.000Z</time>
      </trkpt>
      <trkpt lat="45.20043" lon="5.72438">
        <ele>505.79998779297</ele>
        <time>2021-05-22T06:19:25.000Z</time>
      </trkpt>
      <trkpt lat="45.20033" lon="5.72438">
        <ele>505</ele>
        <time>2021-05-22T06:19:28.000Z</time>
      </trkpt>
      <trkpt lat="45.20023" lon="5.72437">
        <ele>504.20001220703</ele>
        <time>2021-05-22T06:19:31.000Z</time>
      </trkpt>
      <trkpt lat="45.20021" lon="5.72437">
        <ele>503.79998779297</ele>
        <time>2021-05-22T06:19:32.000Z</time>
      </trkpt>
      <trkpt lat="45.20012" lon="5.72434">
        <ele>502.60000610352</ele>
        <time>2021-05-22T06:19:35.000Z</time>
      </trkpt>
      <trkpt lat="45.20002" lon="5.72432">
        <ele>501.79998779297</ele>
        <time>2021-05-22T06:19:38.000Z</time>
      </trkpt>
      <trkpt lat="45.19997" lon="5.72431">
        <ele>501.20001220703</ele>
        <time>2021-05-22T06:19:40.000Z</time>
      </trkpt>
      <trkpt lat="45.19988" lon="5.72428">
        <ele>500.60000610352</ele>
        <time>2021-05-22T06:19:42.000Z</time>
      </trkpt>
      <trkpt lat="45.19982" lon="5.72427">
        <ele>499.79998779297</ele>
        <time>2021-05-22T06:19:44.000Z</time>
      </trkpt>
      <trkpt lat="45.19982" lon="5.72427">
        <ele>499.60000610352</ele>
        <time>2021-05-22T06:19:45.000Z</time>
      </trkpt>
      <trkpt lat="45.19972" lon="5.72426">
        <ele>498.60000610352</ele>
        <time>2021-05-22T06:19:48.000Z</time>
      </trkpt>
      <trkpt lat="45.1996" lon="5.72425">
        <ele>497.20001220703</ele>
        <time>2021-05-22T06:19:51.000Z</time>
      </trkpt>
      <trkpt lat="45.1996" lon="5.72425">
        <ele>497</ele>
        <time>2021-05-22T06:19:52.000Z</time>
      </trkpt>
      <trkpt lat="45.19951" lon="5.72424">
        <ele>496.20001220703</ele>
        <time>2021-05-22T06:19:55.000Z</time>
      </trkpt>
      <trkpt lat="45.19939" lon="5.72425">
        <ele>495.39999389648</ele>
        <time>2021-05-22T06:19:58.000Z</time>
      </trkpt>
      <trkpt lat="45.19936" lon="5.72426">
        <ele>495.20001220703</ele>
        <time>2021-05-22T06:20:00.000Z</time>
      </trkpt>
      <trkpt lat="45.19928" lon="5.72427">
        <ele>495</ele>
        <time>2021-05-22T06:20:02.000Z</time>
      </trkpt>
      <trkpt lat="45.19909" lon="5.72431">
        <ele>495.39999389648</ele>
        <time>2021-05-22T06:20:09.000Z</time>
      </trkpt>
      <trkpt lat="45.19903" lon="5.72435">
        <ele>496</ele>
        <time>2021-05-22T06:20:12.000Z</time>
      </trkpt>
      <trkpt lat="45.19902" lon="5.72435">
        <ele>496.39999389648</ele>
        <time>2021-05-22T06:20:14.000Z</time>
      </trkpt>
      <trkpt lat="45.19897" lon="5.72436">
        <ele>497.20001220703</ele>
        <time>2021-05-22T06:20:16.000Z</time>
      </trkpt>
      <trkpt lat="45.19893" lon="5.72437">
        <ele>497.60000610352</ele>
        <time>2021-05-22T06:20:18.000Z</time>
      </trkpt>
      <trkpt lat="45.1989" lon="5.72438">
        <ele>498</ele>
        <time>2021-05-22T06:20:20.000Z</time>
      </trkpt>
      <trkpt lat="45.19888" lon="5.72445">
        <ele>498.39999389648</ele>
        <time>2021-05-22T06:20:21.000Z</time>
      </trkpt>
      <trkpt lat="45.19887" lon="5.72449">
        <ele>498.60000610352</ele>
        <time>2021-05-22T06:20:22.000Z</time>
      </trkpt>
      <trkpt lat="45.19885" lon="5.72454">
        <ele>498.79998779297</ele>
        <time>2021-05-22T06:20:24.000Z</time>
      </trkpt>
      <trkpt lat="45.19884" lon="5.72467">
        <ele>499</ele>
        <time>2021-05-22T06:20:27.000Z</time>
      </trkpt>
      <trkpt lat="45.19884" lon="5.72467">
        <ele>499</ele>
        <time>2021-05-22T06:20:28.000Z</time>
      </trkpt>
      <trkpt lat="45.19885" lon="5.72473">
        <ele>499.20001220703</ele>
        <time>2021-05-22T06:20:29.000Z</time>
      </trkpt>
      <trkpt lat="45.19883" lon="5.72474">
        <ele>499.20001220703</ele>
        <time>2021-05-22T06:20:31.000Z</time>
      </trkpt>
      <trkpt lat="45.19879" lon="5.72476">
        <ele>499</ele>
        <time>2021-05-22T06:20:33.000Z</time>
      </trkpt>
      <trkpt lat="45.19877" lon="5.72477">
        <ele>499</ele>
        <time>2021-05-22T06:20:34.000Z</time>
      </trkpt>
      <trkpt lat="45.1987" lon="5.72477">
        <ele>498.60000610352</ele>
        <time>2021-05-22T06:20:37.000Z</time>
      </trkpt>
      <trkpt lat="45.19868" lon="5.72478">
        <ele>498.60000610352</ele>
        <time>2021-05-22T06:20:38.000Z</time>
      </trkpt>
      <trkpt lat="45.19859" lon="5.72485">
        <ele>498.39999389648</ele>
        <time>2021-05-22T06:20:41.000Z</time>
      </trkpt>
      <trkpt lat="45.19854" lon="5.72508">
        <ele>498</ele>
        <time>2021-05-22T06:20:45.000Z</time>
      </trkpt>
      <trkpt lat="45.19854" lon="5.72508">
        <ele>497.79998779297</ele>
        <time>2021-05-22T06:20:46.000Z</time>
      </trkpt>
      <trkpt lat="45.19855" lon="5.72524">
        <ele>496.79998779297</ele>
        <time>2021-05-22T06:20:49.000Z</time>
      </trkpt>
      <trkpt lat="45.19857" lon="5.72531">
        <ele>496.20001220703</ele>
        <time>2021-05-22T06:20:51.000Z</time>
      </trkpt>
      <trkpt lat="45.19859" lon="5.72538">
        <ele>495.60000610352</ele>
        <time>2021-05-22T06:20:53.000Z</time>
      </trkpt>
      <trkpt lat="45.19858" lon="5.72541">
        <ele>494.60000610352</ele>
        <time>2021-05-22T06:20:55.000Z</time>
      </trkpt>
      <trkpt lat="45.19857" lon="5.7254">
        <ele>494.20001220703</ele>
        <time>2021-05-22T06:20:56.000Z</time>
      </trkpt>
      <trkpt lat="45.19855" lon="5.72535">
        <ele>493.60000610352</ele>
        <time>2021-05-22T06:20:58.000Z</time>
      </trkpt>
      <trkpt lat="45.19855" lon="5.72532">
        <ele>493.20001220703</ele>
        <time>2021-05-22T06:20:59.000Z</time>
      </trkpt>
      <trkpt lat="45.19851" lon="5.72518">
        <ele>492.39999389648</ele>
        <time>2021-05-22T06:21:03.000Z</time>
      </trkpt>
      <trkpt lat="45.19849" lon="5.72509">
        <ele>492.20001220703</ele>
        <time>2021-05-22T06:21:05.000Z</time>
      </trkpt>
      <trkpt lat="45.19846" lon="5.72497">
        <ele>491</ele>
        <time>2021-05-22T06:21:08.000Z</time>
      </trkpt>
      <trkpt lat="45.19841" lon="5.72481">
        <ele>490.20001220703</ele>
        <time>2021-05-22T06:21:11.000Z</time>
      </trkpt>
      <trkpt lat="45.19841" lon="5.72477">
        <ele>489.79998779297</ele>
        <time>2021-05-22T06:21:12.000Z</time>
      </trkpt>
      <trkpt lat="45.1984" lon="5.72467">
        <ele>489</ele>
        <time>2021-05-22T06:21:15.000Z</time>
      </trkpt>
      <trkpt lat="45.19839" lon="5.72463">
        <ele>488.79998779297</ele>
        <time>2021-05-22T06:21:16.000Z</time>
      </trkpt>
      <trkpt lat="45.19838" lon="5.72455">
        <ele>488</ele>
        <time>2021-05-22T06:21:18.000Z</time>
      </trkpt>
      <trkpt lat="45.19838" lon="5.72451">
        <ele>487.39999389648</ele>
        <time>2021-05-22T06:21:20.000Z</time>
      </trkpt>
      <trkpt lat="45.19835" lon="5.72446">
        <ele>487</ele>
        <time>2021-05-22T06:21:21.000Z</time>
      </trkpt>
      <trkpt lat="45.19834" lon="5.72444">
        <ele>486.60000610352</ele>
        <time>2021-05-22T06:21:22.000Z</time>
      </trkpt>
      <trkpt lat="45.19833" lon="5.72443">
        <ele>486.39999389648</ele>
        <time>2021-05-22T06:21:24.000Z</time>
      </trkpt>
      <trkpt lat="45.19836" lon="5.72443">
        <ele>485.79998779297</ele>
        <time>2021-05-22T06:21:26.000Z</time>
      </trkpt>
      <trkpt lat="45.19841" lon="5.72453">
        <ele>485.20001220703</ele>
        <time>2021-05-22T06:21:28.000Z</time>
      </trkpt>
      <trkpt lat="45.19842" lon="5.72462">
        <ele>484.39999389648</ele>
        <time>2021-05-22T06:21:30.000Z</time>
      </trkpt>
      <trkpt lat="45.19841" lon="5.72467">
        <ele>483.79998779297</ele>
        <time>2021-05-22T06:21:31.000Z</time>
      </trkpt>
      <trkpt lat="45.19836" lon="5.72484">
        <ele>482.79998779297</ele>
        <time>2021-05-22T06:21:35.000Z</time>
      </trkpt>
      <trkpt lat="45.19834" lon="5.72493">
        <ele>482.20001220703</ele>
        <time>2021-05-22T06:21:37.000Z</time>
      </trkpt>
      <trkpt lat="45.19833" lon="5.72497">
        <ele>481.60000610352</ele>
        <time>2021-05-22T06:21:39.000Z</time>
      </trkpt>
      <trkpt lat="45.19829" lon="5.72511">
        <ele>480.39999389648</ele>
        <time>2021-05-22T06:21:41.000Z</time>
      </trkpt>
      <trkpt lat="45.19826" lon="5.7252">
        <ele>479</ele>
        <time>2021-05-22T06:21:44.000Z</time>
      </trkpt>
      <trkpt lat="45.19826" lon="5.72529">
        <ele>478.60000610352</ele>
        <time>2021-05-22T06:21:45.000Z</time>
      </trkpt>
      <trkpt lat="45.19826" lon="5.72529">
        <ele>478.39999389648</ele>
        <time>2021-05-22T06:21:46.000Z</time>
      </trkpt>
      <trkpt lat="45.19828" lon="5.72536">
        <ele>477.60000610352</ele>
        <time>2021-05-22T06:21:48.000Z</time>
      </trkpt>
      <trkpt lat="45.1983" lon="5.72559">
        <ele>476.60000610352</ele>
        <time>2021-05-22T06:21:52.000Z</time>
      </trkpt>
      <trkpt lat="45.19831" lon="5.72571">
        <ele>475.79998779297</ele>
        <time>2021-05-22T06:21:55.000Z</time>
      </trkpt>
      <trkpt lat="45.1983" lon="5.72574">
        <ele>475.60000610352</ele>
        <time>2021-05-22T06:21:56.000Z</time>
      </trkpt>
      <trkpt lat="45.19828" lon="5.72578">
        <ele>474.79998779297</ele>
        <time>2021-05-22T06:21:58.000Z</time>
      </trkpt>
      <trkpt lat="45.19829" lon="5.7259">
        <ele>474.39999389648</ele>
        <time>2021-05-22T06:22:00.000Z</time>
      </trkpt>
      <trkpt lat="45.19829" lon="5.7259">
        <ele>473.79998779297</ele>
        <time>2021-05-22T06:22:01.000Z</time>
      </trkpt>
      <trkpt lat="45.19829" lon="5.72601">
        <ele>473.20001220703</ele>
        <time>2021-05-22T06:22:03.000Z</time>
      </trkpt>
      <trkpt lat="45.19833" lon="5.72615">
        <ele>472</ele>
        <time>2021-05-22T06:22:07.000Z</time>
      </trkpt>
      <trkpt lat="45.19836" lon="5.72633">
        <ele>470.79998779297</ele>
        <time>2021-05-22T06:22:12.000Z</time>
      </trkpt>
      <trkpt lat="45.19837" lon="5.72636">
        <ele>470.39999389648</ele>
        <time>2021-05-22T06:22:13.000Z</time>
      </trkpt>
      <trkpt lat="45.19838" lon="5.72642">
        <ele>469.79998779297</ele>
        <time>2021-05-22T06:22:15.000Z</time>
      </trkpt>
      <trkpt lat="45.19843" lon="5.72657">
        <ele>468.60000610352</ele>
        <time>2021-05-22T06:22:19.000Z</time>
      </trkpt>
      <trkpt lat="45.19852" lon="5.72666">
        <ele>467.39999389648</ele>
        <time>2021-05-22T06:22:23.000Z</time>
      </trkpt>
      <trkpt lat="45.19854" lon="5.72671">
        <ele>466.60000610352</ele>
        <time>2021-05-22T06:22:25.000Z</time>
      </trkpt>
      <trkpt lat="45.19854" lon="5.72674">
        <ele>466.20001220703</ele>
        <time>2021-05-22T06:22:26.000Z</time>
      </trkpt>
      <trkpt lat="45.19855" lon="5.72675">
        <ele>465.79998779297</ele>
        <time>2021-05-22T06:22:28.000Z</time>
      </trkpt>
      <trkpt lat="45.19852" lon="5.72673">
        <ele>465.60000610352</ele>
        <time>2021-05-22T06:22:29.000Z</time>
      </trkpt>
      <trkpt lat="45.1985" lon="5.72671">
        <ele>465</ele>
        <time>2021-05-22T06:22:31.000Z</time>
      </trkpt>
      <trkpt lat="45.1984" lon="5.72663">
        <ele>463.79998779297</ele>
        <time>2021-05-22T06:22:35.000Z</time>
      </trkpt>
      <trkpt lat="45.19832" lon="5.72657">
        <ele>463.20001220703</ele>
        <time>2021-05-22T06:22:37.000Z</time>
      </trkpt>
      <trkpt lat="45.19828" lon="5.72652">
        <ele>463</ele>
        <time>2021-05-22T06:22:39.000Z</time>
      </trkpt>
      <trkpt lat="45.19826" lon="5.72649">
        <ele>462.39999389648</ele>
        <time>2021-05-22T06:22:40.000Z</time>
      </trkpt>
      <trkpt lat="45.1982" lon="5.72642">
        <ele>461.60000610352</ele>
        <time>2021-05-22T06:22:44.000Z</time>
      </trkpt>
      <trkpt lat="45.19815" lon="5.72638">
        <ele>461.20001220703</ele>
        <time>2021-05-22T06:22:45.000Z</time>
      </trkpt>
      <trkpt lat="45.1981" lon="5.72634">
        <ele>460.39999389648</ele>
        <time>2021-05-22T06:22:47.000Z</time>
      </trkpt>
      <trkpt lat="45.1981" lon="5.72634">
        <ele>460</ele>
        <time>2021-05-22T06:22:48.000Z</time>
      </trkpt>
      <trkpt lat="45.19801" lon="5.72627">
        <ele>458.79998779297</ele>
        <time>2021-05-22T06:22:51.000Z</time>
      </trkpt>
      <trkpt lat="45.19796" lon="5.72623">
        <ele>458</ele>
        <time>2021-05-22T06:22:54.000Z</time>
      </trkpt>
      <trkpt lat="45.1979" lon="5.72617">
        <ele>457.39999389648</ele>
        <time>2021-05-22T06:22:56.000Z</time>
      </trkpt>
      <trkpt lat="45.19786" lon="5.72609">
        <ele>456.39999389648</ele>
        <time>2021-05-22T06:22:59.000Z</time>
      </trkpt>
      <trkpt lat="45.19785" lon="5.72605">
        <ele>456</ele>
        <time>2021-05-22T06:23:00.000Z</time>
      </trkpt>
      <trkpt lat="45.19784" lon="5.7259">
        <ele>455</ele>
        <time>2021-05-22T06:23:05.000Z</time>
      </trkpt>
      <trkpt lat="45.19785" lon="5.72577">
        <ele>454.39999389648</ele>
        <time>2021-05-22T06:23:07.000Z</time>
      </trkpt>
      <trkpt lat="45.19785" lon="5.72574">
        <ele>453.79998779297</ele>
        <time>2021-05-22T06:23:09.000Z</time>
      </trkpt>
      <trkpt lat="45.19785" lon="5.72558">
        <ele>452.79998779297</ele>
        <time>2021-05-22T06:23:13.000Z</time>
      </trkpt>
      <trkpt lat="45.19785" lon="5.7254">
        <ele>451.60000610352</ele>
        <time>2021-05-22T06:23:16.000Z</time>
      </trkpt>
      <trkpt lat="45.19783" lon="5.72538">
        <ele>451.39999389648</ele>
        <time>2021-05-22T06:23:17.000Z</time>
      </trkpt>
      <trkpt lat="45.1978" lon="5.72538">
        <ele>451</ele>
        <time>2021-05-22T06:23:19.000Z</time>
      </trkpt>
      <trkpt lat="45.1978" lon="5.72539">
        <ele>450.60000610352</ele>
        <time>2021-05-22T06:23:20.000Z</time>
      </trkpt>
      <trkpt lat="45.19777" lon="5.72553">
        <ele>449.39999389648</ele>
        <time>2021-05-22T06:23:24.000Z</time>
      </trkpt>
      <trkpt lat="45.19777" lon="5.72553">
        <ele>449.20001220703</ele>
        <time>2021-05-22T06:23:25.000Z</time>
      </trkpt>
      <trkpt lat="45.19776" lon="5.72561">
        <ele>448.20001220703</ele>
        <time>2021-05-22T06:23:27.000Z</time>
      </trkpt>
      <trkpt lat="45.19774" lon="5.72581">
        <ele>447.39999389648</ele>
        <time>2021-05-22T06:23:30.000Z</time>
      </trkpt>
      <trkpt lat="45.19775" lon="5.72584">
        <ele>447.20001220703</ele>
        <time>2021-05-22T06:23:31.000Z</time>
      </trkpt>
      <trkpt lat="45.19774" lon="5.72591">
        <ele>446.60000610352</ele>
        <time>2021-05-22T06:23:33.000Z</time>
      </trkpt>
      <trkpt lat="45.19769" lon="5.72591">
        <ele>446</ele>
        <time>2021-05-22T06:23:35.000Z</time>
      </trkpt>
      <trkpt lat="45.19766" lon="5.72585">
        <ele>445.39999389648</ele>
        <time>2021-05-22T06:23:37.000Z</time>
      </trkpt>
      <trkpt lat="45.19766" lon="5.72581">
        <ele>445</ele>
        <time>2021-05-22T06:23:38.000Z</time>
      </trkpt>
      <trkpt lat="45.19765" lon="5.72576">
        <ele>444.79998779297</ele>
        <time>2021-05-22T06:23:39.000Z</time>
      </trkpt>
      <trkpt lat="45.19764" lon="5.72568">
        <ele>443.60000610352</ele>
        <time>2021-05-22T06:23:42.000Z</time>
      </trkpt>
      <trkpt lat="45.19762" lon="5.72552">
        <ele>442.60000610352</ele>
        <time>2021-05-22T06:23:45.000Z</time>
      </trkpt>
      <trkpt lat="45.19762" lon="5.72546">
        <ele>442.20001220703</ele>
        <time>2021-05-22T06:23:47.000Z</time>
      </trkpt>
      <trkpt lat="45.19762" lon="5.7253">
        <ele>441.39999389648</ele>
        <time>2021-05-22T06:23:49.000Z</time>
      </trkpt>
      <trkpt lat="45.19765" lon="5.7252">
        <ele>440.60000610352</ele>
        <time>2021-05-22T06:23:51.000Z</time>
      </trkpt>
      <trkpt lat="45.19766" lon="5.72514">
        <ele>440.39999389648</ele>
        <time>2021-05-22T06:23:52.000Z</time>
      </trkpt>
      <trkpt lat="45.19767" lon="5.72503">
        <ele>439.79998779297</ele>
        <time>2021-05-22T06:23:54.000Z</time>
      </trkpt>
      <trkpt lat="45.19768" lon="5.72498">
        <ele>439.20001220703</ele>
        <time>2021-05-22T06:23:57.000Z</time>
      </trkpt>
      <trkpt lat="45.19768" lon="5.72498">
        <ele>438.39999389648</ele>
        <time>2021-05-22T06:23:59.000Z</time>
      </trkpt>
      <trkpt lat="45.19767" lon="5.725">
        <ele>437.79998779297</ele>
        <time>2021-05-22T06:24:00.000Z</time>
      </trkpt>
      <trkpt lat="45.19763" lon="5.72505">
        <ele>436.79998779297</ele>
        <time>2021-05-22T06:24:03.000Z</time>
      </trkpt>
      <trkpt lat="45.19759" lon="5.72513">
        <ele>436.79998779297</ele>
        <time>2021-05-22T06:24:04.000Z</time>
      </trkpt>
      <trkpt lat="45.19756" lon="5.72524">
        <ele>436</ele>
        <time>2021-05-22T06:24:07.000Z</time>
      </trkpt>
      <trkpt lat="45.19754" lon="5.72528">
        <ele>435.79998779297</ele>
        <time>2021-05-22T06:24:09.000Z</time>
      </trkpt>
      <trkpt lat="45.19752" lon="5.72533">
        <ele>435.79998779297</ele>
        <time>2021-05-22T06:24:12.000Z</time>
      </trkpt>
      <trkpt lat="45.19751" lon="5.72538">
        <ele>435.79998779297</ele>
        <time>2021-05-22T06:24:13.000Z</time>
      </trkpt>
      <trkpt lat="45.19751" lon="5.72552">
        <ele>436</ele>
        <time>2021-05-22T06:24:16.000Z</time>
      </trkpt>
      <trkpt lat="45.19753" lon="5.72572">
        <ele>435.79998779297</ele>
        <time>2021-05-22T06:24:22.000Z</time>
      </trkpt>
      <trkpt lat="45.19749" lon="5.72599">
        <ele>436.20001220703</ele>
        <time>2021-05-22T06:24:27.000Z</time>
      </trkpt>
      <trkpt lat="45.19746" lon="5.72623">
        <ele>436.39999389648</ele>
        <time>2021-05-22T06:24:33.000Z</time>
      </trkpt>
      <trkpt lat="45.19748" lon="5.72628">
        <ele>436.39999389648</ele>
        <time>2021-05-22T06:24:34.000Z</time>
      </trkpt>
      <trkpt lat="45.1975" lon="5.7263">
        <ele>436.39999389648</ele>
        <time>2021-05-22T06:24:36.000Z</time>
      </trkpt>
      <trkpt lat="45.19755" lon="5.72639">
        <ele>436.20001220703</ele>
        <time>2021-05-22T06:24:41.000Z</time>
      </trkpt>
      <trkpt lat="45.19761" lon="5.72646">
        <ele>436</ele>
        <time>2021-05-22T06:24:43.000Z</time>
      </trkpt>
      <trkpt lat="45.19761" lon="5.72646">
        <ele>436</ele>
        <time>2021-05-22T06:24:44.000Z</time>
      </trkpt>
      <trkpt lat="45.19773" lon="5.72657">
        <ele>436</ele>
        <time>2021-05-22T06:24:48.000Z</time>
      </trkpt>
      <trkpt lat="45.19775" lon="5.7266">
        <ele>436</ele>
        <time>2021-05-22T06:24:49.000Z</time>
      </trkpt>
      <trkpt lat="45.19786" lon="5.72678">
        <ele>436</ele>
        <time>2021-05-22T06:24:57.000Z</time>
      </trkpt>
      <trkpt lat="45.19798" lon="5.72695">
        <ele>436.20001220703</ele>
        <time>2021-05-22T06:25:04.000Z</time>
      </trkpt>
      <trkpt lat="45.19806" lon="5.72704">
        <ele>436.39999389648</ele>
        <time>2021-05-22T06:25:09.000Z</time>
      </trkpt>
      <trkpt lat="45.19816" lon="5.72708">
        <ele>436.39999389648</ele>
        <time>2021-05-22T06:25:12.000Z</time>
      </trkpt>
      <trkpt lat="45.19823" lon="5.72716">
        <ele>436.79998779297</ele>
        <time>2021-05-22T06:25:16.000Z</time>
      </trkpt>
      <trkpt lat="45.19825" lon="5.72723">
        <ele>436.79998779297</ele>
        <time>2021-05-22T06:25:17.000Z</time>
      </trkpt>
      <trkpt lat="45.19826" lon="5.72727">
        <ele>437</ele>
        <time>2021-05-22T06:25:19.000Z</time>
      </trkpt>
      <trkpt lat="45.19829" lon="5.72733">
        <ele>437</ele>
        <time>2021-05-22T06:25:20.000Z</time>
      </trkpt>
      <trkpt lat="45.19835" lon="5.72737">
        <ele>437</ele>
        <time>2021-05-22T06:25:23.000Z</time>
      </trkpt>
      <trkpt lat="45.19864" lon="5.72733">
        <ele>433</ele>
        <time>2021-05-22T06:25:40.000Z</time>
      </trkpt>
      <trkpt lat="45.19863" lon="5.72751">
        <ele>432.20001220703</ele>
        <time>2021-05-22T06:25:45.000Z</time>
      </trkpt>
      <trkpt lat="45.19862" lon="5.72751">
        <ele>431.79998779297</ele>
        <time>2021-05-22T06:25:46.000Z</time>
      </trkpt>
      <trkpt lat="45.1986" lon="5.72752">
        <ele>431.39999389648</ele>
        <time>2021-05-22T06:25:47.000Z</time>
      </trkpt>
      <trkpt lat="45.1986" lon="5.72751">
        <ele>431</ele>
        <time>2021-05-22T06:25:48.000Z</time>
      </trkpt>
      <trkpt lat="45.1986" lon="5.7275">
        <ele>430.79998779297</ele>
        <time>2021-05-22T06:25:49.000Z</time>
      </trkpt>
      <trkpt lat="45.19859" lon="5.72746">
        <ele>429.79998779297</ele>
        <time>2021-05-22T06:25:51.000Z</time>
      </trkpt>
      <trkpt lat="45.1986" lon="5.72744">
        <ele>428.39999389648</ele>
        <time>2021-05-22T06:25:53.000Z</time>
      </trkpt>
      <trkpt lat="45.19861" lon="5.72745">
        <ele>428.20001220703</ele>
        <time>2021-05-22T06:25:54.000Z</time>
      </trkpt>
      <trkpt lat="45.1986" lon="5.72745">
        <ele>427.20001220703</ele>
        <time>2021-05-22T06:25:56.000Z</time>
      </trkpt>
      <trkpt lat="45.19858" lon="5.72748">
        <ele>427</ele>
        <time>2021-05-22T06:25:57.000Z</time>
      </trkpt>
      <trkpt lat="45.1986" lon="5.72759">
        <ele>408</ele>
        <time>2021-05-22T06:26:39.000Z</time>
      </trkpt>
      <trkpt lat="45.19857" lon="5.72763">
        <ele>407.60000610352</ele>
        <time>2021-05-22T06:26:40.000Z</time>
      </trkpt>
      <trkpt lat="45.19854" lon="5.72759">
        <ele>407.20001220703</ele>
        <time>2021-05-22T06:26:42.000Z</time>
      </trkpt>
      <trkpt lat="45.1985" lon="5.7276">
        <ele>407</ele>
        <time>2021-05-22T06:26:43.000Z</time>
      </trkpt>
      <trkpt lat="45.1984" lon="5.72758">
        <ele>406</ele>
        <time>2021-05-22T06:26:46.000Z</time>
      </trkpt>
      <trkpt lat="45.19837" lon="5.72755">
        <ele>405.79998779297</ele>
        <time>2021-05-22T06:26:47.000Z</time>
      </trkpt>
      <trkpt lat="45.19837" lon="5.72755">
        <ele>405.39999389648</ele>
        <time>2021-05-22T06:26:48.000Z</time>
      </trkpt>
      <trkpt lat="45.19829" lon="5.7275">
        <ele>404.79998779297</ele>
        <time>2021-05-22T06:26:50.000Z</time>
      </trkpt>
      <trkpt lat="45.19823" lon="5.72745">
        <ele>404.20001220703</ele>
        <time>2021-05-22T06:26:52.000Z</time>
      </trkpt>
      <trkpt lat="45.19816" lon="5.72738">
        <ele>403.60000610352</ele>
        <time>2021-05-22T06:26:55.000Z</time>
      </trkpt>
      <trkpt lat="45.19811" lon="5.72735">
        <ele>403</ele>
        <time>2021-05-22T06:26:57.000Z</time>
      </trkpt>
      <trkpt lat="45.19808" lon="5.72733">
        <ele>402.60000610352</ele>
        <time>2021-05-22T06:26:58.000Z</time>
      </trkpt>
      <trkpt lat="45.19806" lon="5.72732">
        <ele>402.39999389648</ele>
        <time>2021-05-22T06:26:59.000Z</time>
      </trkpt>
      <trkpt lat="45.19798" lon="5.72726">
        <ele>401.79998779297</ele>
        <time>2021-05-22T06:27:02.000Z</time>
      </trkpt>
      <trkpt lat="45.19796" lon="5.72726">
        <ele>401.39999389648</ele>
        <time>2021-05-22T06:27:04.000Z</time>
      </trkpt>
      <trkpt lat="45.19794" lon="5.72727">
        <ele>401.20001220703</ele>
        <time>2021-05-22T06:27:05.000Z</time>
      </trkpt>
      <trkpt lat="45.19794" lon="5.72727">
        <ele>400.79998779297</ele>
        <time>2021-05-22T06:27:06.000Z</time>
      </trkpt>
      <trkpt lat="45.19796" lon="5.72728">
        <ele>400</ele>
        <time>2021-05-22T06:27:07.000Z</time>
      </trkpt>
      <trkpt lat="45.19797" lon="5.7273">
        <ele>399.20001220703</ele>
        <time>2021-05-22T06:27:09.000Z</time>
      </trkpt>
      <trkpt lat="45.19801" lon="5.72733">
        <ele>398.60000610352</ele>
        <time>2021-05-22T06:27:10.000Z</time>
      </trkpt>
      <trkpt lat="45.19808" lon="5.72738">
        <ele>398</ele>
        <time>2021-05-22T06:27:13.000Z</time>
      </trkpt>
      <trkpt lat="45.1981" lon="5.72739">
        <ele>397.79998779297</ele>
        <time>2021-05-22T06:27:14.000Z</time>
      </trkpt>
      <trkpt lat="45.19812" lon="5.72742">
        <ele>397.79998779297</ele>
        <time>2021-05-22T06:27:15.000Z</time>
      </trkpt>
      <trkpt lat="45.19813" lon="5.72746">
        <ele>397.60000610352</ele>
        <time>2021-05-22T06:27:16.000Z</time>
      </trkpt>
      <trkpt lat="45.19817" lon="5.72753">
        <ele>396.20001220703</ele>
        <time>2021-05-22T06:27:18.000Z</time>
      </trkpt>
      <trkpt lat="45.19825" lon="5.72765">
        <ele>394.79998779297</ele>
        <time>2021-05-22T06:27:22.000Z</time>
      </trkpt>
      <trkpt lat="45.19827" lon="5.72767">
        <ele>393.60000610352</ele>
        <time>2021-05-22T06:27:24.000Z</time>
      </trkpt>
      <trkpt lat="45.19838" lon="5.72779">
        <ele>392.20001220703</ele>
        <time>2021-05-22T06:27:28.000Z</time>
      </trkpt>
      <trkpt lat="45.1984" lon="5.72781">
        <ele>391.79998779297</ele>
        <time>2021-05-22T06:27:29.000Z</time>
      </trkpt>
      <trkpt lat="45.19841" lon="5.72784">
        <ele>391.39999389648</ele>
        <time>2021-05-22T06:27:30.000Z</time>
      </trkpt>
      <trkpt lat="45.1984" lon="5.72785">
        <ele>391.20001220703</ele>
        <time>2021-05-22T06:27:31.000Z</time>
      </trkpt>
      <trkpt lat="45.19838" lon="5.72785">
        <ele>390.79998779297</ele>
        <time>2021-05-22T06:27:32.000Z</time>
      </trkpt>
      <trkpt lat="45.19834" lon="5.72783">
        <ele>389.79998779297</ele>
        <time>2021-05-22T06:27:34.000Z</time>
      </trkpt>
      <trkpt lat="45.19829" lon="5.7278">
        <ele>388.39999389648</ele>
        <time>2021-05-22T06:27:37.000Z</time>
      </trkpt>
      <trkpt lat="45.19821" lon="5.72775">
        <ele>388</ele>
        <time>2021-05-22T06:27:39.000Z</time>
      </trkpt>
      <trkpt lat="45.19817" lon="5.72771">
        <ele>387.60000610352</ele>
        <time>2021-05-22T06:27:41.000Z</time>
      </trkpt>
      <trkpt lat="45.19814" lon="5.72769">
        <ele>387.20001220703</ele>
        <time>2021-05-22T06:27:42.000Z</time>
      </trkpt>
      <trkpt lat="45.19809" lon="5.72766">
        <ele>386.39999389648</ele>
        <time>2021-05-22T06:27:44.000Z</time>
      </trkpt>
      <trkpt lat="45.19807" lon="5.72764">
        <ele>386.20001220703</ele>
        <time>2021-05-22T06:27:45.000Z</time>
      </trkpt>
      <trkpt lat="45.19805" lon="5.72762">
        <ele>385</ele>
        <time>2021-05-22T06:27:47.000Z</time>
      </trkpt>
      <trkpt lat="45.19803" lon="5.72759">
        <ele>384</ele>
        <time>2021-05-22T06:27:50.000Z</time>
      </trkpt>
      <trkpt lat="45.19806" lon="5.72762">
        <ele>383.39999389648</ele>
        <time>2021-05-22T06:27:52.000Z</time>
      </trkpt>
      <trkpt lat="45.19811" lon="5.72769">
        <ele>382.79998779297</ele>
        <time>2021-05-22T06:27:55.000Z</time>
      </trkpt>
      <trkpt lat="45.19819" lon="5.7278">
        <ele>381.60000610352</ele>
        <time>2021-05-22T06:27:59.000Z</time>
      </trkpt>
      <trkpt lat="45.19829" lon="5.72787">
        <ele>380.39999389648</ele>
        <time>2021-05-22T06:28:03.000Z</time>
      </trkpt>
      <trkpt lat="45.19834" lon="5.72792">
        <ele>379.39999389648</ele>
        <time>2021-05-22T06:28:05.000Z</time>
      </trkpt>
      <trkpt lat="45.19836" lon="5.72795">
        <ele>379</ele>
        <time>2021-05-22T06:28:06.000Z</time>
      </trkpt>
      <trkpt lat="45.19839" lon="5.72797">
        <ele>378.20001220703</ele>
        <time>2021-05-22T06:28:08.000Z</time>
      </trkpt>
      <trkpt lat="45.19845" lon="5.72801">
        <ele>377.60000610352</ele>
        <time>2021-05-22T06:28:10.000Z</time>
      </trkpt>
      <trkpt lat="45.19845" lon="5.72804">
        <ele>377.20001220703</ele>
        <time>2021-05-22T06:28:11.000Z</time>
      </trkpt>
      <trkpt lat="45.19838" lon="5.72804">
        <ele>375.79998779297</ele>
        <time>2021-05-22T06:28:14.000Z</time>
      </trkpt>
      <trkpt lat="45.19828" lon="5.72801">
        <ele>374.79998779297</ele>
        <time>2021-05-22T06:28:18.000Z</time>
      </trkpt>
      <trkpt lat="45.19823" lon="5.72799">
        <ele>374.20001220703</ele>
        <time>2021-05-22T06:28:20.000Z</time>
      </trkpt>
      <trkpt lat="45.19819" lon="5.72796">
        <ele>373.39999389648</ele>
        <time>2021-05-22T06:28:22.000Z</time>
      </trkpt>
      <trkpt lat="45.19819" lon="5.72797">
        <ele>372.60000610352</ele>
        <time>2021-05-22T06:28:24.000Z</time>
      </trkpt>
      <trkpt lat="45.19821" lon="5.72798">
        <ele>372.39999389648</ele>
        <time>2021-05-22T06:28:25.000Z</time>
      </trkpt>
      <trkpt lat="45.19826" lon="5.72801">
        <ele>371.79998779297</ele>
        <time>2021-05-22T06:28:27.000Z</time>
      </trkpt>
      <trkpt lat="45.19832" lon="5.72804">
        <ele>371</ele>
        <time>2021-05-22T06:28:29.000Z</time>
      </trkpt>
      <trkpt lat="45.19837" lon="5.7281">
        <ele>369.79998779297</ele>
        <time>2021-05-22T06:28:32.000Z</time>
      </trkpt>
      <trkpt lat="45.19837" lon="5.72812">
        <ele>369.60000610352</ele>
        <time>2021-05-22T06:28:33.000Z</time>
      </trkpt>
      <trkpt lat="45.19833" lon="5.72813">
        <ele>369.20001220703</ele>
        <time>2021-05-22T06:28:36.000Z</time>
      </trkpt>
      <trkpt lat="45.19826" lon="5.72813">
        <ele>368.79998779297</ele>
        <time>2021-05-22T06:28:37.000Z</time>
      </trkpt>
      <trkpt lat="45.19817" lon="5.7281">
        <ele>367.60000610352</ele>
        <time>2021-05-22T06:28:40.000Z</time>
      </trkpt>
      <trkpt lat="45.19815" lon="5.72809">
        <ele>367</ele>
        <time>2021-05-22T06:28:41.000Z</time>
      </trkpt>
      <trkpt lat="45.19812" lon="5.72808">
        <ele>366.60000610352</ele>
        <time>2021-05-22T06:28:42.000Z</time>
      </trkpt>
      <trkpt lat="45.19808" lon="5.72805">
        <ele>366</ele>
        <time>2021-05-22T06:28:44.000Z</time>
      </trkpt>
      <trkpt lat="45.19803" lon="5.72803">
        <ele>365.60000610352</ele>
        <time>2021-05-22T06:28:46.000Z</time>
      </trkpt>
      <trkpt lat="45.19801" lon="5.72802">
        <ele>365.39999389648</ele>
        <time>2021-05-22T06:28:47.000Z</time>
      </trkpt>
      <trkpt lat="45.19794" lon="5.72804">
        <ele>364.20001220703</ele>
        <time>2021-05-22T06:28:50.000Z</time>
      </trkpt>
      <trkpt lat="45.19795" lon="5.72807">
        <ele>364</ele>
        <time>2021-05-22T06:28:51.000Z</time>
      </trkpt>
      <trkpt lat="45.19803" lon="5.72816">
        <ele>363</ele>
        <time>2021-05-22T06:28:55.000Z</time>
      </trkpt>
      <trkpt lat="45.19805" lon="5.72818">
        <ele>363</ele>
        <time>2021-05-22T06:28:56.000Z</time>
      </trkpt>
      <trkpt lat="45.19816" lon="5.72832">
        <ele>362</ele>
        <time>2021-05-22T06:29:02.000Z</time>
      </trkpt>
      <trkpt lat="45.19818" lon="5.72835">
        <ele>361.60000610352</ele>
        <time>2021-05-22T06:29:03.000Z</time>
      </trkpt>
      <trkpt lat="45.19822" lon="5.72842">
        <ele>361</ele>
        <time>2021-05-22T06:29:06.000Z</time>
      </trkpt>
      <trkpt lat="45.1982" lon="5.72841">
        <ele>360.79998779297</ele>
        <time>2021-05-22T06:29:07.000Z</time>
      </trkpt>
      <trkpt lat="45.19812" lon="5.72839">
        <ele>359.79998779297</ele>
        <time>2021-05-22T06:29:10.000Z</time>
      </trkpt>
      <trkpt lat="45.1981" lon="5.72837">
        <ele>359.60000610352</ele>
        <time>2021-05-22T06:29:11.000Z</time>
      </trkpt>
      <trkpt lat="45.19799" lon="5.72833">
        <ele>358.79998779297</ele>
        <time>2021-05-22T06:29:15.000Z</time>
      </trkpt>
      <trkpt lat="45.1979" lon="5.72829">
        <ele>357.39999389648</ele>
        <time>2021-05-22T06:29:18.000Z</time>
      </trkpt>
      <trkpt lat="45.19782" lon="5.72824">
        <ele>356</ele>
        <time>2021-05-22T06:29:21.000Z</time>
      </trkpt>
      <trkpt lat="45.19777" lon="5.72822">
        <ele>355.60000610352</ele>
        <time>2021-05-22T06:29:23.000Z</time>
      </trkpt>
      <trkpt lat="45.19772" lon="5.72821">
        <ele>354.79998779297</ele>
        <time>2021-05-22T06:29:25.000Z</time>
      </trkpt>
      <trkpt lat="45.19768" lon="5.7282">
        <ele>354</ele>
        <time>2021-05-22T06:29:27.000Z</time>
      </trkpt>
      <trkpt lat="45.19766" lon="5.72819">
        <ele>353.39999389648</ele>
        <time>2021-05-22T06:29:28.000Z</time>
      </trkpt>
      <trkpt lat="45.19759" lon="5.72815">
        <ele>352</ele>
        <time>2021-05-22T06:29:32.000Z</time>
      </trkpt>
      <trkpt lat="45.19759" lon="5.72816">
        <ele>351.60000610352</ele>
        <time>2021-05-22T06:29:33.000Z</time>
      </trkpt>
      <trkpt lat="45.1976" lon="5.72817">
        <ele>351</ele>
        <time>2021-05-22T06:29:35.000Z</time>
      </trkpt>
      <trkpt lat="45.19766" lon="5.72821">
        <ele>350.20001220703</ele>
        <time>2021-05-22T06:29:37.000Z</time>
      </trkpt>
      <trkpt lat="45.19769" lon="5.72823">
        <ele>350</ele>
        <time>2021-05-22T06:29:39.000Z</time>
      </trkpt>
      <trkpt lat="45.19772" lon="5.72827">
        <ele>349</ele>
        <time>2021-05-22T06:29:41.000Z</time>
      </trkpt>
      <trkpt lat="45.19774" lon="5.72828">
        <ele>348.60000610352</ele>
        <time>2021-05-22T06:29:42.000Z</time>
      </trkpt>
      <trkpt lat="45.19778" lon="5.72831">
        <ele>347.79998779297</ele>
        <time>2021-05-22T06:29:44.000Z</time>
      </trkpt>
      <trkpt lat="45.19781" lon="5.72831">
        <ele>347.20001220703</ele>
        <time>2021-05-22T06:29:46.000Z</time>
      </trkpt>
      <trkpt lat="45.19787" lon="5.72834">
        <ele>346.60000610352</ele>
        <time>2021-05-22T06:29:48.000Z</time>
      </trkpt>
      <trkpt lat="45.19789" lon="5.72836">
        <ele>346.20001220703</ele>
        <time>2021-05-22T06:29:49.000Z</time>
      </trkpt>
      <trkpt lat="45.1979" lon="5.72839">
        <ele>345.79998779297</ele>
        <time>2021-05-22T06:29:50.000Z</time>
      </trkpt>
      <trkpt lat="45.19792" lon="5.72845">
        <ele>345</ele>
        <time>2021-05-22T06:29:52.000Z</time>
      </trkpt>
      <trkpt lat="45.19792" lon="5.72845">
        <ele>344.79998779297</ele>
        <time>2021-05-22T06:29:53.000Z</time>
      </trkpt>
      <trkpt lat="45.19799" lon="5.72856">
        <ele>343.39999389648</ele>
        <time>2021-05-22T06:29:57.000Z</time>
      </trkpt>
      <trkpt lat="45.19806" lon="5.72863">
        <ele>342.39999389648</ele>
        <time>2021-05-22T06:30:00.000Z</time>
      </trkpt>
      <trkpt lat="45.19809" lon="5.72867">
        <ele>342</ele>
        <time>2021-05-22T06:30:02.000Z</time>
      </trkpt>
      <trkpt lat="45.19806" lon="5.72869">
        <ele>341.20001220703</ele>
        <time>2021-05-22T06:30:04.000Z</time>
      </trkpt>
      <trkpt lat="45.19797" lon="5.72871">
        <ele>340</ele>
        <time>2021-05-22T06:30:08.000Z</time>
      </trkpt>
      <trkpt lat="45.19795" lon="5.7287">
        <ele>339.60000610352</ele>
        <time>2021-05-22T06:30:09.000Z</time>
      </trkpt>
      <trkpt lat="45.19792" lon="5.72869">
        <ele>338.79998779297</ele>
        <time>2021-05-22T06:30:11.000Z</time>
      </trkpt>
      <trkpt lat="45.19787" lon="5.72867">
        <ele>338.79998779297</ele>
        <time>2021-05-22T06:30:12.000Z</time>
      </trkpt>
      <trkpt lat="45.19784" lon="5.72866">
        <ele>338.60000610352</ele>
        <time>2021-05-22T06:30:13.000Z</time>
      </trkpt>
      <trkpt lat="45.19782" lon="5.72865">
        <ele>338</ele>
        <time>2021-05-22T06:30:14.000Z</time>
      </trkpt>
      <trkpt lat="45.1978" lon="5.72864">
        <ele>337.60000610352</ele>
        <time>2021-05-22T06:30:15.000Z</time>
      </trkpt>
      <trkpt lat="45.19772" lon="5.7286">
        <ele>336.20001220703</ele>
        <time>2021-05-22T06:30:18.000Z</time>
      </trkpt>
      <trkpt lat="45.19772" lon="5.7286">
        <ele>335.79998779297</ele>
        <time>2021-05-22T06:30:19.000Z</time>
      </trkpt>
      <trkpt lat="45.19762" lon="5.72853">
        <ele>335</ele>
        <time>2021-05-22T06:30:22.000Z</time>
      </trkpt>
      <trkpt lat="45.19757" lon="5.7285">
        <ele>334</ele>
        <time>2021-05-22T06:30:24.000Z</time>
      </trkpt>
      <trkpt lat="45.19755" lon="5.72848">
        <ele>333.79998779297</ele>
        <time>2021-05-22T06:30:25.000Z</time>
      </trkpt>
      <trkpt lat="45.19751" lon="5.72847">
        <ele>333</ele>
        <time>2021-05-22T06:30:27.000Z</time>
      </trkpt>
      <trkpt lat="45.19751" lon="5.72847">
        <ele>332.39999389648</ele>
        <time>2021-05-22T06:30:28.000Z</time>
      </trkpt>
      <trkpt lat="45.19751" lon="5.72849">
        <ele>332</ele>
        <time>2021-05-22T06:30:29.000Z</time>
      </trkpt>
      <trkpt lat="45.19752" lon="5.72852">
        <ele>331.39999389648</ele>
        <time>2021-05-22T06:30:31.000Z</time>
      </trkpt>
      <trkpt lat="45.19752" lon="5.72852">
        <ele>331.20001220703</ele>
        <time>2021-05-22T06:30:32.000Z</time>
      </trkpt>
      <trkpt lat="45.19759" lon="5.72854">
        <ele>330.20001220703</ele>
        <time>2021-05-22T06:30:35.000Z</time>
      </trkpt>
      <trkpt lat="45.19761" lon="5.72857">
        <ele>330.20001220703</ele>
        <time>2021-05-22T06:30:36.000Z</time>
      </trkpt>
      <trkpt lat="45.19763" lon="5.72859">
        <ele>329.79998779297</ele>
        <time>2021-05-22T06:30:37.000Z</time>
      </trkpt>
      <trkpt lat="45.19768" lon="5.72863">
        <ele>329</ele>
        <time>2021-05-22T06:30:39.000Z</time>
      </trkpt>
      <trkpt lat="45.19771" lon="5.72868">
        <ele>328</ele>
        <time>2021-05-22T06:30:41.000Z</time>
      </trkpt>
      <trkpt lat="45.19774" lon="5.72869">
        <ele>327.60000610352</ele>
        <time>2021-05-22T06:30:42.000Z</time>
      </trkpt>
      <trkpt lat="45.19776" lon="5.72871">
        <ele>327.39999389648</ele>
        <time>2021-05-22T06:30:43.000Z</time>
      </trkpt>
      <trkpt lat="45.1978" lon="5.72875">
        <ele>326.79998779297</ele>
        <time>2021-05-22T06:30:45.000Z</time>
      </trkpt>
      <trkpt lat="45.19781" lon="5.72879">
        <ele>326.39999389648</ele>
        <time>2021-05-22T06:30:46.000Z</time>
      </trkpt>
      <trkpt lat="45.19784" lon="5.72886">
        <ele>325.79998779297</ele>
        <time>2021-05-22T06:30:48.000Z</time>
      </trkpt>
      <trkpt lat="45.19786" lon="5.72889">
        <ele>325</ele>
        <time>2021-05-22T06:30:50.000Z</time>
      </trkpt>
      <trkpt lat="45.19794" lon="5.72897">
        <ele>323.79998779297</ele>
        <time>2021-05-22T06:30:53.000Z</time>
      </trkpt>
      <trkpt lat="45.19797" lon="5.72903">
        <ele>323</ele>
        <time>2021-05-22T06:30:55.000Z</time>
      </trkpt>
      <trkpt lat="45.19798" lon="5.72909">
        <ele>322.60000610352</ele>
        <time>2021-05-22T06:30:57.000Z</time>
      </trkpt>
      <trkpt lat="45.19797" lon="5.72909">
        <ele>322.20001220703</ele>
        <time>2021-05-22T06:30:58.000Z</time>
      </trkpt>
      <trkpt lat="45.19794" lon="5.72909">
        <ele>321.39999389648</ele>
        <time>2021-05-22T06:31:00.000Z</time>
      </trkpt>
      <trkpt lat="45.19786" lon="5.72908">
        <ele>320.39999389648</ele>
        <time>2021-05-22T06:31:03.000Z</time>
      </trkpt>
      <trkpt lat="45.19782" lon="5.72906">
        <ele>320</ele>
        <time>2021-05-22T06:31:05.000Z</time>
      </trkpt>
      <trkpt lat="45.19777" lon="5.72907">
        <ele>319</ele>
        <time>2021-05-22T06:31:07.000Z</time>
      </trkpt>
      <trkpt lat="45.19769" lon="5.72904">
        <ele>317.79998779297</ele>
        <time>2021-05-22T06:31:11.000Z</time>
      </trkpt>
      <trkpt lat="45.19761" lon="5.72902">
        <ele>316.60000610352</ele>
        <time>2021-05-22T06:31:14.000Z</time>
      </trkpt>
      <trkpt lat="45.19754" lon="5.72898">
        <ele>316</ele>
        <time>2021-05-22T06:31:16.000Z</time>
      </trkpt>
      <trkpt lat="45.19752" lon="5.72896">
        <ele>315.39999389648</ele>
        <time>2021-05-22T06:31:17.000Z</time>
      </trkpt>
      <trkpt lat="45.19747" lon="5.72892">
        <ele>314.60000610352</ele>
        <time>2021-05-22T06:31:19.000Z</time>
      </trkpt>
      <trkpt lat="45.19744" lon="5.72891">
        <ele>313.79998779297</ele>
        <time>2021-05-22T06:31:21.000Z</time>
      </trkpt>
      <trkpt lat="45.19736" lon="5.72889">
        <ele>313.20001220703</ele>
        <time>2021-05-22T06:31:23.000Z</time>
      </trkpt>
      <trkpt lat="45.19732" lon="5.72887">
        <ele>312.39999389648</ele>
        <time>2021-05-22T06:31:25.000Z</time>
      </trkpt>
      <trkpt lat="45.19724" lon="5.72881">
        <ele>311.39999389648</ele>
        <time>2021-05-22T06:31:28.000Z</time>
      </trkpt>
      <trkpt lat="45.19717" lon="5.72875">
        <ele>310.39999389648</ele>
        <time>2021-05-22T06:31:31.000Z</time>
      </trkpt>
      <trkpt lat="45.19709" lon="5.72869">
        <ele>309.20001220703</ele>
        <time>2021-05-22T06:31:34.000Z</time>
      </trkpt>
      <trkpt lat="45.19701" lon="5.72864">
        <ele>308</ele>
        <time>2021-05-22T06:31:37.000Z</time>
      </trkpt>
      <trkpt lat="45.19701" lon="5.72864">
        <ele>307.60000610352</ele>
        <time>2021-05-22T06:31:38.000Z</time>
      </trkpt>
      <trkpt lat="45.19704" lon="5.72867">
        <ele>306.60000610352</ele>
        <time>2021-05-22T06:31:41.000Z</time>
      </trkpt>
      <trkpt lat="45.19708" lon="5.72871">
        <ele>305.79998779297</ele>
        <time>2021-05-22T06:31:44.000Z</time>
      </trkpt>
      <trkpt lat="45.1971" lon="5.72871">
        <ele>305.60000610352</ele>
        <time>2021-05-22T06:31:45.000Z</time>
      </trkpt>
      <trkpt lat="45.19711" lon="5.72873">
        <ele>305.39999389648</ele>
        <time>2021-05-22T06:31:46.000Z</time>
      </trkpt>
      <trkpt lat="45.19716" lon="5.7288">
        <ele>304.20001220703</ele>
        <time>2021-05-22T06:31:49.000Z</time>
      </trkpt>
      <trkpt lat="45.19718" lon="5.72882">
        <ele>303.60000610352</ele>
        <time>2021-05-22T06:31:51.000Z</time>
      </trkpt>
      <trkpt lat="45.19722" lon="5.72886">
        <ele>303.20001220703</ele>
        <time>2021-05-22T06:31:52.000Z</time>
      </trkpt>
      <trkpt lat="45.19727" lon="5.72892">
        <ele>302.20001220703</ele>
        <time>2021-05-22T06:31:54.000Z</time>
      </trkpt>
      <trkpt lat="45.19733" lon="5.729">
        <ele>301.20001220703</ele>
        <time>2021-05-22T06:31:57.000Z</time>
      </trkpt>
      <trkpt lat="45.19735" lon="5.72902">
        <ele>300.79998779297</ele>
        <time>2021-05-22T06:31:58.000Z</time>
      </trkpt>
      <trkpt lat="45.19739" lon="5.72911">
        <ele>300.20001220703</ele>
        <time>2021-05-22T06:32:02.000Z</time>
      </trkpt>
      <trkpt lat="45.19742" lon="5.72922">
        <ele>298.79998779297</ele>
        <time>2021-05-22T06:32:05.000Z</time>
      </trkpt>
      <trkpt lat="45.19745" lon="5.72925">
        <ele>298</ele>
        <time>2021-05-22T06:32:07.000Z</time>
      </trkpt>
      <trkpt lat="45.19749" lon="5.72931">
        <ele>297.39999389648</ele>
        <time>2021-05-22T06:32:08.000Z</time>
      </trkpt>
      <trkpt lat="45.19754" lon="5.72937">
        <ele>297</ele>
        <time>2021-05-22T06:32:10.000Z</time>
      </trkpt>
      <trkpt lat="45.19758" lon="5.72943">
        <ele>296.20001220703</ele>
        <time>2021-05-22T06:32:12.000Z</time>
      </trkpt>
      <trkpt lat="45.19765" lon="5.72959">
        <ele>295.20001220703</ele>
        <time>2021-05-22T06:32:16.000Z</time>
      </trkpt>
      <trkpt lat="45.19767" lon="5.72962">
        <ele>294.39999389648</ele>
        <time>2021-05-22T06:32:17.000Z</time>
      </trkpt>
      <trkpt lat="45.19769" lon="5.72964">
        <ele>294</ele>
        <time>2021-05-22T06:32:18.000Z</time>
      </trkpt>
      <trkpt lat="45.19773" lon="5.72968">
        <ele>293.39999389648</ele>
        <time>2021-05-22T06:32:20.000Z</time>
      </trkpt>
      <trkpt lat="45.19773" lon="5.72968">
        <ele>293.20001220703</ele>
        <time>2021-05-22T06:32:21.000Z</time>
      </trkpt>
      <trkpt lat="45.19777" lon="5.72973">
        <ele>292.60000610352</ele>
        <time>2021-05-22T06:32:22.000Z</time>
      </trkpt>
      <trkpt lat="45.19782" lon="5.72976">
        <ele>291.79998779297</ele>
        <time>2021-05-22T06:32:24.000Z</time>
      </trkpt>
      <trkpt lat="45.19782" lon="5.72976">
        <ele>291.60000610352</ele>
        <time>2021-05-22T06:32:25.000Z</time>
      </trkpt>
      <trkpt lat="45.19786" lon="5.7298">
        <ele>291.20001220703</ele>
        <time>2021-05-22T06:32:26.000Z</time>
      </trkpt>
      <trkpt lat="45.19788" lon="5.72986">
        <ele>290.60000610352</ele>
        <time>2021-05-22T06:32:28.000Z</time>
      </trkpt>
      <trkpt lat="45.19788" lon="5.72988">
        <ele>290.39999389648</ele>
        <time>2021-05-22T06:32:29.000Z</time>
      </trkpt>
      <trkpt lat="45.1979" lon="5.72989">
        <ele>289.39999389648</ele>
        <time>2021-05-22T06:32:31.000Z</time>
      </trkpt>
      <trkpt lat="45.19793" lon="5.72992">
        <ele>289</ele>
        <time>2021-05-22T06:32:33.000Z</time>
      </trkpt>
      <trkpt lat="45.19798" lon="5.72995">
        <ele>288.39999389648</ele>
        <time>2021-05-22T06:32:35.000Z</time>
      </trkpt>
      <trkpt lat="45.19801" lon="5.72997">
        <ele>287.79998779297</ele>
        <time>2021-05-22T06:32:37.000Z</time>
      </trkpt>
      <trkpt lat="45.19804" lon="5.72998">
        <ele>287.39999389648</ele>
        <time>2021-05-22T06:32:38.000Z</time>
      </trkpt>
      <trkpt lat="45.19803" lon="5.72998">
        <ele>287.20001220703</ele>
        <time>2021-05-22T06:32:39.000Z</time>
      </trkpt>
      <trkpt lat="45.19801" lon="5.72998">
        <ele>286.60000610352</ele>
        <time>2021-05-22T06:32:40.000Z</time>
      </trkpt>
      <trkpt lat="45.19796" lon="5.72999">
        <ele>286</ele>
        <time>2021-05-22T06:32:42.000Z</time>
      </trkpt>
      <trkpt lat="45.1979" lon="5.72999">
        <ele>285.20001220703</ele>
        <time>2021-05-22T06:32:45.000Z</time>
      </trkpt>
      <trkpt lat="45.19785" lon="5.72997">
        <ele>284.60000610352</ele>
        <time>2021-05-22T06:32:46.000Z</time>
      </trkpt>
      <trkpt lat="45.19775" lon="5.72993">
        <ele>283.39999389648</ele>
        <time>2021-05-22T06:32:51.000Z</time>
      </trkpt>
      <trkpt lat="45.19772" lon="5.72995">
        <ele>282.60000610352</ele>
        <time>2021-05-22T06:32:53.000Z</time>
      </trkpt>
      <trkpt lat="45.19774" lon="5.72998">
        <ele>282.20001220703</ele>
        <time>2021-05-22T06:32:54.000Z</time>
      </trkpt>
      <trkpt lat="45.19778" lon="5.72998">
        <ele>281.60000610352</ele>
        <time>2021-05-22T06:32:56.000Z</time>
      </trkpt>
      <trkpt lat="45.1978" lon="5.72999">
        <ele>280.79998779297</ele>
        <time>2021-05-22T06:32:58.000Z</time>
      </trkpt>
      <trkpt lat="45.19789" lon="5.73007">
        <ele>279.79998779297</ele>
        <time>2021-05-22T06:33:02.000Z</time>
      </trkpt>
      <trkpt lat="45.19791" lon="5.73009">
        <ele>279</ele>
        <time>2021-05-22T06:33:04.000Z</time>
      </trkpt>
      <trkpt lat="45.19791" lon="5.73009">
        <ele>278.79998779297</ele>
        <time>2021-05-22T06:33:05.000Z</time>
      </trkpt>
      <trkpt lat="45.19791" lon="5.73009">
        <ele>278.60000610352</ele>
        <time>2021-05-22T06:33:06.000Z</time>
      </trkpt>
      <trkpt lat="45.19791" lon="5.73009">
        <ele>278.20001220703</ele>
        <time>2021-05-22T06:33:07.000Z</time>
      </trkpt>
      <trkpt lat="45.19794" lon="5.73015">
        <ele>277.60000610352</ele>
        <time>2021-05-22T06:33:09.000Z</time>
      </trkpt>
      <trkpt lat="45.19798" lon="5.73021">
        <ele>277.20001220703</ele>
        <time>2021-05-22T06:33:11.000Z</time>
      </trkpt>
      <trkpt lat="45.19795" lon="5.73027">
        <ele>276.20001220703</ele>
        <time>2021-05-22T06:33:13.000Z</time>
      </trkpt>
      <trkpt lat="45.19789" lon="5.73029">
        <ele>274.79998779297</ele>
        <time>2021-05-22T06:33:16.000Z</time>
      </trkpt>
      <trkpt lat="45.19784" lon="5.73031">
        <ele>273.79998779297</ele>
        <time>2021-05-22T06:33:18.000Z</time>
      </trkpt>
      <trkpt lat="45.19781" lon="5.73032">
        <ele>273.60000610352</ele>
        <time>2021-05-22T06:33:19.000Z</time>
      </trkpt>
      <trkpt lat="45.19774" lon="5.73034">
        <ele>272.39999389648</ele>
        <time>2021-05-22T06:33:23.000Z</time>
      </trkpt>
      <trkpt lat="45.19771" lon="5.73033">
        <ele>272</ele>
        <time>2021-05-22T06:33:24.000Z</time>
      </trkpt>
      <trkpt lat="45.19766" lon="5.73034">
        <ele>271.39999389648</ele>
        <time>2021-05-22T06:33:26.000Z</time>
      </trkpt>
      <trkpt lat="45.19763" lon="5.73033">
        <ele>270.39999389648</ele>
        <time>2021-05-22T06:33:28.000Z</time>
      </trkpt>
      <trkpt lat="45.1976" lon="5.73035">
        <ele>269.79998779297</ele>
        <time>2021-05-22T06:33:29.000Z</time>
      </trkpt>
      <trkpt lat="45.1976" lon="5.73038">
        <ele>269</ele>
        <time>2021-05-22T06:33:31.000Z</time>
      </trkpt>
      <trkpt lat="45.19761" lon="5.7304">
        <ele>268.79998779297</ele>
        <time>2021-05-22T06:33:32.000Z</time>
      </trkpt>
      <trkpt lat="45.19766" lon="5.73041">
        <ele>268.20001220703</ele>
        <time>2021-05-22T06:33:34.000Z</time>
      </trkpt>
      <trkpt lat="45.19769" lon="5.73041">
        <ele>267.79998779297</ele>
        <time>2021-05-22T06:33:35.000Z</time>
      </trkpt>
      <trkpt lat="45.19775" lon="5.73044">
        <ele>266.60000610352</ele>
        <time>2021-05-22T06:33:39.000Z</time>
      </trkpt>
      <trkpt lat="45.19775" lon="5.73046">
        <ele>266.60000610352</ele>
        <time>2021-05-22T06:33:40.000Z</time>
      </trkpt>
      <trkpt lat="45.19777" lon="5.73047">
        <ele>265.79998779297</ele>
        <time>2021-05-22T06:33:41.000Z</time>
      </trkpt>
      <trkpt lat="45.19778" lon="5.73048">
        <ele>265.39999389648</ele>
        <time>2021-05-22T06:33:42.000Z</time>
      </trkpt>
      <trkpt lat="45.19779" lon="5.73049">
        <ele>265.20001220703</ele>
        <time>2021-05-22T06:33:43.000Z</time>
      </trkpt>
      <trkpt lat="45.19783" lon="5.73051">
        <ele>264.39999389648</ele>
        <time>2021-05-22T06:33:46.000Z</time>
      </trkpt>
      <trkpt lat="45.19785" lon="5.73054">
        <ele>263.20001220703</ele>
        <time>2021-05-22T06:33:49.000Z</time>
      </trkpt>
      <trkpt lat="45.19779" lon="5.73057">
        <ele>262</ele>
        <time>2021-05-22T06:33:52.000Z</time>
      </trkpt>
      <trkpt lat="45.19776" lon="5.73058">
        <ele>261.20001220703</ele>
        <time>2021-05-22T06:33:55.000Z</time>
      </trkpt>
      <trkpt lat="45.19771" lon="5.73059">
        <ele>260.79998779297</ele>
        <time>2021-05-22T06:33:56.000Z</time>
      </trkpt>
      <trkpt lat="45.19769" lon="5.73058">
        <ele>260.20001220703</ele>
        <time>2021-05-22T06:33:58.000Z</time>
      </trkpt>
      <trkpt lat="45.19767" lon="5.73058">
        <ele>259.60000610352</ele>
        <time>2021-05-22T06:33:59.000Z</time>
      </trkpt>
      <trkpt lat="45.19765" lon="5.73058">
        <ele>259.20001220703</ele>
        <time>2021-05-22T06:34:00.000Z</time>
      </trkpt>
      <trkpt lat="45.19758" lon="5.7306">
        <ele>258.39999389648</ele>
        <time>2021-05-22T06:34:03.000Z</time>
      </trkpt>
      <trkpt lat="45.19755" lon="5.73063">
        <ele>257.60000610352</ele>
        <time>2021-05-22T06:34:05.000Z</time>
      </trkpt>
      <trkpt lat="45.19755" lon="5.73063">
        <ele>257.20001220703</ele>
        <time>2021-05-22T06:34:06.000Z</time>
      </trkpt>
      <trkpt lat="45.19757" lon="5.73064">
        <ele>257</ele>
        <time>2021-05-22T06:34:07.000Z</time>
      </trkpt>
      <trkpt lat="45.19759" lon="5.73066">
        <ele>256.39999389648</ele>
        <time>2021-05-22T06:34:09.000Z</time>
      </trkpt>
      <trkpt lat="45.19759" lon="5.73066">
        <ele>256</ele>
        <time>2021-05-22T06:34:10.000Z</time>
      </trkpt>
      <trkpt lat="45.19763" lon="5.73071">
        <ele>255</ele>
        <time>2021-05-22T06:34:13.000Z</time>
      </trkpt>
      <trkpt lat="45.19766" lon="5.73073">
        <ele>254.19999694824</ele>
        <time>2021-05-22T06:34:15.000Z</time>
      </trkpt>
      <trkpt lat="45.19767" lon="5.73073">
        <ele>253.80000305176</ele>
        <time>2021-05-22T06:34:16.000Z</time>
      </trkpt>
      <trkpt lat="45.1977" lon="5.73076">
        <ele>252.80000305176</ele>
        <time>2021-05-22T06:34:19.000Z</time>
      </trkpt>
      <trkpt lat="45.19771" lon="5.73077">
        <ele>252.39999389648</ele>
        <time>2021-05-22T06:34:20.000Z</time>
      </trkpt>
      <trkpt lat="45.19775" lon="5.73078">
        <ele>251.80000305176</ele>
        <time>2021-05-22T06:34:22.000Z</time>
      </trkpt>
      <trkpt lat="45.19781" lon="5.73081">
        <ele>250.80000305176</ele>
        <time>2021-05-22T06:34:25.000Z</time>
      </trkpt>
      <trkpt lat="45.19783" lon="5.73083">
        <ele>250.80000305176</ele>
        <time>2021-05-22T06:34:26.000Z</time>
      </trkpt>
      <trkpt lat="45.19784" lon="5.73086">
        <ele>250.19999694824</ele>
        <time>2021-05-22T06:34:27.000Z</time>
      </trkpt>
      <trkpt lat="45.19783" lon="5.73087">
        <ele>249.80000305176</ele>
        <time>2021-05-22T06:34:29.000Z</time>
      </trkpt>
      <trkpt lat="45.19782" lon="5.73088">
        <ele>249.60000610352</ele>
        <time>2021-05-22T06:34:30.000Z</time>
      </trkpt>
      <trkpt lat="45.19776" lon="5.73089">
        <ele>248.39999389648</ele>
        <time>2021-05-22T06:34:33.000Z</time>
      </trkpt>
      <trkpt lat="45.19775" lon="5.7309">
        <ele>247.80000305176</ele>
        <time>2021-05-22T06:34:35.000Z</time>
      </trkpt>
      <trkpt lat="45.1977" lon="5.73092">
        <ele>247.60000610352</ele>
        <time>2021-05-22T06:34:36.000Z</time>
      </trkpt>
      <trkpt lat="45.1977" lon="5.73092">
        <ele>247.19999694824</ele>
        <time>2021-05-22T06:34:37.000Z</time>
      </trkpt>
      <trkpt lat="45.1976" lon="5.73094">
        <ele>246.19999694824</ele>
        <time>2021-05-22T06:34:40.000Z</time>
      </trkpt>
      <trkpt lat="45.19758" lon="5.73094">
        <ele>245.80000305176</ele>
        <time>2021-05-22T06:34:41.000Z</time>
      </trkpt>
      <trkpt lat="45.19753" lon="5.73097">
        <ele>245</ele>
        <time>2021-05-22T06:34:43.000Z</time>
      </trkpt>
      <trkpt lat="45.19752" lon="5.731">
        <ele>244.60000610352</ele>
        <time>2021-05-22T06:34:45.000Z</time>
      </trkpt>
      <trkpt lat="45.19754" lon="5.731">
        <ele>244.19999694824</ele>
        <time>2021-05-22T06:34:46.000Z</time>
      </trkpt>
      <trkpt lat="45.19755" lon="5.73101">
        <ele>243.80000305176</ele>
        <time>2021-05-22T06:34:47.000Z</time>
      </trkpt>
      <trkpt lat="45.19761" lon="5.73103">
        <ele>243</ele>
        <time>2021-05-22T06:34:51.000Z</time>
      </trkpt>
      <trkpt lat="45.19762" lon="5.73103">
        <ele>242.39999389648</ele>
        <time>2021-05-22T06:34:52.000Z</time>
      </trkpt>
      <trkpt lat="45.19764" lon="5.73104">
        <ele>241.39999389648</ele>
        <time>2021-05-22T06:34:55.000Z</time>
      </trkpt>
      <trkpt lat="45.19834" lon="5.73105">
        <ele>239.19999694824</ele>
        <time>2021-05-22T06:35:02.000Z</time>
      </trkpt>
      <trkpt lat="45.19829" lon="5.73107">
        <ele>238.80000305176</ele>
        <time>2021-05-22T06:35:03.000Z</time>
      </trkpt>
      <trkpt lat="45.19823" lon="5.73118">
        <ele>238.39999389648</ele>
        <time>2021-05-22T06:35:04.000Z</time>
      </trkpt>
      <trkpt lat="45.19816" lon="5.73127">
        <ele>237.60000610352</ele>
        <time>2021-05-22T06:35:07.000Z</time>
      </trkpt>
      <trkpt lat="45.19809" lon="5.73132">
        <ele>237.19999694824</ele>
        <time>2021-05-22T06:35:08.000Z</time>
      </trkpt>
      <trkpt lat="45.19806" lon="5.73135">
        <ele>236.60000610352</ele>
        <time>2021-05-22T06:35:10.000Z</time>
      </trkpt>
      <trkpt lat="45.19801" lon="5.73144">
        <ele>235.80000305176</ele>
        <time>2021-05-22T06:35:11.000Z</time>
      </trkpt>
      <trkpt lat="45.19797" lon="5.73148">
        <ele>235.60000610352</ele>
        <time>2021-05-22T06:35:12.000Z</time>
      </trkpt>
      <trkpt lat="45.19797" lon="5.73148">
        <ele>235.19999694824</ele>
        <time>2021-05-22T06:35:13.000Z</time>
      </trkpt>
      <trkpt lat="45.19787" lon="5.73156">
        <ele>234</ele>
        <time>2021-05-22T06:35:15.000Z</time>
      </trkpt>
      <trkpt lat="45.19786" lon="5.73158">
        <ele>233.80000305176</ele>
        <time>2021-05-22T06:35:16.000Z</time>
      </trkpt>
      <trkpt lat="45.19785" lon="5.7316">
        <ele>233.60000610352</ele>
        <time>2021-05-22T06:35:17.000Z</time>
      </trkpt>
      <trkpt lat="45.19786" lon="5.73164">
        <ele>233</ele>
        <time>2021-05-22T06:35:18.000Z</time>
      </trkpt>
      <trkpt lat="45.19786" lon="5.73168">
        <ele>232.19999694824</ele>
        <time>2021-05-22T06:35:19.000Z</time>
      </trkpt>
      <trkpt lat="45.19786" lon="5.73172">
        <ele>231.60000610352</ele>
        <time>2021-05-22T06:35:20.000Z</time>
      </trkpt>
      <trkpt lat="45.19782" lon="5.73186">
        <ele>230.80000305176</ele>
        <time>2021-05-22T06:35:24.000Z</time>
      </trkpt>
      <trkpt lat="45.19781" lon="5.73189">
        <ele>230.60000610352</ele>
        <time>2021-05-22T06:35:25.000Z</time>
      </trkpt>
      <trkpt lat="45.19778" lon="5.732">
        <ele>230.39999389648</ele>
        <time>2021-05-22T06:35:29.000Z</time>
      </trkpt>
      <trkpt lat="45.19779" lon="5.73227">
        <ele>230.60000610352</ele>
        <time>2021-05-22T06:35:35.000Z</time>
      </trkpt>
      <trkpt lat="45.1978" lon="5.73233">
        <ele>230.80000305176</ele>
        <time>2021-05-22T06:35:37.000Z</time>
      </trkpt>
      <trkpt lat="45.1978" lon="5.73236">
        <ele>230.60000610352</ele>
        <time>2021-05-22T06:35:41.000Z</time>
      </trkpt>
      <trkpt lat="45.1978" lon="5.73236">
        <ele>230.60000610352</ele>
        <time>2021-05-22T06:35:42.000Z</time>
      </trkpt>
      <trkpt lat="45.1978" lon="5.73236">
        <ele>230.60000610352</ele>
        <time>2021-05-22T06:35:43.000Z</time>
      </trkpt>
      <trkpt lat="45.19779" lon="5.73237">
        <ele>230.60000610352</ele>
        <time>2021-05-22T06:35:47.000Z</time>
      </trkpt>
      <trkpt lat="45.1978" lon="5.73241">
        <ele>230.60000610352</ele>
        <time>2021-05-22T06:35:49.000Z</time>
      </trkpt>
      <trkpt lat="45.19779" lon="5.73243">
        <ele>230.80000305176</ele>
        <time>2021-05-22T06:35:50.000Z</time>
      </trkpt>
      <trkpt lat="45.19776" lon="5.73253">
        <ele>231.19999694824</ele>
        <time>2021-05-22T06:35:53.000Z</time>
      </trkpt>
      <trkpt lat="45.19775" lon="5.73256">
        <ele>231.39999389648</ele>
        <time>2021-05-22T06:35:54.000Z</time>
      </trkpt>
      <trkpt lat="45.19772" lon="5.73263">
        <ele>231.60000610352</ele>
        <time>2021-05-22T06:35:56.000Z</time>
      </trkpt>
      <trkpt lat="45.19767" lon="5.73275">
        <ele>232.19999694824</ele>
        <time>2021-05-22T06:36:00.000Z</time>
      </trkpt>
      <trkpt lat="45.19757" lon="5.73302">
        <ele>232.19999694824</ele>
        <time>2021-05-22T06:36:06.000Z</time>
      </trkpt>
      <trkpt lat="45.19754" lon="5.7331">
        <ele>232.39999389648</ele>
        <time>2021-05-22T06:36:08.000Z</time>
      </trkpt>
      <trkpt lat="45.19748" lon="5.73332">
        <ele>232.60000610352</ele>
        <time>2021-05-22T06:36:14.000Z</time>
      </trkpt>
      <trkpt lat="45.19745" lon="5.73343">
        <ele>232.39999389648</ele>
        <time>2021-05-22T06:36:17.000Z</time>
      </trkpt>
      <trkpt lat="45.19742" lon="5.73359">
        <ele>232.19999694824</ele>
        <time>2021-05-22T06:36:22.000Z</time>
      </trkpt>
      <trkpt lat="45.19743" lon="5.73361">
        <ele>232</ele>
        <time>2021-05-22T06:36:23.000Z</time>
      </trkpt>
      <trkpt lat="45.19747" lon="5.73363">
        <ele>231.19999694824</ele>
        <time>2021-05-22T06:36:25.000Z</time>
      </trkpt>
      <trkpt lat="45.19761" lon="5.73365">
        <ele>230.39999389648</ele>
        <time>2021-05-22T06:36:29.000Z</time>
      </trkpt>
      <trkpt lat="45.19771" lon="5.73366">
        <ele>230.19999694824</ele>
        <time>2021-05-22T06:36:33.000Z</time>
      </trkpt>
      <trkpt lat="45.19777" lon="5.73367">
        <ele>230.19999694824</ele>
        <time>2021-05-22T06:36:35.000Z</time>
      </trkpt>
      <trkpt lat="45.19779" lon="5.73368">
        <ele>230.19999694824</ele>
        <time>2021-05-22T06:36:36.000Z</time>
      </trkpt>
      <trkpt lat="45.1979" lon="5.73372">
        <ele>229.60000610352</ele>
        <time>2021-05-22T06:36:42.000Z</time>
      </trkpt>
      <trkpt lat="45.19804" lon="5.73376">
        <ele>229.80000305176</ele>
        <time>2021-05-22T06:36:47.000Z</time>
      </trkpt>
      <trkpt lat="45.19814" lon="5.73377">
        <ele>230.19999694824</ele>
        <time>2021-05-22T06:36:52.000Z</time>
      </trkpt>
      <trkpt lat="45.19823" lon="5.73379">
        <ele>230</ele>
        <time>2021-05-22T06:36:54.000Z</time>
      </trkpt>
      <trkpt lat="45.19844" lon="5.73384">
        <ele>230</ele>
        <time>2021-05-22T06:37:01.000Z</time>
      </trkpt>
      <trkpt lat="45.19862" lon="5.73389">
        <ele>229.80000305176</ele>
        <time>2021-05-22T06:37:07.000Z</time>
      </trkpt>
      <trkpt lat="45.19865" lon="5.7339">
        <ele>229.80000305176</ele>
        <time>2021-05-22T06:37:08.000Z</time>
      </trkpt>
      <trkpt lat="45.19867" lon="5.7339">
        <ele>229.80000305176</ele>
        <time>2021-05-22T06:37:09.000Z</time>
      </trkpt>
      <trkpt lat="45.19878" lon="5.73394">
        <ele>230</ele>
        <time>2021-05-22T06:37:13.000Z</time>
      </trkpt>
      <trkpt lat="45.1988" lon="5.73395">
        <ele>230</ele>
        <time>2021-05-22T06:37:15.000Z</time>
      </trkpt>
      <trkpt lat="45.1989" lon="5.73396">
        <ele>230.19999694824</ele>
        <time>2021-05-22T06:37:18.000Z</time>
      </trkpt>
      <trkpt lat="45.19895" lon="5.73396">
        <ele>230</ele>
        <time>2021-05-22T06:37:20.000Z</time>
      </trkpt>
      <trkpt lat="45.19913" lon="5.734">
        <ele>230</ele>
        <time>2021-05-22T06:37:27.000Z</time>
      </trkpt>
      <trkpt lat="45.19913" lon="5.734">
        <ele>230</ele>
        <time>2021-05-22T06:37:28.000Z</time>
      </trkpt>
      <trkpt lat="45.19932" lon="5.73405">
        <ele>230</ele>
        <time>2021-05-22T06:37:34.000Z</time>
      </trkpt>
      <trkpt lat="45.19935" lon="5.73405">
        <ele>230</ele>
        <time>2021-05-22T06:37:35.000Z</time>
      </trkpt>
      <trkpt lat="45.19953" lon="5.73412">
        <ele>230.60000610352</ele>
        <time>2021-05-22T06:37:42.000Z</time>
      </trkpt>
      <trkpt lat="45.19972" lon="5.73417">
        <ele>230.60000610352</ele>
        <time>2021-05-22T06:37:47.000Z</time>
      </trkpt>
      <trkpt lat="45.19974" lon="5.73419">
        <ele>230.60000610352</ele>
        <time>2021-05-22T06:37:48.000Z</time>
      </trkpt>
      <trkpt lat="45.19994" lon="5.73427">
        <ele>230.60000610352</ele>
        <time>2021-05-22T06:37:55.000Z</time>
      </trkpt>
      <trkpt lat="45.20009" lon="5.73433">
        <ele>230.60000610352</ele>
        <time>2021-05-22T06:38:00.000Z</time>
      </trkpt>
      <trkpt lat="45.20013" lon="5.73433">
        <ele>230.39999389648</ele>
        <time>2021-05-22T06:38:02.000Z</time>
      </trkpt>
      <trkpt lat="45.20015" lon="5.73434">
        <ele>230.39999389648</ele>
        <time>2021-05-22T06:38:03.000Z</time>
      </trkpt>
      <trkpt lat="45.20023" lon="5.73436">
        <ele>230</ele>
        <time>2021-05-22T06:38:06.000Z</time>
      </trkpt>
      <trkpt lat="45.20027" lon="5.73438">
        <ele>229.80000305176</ele>
        <time>2021-05-22T06:38:08.000Z</time>
      </trkpt>
      <trkpt lat="45.20035" lon="5.73444">
        <ele>229.80000305176</ele>
        <time>2021-05-22T06:38:11.000Z</time>
      </trkpt>
      <trkpt lat="45.20045" lon="5.73451">
        <ele>230.39999389648</ele>
        <time>2021-05-22T06:38:17.000Z</time>
      </trkpt>
      <trkpt lat="45.20051" lon="5.73458">
        <ele>230.80000305176</ele>
        <time>2021-05-22T06:38:19.000Z</time>
      </trkpt>
      <trkpt lat="45.20067" lon="5.73473">
        <ele>231.19999694824</ele>
        <time>2021-05-22T06:38:24.000Z</time>
      </trkpt>
      <trkpt lat="45.20071" lon="5.73477">
        <ele>231.19999694824</ele>
        <time>2021-05-22T06:38:25.000Z</time>
      </trkpt>
      <trkpt lat="45.20087" lon="5.73491">
        <ele>231.19999694824</ele>
        <time>2021-05-22T06:38:30.000Z</time>
      </trkpt>
      <trkpt lat="45.20095" lon="5.735">
        <ele>231</ele>
        <time>2021-05-22T06:38:33.000Z</time>
      </trkpt>
      <trkpt lat="45.20108" lon="5.73519">
        <ele>231.19999694824</ele>
        <time>2021-05-22T06:38:39.000Z</time>
      </trkpt>
      <trkpt lat="45.2011" lon="5.73522">
        <ele>231.19999694824</ele>
        <time>2021-05-22T06:38:40.000Z</time>
      </trkpt>
      <trkpt lat="45.20116" lon="5.73532">
        <ele>231.19999694824</ele>
        <time>2021-05-22T06:38:45.000Z</time>
      </trkpt>
      <trkpt lat="45.20118" lon="5.73532">
        <ele>231</ele>
        <time>2021-05-22T06:38:47.000Z</time>
      </trkpt>
      <trkpt lat="45.20119" lon="5.73532">
        <ele>231</ele>
        <time>2021-05-22T06:38:49.000Z</time>
      </trkpt>
      <trkpt lat="45.20121" lon="5.73533">
        <ele>231.19999694824</ele>
        <time>2021-05-22T06:38:50.000Z</time>
      </trkpt>
      <trkpt lat="45.20123" lon="5.73535">
        <ele>231.39999389648</ele>
        <time>2021-05-22T06:38:51.000Z</time>
      </trkpt>
      <trkpt lat="45.20129" lon="5.73542">
        <ele>231.19999694824</ele>
        <time>2021-05-22T06:38:53.000Z</time>
      </trkpt>
      <trkpt lat="45.20131" lon="5.73548">
        <ele>231.19999694824</ele>
        <time>2021-05-22T06:38:54.000Z</time>
      </trkpt>
      <trkpt lat="45.20141" lon="5.73565">
        <ele>231.19999694824</ele>
        <time>2021-05-22T06:38:59.000Z</time>
      </trkpt>
      <trkpt lat="45.20147" lon="5.73579">
        <ele>231.19999694824</ele>
        <time>2021-05-22T06:39:04.000Z</time>
      </trkpt>
      <trkpt lat="45.20158" lon="5.73602">
        <ele>231.19999694824</ele>
        <time>2021-05-22T06:39:08.000Z</time>
      </trkpt>
      <trkpt lat="45.2016" lon="5.73609">
        <ele>231.19999694824</ele>
        <time>2021-05-22T06:39:09.000Z</time>
      </trkpt>
      <trkpt lat="45.20169" lon="5.73632">
        <ele>231.19999694824</ele>
        <time>2021-05-22T06:39:15.000Z</time>
      </trkpt>
      <trkpt lat="45.20176" lon="5.73652">
        <ele>231.19999694824</ele>
        <time>2021-05-22T06:39:20.000Z</time>
      </trkpt>
      <trkpt lat="45.2018" lon="5.73666">
        <ele>231.39999389648</ele>
        <time>2021-05-22T06:39:23.000Z</time>
      </trkpt>
      <trkpt lat="45.20188" lon="5.73693">
        <ele>231.39999389648</ele>
        <time>2021-05-22T06:39:29.000Z</time>
      </trkpt>
      <trkpt lat="45.20191" lon="5.73719">
        <ele>231.19999694824</ele>
        <time>2021-05-22T06:39:35.000Z</time>
      </trkpt>
      <trkpt lat="45.20193" lon="5.73729">
        <ele>231.39999389648</ele>
        <time>2021-05-22T06:39:37.000Z</time>
      </trkpt>
      <trkpt lat="45.20197" lon="5.73754">
        <ele>231.39999389648</ele>
        <time>2021-05-22T06:39:43.000Z</time>
      </trkpt>
      <trkpt lat="45.20196" lon="5.73775">
        <ele>231.60000610352</ele>
        <time>2021-05-22T06:39:48.000Z</time>
      </trkpt>
      <trkpt lat="45.20195" lon="5.73784">
        <ele>231.60000610352</ele>
        <time>2021-05-22T06:39:50.000Z</time>
      </trkpt>
      <trkpt lat="45.20193" lon="5.73811">
        <ele>231.80000305176</ele>
        <time>2021-05-22T06:39:56.000Z</time>
      </trkpt>
      <trkpt lat="45.20193" lon="5.73815">
        <ele>231.80000305176</ele>
        <time>2021-05-22T06:39:57.000Z</time>
      </trkpt>
      <trkpt lat="45.20191" lon="5.73824">
        <ele>231.60000610352</ele>
        <time>2021-05-22T06:40:00.000Z</time>
      </trkpt>
      <trkpt lat="45.20192" lon="5.73829">
        <ele>231.19999694824</ele>
        <time>2021-05-22T06:40:02.000Z</time>
      </trkpt>
      <trkpt lat="45.20192" lon="5.73839">
        <ele>230</ele>
        <time>2021-05-22T06:40:06.000Z</time>
      </trkpt>
      <trkpt lat="45.20192" lon="5.73841">
        <ele>230</ele>
        <time>2021-05-22T06:40:07.000Z</time>
      </trkpt>
      <trkpt lat="45.20186" lon="5.73855">
        <ele>229.60000610352</ele>
        <time>2021-05-22T06:40:12.000Z</time>
      </trkpt>
      <trkpt lat="45.20178" lon="5.73868">
        <ele>229.60000610352</ele>
        <time>2021-05-22T06:40:18.000Z</time>
      </trkpt>
      <trkpt lat="45.20175" lon="5.73876">
        <ele>229.60000610352</ele>
        <time>2021-05-22T06:40:20.000Z</time>
      </trkpt>
      <trkpt lat="45.20166" lon="5.73888">
        <ele>229.80000305176</ele>
        <time>2021-05-22T06:40:24.000Z</time>
      </trkpt>
      <trkpt lat="45.20154" lon="5.73905">
        <ele>230.19999694824</ele>
        <time>2021-05-22T06:40:30.000Z</time>
      </trkpt>
      <trkpt lat="45.2015" lon="5.7391">
        <ele>230.19999694824</ele>
        <time>2021-05-22T06:40:32.000Z</time>
      </trkpt>
      <trkpt lat="45.20138" lon="5.73927">
        <ele>230.39999389648</ele>
        <time>2021-05-22T06:40:38.000Z</time>
      </trkpt>
      <trkpt lat="45.20125" lon="5.73947">
        <ele>230.60000610352</ele>
        <time>2021-05-22T06:40:45.000Z</time>
      </trkpt>
      <trkpt lat="45.2012" lon="5.73956">
        <ele>230.19999694824</ele>
        <time>2021-05-22T06:40:48.000Z</time>
      </trkpt>
      <trkpt lat="45.20116" lon="5.73963">
        <ele>230</ele>
        <time>2021-05-22T06:40:52.000Z</time>
      </trkpt>
      <trkpt lat="45.20113" lon="5.73967">
        <ele>230</ele>
        <time>2021-05-22T06:40:54.000Z</time>
      </trkpt>
      <trkpt lat="45.20109" lon="5.73969">
        <ele>229.80000305176</ele>
        <time>2021-05-22T06:40:56.000Z</time>
      </trkpt>
      <trkpt lat="45.20096" lon="5.73988">
        <ele>229.39999389648</ele>
        <time>2021-05-22T06:41:03.000Z</time>
      </trkpt>
      <trkpt lat="45.20092" lon="5.73992">
        <ele>229.19999694824</ele>
        <time>2021-05-22T06:41:05.000Z</time>
      </trkpt>
      <trkpt lat="45.20086" lon="5.74001">
        <ele>229.39999389648</ele>
        <time>2021-05-22T06:41:10.000Z</time>
      </trkpt>
      <trkpt lat="45.20081" lon="5.74009">
        <ele>229.60000610352</ele>
        <time>2021-05-22T06:41:13.000Z</time>
      </trkpt>
      <trkpt lat="45.20077" lon="5.74013">
        <ele>229.60000610352</ele>
        <time>2021-05-22T06:41:15.000Z</time>
      </trkpt>
      <trkpt lat="45.20073" lon="5.74018">
        <ele>229.60000610352</ele>
        <time>2021-05-22T06:41:17.000Z</time>
      </trkpt>
      <trkpt lat="45.20067" lon="5.74026">
        <ele>229.80000305176</ele>
        <time>2021-05-22T06:41:20.000Z</time>
      </trkpt>
      <trkpt lat="45.20063" lon="5.74031">
        <ele>230</ele>
        <time>2021-05-22T06:41:23.000Z</time>
      </trkpt>
      <trkpt lat="45.20061" lon="5.74034">
        <ele>230</ele>
        <time>2021-05-22T06:41:24.000Z</time>
      </trkpt>
      <trkpt lat="45.20054" lon="5.74045">
        <ele>230.19999694824</ele>
        <time>2021-05-22T06:41:27.000Z</time>
      </trkpt>
      <trkpt lat="45.20022" lon="5.74098">
        <ele>230.39999389648</ele>
        <time>2021-05-22T06:41:42.000Z</time>
      </trkpt>
      <trkpt lat="45.2002" lon="5.74099">
        <ele>230.60000610352</ele>
        <time>2021-05-22T06:41:43.000Z</time>
      </trkpt>
      <trkpt lat="45.20005" lon="5.74115">
        <ele>231</ele>
        <time>2021-05-22T06:41:48.000Z</time>
      </trkpt>
      <trkpt lat="45.2" lon="5.74119">
        <ele>231.39999389648</ele>
        <time>2021-05-22T06:41:50.000Z</time>
      </trkpt>
      <trkpt lat="45.19995" lon="5.74126">
        <ele>232.19999694824</ele>
        <time>2021-05-22T06:41:53.000Z</time>
      </trkpt>
      <trkpt lat="45.19991" lon="5.74128">
        <ele>232.60000610352</ele>
        <time>2021-05-22T06:41:54.000Z</time>
      </trkpt>
      <trkpt lat="45.19983" lon="5.74133">
        <ele>233.19999694824</ele>
        <time>2021-05-22T06:41:58.000Z</time>
      </trkpt>
      <trkpt lat="45.19979" lon="5.74139">
        <ele>233.19999694824</ele>
        <time>2021-05-22T06:42:00.000Z</time>
      </trkpt>
      <trkpt lat="45.19966" lon="5.74159">
        <ele>233.19999694824</ele>
        <time>2021-05-22T06:42:07.000Z</time>
      </trkpt>
      <trkpt lat="45.19964" lon="5.74161">
        <ele>233.19999694824</ele>
        <time>2021-05-22T06:42:08.000Z</time>
      </trkpt>
      <trkpt lat="45.19959" lon="5.74164">
        <ele>233.19999694824</ele>
        <time>2021-05-22T06:42:10.000Z</time>
      </trkpt>
      <trkpt lat="45.19948" lon="5.74171">
        <ele>233.39999389648</ele>
        <time>2021-05-22T06:42:14.000Z</time>
      </trkpt>
      <trkpt lat="45.1993" lon="5.74182">
        <ele>233.39999389648</ele>
        <time>2021-05-22T06:42:21.000Z</time>
      </trkpt>
      <trkpt lat="45.19927" lon="5.74184">
        <ele>233.39999389648</ele>
        <time>2021-05-22T06:42:22.000Z</time>
      </trkpt>
      <trkpt lat="45.19914" lon="5.74194">
        <ele>233.19999694824</ele>
        <time>2021-05-22T06:42:27.000Z</time>
      </trkpt>
      <trkpt lat="45.19901" lon="5.742">
        <ele>233.19999694824</ele>
        <time>2021-05-22T06:42:33.000Z</time>
      </trkpt>
      <trkpt lat="45.19893" lon="5.74204">
        <ele>233.39999389648</ele>
        <time>2021-05-22T06:42:35.000Z</time>
      </trkpt>
      <trkpt lat="45.19877" lon="5.74212">
        <ele>233.19999694824</ele>
        <time>2021-05-22T06:42:41.000Z</time>
      </trkpt>
      <trkpt lat="45.19857" lon="5.74223">
        <ele>233.19999694824</ele>
        <time>2021-05-22T06:42:47.000Z</time>
      </trkpt>
      <trkpt lat="45.1985" lon="5.74226">
        <ele>233.60000610352</ele>
        <time>2021-05-22T06:42:49.000Z</time>
      </trkpt>
      <trkpt lat="45.19836" lon="5.74234">
        <ele>233.19999694824</ele>
        <time>2021-05-22T06:42:54.000Z</time>
      </trkpt>
      <trkpt lat="45.1983" lon="5.74236">
        <ele>233.19999694824</ele>
        <time>2021-05-22T06:42:56.000Z</time>
      </trkpt>
      <trkpt lat="45.19821" lon="5.7424">
        <ele>233.19999694824</ele>
        <time>2021-05-22T06:42:59.000Z</time>
      </trkpt>
      <trkpt lat="45.19814" lon="5.74243">
        <ele>233.19999694824</ele>
        <time>2021-05-22T06:43:01.000Z</time>
      </trkpt>
      <trkpt lat="45.19811" lon="5.74243">
        <ele>233.19999694824</ele>
        <time>2021-05-22T06:43:02.000Z</time>
      </trkpt>
      <trkpt lat="45.19805" lon="5.74244">
        <ele>233.19999694824</ele>
        <time>2021-05-22T06:43:04.000Z</time>
      </trkpt>
      <trkpt lat="45.19799" lon="5.74245">
        <ele>233.19999694824</ele>
        <time>2021-05-22T06:43:06.000Z</time>
      </trkpt>
      <trkpt lat="45.19789" lon="5.74245">
        <ele>233.39999389648</ele>
        <time>2021-05-22T06:43:09.000Z</time>
      </trkpt>
      <trkpt lat="45.19786" lon="5.74246">
        <ele>233.80000305176</ele>
        <time>2021-05-22T06:43:11.000Z</time>
      </trkpt>
      <trkpt lat="45.19767" lon="5.74247">
        <ele>233.39999389648</ele>
        <time>2021-05-22T06:43:16.000Z</time>
      </trkpt>
      <trkpt lat="45.19761" lon="5.74247">
        <ele>233.19999694824</ele>
        <time>2021-05-22T06:43:18.000Z</time>
      </trkpt>
      <trkpt lat="45.19754" lon="5.74246">
        <ele>233.19999694824</ele>
        <time>2021-05-22T06:43:20.000Z</time>
      </trkpt>
      <trkpt lat="45.19741" lon="5.74247">
        <ele>233</ele>
        <time>2021-05-22T06:43:25.000Z</time>
      </trkpt>
      <trkpt lat="45.1974" lon="5.74243">
        <ele>232.60000610352</ele>
        <time>2021-05-22T06:43:27.000Z</time>
      </trkpt>
      <trkpt lat="45.19737" lon="5.74237">
        <ele>232.19999694824</ele>
        <time>2021-05-22T06:43:29.000Z</time>
      </trkpt>
      <trkpt lat="45.19733" lon="5.74224">
        <ele>231.39999389648</ele>
        <time>2021-05-22T06:43:33.000Z</time>
      </trkpt>
      <trkpt lat="45.19732" lon="5.74221">
        <ele>231.39999389648</ele>
        <time>2021-05-22T06:43:34.000Z</time>
      </trkpt>
      <trkpt lat="45.19731" lon="5.74217">
        <ele>231.19999694824</ele>
        <time>2021-05-22T06:43:35.000Z</time>
      </trkpt>
      <trkpt lat="45.1973" lon="5.74201">
        <ele>231.39999389648</ele>
        <time>2021-05-22T06:43:39.000Z</time>
      </trkpt>
      <trkpt lat="45.19727" lon="5.74194">
        <ele>231.39999389648</ele>
        <time>2021-05-22T06:43:41.000Z</time>
      </trkpt>
      <trkpt lat="45.1972" lon="5.74166">
        <ele>231.39999389648</ele>
        <time>2021-05-22T06:43:48.000Z</time>
      </trkpt>
      <trkpt lat="45.19719" lon="5.74162">
        <ele>231.60000610352</ele>
        <time>2021-05-22T06:43:49.000Z</time>
      </trkpt>
      <trkpt lat="45.19717" lon="5.74138">
        <ele>231.80000305176</ele>
        <time>2021-05-22T06:43:55.000Z</time>
      </trkpt>
      <trkpt lat="45.19714" lon="5.74121">
        <ele>231.80000305176</ele>
        <time>2021-05-22T06:43:59.000Z</time>
      </trkpt>
      <trkpt lat="45.19713" lon="5.74111">
        <ele>231.60000610352</ele>
        <time>2021-05-22T06:44:01.000Z</time>
      </trkpt>
      <trkpt lat="45.19706" lon="5.74086">
        <ele>231.60000610352</ele>
        <time>2021-05-22T06:44:06.000Z</time>
      </trkpt>
      <trkpt lat="45.19704" lon="5.74077">
        <ele>231.60000610352</ele>
        <time>2021-05-22T06:44:08.000Z</time>
      </trkpt>
      <trkpt lat="45.19699" lon="5.74049">
        <ele>231.80000305176</ele>
        <time>2021-05-22T06:44:15.000Z</time>
      </trkpt>
      <trkpt lat="45.197" lon="5.7403">
        <ele>231.80000305176</ele>
        <time>2021-05-22T06:44:20.000Z</time>
      </trkpt>
      <trkpt lat="45.19699" lon="5.74021">
        <ele>231.60000610352</ele>
        <time>2021-05-22T06:44:22.000Z</time>
      </trkpt>
      <trkpt lat="45.19697" lon="5.74011">
        <ele>231.19999694824</ele>
        <time>2021-05-22T06:44:25.000Z</time>
      </trkpt>
      <trkpt lat="45.19692" lon="5.74008">
        <ele>231.19999694824</ele>
        <time>2021-05-22T06:44:27.000Z</time>
      </trkpt>
      <trkpt lat="45.19687" lon="5.74006">
        <ele>231.19999694824</ele>
        <time>2021-05-22T06:44:29.000Z</time>
      </trkpt>
      <trkpt lat="45.19674" lon="5.74007">
        <ele>231.39999389648</ele>
        <time>2021-05-22T06:44:34.000Z</time>
      </trkpt>
      <trkpt lat="45.19667" lon="5.74006">
        <ele>231.39999389648</ele>
        <time>2021-05-22T06:44:37.000Z</time>
      </trkpt>
      <trkpt lat="45.19665" lon="5.74006">
        <ele>231.19999694824</ele>
        <time>2021-05-22T06:44:39.000Z</time>
      </trkpt>
      <trkpt lat="45.19657" lon="5.74005">
        <ele>231.19999694824</ele>
        <time>2021-05-22T06:44:42.000Z</time>
      </trkpt>
      <trkpt lat="45.19648" lon="5.74004">
        <ele>231.39999389648</ele>
        <time>2021-05-22T06:44:44.000Z</time>
      </trkpt>
      <trkpt lat="45.19637" lon="5.74006">
        <ele>231.60000610352</ele>
        <time>2021-05-22T06:44:48.000Z</time>
      </trkpt>
      <trkpt lat="45.19635" lon="5.74006">
        <ele>231.39999389648</ele>
        <time>2021-05-22T06:44:49.000Z</time>
      </trkpt>
      <trkpt lat="45.19632" lon="5.74005">
        <ele>231.39999389648</ele>
        <time>2021-05-22T06:44:50.000Z</time>
      </trkpt>
      <trkpt lat="45.19629" lon="5.73998">
        <ele>231.39999389648</ele>
        <time>2021-05-22T06:44:52.000Z</time>
      </trkpt>
      <trkpt lat="45.19629" lon="5.73979">
        <ele>231.19999694824</ele>
        <time>2021-05-22T06:44:57.000Z</time>
      </trkpt>
      <trkpt lat="45.19629" lon="5.73979">
        <ele>231.19999694824</ele>
        <time>2021-05-22T06:44:58.000Z</time>
      </trkpt>
      <trkpt lat="45.1963" lon="5.73978">
        <ele>231.19999694824</ele>
        <time>2021-05-22T06:44:59.000Z</time>
      </trkpt>
      <trkpt lat="45.19638" lon="5.73975">
        <ele>231</ele>
        <time>2021-05-22T06:45:03.000Z</time>
      </trkpt>
      <trkpt lat="45.19642" lon="5.73974">
        <ele>231</ele>
        <time>2021-05-22T06:45:05.000Z</time>
      </trkpt>
      <trkpt lat="45.19645" lon="5.73973">
        <ele>231</ele>
        <time>2021-05-22T06:45:08.000Z</time>
      </trkpt>
      <trkpt lat="45.19645" lon="5.73973">
        <ele>231</ele>
        <time>2021-05-22T06:45:09.000Z</time>
      </trkpt>
      <trkpt lat="45.19645" lon="5.73972">
        <ele>231</ele>
        <time>2021-05-22T06:45:10.000Z</time>
      </trkpt>
      <trkpt lat="45.1965" lon="5.73974">
        <ele>237.60000610352</ele>
        <time>2021-05-22T06:45:51.000Z</time>
      </trkpt>
      <trkpt lat="45.19634" lon="5.73976">
        <ele>237.80000305176</ele>
        <time>2021-05-22T06:45:52.000Z</time>
      </trkpt>
      <trkpt lat="45.19628" lon="5.7397">
        <ele>238.39999389648</ele>
        <time>2021-05-22T06:45:54.000Z</time>
      </trkpt>
      <trkpt lat="45.19633" lon="5.73973">
        <ele>239.19999694824</ele>
        <time>2021-05-22T06:45:57.000Z</time>
      </trkpt>
      <trkpt lat="45.19639" lon="5.73976">
        <ele>239.19999694824</ele>
        <time>2021-05-22T06:45:59.000Z</time>
      </trkpt>
      <trkpt lat="45.19643" lon="5.73979">
        <ele>239.19999694824</ele>
        <time>2021-05-22T06:46:01.000Z</time>
      </trkpt>
      <trkpt lat="45.19646" lon="5.73978">
        <ele>239.19999694824</ele>
        <time>2021-05-22T06:46:03.000Z</time>
      </trkpt>
      <trkpt lat="45.19648" lon="5.73979">
        <ele>239.19999694824</ele>
        <time>2021-05-22T06:46:04.000Z</time>
      </trkpt>
      <trkpt lat="45.19653" lon="5.73975">
        <ele>239.39999389648</ele>
        <time>2021-05-22T06:46:08.000Z</time>
      </trkpt>
      <trkpt lat="45.19654" lon="5.73975">
        <ele>239.39999389648</ele>
        <time>2021-05-22T06:46:09.000Z</time>
      </trkpt>
    </trkseg>
  </trk>
</gpx>